Wetterdaten: Montag, 31.07.2017
Datum Zeit Temp. A. Temp. A. max Feuchte A. Luftdruck Regen Wind Richtung Richtung Sonnenschein ET UV Solar Taupunkt Windchill Windböen
31.07.2017 00:00 15,8 °C 15,8 °C 83 % 1012,4 hPa 0,0 mm 0,7 km/h (0 Bft) NO 40 ° 0 min 0,000 mm 0,0 UV-I 0 W/m² 12,9 °C 15,8 °C 1,6 km/h (1 Bft)
31.07.2017 00:01 15,8 °C 15,8 °C 83 % 1012,4 hPa 0,0 mm 0,1 km/h (0 Bft) NO 40 ° 0 min 0,000 mm 0,0 UV-I 0 W/m² 12,9 °C 15,8 °C 1,6 km/h (1 Bft)
31.07.2017 00:03 15,9 °C 15,9 °C 81 % 1012,5 hPa 0,0 mm 0,5 km/h (0 Bft) NO 40 ° 0 min 0,000 mm 0,0 UV-I 0 W/m² 12,6 °C 15,9 °C 1,6 km/h (1 Bft)
31.07.2017 00:04 15,8 °C 15,9 °C 82 % 1012,4 hPa 0,0 mm 0,0 km/h (0 Bft) NO 40 ° 0 min 0,000 mm 0,0 UV-I 0 W/m² 12,7 °C 15,8 °C 0,0 km/h (0 Bft)
31.07.2017 00:05 15,9 °C 15,9 °C 81 % 1012,4 hPa 0,0 mm 0,0 km/h (0 Bft) NO 40 ° 0 min 0,000 mm 0,0 UV-I 0 W/m² 12,6 °C 15,9 °C 0,0 km/h (0 Bft)
31.07.2017 00:06 15,9 °C 15,9 °C 81 % 1012,4 hPa 0,0 mm 0,0 km/h (0 Bft) NO 40 ° 0 min 0,000 mm 0,0 UV-I 0 W/m² 12,6 °C 15,9 °C 0,0 km/h (0 Bft)
31.07.2017 00:07 15,9 °C 15,9 °C 80 % 1012,4 hPa 0,0 mm 0,0 km/h (0 Bft) NO 40 ° 0 min 0,000 mm 0,0 UV-I 0 W/m² 12,5 °C 15,9 °C 0,0 km/h (0 Bft)
31.07.2017 00:08 16,1 °C 16,1 °C 80 % 1012,4 hPa 0,0 mm 0,0 km/h (0 Bft) NO 40 ° 0 min 0,000 mm 0,0 UV-I 0 W/m² 12,6 °C 16,1 °C 0,0 km/h (0 Bft)
31.07.2017 00:09 16,1 °C 16,1 °C 79 % 1012,4 hPa 0,0 mm 0,0 km/h (0 Bft) NO 40 ° 0 min 0,000 mm 0,0 UV-I 0 W/m² 12,5 °C 16,1 °C 0,0 km/h (0 Bft)
31.07.2017 00:10 16,2 °C 16,2 °C 80 % 1012,4 hPa 0,0 mm 0,0 km/h (0 Bft) NO 40 ° 0 min 0,000 mm 0,0 UV-I 0 W/m² 12,7 °C 16,2 °C 0,0 km/h (0 Bft)
31.07.2017 00:11 16,2 °C 16,2 °C 79 % 1012,4 hPa 0,0 mm 0,0 km/h (0 Bft) NO 40 ° 0 min 0,000 mm 0,0 UV-I 0 W/m² 12,6 °C 16,2 °C 0,0 km/h (0 Bft)
31.07.2017 00:12 16,2 °C 16,2 °C 81 % 1012,4 hPa 0,0 mm 2,2 km/h (1 Bft) NO 40 ° 0 min 0,000 mm 0,0 UV-I 0 W/m² 12,9 °C 16,2 °C 3,2 km/h (1 Bft)
31.07.2017 00:13 16,1 °C 16,2 °C 80 % 1012,4 hPa 0,0 mm 0,8 km/h (0 Bft) NO 40 ° 0 min 0,000 mm 0,0 UV-I 0 W/m² 12,6 °C 16,1 °C 3,2 km/h (1 Bft)
31.07.2017 00:14 16,1 °C 16,1 °C 80 % 1012,4 hPa 0,0 mm 2,1 km/h (1 Bft) NO 40 ° 0 min 0,000 mm 0,0 UV-I 0 W/m² 12,6 °C 16,1 °C 3,2 km/h (1 Bft)
31.07.2017 00:15 16,2 °C 16,2 °C 79 % 1012,4 hPa 0,0 mm 2,1 km/h (1 Bft) N-NO 24 ° 0 min 0,000 mm 0,0 UV-I 0 W/m² 12,6 °C 16,2 °C 3,2 km/h (1 Bft)
31.07.2017 00:16 16,2 °C 16,3 °C 79 % 1012,4 hPa 0,0 mm 0,1 km/h (0 Bft) N-NO 24 ° 0 min 0,000 mm 0,0 UV-I 0 W/m² 12,6 °C 16,2 °C 1,6 km/h (1 Bft)
31.07.2017 00:17 16,2 °C 16,3 °C 79 % 1012,4 hPa 0,0 mm 0,0 km/h (0 Bft) N-NO 24 ° 0 min 0,000 mm 0,0 UV-I 0 W/m² 12,6 °C 16,2 °C 0,0 km/h (0 Bft)
31.07.2017 00:18 16,2 °C 16,2 °C 80 % 1012,4 hPa 0,0 mm 1,7 km/h (1 Bft) N-NO 24 ° 0 min 0,000 mm 0,0 UV-I 0 W/m² 12,7 °C 16,2 °C 4,8 km/h (1 Bft)
31.07.2017 00:19 16,1 °C 16,2 °C 79 % 1012,5 hPa 0,0 mm 1,4 km/h (1 Bft) N-NO 19 ° 0 min 0,000 mm 0,0 UV-I 0 W/m² 12,5 °C 16,1 °C 4,8 km/h (1 Bft)
31.07.2017 00:20 16,1 °C 16,1 °C 79 % 1012,5 hPa 0,0 mm 0,1 km/h (0 Bft) N-NO 19 ° 0 min 0,000 mm 0,0 UV-I 0 W/m² 12,5 °C 16,1 °C 1,6 km/h (1 Bft)
31.07.2017 00:21 16,1 °C 16,1 °C 80 % 1012,5 hPa 0,0 mm 0,7 km/h (0 Bft) N-NO 19 ° 0 min 0,000 mm 0,0 UV-I 0 W/m² 12,6 °C 16,1 °C 3,2 km/h (1 Bft)
31.07.2017 00:22 16,0 °C 16,1 °C 80 % 1012,5 hPa 0,0 mm 0,0 km/h (0 Bft) N-NO 19 ° 0 min 0,000 mm 0,0 UV-I 0 W/m² 12,5 °C 16,0 °C 0,0 km/h (0 Bft)
31.07.2017 00:23 15,9 °C 16,0 °C 80 % 1012,5 hPa 0,0 mm 0,0 km/h (0 Bft) N-NO 19 ° 0 min 0,000 mm 0,0 UV-I 0 W/m² 12,5 °C 15,9 °C 0,0 km/h (0 Bft)
31.07.2017 00:24 15,9 °C 15,9 °C 81 % 1012,5 hPa 0,0 mm 0,0 km/h (0 Bft) N-NO 19 ° 0 min 0,000 mm 0,0 UV-I 0 W/m² 12,6 °C 15,9 °C 0,0 km/h (0 Bft)
31.07.2017 00:25 15,9 °C 15,9 °C 80 % 1012,5 hPa 0,0 mm 0,0 km/h (0 Bft) N-NO 19 ° 0 min 0,000 mm 0,0 UV-I 0 W/m² 12,5 °C 15,9 °C 0,0 km/h (0 Bft)
31.07.2017 00:26 15,9 °C 15,9 °C 81 % 1012,6 hPa 0,0 mm 0,0 km/h (0 Bft) N-NO 19 ° 0 min 0,000 mm 0,0 UV-I 0 W/m² 12,6 °C 15,9 °C 0,0 km/h (0 Bft)
31.07.2017 00:27 15,8 °C 15,9 °C 81 % 1012,6 hPa 0,0 mm 0,0 km/h (0 Bft) N-NO 19 ° 0 min 0,000 mm 0,0 UV-I 0 W/m² 12,5 °C 15,8 °C 0,0 km/h (0 Bft)
31.07.2017 00:28 15,7 °C 15,8 °C 81 % 1012,5 hPa 0,0 mm 0,0 km/h (0 Bft) N-NO 19 ° 0 min 0,000 mm 0,0 UV-I 0 W/m² 12,4 °C 15,7 °C 0,0 km/h (0 Bft)
31.07.2017 00:29 15,6 °C 15,7 °C 82 % 1012,5 hPa 0,0 mm 0,0 km/h (0 Bft) N-NO 19 ° 0 min 0,000 mm 0,0 UV-I 0 W/m² 12,5 °C 15,6 °C 0,0 km/h (0 Bft)
31.07.2017 00:30 15,5 °C 15,6 °C 82 % 1012,5 hPa 0,0 mm 0,0 km/h (0 Bft) N-NO 19 ° 0 min 0,000 mm 0,0 UV-I 0 W/m² 12,4 °C 15,5 °C 0,0 km/h (0 Bft)
31.07.2017 00:31 15,4 °C 15,5 °C 82 % 1012,5 hPa 0,0 mm 0,0 km/h (0 Bft) N-NO 19 ° 0 min 0,000 mm 0,0 UV-I 0 W/m² 12,3 °C 15,4 °C 0,0 km/h (0 Bft)
31.07.2017 00:32 15,4 °C 15,4 °C 82 % 1012,5 hPa 0,0 mm 0,0 km/h (0 Bft) N-NO 19 ° 0 min 0,000 mm 0,0 UV-I 0 W/m² 12,3 °C 15,4 °C 0,0 km/h (0 Bft)
31.07.2017 00:33 15,3 °C 15,4 °C 82 % 1012,5 hPa 0,0 mm 0,0 km/h (0 Bft) N-NO 19 ° 0 min 0,000 mm 0,0 UV-I 0 W/m² 12,2 °C 15,3 °C 0,0 km/h (0 Bft)
31.07.2017 00:34 15,2 °C 15,3 °C 83 % 1012,5 hPa 0,0 mm 0,0 km/h (0 Bft) N-NO 19 ° 0 min 0,000 mm 0,0 UV-I 0 W/m² 12,3 °C 15,2 °C 0,0 km/h (0 Bft)
31.07.2017 00:35 15,2 °C 15,2 °C 83 % 1012,5 hPa 0,0 mm 1,4 km/h (1 Bft) W 273 ° 0 min 0,000 mm 0,0 UV-I 0 W/m² 12,3 °C 15,2 °C 4,8 km/h (1 Bft)
31.07.2017 00:36 15,2 °C 15,2 °C 83 % 1012,5 hPa 0,0 mm 1,5 km/h (1 Bft) W 270 ° 0 min 0,000 mm 0,0 UV-I 0 W/m² 12,3 °C 15,2 °C 6,4 km/h (2 Bft)
31.07.2017 00:37 15,1 °C 15,2 °C 83 % 1012,6 hPa 0,0 mm 1,9 km/h (1 Bft) W 270 ° 0 min 0,000 mm 0,0 UV-I 0 W/m² 12,2 °C 15,1 °C 3,2 km/h (1 Bft)
31.07.2017 00:38 15,0 °C 15,1 °C 83 % 1012,6 hPa 0,0 mm 0,3 km/h (0 Bft) W 270 ° 0 min 0,000 mm 0,0 UV-I 0 W/m² 12,1 °C 15,0 °C 1,6 km/h (1 Bft)
31.07.2017 00:39 14,9 °C 15,0 °C 84 % 1012,7 hPa 0,0 mm 1,4 km/h (1 Bft) W 270 ° 0 min 0,000 mm 0,0 UV-I 0 W/m² 12,2 °C 14,9 °C 3,2 km/h (1 Bft)
31.07.2017 00:40 14,9 °C 14,9 °C 84 % 1012,7 hPa 0,0 mm 0,3 km/h (0 Bft) W 270 ° 0 min 0,000 mm 0,0 UV-I 0 W/m² 12,2 °C 14,9 °C 1,6 km/h (1 Bft)
31.07.2017 00:41 14,9 °C 14,9 °C 85 % 1012,7 hPa 0,0 mm 1,6 km/h (1 Bft) W 275 ° 0 min 0,000 mm 0,0 UV-I 0 W/m² 12,4 °C 14,9 °C 4,8 km/h (1 Bft)
31.07.2017 00:42 14,9 °C 14,9 °C 85 % 1012,9 hPa 0,0 mm 1,5 km/h (1 Bft) W 275 ° 0 min 0,000 mm 0,0 UV-I 0 W/m² 12,4 °C 14,9 °C 3,2 km/h (1 Bft)
31.07.2017 00:43 14,9 °C 14,9 °C 85 % 1012,9 hPa 0,0 mm 4,2 km/h (1 Bft) W 274 ° 0 min 0,000 mm 0,0 UV-I 0 W/m² 12,4 °C 14,9 °C 4,8 km/h (1 Bft)
31.07.2017 00:44 14,9 °C 14,9 °C 85 % 1012,9 hPa 0,0 mm 3,6 km/h (1 Bft) W 274 ° 0 min 0,000 mm 0,0 UV-I 0 W/m² 12,4 °C 14,9 °C 4,8 km/h (1 Bft)
31.07.2017 00:45 15,0 °C 15,0 °C 85 % 1012,9 hPa 0,0 mm 3,4 km/h (1 Bft) W 276 ° 0 min 0,000 mm 0,0 UV-I 0 W/m² 12,5 °C 15,0 °C 4,8 km/h (1 Bft)
31.07.2017 00:46 15,0 °C 15,0 °C 85 % 1013,0 hPa 0,0 mm 4,9 km/h (1 Bft) W-NW 284 ° 0 min 0,000 mm 0,0 UV-I 0 W/m² 12,5 °C 15,0 °C 6,4 km/h (2 Bft)
31.07.2017 00:47 15,1 °C 15,1 °C 84 % 1013,1 hPa 0,0 mm 2,6 km/h (1 Bft) W-NW 284 ° 0 min 0,000 mm 0,0 UV-I 0 W/m² 12,4 °C 15,1 °C 3,2 km/h (1 Bft)
31.07.2017 00:48 15,1 °C 15,1 °C 84 % 1013,1 hPa 0,0 mm 1,0 km/h (0 Bft) W-NW 284 ° 0 min 0,000 mm 0,0 UV-I 0 W/m² 12,4 °C 15,1 °C 3,2 km/h (1 Bft)
31.07.2017 00:49 15,2 °C 15,2 °C 84 % 1013,1 hPa 0,0 mm 0,5 km/h (0 Bft) W-NW 284 ° 0 min 0,000 mm 0,0 UV-I 0 W/m² 12,5 °C 15,2 °C 1,6 km/h (1 Bft)
31.07.2017 00:50 15,2 °C 15,2 °C 84 % 1013,3 hPa 0,0 mm 0,6 km/h (0 Bft) W-NW 284 ° 0 min 0,000 mm 0,0 UV-I 0 W/m² 12,5 °C 15,2 °C 3,2 km/h (1 Bft)
31.07.2017 00:51 15,2 °C 15,2 °C 84 % 1013,3 hPa 0,0 mm 0,0 km/h (0 Bft) W-NW 284 ° 0 min 0,000 mm 0,0 UV-I 0 W/m² 12,5 °C 15,2 °C 0,0 km/h (0 Bft)
31.07.2017 00:52 15,2 °C 15,2 °C 84 % 1013,3 hPa 0,0 mm 1,8 km/h (1 Bft) W-SW 257 ° 0 min 0,000 mm 0,0 UV-I 0 W/m² 12,5 °C 15,2 °C 4,8 km/h (1 Bft)
31.07.2017 00:53 15,2 °C 15,2 °C 84 % 1013,4 hPa 0,0 mm 3,9 km/h (1 Bft) W 275 ° 0 min 0,000 mm 0,0 UV-I 0 W/m² 12,5 °C 15,2 °C 4,8 km/h (1 Bft)
31.07.2017 00:54 15,2 °C 15,2 °C 84 % 1013,5 hPa 0,0 mm 3,4 km/h (1 Bft) W 275 ° 0 min 0,000 mm 0,0 UV-I 0 W/m² 12,5 °C 15,2 °C 4,8 km/h (1 Bft)
31.07.2017 00:55 15,3 °C 15,3 °C 83 % 1013,6 hPa 0,0 mm 2,8 km/h (1 Bft) W 281 ° 0 min 0,000 mm 0,0 UV-I 0 W/m² 12,4 °C 15,3 °C 4,8 km/h (1 Bft)
31.07.2017 00:56 15,3 °C 15,3 °C 84 % 1013,6 hPa 0,0 mm 3,8 km/h (1 Bft) W 279 ° 0 min 0,000 mm 0,0 UV-I 0 W/m² 12,6 °C 15,3 °C 4,8 km/h (1 Bft)
31.07.2017 00:57 15,4 °C 15,4 °C 84 % 1013,6 hPa 0,0 mm 2,7 km/h (1 Bft) W 279 ° 0 min 0,000 mm 0,0 UV-I 0 W/m² 12,7 °C 15,4 °C 4,8 km/h (1 Bft)
31.07.2017 00:58 15,4 °C 15,4 °C 83 % 1013,8 hPa 0,0 mm 4,4 km/h (1 Bft) W 278 ° 0 min 0,000 mm 0,0 UV-I 0 W/m² 12,5 °C 15,4 °C 6,4 km/h (2 Bft)
31.07.2017 00:59 15,6 °C 15,6 °C 83 % 1014,0 hPa 0,0 mm 2,9 km/h (1 Bft) W 278 ° 0 min 0,000 mm 0,0 UV-I 0 W/m² 12,7 °C 15,6 °C 4,8 km/h (1 Bft)
31.07.2017 01:00 15,6 °C 15,6 °C 82 % 1014,0 hPa 0,0 mm 2,8 km/h (1 Bft) W 278 ° 0 min 0,000 mm 0,0 UV-I 0 W/m² 12,5 °C 15,6 °C 4,8 km/h (1 Bft)
31.07.2017 01:01 15,7 °C 15,7 °C 81 % 1014,0 hPa 0,0 mm 7,1 km/h (2 Bft) S-SW 198 ° 0 min 0,025 mm 0,0 UV-I 0 W/m² 12,4 °C 15,7 °C 14,5 km/h (3 Bft)
31.07.2017 01:02 15,8 °C 15,8 °C 81 % 1014,1 hPa 0,0 mm 10,9 km/h (2 Bft) SW 221 ° 0 min 0,000 mm 0,0 UV-I 0 W/m² 12,5 °C 15,8 °C 17,7 km/h (3 Bft)
31.07.2017 01:03 15,9 °C 15,9 °C 81 % 1014,1 hPa 0,0 mm 9,7 km/h (2 Bft) S-SW 204 ° 0 min 0,000 mm 0,0 UV-I 0 W/m² 12,6 °C 15,9 °C 12,9 km/h (3 Bft)
31.07.2017 01:04 15,9 °C 15,9 °C 80 % 1014,3 hPa 0,0 mm 12,8 km/h (3 Bft) S-SW 199 ° 0 min 0,000 mm 0,0 UV-I 0 W/m² 12,5 °C 15,9 °C 17,7 km/h (3 Bft)
31.07.2017 01:05 16,0 °C 16,0 °C 80 % 1014,3 hPa 0,0 mm 13,4 km/h (3 Bft) S-SW 197 ° 0 min 0,000 mm 0,0 UV-I 0 W/m² 12,5 °C 16,0 °C 16,1 km/h (3 Bft)
31.07.2017 01:06 16,0 °C 16,1 °C 79 % 1014,4 hPa 0,0 mm 11,3 km/h (2 Bft) S-SW 196 ° 0 min 0,000 mm 0,0 UV-I 0 W/m² 12,4 °C 16,0 °C 14,5 km/h (3 Bft)
31.07.2017 01:07 16,1 °C 16,1 °C 80 % 1014,4 hPa 0,0 mm 5,8 km/h (2 Bft) S 186 ° 0 min 0,000 mm 0,0 UV-I 0 W/m² 12,6 °C 16,1 °C 8,0 km/h (2 Bft)
31.07.2017 01:08 16,1 °C 16,2 °C 79 % 1014,4 hPa 0,0 mm 4,9 km/h (1 Bft) S 181 ° 0 min 0,000 mm 0,0 UV-I 0 W/m² 12,5 °C 16,1 °C 8,0 km/h (2 Bft)
31.07.2017 01:09 16,2 °C 16,2 °C 79 % 1014,5 hPa 0,0 mm 3,3 km/h (1 Bft) S-SW 207 ° 0 min 0,000 mm 0,0 UV-I 0 W/m² 12,6 °C 16,2 °C 8,0 km/h (2 Bft)
31.07.2017 01:10 16,2 °C 16,2 °C 79 % 1014,5 hPa 0,0 mm 1,9 km/h (1 Bft) W 262 ° 0 min 0,000 mm 0,0 UV-I 0 W/m² 12,6 °C 16,2 °C 4,8 km/h (1 Bft)
31.07.2017 01:11 16,3 °C 16,3 °C 79 % 1015,1 hPa 0,0 mm 10,3 km/h (2 Bft) W-NW 300 ° 0 min 0,000 mm 0,0 UV-I 0 W/m² 12,6 °C 16,3 °C 14,5 km/h (3 Bft)
31.07.2017 01:12 16,3 °C 16,3 °C 79 % 1015,6 hPa 0,0 mm 9,6 km/h (2 Bft) W-NW 288 ° 0 min 0,000 mm 0,0 UV-I 0 W/m² 12,6 °C 16,3 °C 16,1 km/h (3 Bft)
31.07.2017 01:13 16,3 °C 16,3 °C 80 % 1015,5 hPa 0,0 mm 11,1 km/h (2 Bft) W 260 ° 0 min 0,000 mm 0,0 UV-I 0 W/m² 12,8 °C 16,3 °C 16,1 km/h (3 Bft)
31.07.2017 01:14 16,3 °C 16,3 °C 79 % 1015,6 hPa 0,0 mm 14,5 km/h (3 Bft) W-SW 255 ° 0 min 0,000 mm 0,0 UV-I 0 W/m² 12,6 °C 16,3 °C 27,4 km/h (4 Bft)
31.07.2017 01:15 16,4 °C 16,4 °C 79 % 1015,5 hPa 0,0 mm 17,7 km/h (3 Bft) W-NW 296 ° 0 min 0,000 mm 0,0 UV-I 0 W/m² 12,7 °C 16,4 °C 25,7 km/h (4 Bft)
31.07.2017 01:16 16,4 °C 16,4 °C 79 % 1015,6 hPa 0,0 mm 12,8 km/h (3 Bft) W 263 ° 0 min 0,000 mm 0,0 UV-I 0 W/m² 12,7 °C 16,4 °C 24,1 km/h (4 Bft)
31.07.2017 01:17 16,6 °C 16,6 °C 79 % 1015,5 hPa 0,0 mm 15,8 km/h (3 Bft) W-NW 303 ° 0 min 0,000 mm 0,0 UV-I 0 W/m² 12,9 °C 16,6 °C 24,1 km/h (4 Bft)
31.07.2017 01:18 16,6 °C 16,6 °C 79 % 1015,5 hPa 0,0 mm 16,4 km/h (3 Bft) W 271 ° 0 min 0,000 mm 0,0 UV-I 0 W/m² 12,9 °C 16,6 °C 25,7 km/h (4 Bft)
31.07.2017 01:19 16,7 °C 16,7 °C 79 % 1015,5 hPa 0,0 mm 11,9 km/h (2 Bft) W 269 ° 0 min 0,000 mm 0,0 UV-I 0 W/m² 13,0 °C 16,7 °C 17,7 km/h (3 Bft)
31.07.2017 01:20 16,8 °C 16,8 °C 79 % 1015,5 hPa 0,0 mm 16,0 km/h (3 Bft) SW 234 ° 0 min 0,000 mm 0,0 UV-I 0 W/m² 13,1 °C 16,8 °C 20,9 km/h (4 Bft)
31.07.2017 01:21 16,8 °C 16,8 °C 79 % 1015,5 hPa 0,0 mm 14,7 km/h (3 Bft) W 275 ° 0 min 0,000 mm 0,0 UV-I 0 W/m² 13,1 °C 16,8 °C 22,5 km/h (4 Bft)
31.07.2017 01:22 16,9 °C 16,9 °C 79 % 1015,6 hPa 0,0 mm 13,0 km/h (3 Bft) W 261 ° 0 min 0,000 mm 0,0 UV-I 0 W/m² 13,2 °C 16,9 °C 19,3 km/h (3 Bft)
31.07.2017 01:23 16,9 °C 16,9 °C 79 % 1015,6 hPa 0,0 mm 15,0 km/h (3 Bft) W-SW 254 ° 0 min 0,000 mm 0,0 UV-I 0 W/m² 13,2 °C 16,9 °C 20,9 km/h (4 Bft)
31.07.2017 01:24 17,0 °C 17,0 °C 79 % 1015,8 hPa 0,0 mm 15,4 km/h (3 Bft) W-NW 284 ° 0 min 0,000 mm 0,0 UV-I 0 W/m² 13,3 °C 17,0 °C 24,1 km/h (4 Bft)
31.07.2017 01:25 17,1 °C 17,1 °C 78 % 1015,6 hPa 0,0 mm 11,9 km/h (2 Bft) W 275 ° 0 min 0,000 mm 0,0 UV-I 0 W/m² 13,2 °C 17,1 °C 24,1 km/h (4 Bft)
31.07.2017 01:26 17,1 °C 17,1 °C 78 % 1015,7 hPa 0,0 mm 11,6 km/h (2 Bft) W 275 ° 0 min 0,000 mm 0,0 UV-I 0 W/m² 13,2 °C 17,1 °C 16,1 km/h (3 Bft)
31.07.2017 01:27 17,1 °C 17,1 °C 78 % 1015,7 hPa 0,0 mm 11,5 km/h (2 Bft) NW 311 ° 0 min 0,000 mm 0,0 UV-I 0 W/m² 13,2 °C 17,1 °C 17,7 km/h (3 Bft)
31.07.2017 01:28 17,2 °C 17,2 °C 78 % 1015,7 hPa 0,0 mm 10,7 km/h (2 Bft) W 271 ° 0 min 0,000 mm 0,0 UV-I 0 W/m² 13,3 °C 17,2 °C 16,1 km/h (3 Bft)
31.07.2017 01:29 17,2 °C 17,2 °C 78 % 1015,8 hPa 0,0 mm 11,0 km/h (2 Bft) W 264 ° 0 min 0,000 mm 0,0 UV-I 0 W/m² 13,3 °C 17,2 °C 14,5 km/h (3 Bft)
31.07.2017 01:30 17,1 °C 17,2 °C 78 % 1015,8 hPa 0,0 mm 12,9 km/h (3 Bft) W 273 ° 0 min 0,000 mm 0,0 UV-I 0 W/m² 13,2 °C 17,1 °C 19,3 km/h (3 Bft)
31.07.2017 01:31 17,1 °C 17,2 °C 79 % 1015,8 hPa 0,0 mm 8,5 km/h (2 Bft) W-NW 284 ° 0 min 0,000 mm 0,0 UV-I 0 W/m² 13,4 °C 17,1 °C 14,5 km/h (3 Bft)
31.07.2017 01:32 17,1 °C 17,1 °C 79 % 1015,8 hPa 0,0 mm 8,6 km/h (2 Bft) W 261 ° 0 min 0,000 mm 0,0 UV-I 0 W/m² 13,4 °C 17,1 °C 16,1 km/h (3 Bft)
31.07.2017 01:33 17,1 °C 17,1 °C 79 % 1015,9 hPa 0,0 mm 11,4 km/h (2 Bft) W-SW 258 ° 0 min 0,000 mm 0,0 UV-I 0 W/m² 13,4 °C 17,1 °C 17,7 km/h (3 Bft)
31.07.2017 01:34 17,1 °C 17,1 °C 79 % 1015,9 hPa 0,0 mm 11,3 km/h (2 Bft) W 265 ° 0 min 0,000 mm 0,0 UV-I 0 W/m² 13,4 °C 17,1 °C 20,9 km/h (4 Bft)
31.07.2017 01:35 17,0 °C 17,1 °C 79 % 1015,9 hPa 0,0 mm 13,5 km/h (3 Bft) N 360 ° 0 min 0,000 mm 0,0 UV-I 0 W/m² 13,3 °C 17,0 °C 19,3 km/h (3 Bft)
31.07.2017 01:36 17,0 °C 17,0 °C 79 % 1015,9 hPa 0,0 mm 11,1 km/h (2 Bft) W-SW 257 ° 0 min 0,000 mm 0,0 UV-I 0 W/m² 13,3 °C 17,0 °C 16,1 km/h (3 Bft)
31.07.2017 01:37 16,9 °C 17,0 °C 79 % 1015,9 hPa 0,0 mm 7,0 km/h (2 Bft) W 275 ° 0 min 0,000 mm 0,0 UV-I 0 W/m² 13,2 °C 16,9 °C 12,9 km/h (3 Bft)
31.07.2017 01:38 16,9 °C 16,9 °C 80 % 1015,9 hPa 0,0 mm 10,0 km/h (2 Bft) W-SW 246 ° 0 min 0,000 mm 0,0 UV-I 0 W/m² 13,4 °C 16,9 °C 14,5 km/h (3 Bft)
31.07.2017 01:39 16,9 °C 16,9 °C 79 % 1015,9 hPa 0,2 mm 9,5 km/h (2 Bft) W 260 ° 0 min 0,000 mm 0,0 UV-I 0 W/m² 13,2 °C 16,9 °C 25,7 km/h (4 Bft)
31.07.2017 01:40 16,9 °C 16,9 °C 79 % 1015,9 hPa 0,0 mm 8,7 km/h (2 Bft) W 263 ° 0 min 0,000 mm 0,0 UV-I 0 W/m² 13,2 °C 16,9 °C 25,7 km/h (4 Bft)
31.07.2017 01:41 16,9 °C 16,9 °C 79 % 1015,9 hPa 0,0 mm 12,2 km/h (2 Bft) SW 230 ° 0 min 0,000 mm 0,0 UV-I 0 W/m² 13,2 °C 16,9 °C 20,9 km/h (4 Bft)
31.07.2017 01:42 16,9 °C 16,9 °C 79 % 1015,9 hPa 0,0 mm 6,2 km/h (2 Bft) W 264 ° 0 min 0,000 mm 0,0 UV-I 0 W/m² 13,2 °C 16,9 °C 11,3 km/h (2 Bft)
31.07.2017 01:43 16,9 °C 16,9 °C 79 % 1015,9 hPa 0,0 mm 8,6 km/h (2 Bft) W-SW 255 ° 0 min 0,000 mm 0,0 UV-I 0 W/m² 13,2 °C 16,9 °C 12,9 km/h (3 Bft)
31.07.2017 01:44 16,9 °C 16,9 °C 79 % 1015,8 hPa 0,0 mm 15,1 km/h (3 Bft) W-SW 249 ° 0 min 0,000 mm 0,0 UV-I 0 W/m² 13,2 °C 16,9 °C 20,9 km/h (4 Bft)
31.07.2017 01:45 16,9 °C 16,9 °C 79 % 1015,9 hPa 0,0 mm 8,6 km/h (2 Bft) S-SW 195 ° 0 min 0,000 mm 0,0 UV-I 0 W/m² 13,2 °C 16,9 °C 14,5 km/h (3 Bft)
31.07.2017 01:46 16,9 °C 16,9 °C 80 % 1015,9 hPa 0,0 mm 6,3 km/h (2 Bft) S-SW 209 ° 0 min 0,000 mm 0,0 UV-I 0 W/m² 13,4 °C 16,9 °C 12,9 km/h (3 Bft)
31.07.2017 01:47 16,9 °C 16,9 °C 79 % 1015,8 hPa 0,0 mm 6,2 km/h (2 Bft) W 265 ° 0 min 0,000 mm 0,0 UV-I 0 W/m² 13,2 °C 16,9 °C 12,9 km/h (3 Bft)
31.07.2017 01:48 16,9 °C 16,9 °C 80 % 1015,8 hPa 0,0 mm 6,8 km/h (2 Bft) S-SW 203 ° 0 min 0,000 mm 0,0 UV-I 0 W/m² 13,4 °C 16,9 °C 11,3 km/h (2 Bft)
31.07.2017 01:49 16,9 °C 16,9 °C 79 % 1015,8 hPa 0,0 mm 7,8 km/h (2 Bft) SW 215 ° 0 min 0,000 mm 0,0 UV-I 0 W/m² 13,2 °C 16,9 °C 19,3 km/h (3 Bft)
31.07.2017 01:50 16,9 °C 16,9 °C 80 % 1015,7 hPa 0,0 mm 6,0 km/h (2 Bft) W-SW 242 ° 0 min 0,000 mm 0,0 UV-I 0 W/m² 13,4 °C 16,9 °C 12,9 km/h (3 Bft)
31.07.2017 01:51 17,0 °C 17,0 °C 79 % 1015,7 hPa 0,0 mm 12,1 km/h (2 Bft) W 269 ° 0 min 0,000 mm 0,0 UV-I 0 W/m² 13,3 °C 17,0 °C 19,3 km/h (3 Bft)
31.07.2017 01:52 17,0 °C 17,0 °C 79 % 1015,7 hPa 0,0 mm 6,7 km/h (2 Bft) W-SW 247 ° 0 min 0,000 mm 0,0 UV-I 0 W/m² 13,3 °C 17,0 °C 16,1 km/h (3 Bft)
31.07.2017 01:53 17,0 °C 17,0 °C 79 % 1015,7 hPa 0,0 mm 7,6 km/h (2 Bft) W-SW 251 ° 0 min 0,000 mm 0,0 UV-I 0 W/m² 13,3 °C 17,0 °C 12,9 km/h (3 Bft)
31.07.2017 01:54 17,0 °C 17,1 °C 79 % 1015,7 hPa 0,0 mm 7,4 km/h (2 Bft) W 261 ° 0 min 0,000 mm 0,0 UV-I 0 W/m² 13,3 °C 17,0 °C 14,5 km/h (3 Bft)
31.07.2017 01:55 17,1 °C 17,1 °C 79 % 1015,7 hPa 0,0 mm 9,0 km/h (2 Bft) W 278 ° 0 min 0,000 mm 0,0 UV-I 0 W/m² 13,4 °C 17,1 °C 14,5 km/h (3 Bft)
31.07.2017 01:56 17,1 °C 17,1 °C 79 % 1015,7 hPa 0,0 mm 3,1 km/h (1 Bft) W 277 ° 0 min 0,000 mm 0,0 UV-I 0 W/m² 13,4 °C 17,1 °C 4,8 km/h (1 Bft)
31.07.2017 01:57 17,1 °C 17,1 °C 79 % 1015,6 hPa 0,0 mm 7,1 km/h (2 Bft) W 263 ° 0 min 0,000 mm 0,0 UV-I 0 W/m² 13,4 °C 17,1 °C 14,5 km/h (3 Bft)
31.07.2017 01:58 17,1 °C 17,1 °C 80 % 1015,6 hPa 0,0 mm 13,1 km/h (3 Bft) W-NW 297 ° 0 min 0,000 mm 0,0 UV-I 0 W/m² 13,6 °C 17,1 °C 17,7 km/h (3 Bft)
31.07.2017 01:59 17,1 °C 17,1 °C 79 % 1015,6 hPa 0,0 mm 4,3 km/h (1 Bft) W 273 ° 0 min 0,000 mm 0,0 UV-I 0 W/m² 13,4 °C 17,1 °C 6,4 km/h (2 Bft)
31.07.2017 02:00 17,1 °C 17,1 °C 80 % 1015,7 hPa 0,0 mm 4,2 km/h (1 Bft) W-NW 286 ° 0 min 0,000 mm 0,0 UV-I 0 W/m² 13,6 °C 17,1 °C 6,4 km/h (2 Bft)
31.07.2017 02:01 17,1 °C 17,1 °C 79 % 1015,6 hPa 0,0 mm 2,8 km/h (1 Bft) W 270 ° 0 min 0,026 mm 0,0 UV-I 0 W/m² 13,4 °C 17,1 °C 4,8 km/h (1 Bft)
31.07.2017 02:02 17,1 °C 17,1 °C 79 % 1015,5 hPa 0,0 mm 0,0 km/h (0 Bft) W 270 ° 0 min 0,000 mm 0,0 UV-I 0 W/m² 13,4 °C 17,1 °C 0,0 km/h (0 Bft)
31.07.2017 02:03 17,0 °C 17,1 °C 79 % 1015,5 hPa 0,0 mm 1,2 km/h (1 Bft) W 270 ° 0 min 0,000 mm 0,0 UV-I 0 W/m² 13,3 °C 17,0 °C 3,2 km/h (1 Bft)
31.07.2017 02:04 17,0 °C 17,1 °C 79 % 1015,4 hPa 0,0 mm 0,4 km/h (0 Bft) W-NW 287 ° 0 min 0,000 mm 0,0 UV-I 0 W/m² 13,3 °C 17,0 °C 1,6 km/h (1 Bft)
31.07.2017 02:05 17,0 °C 17,1 °C 79 % 1015,4 hPa 0,0 mm 0,8 km/h (0 Bft) SW 236 ° 0 min 0,000 mm 0,0 UV-I 0 W/m² 13,3 °C 17,0 °C 3,2 km/h (1 Bft)
31.07.2017 02:06 17,1 °C 17,1 °C 79 % 1015,4 hPa 0,0 mm 2,8 km/h (1 Bft) SW 232 ° 0 min 0,000 mm 0,0 UV-I 0 W/m² 13,4 °C 17,1 °C 4,8 km/h (1 Bft)
31.07.2017 02:07 17,1 °C 17,1 °C 78 % 1015,3 hPa 0,0 mm 1,1 km/h (1 Bft) SW 232 ° 0 min 0,000 mm 0,0 UV-I 0 W/m² 13,2 °C 17,1 °C 3,2 km/h (1 Bft)
31.07.2017 02:08 17,1 °C 17,1 °C 79 % 1015,3 hPa 0,0 mm 0,1 km/h (0 Bft) SW 232 ° 0 min 0,000 mm 0,0 UV-I 0 W/m² 13,4 °C 17,1 °C 1,6 km/h (1 Bft)
31.07.2017 02:09 17,1 °C 17,1 °C 80 % 1015,3 hPa 0,0 mm 0,3 km/h (0 Bft) SW 232 ° 0 min 0,000 mm 0,0 UV-I 0 W/m² 13,6 °C 17,1 °C 1,6 km/h (1 Bft)
31.07.2017 02:10 17,0 °C 17,1 °C 80 % 1015,3 hPa 0,0 mm 0,0 km/h (0 Bft) SW 232 ° 0 min 0,000 mm 0,0 UV-I 0 W/m² 13,5 °C 17,0 °C 0,0 km/h (0 Bft)
31.07.2017 02:11 16,9 °C 17,0 °C 80 % 1015,3 hPa 0,0 mm 0,0 km/h (0 Bft) SW 232 ° 0 min 0,000 mm 0,0 UV-I 0 W/m² 13,4 °C 16,9 °C 0,0 km/h (0 Bft)
31.07.2017 02:12 16,9 °C 16,9 °C 80 % 1015,2 hPa 0,0 mm 2,8 km/h (1 Bft) S 185 ° 0 min 0,000 mm 0,0 UV-I 0 W/m² 13,4 °C 16,9 °C 4,8 km/h (1 Bft)
31.07.2017 02:13 16,8 °C 16,9 °C 80 % 1015,2 hPa 0,0 mm 3,8 km/h (1 Bft) S-SO 157 ° 0 min 0,000 mm 0,0 UV-I 0 W/m² 13,3 °C 16,8 °C 6,4 km/h (2 Bft)
31.07.2017 02:14 16,8 °C 16,8 °C 80 % 1015,1 hPa 0,0 mm 3,5 km/h (1 Bft) S-SO 157 ° 0 min 0,000 mm 0,0 UV-I 0 W/m² 13,3 °C 16,8 °C 4,8 km/h (1 Bft)
31.07.2017 02:15 16,8 °C 16,8 °C 82 % 1015,0 hPa 0,0 mm 3,6 km/h (1 Bft) S-SO 152 ° 0 min 0,000 mm 0,0 UV-I 0 W/m² 13,7 °C 16,8 °C 4,8 km/h (1 Bft)
31.07.2017 02:16 16,7 °C 16,8 °C 82 % 1015,0 hPa 0,0 mm 3,1 km/h (1 Bft) O 98 ° 0 min 0,000 mm 0,0 UV-I 0 W/m² 13,6 °C 16,7 °C 4,8 km/h (1 Bft)
31.07.2017 02:17 16,6 °C 16,7 °C 83 % 1014,8 hPa 0,0 mm 3,6 km/h (1 Bft) O 97 ° 0 min 0,000 mm 0,0 UV-I 0 W/m² 13,7 °C 16,6 °C 4,8 km/h (1 Bft)
31.07.2017 02:18 16,5 °C 16,6 °C 83 % 1014,8 hPa 0,0 mm 1,6 km/h (1 Bft) O 97 ° 0 min 0,000 mm 0,0 UV-I 0 W/m² 13,6 °C 16,5 °C 3,2 km/h (1 Bft)
31.07.2017 02:19 16,4 °C 16,5 °C 83 % 1014,7 hPa 0,0 mm 3,4 km/h (1 Bft) O-SO 105 ° 0 min 0,000 mm 0,0 UV-I 0 W/m² 13,5 °C 16,4 °C 4,8 km/h (1 Bft)
31.07.2017 02:20 16,4 °C 16,5 °C 83 % 1014,6 hPa 0,0 mm 4,4 km/h (1 Bft) O-SO 105 ° 0 min 0,000 mm 0,0 UV-I 0 W/m² 13,5 °C 16,4 °C 4,8 km/h (1 Bft)
31.07.2017 02:21 16,4 °C 16,4 °C 85 % 1014,6 hPa 0,0 mm 4,2 km/h (1 Bft) O-SO 106 ° 0 min 0,000 mm 0,0 UV-I 0 W/m² 13,9 °C 16,4 °C 4,8 km/h (1 Bft)
31.07.2017 02:22 16,3 °C 16,4 °C 84 % 1014,5 hPa 0,0 mm 3,0 km/h (1 Bft) O-SO 106 ° 0 min 0,000 mm 0,0 UV-I 0 W/m² 13,6 °C 16,3 °C 4,8 km/h (1 Bft)
31.07.2017 02:23 16,3 °C 16,3 °C 84 % 1014,5 hPa 0,0 mm 0,7 km/h (0 Bft) O-SO 106 ° 0 min 0,000 mm 0,0 UV-I 0 W/m² 13,6 °C 16,3 °C 1,6 km/h (1 Bft)
31.07.2017 02:24 16,3 °C 16,4 °C 84 % 1014,4 hPa 0,0 mm 2,4 km/h (1 Bft) O-SO 106 ° 0 min 0,000 mm 0,0 UV-I 0 W/m² 13,6 °C 16,3 °C 4,8 km/h (1 Bft)
31.07.2017 02:25 16,3 °C 16,3 °C 85 % 1014,4 hPa 0,0 mm 3,0 km/h (1 Bft) O-SO 106 ° 0 min 0,000 mm 0,0 UV-I 0 W/m² 13,8 °C 16,3 °C 4,8 km/h (1 Bft)
31.07.2017 02:26 16,3 °C 16,3 °C 84 % 1014,4 hPa 0,0 mm 2,6 km/h (1 Bft) O-SO 106 ° 0 min 0,000 mm 0,0 UV-I 0 W/m² 13,6 °C 16,3 °C 3,2 km/h (1 Bft)
31.07.2017 02:27 16,3 °C 16,3 °C 84 % 1014,4 hPa 0,0 mm 2,1 km/h (1 Bft) O-SO 106 ° 0 min 0,000 mm 0,0 UV-I 0 W/m² 13,6 °C 16,3 °C 3,2 km/h (1 Bft)
31.07.2017 02:28 16,3 °C 16,3 °C 85 % 1014,2 hPa 0,0 mm 3,4 km/h (1 Bft) O-SO 106 ° 0 min 0,000 mm 0,0 UV-I 0 W/m² 13,8 °C 16,3 °C 4,8 km/h (1 Bft)
31.07.2017 02:29 16,2 °C 16,3 °C 85 % 1014,0 hPa 0,0 mm 3,4 km/h (1 Bft) O-NO 74 ° 0 min 0,000 mm 0,0 UV-I 0 W/m² 13,7 °C 16,2 °C 4,8 km/h (1 Bft)
31.07.2017 02:30 16,2 °C 16,3 °C 86 % 1013,9 hPa 0,0 mm 3,7 km/h (1 Bft) O-NO 75 ° 0 min 0,000 mm 0,0 UV-I 0 W/m² 13,9 °C 16,2 °C 4,8 km/h (1 Bft)
31.07.2017 02:31 16,1 °C 16,2 °C 86 % 1013,8 hPa 0,0 mm 4,1 km/h (1 Bft) O 80 ° 0 min 0,000 mm 0,0 UV-I 0 W/m² 13,8 °C 16,1 °C 9,7 km/h (2 Bft)
31.07.2017 02:32 16,0 °C 16,1 °C 87 % 1013,8 hPa 0,0 mm 1,1 km/h (1 Bft) O 80 ° 0 min 0,000 mm 0,0 UV-I 0 W/m² 13,8 °C 16,0 °C 4,8 km/h (1 Bft)
31.07.2017 02:33 15,9 °C 16,0 °C 87 % 1013,7 hPa 0,0 mm 4,9 km/h (1 Bft) O 85 ° 0 min 0,000 mm 0,0 UV-I 0 W/m² 13,7 °C 15,9 °C 11,3 km/h (2 Bft)
31.07.2017 02:34 15,9 °C 15,9 °C 87 % 1013,7 hPa 0,0 mm 7,3 km/h (2 Bft) O-NO 77 ° 0 min 0,000 mm 0,0 UV-I 0 W/m² 13,7 °C 15,9 °C 11,3 km/h (2 Bft)
31.07.2017 02:35 15,9 °C 15,9 °C 87 % 1013,7 hPa 0,0 mm 10,2 km/h (2 Bft) O 80 ° 0 min 0,000 mm 0,0 UV-I 0 W/m² 13,7 °C 15,9 °C 12,9 km/h (3 Bft)
31.07.2017 02:36 15,9 °C 15,9 °C 87 % 1013,8 hPa 0,0 mm 6,7 km/h (2 Bft) O-NO 75 ° 0 min 0,000 mm 0,0 UV-I 0 W/m² 13,7 °C 15,9 °C 11,3 km/h (2 Bft)
31.07.2017 02:37 16,1 °C 16,1 °C 86 % 1013,8 hPa 0,0 mm 10,9 km/h (2 Bft) O-NO 60 ° 0 min 0,000 mm 0,0 UV-I 0 W/m² 13,8 °C 16,1 °C 14,5 km/h (3 Bft)
31.07.2017 02:38 16,2 °C 16,2 °C 84 % 1013,7 hPa 0,0 mm 10,1 km/h (2 Bft) O-SO 107 ° 0 min 0,000 mm 0,0 UV-I 0 W/m² 13,5 °C 16,2 °C 14,5 km/h (3 Bft)
31.07.2017 02:39 16,3 °C 16,3 °C 84 % 1013,7 hPa 0,0 mm 9,5 km/h (2 Bft) NO 49 ° 0 min 0,000 mm 0,0 UV-I 0 W/m² 13,6 °C 16,3 °C 14,5 km/h (3 Bft)
31.07.2017 02:40 16,4 °C 16,4 °C 83 % 1013,9 hPa 0,0 mm 6,6 km/h (2 Bft) O-NO 75 ° 0 min 0,000 mm 0,0 UV-I 0 W/m² 13,5 °C 16,4 °C 9,7 km/h (2 Bft)
31.07.2017 02:41 16,5 °C 16,5 °C 84 % 1013,9 hPa 0,0 mm 5,2 km/h (1 Bft) O-SO 107 ° 0 min 0,000 mm 0,0 UV-I 0 W/m² 13,8 °C 16,5 °C 11,3 km/h (2 Bft)
31.07.2017 02:42 16,5 °C 16,5 °C 84 % 1014,0 hPa 0,0 mm 5,8 km/h (2 Bft) N-NO 19 ° 0 min 0,000 mm 0,0 UV-I 0 W/m² 13,8 °C 16,5 °C 9,7 km/h (2 Bft)
31.07.2017 02:43 16,6 °C 16,6 °C 83 % 1013,9 hPa 0,0 mm 7,3 km/h (2 Bft) O-NO 75 ° 0 min 0,000 mm 0,0 UV-I 0 W/m² 13,7 °C 16,6 °C 12,9 km/h (3 Bft)
31.07.2017 02:44 16,6 °C 16,6 °C 82 % 1013,8 hPa 0,0 mm 4,8 km/h (1 Bft) O-NO 78 ° 0 min 0,000 mm 0,0 UV-I 0 W/m² 13,5 °C 16,6 °C 6,4 km/h (2 Bft)
31.07.2017 02:45 16,7 °C 16,7 °C 83 % 1013,7 hPa 0,0 mm 5,1 km/h (1 Bft) O-NO 76 ° 0 min 0,000 mm 0,0 UV-I 0 W/m² 13,8 °C 16,7 °C 11,3 km/h (2 Bft)
31.07.2017 02:46 16,6 °C 16,7 °C 83 % 1013,5 hPa 0,0 mm 2,5 km/h (1 Bft) O-NO 76 ° 0 min 0,000 mm 0,0 UV-I 0 W/m² 13,7 °C 16,6 °C 4,8 km/h (1 Bft)
31.07.2017 02:47 16,6 °C 16,7 °C 83 % 1013,4 hPa 0,0 mm 5,1 km/h (1 Bft) O-NO 70 ° 0 min 0,000 mm 0,0 UV-I 0 W/m² 13,7 °C 16,6 °C 8,0 km/h (2 Bft)
31.07.2017 02:48 16,6 °C 16,6 °C 83 % 1013,4 hPa 0,0 mm 8,9 km/h (2 Bft) O-NO 74 ° 0 min 0,000 mm 0,0 UV-I 0 W/m² 13,7 °C 16,6 °C 12,9 km/h (3 Bft)
31.07.2017 02:49 16,4 °C 16,6 °C 84 % 1013,4 hPa 0,0 mm 4,5 km/h (1 Bft) O-NO 77 ° 0 min 0,000 mm 0,0 UV-I 0 W/m² 13,7 °C 16,4 °C 8,0 km/h (2 Bft)
31.07.2017 02:50 16,4 °C 16,4 °C 84 % 1013,5 hPa 0,0 mm 4,6 km/h (1 Bft) NO 45 ° 0 min 0,000 mm 0,0 UV-I 0 W/m² 13,7 °C 16,4 °C 6,4 km/h (2 Bft)
31.07.2017 02:51 16,4 °C 16,4 °C 84 % 1013,6 hPa 0,0 mm 1,4 km/h (1 Bft) NO 45 ° 0 min 0,000 mm 0,0 UV-I 0 W/m² 13,7 °C 16,4 °C 4,8 km/h (1 Bft)
31.07.2017 02:52 16,4 °C 16,4 °C 84 % 1013,7 hPa 0,0 mm 0,1 km/h (0 Bft) NO 45 ° 0 min 0,000 mm 0,0 UV-I 0 W/m² 13,7 °C 16,4 °C 1,6 km/h (1 Bft)
31.07.2017 02:53 16,4 °C 16,4 °C 84 % 1013,7 hPa 0,0 mm 2,5 km/h (1 Bft) NO 34 ° 0 min 0,000 mm 0,0 UV-I 0 W/m² 13,7 °C 16,4 °C 4,8 km/h (1 Bft)
31.07.2017 02:54 16,4 °C 16,4 °C 84 % 1013,7 hPa 0,0 mm 2,1 km/h (1 Bft) O-NO 71 ° 0 min 0,000 mm 0,0 UV-I 0 W/m² 13,7 °C 16,4 °C 4,8 km/h (1 Bft)
31.07.2017 02:55 16,4 °C 16,4 °C 84 % 1013,6 hPa 0,0 mm 0,2 km/h (0 Bft) O-NO 71 ° 0 min 0,000 mm 0,0 UV-I 0 W/m² 13,7 °C 16,4 °C 3,2 km/h (1 Bft)
31.07.2017 02:56 16,3 °C 16,4 °C 84 % 1013,5 hPa 0,0 mm 0,9 km/h (0 Bft) O-NO 71 ° 0 min 0,000 mm 0,0 UV-I 0 W/m² 13,6 °C 16,3 °C 1,6 km/h (1 Bft)
31.07.2017 02:57 16,3 °C 16,3 °C 84 % 1013,5 hPa 0,0 mm 0,1 km/h (0 Bft) O-NO 71 ° 0 min 0,000 mm 0,0 UV-I 0 W/m² 13,6 °C 16,3 °C 1,6 km/h (1 Bft)
31.07.2017 02:58 16,3 °C 16,3 °C 84 % 1013,6 hPa 0,0 mm 0,1 km/h (0 Bft) O-NO 71 ° 0 min 0,000 mm 0,0 UV-I 0 W/m² 13,6 °C 16,3 °C 1,6 km/h (1 Bft)
31.07.2017 02:59 16,3 °C 16,3 °C 84 % 1013,6 hPa 0,0 mm 0,0 km/h (0 Bft) O-NO 71 ° 0 min 0,000 mm 0,0 UV-I 0 W/m² 13,6 °C 16,3 °C 0,0 km/h (0 Bft)
31.07.2017 03:00 16,3 °C 16,3 °C 84 % 1013,6 hPa 0,0 mm 0,0 km/h (0 Bft) O-NO 71 ° 0 min 0,000 mm 0,0 UV-I 0 W/m² 13,6 °C 16,3 °C 0,0 km/h (0 Bft)
31.07.2017 03:01 16,3 °C 16,3 °C 84 % 1013,6 hPa 0,0 mm 0,0 km/h (0 Bft) O-NO 71 ° 0 min 0,025 mm 0,0 UV-I 0 W/m² 13,6 °C 16,3 °C 0,0 km/h (0 Bft)
31.07.2017 03:02 16,3 °C 16,3 °C 83 % 1013,6 hPa 0,0 mm 0,0 km/h (0 Bft) O-NO 71 ° 0 min 0,000 mm 0,0 UV-I 0 W/m² 13,4 °C 16,3 °C 0,0 km/h (0 Bft)
31.07.2017 03:03 16,3 °C 16,3 °C 84 % 1013,5 hPa 0,0 mm 0,0 km/h (0 Bft) O-NO 71 ° 0 min 0,000 mm 0,0 UV-I 0 W/m² 13,6 °C 16,3 °C 0,0 km/h (0 Bft)
31.07.2017 03:04 16,3 °C 16,3 °C 84 % 1013,5 hPa 0,0 mm 0,0 km/h (0 Bft) O-NO 71 ° 0 min 0,000 mm 0,0 UV-I 0 W/m² 13,6 °C 16,3 °C 0,0 km/h (0 Bft)
31.07.2017 03:05 16,3 °C 16,3 °C 84 % 1013,5 hPa 0,0 mm 0,0 km/h (0 Bft) O-NO 71 ° 0 min 0,000 mm 0,0 UV-I 0 W/m² 13,6 °C 16,3 °C 0,0 km/h (0 Bft)
31.07.2017 03:06 16,3 °C 16,3 °C 84 % 1013,5 hPa 0,0 mm 0,0 km/h (0 Bft) O-NO 71 ° 0 min 0,000 mm 0,0 UV-I 0 W/m² 13,6 °C 16,3 °C 0,0 km/h (0 Bft)
31.07.2017 03:07 16,3 °C 16,3 °C 84 % 1013,4 hPa 0,0 mm 0,0 km/h (0 Bft) O-NO 71 ° 0 min 0,000 mm 0,0 UV-I 0 W/m² 13,6 °C 16,3 °C 0,0 km/h (0 Bft)
31.07.2017 03:08 16,3 °C 16,3 °C 84 % 1013,4 hPa 0,0 mm 0,3 km/h (0 Bft) O-NO 71 ° 0 min 0,000 mm 0,0 UV-I 0 W/m² 13,6 °C 16,3 °C 1,6 km/h (1 Bft)
31.07.2017 03:09 16,2 °C 16,3 °C 84 % 1013,4 hPa 0,0 mm 0,0 km/h (0 Bft) O-NO 71 ° 0 min 0,000 mm 0,0 UV-I 0 W/m² 13,5 °C 16,2 °C 0,0 km/h (0 Bft)
31.07.2017 03:10 16,2 °C 16,3 °C 84 % 1013,4 hPa 0,0 mm 1,3 km/h (1 Bft) O-NO 71 ° 0 min 0,000 mm 0,0 UV-I 0 W/m² 13,5 °C 16,2 °C 3,2 km/h (1 Bft)
31.07.2017 03:11 16,2 °C 16,3 °C 85 % 1013,3 hPa 0,0 mm 3,5 km/h (1 Bft) O-NO 63 ° 0 min 0,000 mm 0,0 UV-I 0 W/m² 13,7 °C 16,2 °C 6,4 km/h (2 Bft)
31.07.2017 03:12 16,2 °C 16,2 °C 85 % 1013,4 hPa 0,0 mm 5,6 km/h (1 Bft) O-NO 65 ° 0 min 0,000 mm 0,0 UV-I 0 W/m² 13,7 °C 16,2 °C 11,3 km/h (2 Bft)
31.07.2017 03:13 16,2 °C 16,2 °C 84 % 1013,3 hPa 0,0 mm 4,8 km/h (1 Bft) O-NO 63 ° 0 min 0,000 mm 0,0 UV-I 0 W/m² 13,5 °C 16,2 °C 8,0 km/h (2 Bft)
31.07.2017 03:14 16,2 °C 16,2 °C 83 % 1013,4 hPa 0,0 mm 7,4 km/h (2 Bft) O 81 ° 0 min 0,000 mm 0,0 UV-I 0 W/m² 13,3 °C 16,2 °C 8,0 km/h (2 Bft)
31.07.2017 03:15 16,2 °C 16,3 °C 84 % 1013,4 hPa 0,0 mm 4,3 km/h (1 Bft) O-NO 57 ° 0 min 0,000 mm 0,0 UV-I 0 W/m² 13,5 °C 16,2 °C 6,4 km/h (2 Bft)
31.07.2017 03:16 16,2 °C 16,3 °C 84 % 1013,5 hPa 0,0 mm 2,4 km/h (1 Bft) O-NO 57 ° 0 min 0,000 mm 0,0 UV-I 0 W/m² 13,5 °C 16,2 °C 4,8 km/h (1 Bft)
31.07.2017 03:17 16,2 °C 16,2 °C 84 % 1013,5 hPa 0,0 mm 0,4 km/h (0 Bft) O-NO 57 ° 0 min 0,000 mm 0,0 UV-I 0 W/m² 13,5 °C 16,2 °C 1,6 km/h (1 Bft)
31.07.2017 03:18 16,2 °C 16,2 °C 84 % 1013,5 hPa 0,0 mm 0,1 km/h (0 Bft) O-NO 57 ° 0 min 0,000 mm 0,0 UV-I 0 W/m² 13,5 °C 16,2 °C 1,6 km/h (1 Bft)
31.07.2017 03:19 16,2 °C 16,2 °C 84 % 1013,6 hPa 0,0 mm 0,0 km/h (0 Bft) O-NO 57 ° 0 min 0,000 mm 0,0 UV-I 0 W/m² 13,5 °C 16,2 °C 0,0 km/h (0 Bft)
31.07.2017 03:20 16,2 °C 16,2 °C 84 % 1013,6 hPa 0,0 mm 0,0 km/h (0 Bft) O-NO 57 ° 0 min 0,000 mm 0,0 UV-I 0 W/m² 13,5 °C 16,2 °C 0,0 km/h (0 Bft)
31.07.2017 03:21 16,2 °C 16,2 °C 84 % 1013,6 hPa 0,0 mm 0,0 km/h (0 Bft) O-NO 57 ° 0 min 0,000 mm 0,0 UV-I 0 W/m² 13,5 °C 16,2 °C 0,0 km/h (0 Bft)
31.07.2017 03:22 16,1 °C 16,2 °C 85 % 1013,6 hPa 0,0 mm 0,0 km/h (0 Bft) O-NO 57 ° 0 min 0,000 mm 0,0 UV-I 0 W/m² 13,6 °C 16,1 °C 0,0 km/h (0 Bft)
31.07.2017 03:23 16,0 °C 16,1 °C 85 % 1013,5 hPa 0,0 mm 0,0 km/h (0 Bft) O-NO 57 ° 0 min 0,000 mm 0,0 UV-I 0 W/m² 13,5 °C 16,0 °C 0,0 km/h (0 Bft)
31.07.2017 03:24 16,0 °C 16,1 °C 85 % 1013,5 hPa 0,0 mm 0,0 km/h (0 Bft) O-NO 57 ° 0 min 0,000 mm 0,0 UV-I 0 W/m² 13,5 °C 16,0 °C 0,0 km/h (0 Bft)
31.07.2017 03:25 15,9 °C 16,0 °C 85 % 1013,5 hPa 0,0 mm 0,1 km/h (0 Bft) O-NO 57 ° 0 min 0,000 mm 0,0 UV-I 0 W/m² 13,4 °C 15,9 °C 1,6 km/h (1 Bft)
31.07.2017 03:26 15,9 °C 15,9 °C 86 % 1013,5 hPa 0,0 mm 1,2 km/h (1 Bft) O-NO 57 ° 0 min 0,000 mm 0,0 UV-I 0 W/m² 13,6 °C 15,9 °C 1,6 km/h (1 Bft)
31.07.2017 03:27 15,8 °C 15,9 °C 86 % 1013,5 hPa 0,0 mm 1,8 km/h (1 Bft) O-NO 57 ° 0 min 0,000 mm 0,0 UV-I 0 W/m² 13,5 °C 15,8 °C 3,2 km/h (1 Bft)
31.07.2017 03:28 15,8 °C 15,8 °C 85 % 1013,5 hPa 0,0 mm 1,6 km/h (1 Bft) O-NO 57 ° 0 min 0,000 mm 0,0 UV-I 0 W/m² 13,3 °C 15,8 °C 1,6 km/h (1 Bft)
31.07.2017 03:29 15,8 °C 15,8 °C 86 % 1013,5 hPa 0,0 mm 1,6 km/h (1 Bft) O-NO 57 ° 0 min 0,000 mm 0,0 UV-I 0 W/m² 13,5 °C 15,8 °C 1,6 km/h (1 Bft)
31.07.2017 03:30 15,7 °C 15,8 °C 87 % 1013,5 hPa 0,0 mm 0,9 km/h (0 Bft) O-NO 57 ° 0 min 0,000 mm 0,0 UV-I 0 W/m² 13,5 °C 15,7 °C 3,2 km/h (1 Bft)
31.07.2017 03:31 15,7 °C 15,7 °C 87 % 1013,4 hPa 0,0 mm 0,1 km/h (0 Bft) O-NO 57 ° 0 min 0,000 mm 0,0 UV-I 0 W/m² 13,5 °C 15,7 °C 1,6 km/h (1 Bft)
31.07.2017 03:32 15,6 °C 15,7 °C 87 % 1013,4 hPa 0,0 mm 0,0 km/h (0 Bft) O-NO 57 ° 0 min 0,000 mm 0,0 UV-I 0 W/m² 13,4 °C 15,6 °C 0,0 km/h (0 Bft)
31.07.2017 03:33 15,6 °C 15,6 °C 87 % 1013,4 hPa 0,0 mm 0,0 km/h (0 Bft) O-NO 57 ° 0 min 0,000 mm 0,0 UV-I 0 W/m² 13,4 °C 15,6 °C 0,0 km/h (0 Bft)
31.07.2017 03:34 15,6 °C 15,6 °C 87 % 1013,4 hPa 0,0 mm 1,9 km/h (1 Bft) O-NO 57 ° 0 min 0,000 mm 0,0 UV-I 0 W/m² 13,4 °C 15,6 °C 3,2 km/h (1 Bft)
31.07.2017 03:35 15,6 °C 15,6 °C 87 % 1013,3 hPa 0,0 mm 3,1 km/h (1 Bft) O-NO 57 ° 0 min 0,000 mm 0,0 UV-I 0 W/m² 13,4 °C 15,6 °C 4,8 km/h (1 Bft)
31.07.2017 03:36 15,5 °C 15,6 °C 87 % 1013,3 hPa 0,0 mm 3,6 km/h (1 Bft) O-NO 57 ° 0 min 0,000 mm 0,0 UV-I 0 W/m² 13,3 °C 15,5 °C 4,8 km/h (1 Bft)
31.07.2017 03:37 15,4 °C 15,6 °C 87 % 1013,2 hPa 0,0 mm 2,0 km/h (1 Bft) O-NO 57 ° 0 min 0,000 mm 0,0 UV-I 0 W/m² 13,2 °C 15,4 °C 3,2 km/h (1 Bft)
31.07.2017 03:38 15,4 °C 15,4 °C 87 % 1013,1 hPa 0,0 mm 2,4 km/h (1 Bft) O-NO 57 ° 0 min 0,000 mm 0,0 UV-I 0 W/m² 13,2 °C 15,4 °C 4,8 km/h (1 Bft)
31.07.2017 03:39 15,3 °C 15,4 °C 88 % 1013,2 hPa 0,0 mm 3,6 km/h (1 Bft) O-NO 57 ° 0 min 0,000 mm 0,0 UV-I 0 W/m² 13,3 °C 15,3 °C 4,8 km/h (1 Bft)
31.07.2017 03:40 15,3 °C 15,3 °C 88 % 1013,1 hPa 0,0 mm 2,9 km/h (1 Bft) O-NO 57 ° 0 min 0,000 mm 0,0 UV-I 0 W/m² 13,3 °C 15,3 °C 4,8 km/h (1 Bft)
31.07.2017 03:41 15,2 °C 15,3 °C 88 % 1013,1 hPa 0,0 mm 0,7 km/h (0 Bft) O-NO 57 ° 0 min 0,000 mm 0,0 UV-I 0 W/m² 13,2 °C 15,2 °C 3,2 km/h (1 Bft)
31.07.2017 03:42 15,2 °C 15,2 °C 88 % 1013,0 hPa 0,0 mm 0,0 km/h (0 Bft) O-NO 57 ° 0 min 0,000 mm 0,0 UV-I 0 W/m² 13,2 °C 15,2 °C 0,0 km/h (0 Bft)
31.07.2017 03:43 15,2 °C 15,2 °C 88 % 1013,0 hPa 0,0 mm 0,1 km/h (0 Bft) O-NO 57 ° 0 min 0,000 mm 0,0 UV-I 0 W/m² 13,2 °C 15,2 °C 1,6 km/h (1 Bft)
31.07.2017 03:44 15,2 °C 15,2 °C 88 % 1013,0 hPa 0,0 mm 0,7 km/h (0 Bft) O-NO 57 ° 0 min 0,000 mm 0,0 UV-I 0 W/m² 13,2 °C 15,2 °C 3,2 km/h (1 Bft)
31.07.2017 03:45 15,2 °C 15,2 °C 88 % 1013,0 hPa 0,0 mm 0,8 km/h (0 Bft) O-NO 57 ° 0 min 0,000 mm 0,0 UV-I 0 W/m² 13,2 °C 15,2 °C 3,2 km/h (1 Bft)
31.07.2017 03:46 15,2 °C 15,2 °C 88 % 1013,0 hPa 0,0 mm 0,1 km/h (0 Bft) O-NO 57 ° 0 min 0,000 mm 0,0 UV-I 0 W/m² 13,2 °C 15,2 °C 1,6 km/h (1 Bft)
31.07.2017 03:47 15,1 °C 15,2 °C 88 % 1013,0 hPa 0,0 mm 0,0 km/h (0 Bft) O-NO 57 ° 0 min 0,000 mm 0,0 UV-I 0 W/m² 13,1 °C 15,1 °C 0,0 km/h (0 Bft)
31.07.2017 03:48 15,1 °C 15,1 °C 89 % 1013,0 hPa 0,0 mm 1,2 km/h (1 Bft) O-NO 57 ° 0 min 0,000 mm 0,0 UV-I 0 W/m² 13,3 °C 15,1 °C 3,2 km/h (1 Bft)
31.07.2017 03:49 15,0 °C 15,1 °C 89 % 1013,0 hPa 0,0 mm 0,5 km/h (0 Bft) O-NO 57 ° 0 min 0,000 mm 0,0 UV-I 0 W/m² 13,2 °C 15,0 °C 1,6 km/h (1 Bft)
31.07.2017 03:50 15,0 °C 15,0 °C 89 % 1012,9 hPa 0,0 mm 0,0 km/h (0 Bft) O-NO 57 ° 0 min 0,000 mm 0,0 UV-I 0 W/m² 13,2 °C 15,0 °C 0,0 km/h (0 Bft)
31.07.2017 03:51 15,0 °C 15,0 °C 89 % 1012,9 hPa 0,0 mm 0,0 km/h (0 Bft) O-NO 57 ° 0 min 0,000 mm 0,0 UV-I 0 W/m² 13,2 °C 15,0 °C 0,0 km/h (0 Bft)
31.07.2017 03:52 15,0 °C 15,0 °C 89 % 1012,8 hPa 0,0 mm 0,0 km/h (0 Bft) O-NO 57 ° 0 min 0,000 mm 0,0 UV-I 0 W/m² 13,2 °C 15,0 °C 0,0 km/h (0 Bft)
31.07.2017 03:53 15,1 °C 15,1 °C 88 % 1012,8 hPa 0,0 mm 0,1 km/h (0 Bft) O-NO 57 ° 0 min 0,000 mm 0,0 UV-I 0 W/m² 13,1 °C 15,1 °C 1,6 km/h (1 Bft)
31.07.2017 03:54 15,0 °C 15,1 °C 88 % 1012,8 hPa 0,0 mm 0,0 km/h (0 Bft) O-NO 57 ° 0 min 0,000 mm 0,0 UV-I 0 W/m² 13,0 °C 15,0 °C 0,0 km/h (0 Bft)
31.07.2017 03:55 15,1 °C 15,1 °C 88 % 1012,8 hPa 0,0 mm 0,0 km/h (0 Bft) O-NO 57 ° 0 min 0,000 mm 0,0 UV-I 0 W/m² 13,1 °C 15,1 °C 0,0 km/h (0 Bft)
31.07.2017 03:56 15,1 °C 15,1 °C 88 % 1012,8 hPa 0,0 mm 0,0 km/h (0 Bft) O-NO 57 ° 0 min 0,000 mm 0,0 UV-I 0 W/m² 13,1 °C 15,1 °C 0,0 km/h (0 Bft)
31.07.2017 03:57 15,1 °C 15,1 °C 88 % 1012,8 hPa 0,0 mm 0,0 km/h (0 Bft) O-NO 57 ° 0 min 0,000 mm 0,0 UV-I 0 W/m² 13,1 °C 15,1 °C 0,0 km/h (0 Bft)
31.07.2017 03:58 15,1 °C 15,1 °C 88 % 1012,8 hPa 0,0 mm 0,0 km/h (0 Bft) O-NO 57 ° 0 min 0,000 mm 0,0 UV-I 0 W/m² 13,1 °C 15,1 °C 0,0 km/h (0 Bft)
31.07.2017 03:59 15,1 °C 15,1 °C 88 % 1012,8 hPa 0,0 mm 0,4 km/h (0 Bft) O-NO 57 ° 0 min 0,000 mm 0,0 UV-I 0 W/m² 13,1 °C 15,1 °C 1,6 km/h (1 Bft)
31.07.2017 04:00 15,1 °C 15,1 °C 89 % 1012,8 hPa 0,0 mm 1,7 km/h (1 Bft) O-NO 57 ° 0 min 0,000 mm 0,0 UV-I 0 W/m² 13,3 °C 15,1 °C 3,2 km/h (1 Bft)
31.07.2017 04:01 15,1 °C 15,1 °C 89 % 1012,9 hPa 0,0 mm 1,7 km/h (1 Bft) O-NO 57 ° 0 min 0,026 mm 0,0 UV-I 0 W/m² 13,3 °C 15,1 °C 3,2 km/h (1 Bft)
31.07.2017 04:02 15,1 °C 15,1 °C 88 % 1012,9 hPa 0,0 mm 0,1 km/h (0 Bft) O-NO 57 ° 0 min 0,000 mm 0,0 UV-I 0 W/m² 13,1 °C 15,1 °C 1,6 km/h (1 Bft)
31.07.2017 04:03 15,0 °C 15,1 °C 89 % 1012,9 hPa 0,0 mm 0,0 km/h (0 Bft) O-NO 57 ° 0 min 0,000 mm 0,0 UV-I 0 W/m² 13,2 °C 15,0 °C 0,0 km/h (0 Bft)
31.07.2017 04:04 14,9 °C 15,0 °C 89 % 1013,0 hPa 0,0 mm 0,0 km/h (0 Bft) O-NO 57 ° 0 min 0,000 mm 0,0 UV-I 0 W/m² 13,1 °C 14,9 °C 0,0 km/h (0 Bft)
31.07.2017 04:05 14,9 °C 14,9 °C 89 % 1012,9 hPa 0,0 mm 0,1 km/h (0 Bft) O-NO 57 ° 0 min 0,000 mm 0,0 UV-I 0 W/m² 13,1 °C 14,9 °C 1,6 km/h (1 Bft)
31.07.2017 04:06 14,9 °C 14,9 °C 89 % 1012,9 hPa 0,0 mm 1,3 km/h (1 Bft) O-NO 57 ° 0 min 0,000 mm 0,0 UV-I 0 W/m² 13,1 °C 14,9 °C 1,6 km/h (1 Bft)
31.07.2017 04:07 14,9 °C 14,9 °C 89 % 1012,9 hPa 0,0 mm 1,4 km/h (1 Bft) O-NO 57 ° 0 min 0,000 mm 0,0 UV-I 0 W/m² 13,1 °C 14,9 °C 3,2 km/h (1 Bft)
31.07.2017 04:08 14,9 °C 14,9 °C 89 % 1012,9 hPa 0,0 mm 0,9 km/h (0 Bft) O-NO 57 ° 0 min 0,000 mm 0,0 UV-I 0 W/m² 13,1 °C 14,9 °C 1,6 km/h (1 Bft)
31.07.2017 04:09 14,9 °C 14,9 °C 89 % 1013,0 hPa 0,0 mm 0,0 km/h (0 Bft) O-NO 57 ° 0 min 0,000 mm 0,0 UV-I 0 W/m² 13,1 °C 14,9 °C 0,0 km/h (0 Bft)
31.07.2017 04:10 14,8 °C 14,9 °C 89 % 1013,0 hPa 0,0 mm 0,0 km/h (0 Bft) O-NO 57 ° 0 min 0,000 mm 0,0 UV-I 0 W/m² 13,0 °C 14,8 °C 0,0 km/h (0 Bft)
31.07.2017 04:11 14,7 °C 14,8 °C 89 % 1012,9 hPa 0,0 mm 0,0 km/h (0 Bft) O-NO 57 ° 0 min 0,000 mm 0,0 UV-I 0 W/m² 12,9 °C 14,7 °C 0,0 km/h (0 Bft)
31.07.2017 04:12 14,7 °C 14,8 °C 89 % 1012,9 hPa 0,0 mm 0,9 km/h (0 Bft) O-NO 57 ° 0 min 0,000 mm 0,0 UV-I 0 W/m² 12,9 °C 14,7 °C 4,8 km/h (1 Bft)
31.07.2017 04:13 14,7 °C 14,7 °C 90 % 1012,8 hPa 0,0 mm 2,3 km/h (1 Bft) O-NO 57 ° 0 min 0,000 mm 0,0 UV-I 0 W/m² 13,1 °C 14,7 °C 4,8 km/h (1 Bft)
31.07.2017 04:14 14,7 °C 14,7 °C 90 % 1012,8 hPa 0,0 mm 2,1 km/h (1 Bft) O-NO 57 ° 0 min 0,000 mm 0,0 UV-I 0 W/m² 13,1 °C 14,7 °C 3,2 km/h (1 Bft)
31.07.2017 04:15 14,7 °C 14,7 °C 90 % 1012,7 hPa 0,0 mm 0,7 km/h (0 Bft) O-NO 57 ° 0 min 0,000 mm 0,0 UV-I 0 W/m² 13,1 °C 14,7 °C 3,2 km/h (1 Bft)
31.07.2017 04:16 14,7 °C 14,7 °C 90 % 1012,7 hPa 0,0 mm 0,1 km/h (0 Bft) O-NO 57 ° 0 min 0,000 mm 0,0 UV-I 0 W/m² 13,1 °C 14,7 °C 1,6 km/h (1 Bft)
31.07.2017 04:17 14,7 °C 14,7 °C 90 % 1012,8 hPa 0,0 mm 0,0 km/h (0 Bft) O-NO 57 ° 0 min 0,000 mm 0,0 UV-I 0 W/m² 13,1 °C 14,7 °C 0,0 km/h (0 Bft)
31.07.2017 04:18 14,7 °C 14,7 °C 90 % 1012,7 hPa 0,0 mm 0,0 km/h (0 Bft) O-NO 57 ° 0 min 0,000 mm 0,0 UV-I 0 W/m² 13,1 °C 14,7 °C 0,0 km/h (0 Bft)
31.07.2017 04:19 14,7 °C 14,7 °C 90 % 1012,7 hPa 0,0 mm 0,0 km/h (0 Bft) O-NO 57 ° 0 min 0,000 mm 0,0 UV-I 0 W/m² 13,1 °C 14,7 °C 0,0 km/h (0 Bft)
31.07.2017 04:20 14,7 °C 14,7 °C 89 % 1012,7 hPa 0,0 mm 0,0 km/h (0 Bft) O-NO 57 ° 0 min 0,000 mm 0,0 UV-I 0 W/m² 12,9 °C 14,7 °C 0,0 km/h (0 Bft)
31.07.2017 04:21 14,6 °C 14,7 °C 89 % 1012,7 hPa 0,0 mm 0,0 km/h (0 Bft) O-NO 57 ° 0 min 0,000 mm 0,0 UV-I 0 W/m² 12,8 °C 14,6 °C 0,0 km/h (0 Bft)
31.07.2017 04:22 14,5 °C 14,6 °C 89 % 1012,8 hPa 0,0 mm 0,3 km/h (0 Bft) O-NO 57 ° 0 min 0,000 mm 0,0 UV-I 0 W/m² 12,7 °C 14,5 °C 1,6 km/h (1 Bft)
31.07.2017 04:23 14,4 °C 14,5 °C 90 % 1012,8 hPa 0,0 mm 0,0 km/h (0 Bft) O-NO 57 ° 0 min 0,000 mm 0,0 UV-I 0 W/m² 12,8 °C 14,4 °C 0,0 km/h (0 Bft)
31.07.2017 04:24 14,4 °C 14,4 °C 90 % 1012,9 hPa 0,0 mm 0,0 km/h (0 Bft) O-NO 57 ° 0 min 0,000 mm 0,0 UV-I 0 W/m² 12,8 °C 14,4 °C 0,0 km/h (0 Bft)
31.07.2017 04:25 14,4 °C 14,4 °C 90 % 1012,9 hPa 0,0 mm 0,0 km/h (0 Bft) O-NO 57 ° 0 min 0,000 mm 0,0 UV-I 0 W/m² 12,8 °C 14,4 °C 0,0 km/h (0 Bft)
31.07.2017 04:26 14,4 °C 14,4 °C 90 % 1012,9 hPa 0,0 mm 0,2 km/h (0 Bft) O-NO 57 ° 0 min 0,000 mm 0,0 UV-I 0 W/m² 12,8 °C 14,4 °C 1,6 km/h (1 Bft)
31.07.2017 04:27 14,4 °C 14,4 °C 90 % 1012,9 hPa 0,0 mm 2,2 km/h (1 Bft) O-NO 57 ° 0 min 0,000 mm 0,0 UV-I 0 W/m² 12,8 °C 14,4 °C 3,2 km/h (1 Bft)
31.07.2017 04:28 14,4 °C 14,4 °C 90 % 1012,9 hPa 0,0 mm 0,4 km/h (0 Bft) O-NO 57 ° 0 min 0,000 mm 0,0 UV-I 0 W/m² 12,8 °C 14,4 °C 1,6 km/h (1 Bft)
31.07.2017 04:29 14,4 °C 14,4 °C 90 % 1012,9 hPa 0,0 mm 0,0 km/h (0 Bft) O-NO 57 ° 0 min 0,000 mm 0,0 UV-I 0 W/m² 12,8 °C 14,4 °C 0,0 km/h (0 Bft)
31.07.2017 04:30 14,5 °C 14,5 °C 90 % 1013,0 hPa 0,0 mm 0,7 km/h (0 Bft) O-NO 57 ° 0 min 0,000 mm 0,0 UV-I 0 W/m² 12,9 °C 14,5 °C 1,6 km/h (1 Bft)
31.07.2017 04:31 14,5 °C 14,6 °C 90 % 1013,0 hPa 0,0 mm 0,0 km/h (0 Bft) O-NO 57 ° 0 min 0,000 mm 0,0 UV-I 0 W/m² 12,9 °C 14,5 °C 0,0 km/h (0 Bft)
31.07.2017 04:32 14,6 °C 14,6 °C 90 % 1013,0 hPa 0,0 mm 0,0 km/h (0 Bft) O-NO 57 ° 0 min 0,000 mm 0,0 UV-I 0 W/m² 13,0 °C 14,6 °C 0,0 km/h (0 Bft)
31.07.2017 04:33 14,5 °C 14,6 °C 89 % 1012,9 hPa 0,0 mm 0,0 km/h (0 Bft) O-NO 57 ° 0 min 0,000 mm 0,0 UV-I 0 W/m² 12,7 °C 14,5 °C 0,0 km/h (0 Bft)
31.07.2017 04:34 14,5 °C 14,5 °C 90 % 1012,9 hPa 0,0 mm 0,0 km/h (0 Bft) O-NO 57 ° 0 min 0,000 mm 0,0 UV-I 0 W/m² 12,9 °C 14,5 °C 0,0 km/h (0 Bft)
31.07.2017 04:35 14,5 °C 14,5 °C 90 % 1012,9 hPa 0,0 mm 1,1 km/h (1 Bft) O-NO 57 ° 0 min 0,000 mm 0,0 UV-I 0 W/m² 12,9 °C 14,5 °C 3,2 km/h (1 Bft)
31.07.2017 04:36 14,6 °C 14,6 °C 90 % 1013,0 hPa 0,0 mm 0,9 km/h (0 Bft) O-NO 57 ° 0 min 0,000 mm 0,0 UV-I 0 W/m² 13,0 °C 14,6 °C 3,2 km/h (1 Bft)
31.07.2017 04:37 14,6 °C 14,6 °C 90 % 1013,0 hPa 0,0 mm 1,2 km/h (1 Bft) O-NO 57 ° 0 min 0,000 mm 0,0 UV-I 0 W/m² 13,0 °C 14,6 °C 1,6 km/h (1 Bft)
31.07.2017 04:38 14,5 °C 14,6 °C 90 % 1013,0 hPa 0,0 mm 0,5 km/h (0 Bft) O-NO 57 ° 0 min 0,000 mm 0,0 UV-I 0 W/m² 12,9 °C 14,5 °C 1,6 km/h (1 Bft)
31.07.2017 04:39 14,5 °C 14,5 °C 89 % 1013,0 hPa 0,0 mm 1,5 km/h (1 Bft) O-NO 57 ° 0 min 0,000 mm 0,0 UV-I 0 W/m² 12,7 °C 14,5 °C 3,2 km/h (1 Bft)
31.07.2017 04:40 14,4 °C 14,5 °C 90 % 1013,0 hPa 0,0 mm 0,1 km/h (0 Bft) O-NO 57 ° 0 min 0,000 mm 0,0 UV-I 0 W/m² 12,8 °C 14,4 °C 1,6 km/h (1 Bft)
31.07.2017 04:41 14,5 °C 14,5 °C 89 % 1013,0 hPa 0,0 mm 0,0 km/h (0 Bft) O-NO 57 ° 0 min 0,000 mm 0,0 UV-I 0 W/m² 12,7 °C 14,5 °C 0,0 km/h (0 Bft)
31.07.2017 04:42 14,4 °C 14,5 °C 89 % 1013,0 hPa 0,0 mm 0,0 km/h (0 Bft) O-NO 57 ° 0 min 0,000 mm 0,0 UV-I 0 W/m² 12,6 °C 14,4 °C 0,0 km/h (0 Bft)
31.07.2017 04:43 14,4 °C 14,5 °C 89 % 1013,0 hPa 0,0 mm 0,0 km/h (0 Bft) O-NO 57 ° 0 min 0,000 mm 0,0 UV-I 0 W/m² 12,6 °C 14,4 °C 0,0 km/h (0 Bft)
31.07.2017 04:44 14,4 °C 14,4 °C 90 % 1013,1 hPa 0,0 mm 0,0 km/h (0 Bft) O-NO 57 ° 0 min 0,000 mm 0,0 UV-I 0 W/m² 12,8 °C 14,4 °C 0,0 km/h (0 Bft)
31.07.2017 04:45 14,4 °C 14,4 °C 89 % 1013,1 hPa 0,0 mm 0,0 km/h (0 Bft) O-NO 57 ° 0 min 0,000 mm 0,0 UV-I 0 W/m² 12,6 °C 14,4 °C 0,0 km/h (0 Bft)
31.07.2017 04:46 14,3 °C 14,4 °C 90 % 1013,1 hPa 0,0 mm 0,3 km/h (0 Bft) O-NO 57 ° 0 min 0,000 mm 0,0 UV-I 0 W/m² 12,7 °C 14,3 °C 1,6 km/h (1 Bft)
31.07.2017 04:47 14,3 °C 14,3 °C 90 % 1013,1 hPa 0,0 mm 0,0 km/h (0 Bft) O-NO 57 ° 0 min 0,000 mm 0,0 UV-I 0 W/m² 12,7 °C 14,3 °C 0,0 km/h (0 Bft)
31.07.2017 04:48 14,3 °C 14,3 °C 90 % 1013,1 hPa 0,0 mm 1,0 km/h (0 Bft) O-NO 57 ° 0 min 0,000 mm 0,0 UV-I 0 W/m² 12,7 °C 14,3 °C 3,2 km/h (1 Bft)
31.07.2017 04:49 14,3 °C 14,3 °C 90 % 1013,0 hPa 0,0 mm 0,2 km/h (0 Bft) O-NO 57 ° 0 min 0,000 mm 0,0 UV-I 0 W/m² 12,7 °C 14,3 °C 1,6 km/h (1 Bft)
31.07.2017 04:50 14,3 °C 14,3 °C 90 % 1013,0 hPa 0,0 mm 0,1 km/h (0 Bft) O-NO 57 ° 0 min 0,000 mm 0,0 UV-I 0 W/m² 12,7 °C 14,3 °C 1,6 km/h (1 Bft)
31.07.2017 04:51 14,2 °C 14,3 °C 90 % 1013,0 hPa 0,0 mm 0,0 km/h (0 Bft) O-NO 57 ° 0 min 0,000 mm 0,0 UV-I 0 W/m² 12,6 °C 14,2 °C 0,0 km/h (0 Bft)
31.07.2017 04:52 14,2 °C 14,2 °C 90 % 1013,0 hPa 0,0 mm 0,0 km/h (0 Bft) O-NO 57 ° 0 min 0,000 mm 0,0 UV-I 0 W/m² 12,6 °C 14,2 °C 0,0 km/h (0 Bft)
31.07.2017 04:53 14,2 °C 14,2 °C 90 % 1013,0 hPa 0,0 mm 0,0 km/h (0 Bft) O-NO 57 ° 0 min 0,000 mm 0,0 UV-I 0 W/m² 12,6 °C 14,2 °C 0,0 km/h (0 Bft)
31.07.2017 04:54 14,1 °C 14,2 °C 90 % 1012,9 hPa 0,0 mm 0,0 km/h (0 Bft) O-NO 57 ° 0 min 0,000 mm 0,0 UV-I 0 W/m² 12,5 °C 14,1 °C 0,0 km/h (0 Bft)
31.07.2017 04:55 14,2 °C 14,2 °C 90 % 1012,9 hPa 0,0 mm 1,3 km/h (1 Bft) O-NO 57 ° 0 min 0,000 mm 0,0 UV-I 0 W/m² 12,6 °C 14,2 °C 3,2 km/h (1 Bft)
31.07.2017 04:56 14,2 °C 14,2 °C 91 % 1012,9 hPa 0,0 mm 3,1 km/h (1 Bft) O-NO 57 ° 0 min 0,000 mm 0,0 UV-I 0 W/m² 12,8 °C 14,2 °C 4,8 km/h (1 Bft)
31.07.2017 04:57 14,2 °C 14,2 °C 91 % 1012,9 hPa 0,0 mm 1,1 km/h (1 Bft) O-NO 57 ° 0 min 0,000 mm 0,0 UV-I 0 W/m² 12,8 °C 14,2 °C 1,6 km/h (1 Bft)
31.07.2017 04:58 14,2 °C 14,2 °C 91 % 1013,0 hPa 0,0 mm 0,9 km/h (0 Bft) O-NO 57 ° 0 min 0,000 mm 0,0 UV-I 0 W/m² 12,8 °C 14,2 °C 1,6 km/h (1 Bft)
31.07.2017 04:59 14,2 °C 14,3 °C 90 % 1013,0 hPa 0,0 mm 0,4 km/h (0 Bft) O-NO 57 ° 0 min 0,000 mm 0,0 UV-I 0 W/m² 12,6 °C 14,2 °C 1,6 km/h (1 Bft)
31.07.2017 05:00 14,3 °C 14,3 °C 90 % 1013,0 hPa 0,0 mm 0,0 km/h (0 Bft) O-NO 57 ° 0 min 0,000 mm 0,0 UV-I 0 W/m² 12,7 °C 14,3 °C 0,0 km/h (0 Bft)
31.07.2017 05:01 14,3 °C 14,3 °C 90 % 1013,0 hPa 0,0 mm 0,0 km/h (0 Bft) O-NO 57 ° 0 min 0,000 mm 0,0 UV-I 0 W/m² 12,7 °C 14,3 °C 0,0 km/h (0 Bft)
31.07.2017 05:02 14,3 °C 14,3 °C 90 % 1013,0 hPa 0,0 mm 0,0 km/h (0 Bft) O-NO 57 ° 0 min 0,000 mm 0,0 UV-I 0 W/m² 12,7 °C 14,3 °C 0,0 km/h (0 Bft)
31.07.2017 05:04 14,3 °C 14,3 °C 90 % 1013,1 hPa 0,0 mm 0,0 km/h (0 Bft) O-NO 57 ° 0 min 0,000 mm 0,0 UV-I 0 W/m² 12,7 °C 14,3 °C 0,0 km/h (0 Bft)
31.07.2017 05:05 14,3 °C 14,3 °C 90 % 1013,0 hPa 0,0 mm 0,0 km/h (0 Bft) O-NO 57 ° 0 min 0,000 mm 0,0 UV-I 0 W/m² 12,7 °C 14,3 °C 0,0 km/h (0 Bft)
31.07.2017 05:06 14,3 °C 14,3 °C 90 % 1013,1 hPa 0,0 mm 0,0 km/h (0 Bft) O-NO 57 ° 0 min 0,000 mm 0,0 UV-I 0 W/m² 12,7 °C 14,3 °C 0,0 km/h (0 Bft)
31.07.2017 05:07 14,3 °C 14,3 °C 90 % 1013,0 hPa 0,0 mm 0,0 km/h (0 Bft) O-NO 57 ° 0 min 0,000 mm 0,0 UV-I 0 W/m² 12,7 °C 14,3 °C 0,0 km/h (0 Bft)
31.07.2017 05:08 14,3 °C 14,3 °C 90 % 1013,1 hPa 0,0 mm 0,0 km/h (0 Bft) O-NO 57 ° 0 min 0,000 mm 0,0 UV-I 0 W/m² 12,7 °C 14,3 °C 0,0 km/h (0 Bft)
31.07.2017 05:09 14,3 °C 14,3 °C 90 % 1013,0 hPa 0,0 mm 0,0 km/h (0 Bft) O-NO 57 ° 0 min 0,000 mm 0,0 UV-I 0 W/m² 12,7 °C 14,3 °C 0,0 km/h (0 Bft)
31.07.2017 05:10 14,3 °C 14,3 °C 90 % 1013,0 hPa 0,0 mm 0,6 km/h (0 Bft) O-NO 57 ° 0 min 0,000 mm 0,0 UV-I 0 W/m² 12,7 °C 14,3 °C 1,6 km/h (1 Bft)
31.07.2017 05:11 14,3 °C 14,3 °C 90 % 1013,1 hPa 0,0 mm 0,0 km/h (0 Bft) O-NO 57 ° 0 min 0,000 mm 0,0 UV-I 0 W/m² 12,7 °C 14,3 °C 0,0 km/h (0 Bft)
31.07.2017 05:12 14,3 °C 14,3 °C 90 % 1013,1 hPa 0,0 mm 0,0 km/h (0 Bft) O-NO 57 ° 0 min 0,000 mm 0,0 UV-I 0 W/m² 12,7 °C 14,3 °C 0,0 km/h (0 Bft)
31.07.2017 05:13 14,4 °C 14,4 °C 90 % 1013,1 hPa 0,0 mm 0,0 km/h (0 Bft) O-NO 57 ° 0 min 0,000 mm 0,0 UV-I 0 W/m² 12,8 °C 14,4 °C 0,0 km/h (0 Bft)
31.07.2017 05:14 14,4 °C 14,4 °C 90 % 1013,1 hPa 0,0 mm 0,0 km/h (0 Bft) O-NO 57 ° 0 min 0,000 mm 0,0 UV-I 0 W/m² 12,8 °C 14,4 °C 0,0 km/h (0 Bft)
31.07.2017 05:15 14,3 °C 14,4 °C 90 % 1013,1 hPa 0,0 mm 0,0 km/h (0 Bft) O-NO 57 ° 0 min 0,000 mm 0,0 UV-I 0 W/m² 12,7 °C 14,3 °C 0,0 km/h (0 Bft)
31.07.2017 05:16 14,3 °C 14,3 °C 90 % 1013,1 hPa 0,0 mm 0,0 km/h (0 Bft) O-NO 57 ° 0 min 0,000 mm 0,0 UV-I 0 W/m² 12,7 °C 14,3 °C 0,0 km/h (0 Bft)
31.07.2017 05:17 14,3 °C 14,3 °C 90 % 1013,1 hPa 0,0 mm 0,0 km/h (0 Bft) O-NO 57 ° 0 min 0,000 mm 0,0 UV-I 0 W/m² 12,7 °C 14,3 °C 0,0 km/h (0 Bft)
31.07.2017 05:18 14,3 °C 14,3 °C 91 % 1013,1 hPa 0,0 mm 0,0 km/h (0 Bft) O-NO 57 ° 0 min 0,000 mm 0,0 UV-I 0 W/m² 12,8 °C 14,3 °C 0,0 km/h (0 Bft)
31.07.2017 05:19 14,3 °C 14,3 °C 90 % 1013,1 hPa 0,0 mm 0,0 km/h (0 Bft) O-NO 57 ° 0 min 0,000 mm 0,0 UV-I 0 W/m² 12,7 °C 14,3 °C 0,0 km/h (0 Bft)
31.07.2017 05:20 14,3 °C 14,3 °C 90 % 1013,1 hPa 0,0 mm 0,0 km/h (0 Bft) O-NO 57 ° 0 min 0,000 mm 0,0 UV-I 0 W/m² 12,7 °C 14,3 °C 0,0 km/h (0 Bft)
31.07.2017 05:21 14,3 °C 14,3 °C 90 % 1013,0 hPa 0,0 mm 0,0 km/h (0 Bft) O-NO 57 ° 0 min 0,000 mm 0,0 UV-I 0 W/m² 12,7 °C 14,3 °C 0,0 km/h (0 Bft)
31.07.2017 05:22 14,3 °C 14,3 °C 90 % 1013,1 hPa 0,0 mm 0,0 km/h (0 Bft) O-NO 57 ° 0 min 0,000 mm 0,0 UV-I 0 W/m² 12,7 °C 14,3 °C 0,0 km/h (0 Bft)
31.07.2017 05:23 14,3 °C 14,3 °C 91 % 1013,1 hPa 0,0 mm 0,0 km/h (0 Bft) O-NO 57 ° 0 min 0,000 mm 0,0 UV-I 0 W/m² 12,8 °C 14,3 °C 0,0 km/h (0 Bft)
31.07.2017 05:24 14,4 °C 14,4 °C 91 % 1013,1 hPa 0,0 mm 0,0 km/h (0 Bft) O-NO 57 ° 0 min 0,000 mm 0,0 UV-I 0 W/m² 12,9 °C 14,4 °C 0,0 km/h (0 Bft)
31.07.2017 05:25 14,4 °C 14,4 °C 91 % 1013,2 hPa 0,0 mm 0,0 km/h (0 Bft) O-NO 57 ° 0 min 0,000 mm 0,0 UV-I 0 W/m² 12,9 °C 14,4 °C 0,0 km/h (0 Bft)
31.07.2017 05:26 14,4 °C 14,4 °C 91 % 1013,2 hPa 0,0 mm 0,0 km/h (0 Bft) O-NO 57 ° 0 min 0,000 mm 0,0 UV-I 0 W/m² 12,9 °C 14,4 °C 0,0 km/h (0 Bft)
31.07.2017 05:27 14,4 °C 14,4 °C 91 % 1013,2 hPa 0,0 mm 0,0 km/h (0 Bft) O-NO 57 ° 0 min 0,000 mm 0,0 UV-I 0 W/m² 12,9 °C 14,4 °C 0,0 km/h (0 Bft)
31.07.2017 05:28 14,4 °C 14,4 °C 90 % 1013,2 hPa 0,0 mm 0,0 km/h (0 Bft) O-NO 57 ° 0 min 0,000 mm 0,0 UV-I 0 W/m² 12,8 °C 14,4 °C 0,0 km/h (0 Bft)
31.07.2017 05:29 14,4 °C 14,4 °C 90 % 1013,2 hPa 0,0 mm 0,0 km/h (0 Bft) O-NO 57 ° 0 min 0,000 mm 0,0 UV-I 0 W/m² 12,8 °C 14,4 °C 0,0 km/h (0 Bft)
31.07.2017 05:30 14,6 °C 14,6 °C 90 % 1013,2 hPa 0,0 mm 1,5 km/h (1 Bft) O-NO 57 ° 0 min 0,000 mm 0,0 UV-I 0 W/m² 13,0 °C 14,6 °C 3,2 km/h (1 Bft)
31.07.2017 05:31 14,6 °C 14,6 °C 90 % 1013,2 hPa 0,0 mm 0,3 km/h (0 Bft) O-NO 57 ° 0 min 0,000 mm 0,0 UV-I 0 W/m² 13,0 °C 14,6 °C 1,6 km/h (1 Bft)
31.07.2017 05:32 14,7 °C 14,7 °C 89 % 1013,1 hPa 0,0 mm 0,0 km/h (0 Bft) O-NO 57 ° 0 min 0,000 mm 0,0 UV-I 0 W/m² 12,9 °C 14,7 °C 0,0 km/h (0 Bft)
31.07.2017 05:33 14,8 °C 14,8 °C 88 % 1013,1 hPa 0,0 mm 0,0 km/h (0 Bft) O-NO 57 ° 0 min 0,000 mm 0,0 UV-I 0 W/m² 12,8 °C 14,8 °C 0,0 km/h (0 Bft)
31.07.2017 05:34 14,8 °C 14,8 °C 87 % 1013,0 hPa 0,0 mm 0,1 km/h (0 Bft) O-NO 57 ° 0 min 0,000 mm 0,0 UV-I 0 W/m² 12,7 °C 14,8 °C 1,6 km/h (1 Bft)
31.07.2017 05:35 14,8 °C 14,8 °C 88 % 1013,0 hPa 0,0 mm 0,3 km/h (0 Bft) O-NO 57 ° 0 min 0,000 mm 0,0 UV-I 0 W/m² 12,8 °C 14,8 °C 1,6 km/h (1 Bft)
31.07.2017 05:36 14,7 °C 14,8 °C 88 % 1013,0 hPa 0,0 mm 0,1 km/h (0 Bft) O-NO 57 ° 0 min 0,000 mm 0,0 UV-I 0 W/m² 12,7 °C 14,7 °C 1,6 km/h (1 Bft)
31.07.2017 05:37 14,7 °C 14,7 °C 89 % 1013,0 hPa 0,0 mm 0,0 km/h (0 Bft) O-NO 57 ° 0 min 0,000 mm 0,0 UV-I 0 W/m² 12,9 °C 14,7 °C 0,0 km/h (0 Bft)
31.07.2017 05:38 14,7 °C 14,7 °C 89 % 1013,0 hPa 0,0 mm 0,0 km/h (0 Bft) O-NO 57 ° 0 min 0,000 mm 0,0 UV-I 0 W/m² 12,9 °C 14,7 °C 0,0 km/h (0 Bft)
31.07.2017 05:39 14,7 °C 14,7 °C 89 % 1013,1 hPa 0,0 mm 0,0 km/h (0 Bft) O-NO 57 ° 0 min 0,000 mm 0,0 UV-I 0 W/m² 12,9 °C 14,7 °C 0,0 km/h (0 Bft)
31.07.2017 05:40 14,6 °C 14,7 °C 89 % 1013,1 hPa 0,0 mm 0,0 km/h (0 Bft) O-NO 57 ° 0 min 0,000 mm 0,0 UV-I 0 W/m² 12,8 °C 14,6 °C 0,0 km/h (0 Bft)
31.07.2017 05:41 14,6 °C 14,7 °C 89 % 1013,1 hPa 0,0 mm 0,0 km/h (0 Bft) O-NO 57 ° 0 min 0,000 mm 0,0 UV-I 0 W/m² 12,8 °C 14,6 °C 0,0 km/h (0 Bft)
31.07.2017 05:42 14,5 °C 14,6 °C 89 % 1013,1 hPa 0,0 mm 0,0 km/h (0 Bft) O-NO 57 ° 0 min 0,000 mm 0,0 UV-I 0 W/m² 12,7 °C 14,5 °C 0,0 km/h (0 Bft)
31.07.2017 05:43 14,4 °C 14,5 °C 89 % 1013,1 hPa 0,0 mm 0,0 km/h (0 Bft) O-NO 57 ° 0 min 0,000 mm 0,0 UV-I 0 W/m² 12,6 °C 14,4 °C 0,0 km/h (0 Bft)
31.07.2017 05:44 14,4 °C 14,4 °C 89 % 1013,1 hPa 0,0 mm 0,0 km/h (0 Bft) O-NO 57 ° 0 min 0,000 mm 0,0 UV-I 0 W/m² 12,6 °C 14,4 °C 0,0 km/h (0 Bft)
31.07.2017 05:45 14,4 °C 14,4 °C 89 % 1013,2 hPa 0,0 mm 0,0 km/h (0 Bft) O-NO 57 ° 0 min 0,000 mm 0,0 UV-I 0 W/m² 12,6 °C 14,4 °C 0,0 km/h (0 Bft)
31.07.2017 05:46 14,4 °C 14,4 °C 90 % 1013,2 hPa 0,0 mm 0,0 km/h (0 Bft) O-NO 57 ° 0 min 0,000 mm 0,0 UV-I 0 W/m² 12,8 °C 14,4 °C 0,0 km/h (0 Bft)
31.07.2017 05:47 14,3 °C 14,4 °C 90 % 1013,2 hPa 0,0 mm 0,0 km/h (0 Bft) O-NO 57 ° 0 min 0,000 mm 0,0 UV-I 0 W/m² 12,7 °C 14,3 °C 0,0 km/h (0 Bft)
31.07.2017 05:48 14,3 °C 14,3 °C 90 % 1013,2 hPa 0,0 mm 0,0 km/h (0 Bft) O-NO 57 ° 0 min 0,000 mm 0,0 UV-I 0 W/m² 12,7 °C 14,3 °C 0,0 km/h (0 Bft)
31.07.2017 05:49 14,3 °C 14,3 °C 90 % 1013,1 hPa 0,0 mm 0,0 km/h (0 Bft) O-NO 57 ° 0 min 0,000 mm 0,0 UV-I 5 W/m² 12,7 °C 14,3 °C 0,0 km/h (0 Bft)
31.07.2017 05:50 14,3 °C 14,4 °C 90 % 1013,2 hPa 0,0 mm 0,0 km/h (0 Bft) O-NO 57 ° 0 min 0,000 mm 0,0 UV-I 5 W/m² 12,7 °C 14,3 °C 0,0 km/h (0 Bft)
31.07.2017 05:51 14,3 °C 14,4 °C 90 % 1013,1 hPa 0,0 mm 0,0 km/h (0 Bft) O-NO 57 ° 0 min 0,000 mm 0,0 UV-I 5 W/m² 12,7 °C 14,3 °C 0,0 km/h (0 Bft)
31.07.2017 05:52 14,3 °C 14,3 °C 90 % 1013,1 hPa 0,0 mm 0,0 km/h (0 Bft) O-NO 57 ° 0 min 0,000 mm 0,0 UV-I 0 W/m² 12,7 °C 14,3 °C 0,0 km/h (0 Bft)
31.07.2017 05:53 14,3 °C 14,3 °C 90 % 1013,2 hPa 0,0 mm 0,0 km/h (0 Bft) O-NO 57 ° 0 min 0,000 mm 0,0 UV-I 0 W/m² 12,7 °C 14,3 °C 0,0 km/h (0 Bft)
31.07.2017 05:54 14,2 °C 14,3 °C 90 % 1013,2 hPa 0,0 mm 0,0 km/h (0 Bft) O-NO 57 ° 0 min 0,000 mm 0,0 UV-I 0 W/m² 12,6 °C 14,2 °C 0,0 km/h (0 Bft)
31.07.2017 05:55 14,2 °C 14,2 °C 90 % 1013,2 hPa 0,0 mm 0,0 km/h (0 Bft) O-NO 57 ° 0 min 0,000 mm 0,0 UV-I 0 W/m² 12,6 °C 14,2 °C 0,0 km/h (0 Bft)
31.07.2017 05:56 14,2 °C 14,2 °C 90 % 1013,2 hPa 0,0 mm 0,0 km/h (0 Bft) O-NO 57 ° 0 min 0,000 mm 0,0 UV-I 5 W/m² 12,6 °C 14,2 °C 0,0 km/h (0 Bft)
31.07.2017 05:57 14,2 °C 14,2 °C 90 % 1013,2 hPa 0,0 mm 0,0 km/h (0 Bft) O-NO 57 ° 0 min 0,000 mm 0,0 UV-I 5 W/m² 12,6 °C 14,2 °C 0,0 km/h (0 Bft)
31.07.2017 05:58 14,1 °C 14,2 °C 90 % 1013,2 hPa 0,0 mm 0,0 km/h (0 Bft) O-NO 57 ° 0 min 0,000 mm 0,0 UV-I 5 W/m² 12,5 °C 14,1 °C 0,0 km/h (0 Bft)
31.07.2017 05:59 14,1 °C 14,1 °C 90 % 1013,2 hPa 0,0 mm 0,0 km/h (0 Bft) O-NO 57 ° 0 min 0,000 mm 0,0 UV-I 5 W/m² 12,5 °C 14,1 °C 0,0 km/h (0 Bft)
31.07.2017 06:00 14,0 °C 14,1 °C 90 % 1013,2 hPa 0,0 mm 2,8 km/h (1 Bft) O-NO 65 ° 0 min 0,000 mm 0,0 UV-I 7 W/m² 12,4 °C 14,0 °C 4,8 km/h (1 Bft)
31.07.2017 06:01 14,0 °C 14,0 °C 91 % 1013,2 hPa 0,0 mm 3,5 km/h (1 Bft) O-NO 65 ° 0 min 0,000 mm 0,0 UV-I 7 W/m² 12,6 °C 14,0 °C 4,8 km/h (1 Bft)
31.07.2017 06:02 14,0 °C 14,0 °C 91 % 1013,3 hPa 0,0 mm 1,0 km/h (0 Bft) O-NO 65 ° 0 min 0,000 mm 0,0 UV-I 7 W/m² 12,6 °C 14,0 °C 3,2 km/h (1 Bft)
31.07.2017 06:03 13,9 °C 14,0 °C 91 % 1013,3 hPa 0,0 mm 0,0 km/h (0 Bft) O-NO 65 ° 0 min 0,000 mm 0,0 UV-I 9 W/m² 12,5 °C 13,9 °C 0,0 km/h (0 Bft)
31.07.2017 06:04 14,0 °C 14,0 °C 91 % 1013,3 hPa 0,0 mm 0,0 km/h (0 Bft) O-NO 65 ° 0 min 0,000 mm 0,0 UV-I 9 W/m² 12,6 °C 14,0 °C 0,0 km/h (0 Bft)
31.07.2017 06:05 14,1 °C 14,1 °C 91 % 1013,4 hPa 0,0 mm 0,0 km/h (0 Bft) O-NO 65 ° 0 min 0,000 mm 0,0 UV-I 11 W/m² 12,7 °C 14,1 °C 0,0 km/h (0 Bft)
31.07.2017 06:06 14,2 °C 14,2 °C 91 % 1013,4 hPa 0,0 mm 1,3 km/h (1 Bft) O-NO 65 ° 0 min 0,000 mm 0,0 UV-I 11 W/m² 12,8 °C 14,2 °C 3,2 km/h (1 Bft)
31.07.2017 06:07 14,2 °C 14,2 °C 90 % 1013,4 hPa 0,0 mm 0,2 km/h (0 Bft) O-NO 65 ° 0 min 0,000 mm 0,0 UV-I 11 W/m² 12,6 °C 14,2 °C 1,6 km/h (1 Bft)
31.07.2017 06:08 14,3 °C 14,3 °C 90 % 1013,4 hPa 0,0 mm 0,4 km/h (0 Bft) O-NO 65 ° 0 min 0,000 mm 0,0 UV-I 11 W/m² 12,7 °C 14,3 °C 1,6 km/h (1 Bft)
31.07.2017 06:09 14,3 °C 14,3 °C 90 % 1013,5 hPa 0,0 mm 0,1 km/h (0 Bft) O-NO 65 ° 0 min 0,000 mm 0,0 UV-I 12 W/m² 12,7 °C 14,3 °C 1,6 km/h (1 Bft)
31.07.2017 06:10 14,4 °C 14,4 °C 89 % 1013,5 hPa 0,0 mm 0,1 km/h (0 Bft) O-NO 65 ° 0 min 0,000 mm 0,0 UV-I 12 W/m² 12,6 °C 14,4 °C 1,6 km/h (1 Bft)
31.07.2017 06:11 14,4 °C 14,4 °C 89 % 1013,5 hPa 0,0 mm 0,0 km/h (0 Bft) O-NO 65 ° 0 min 0,000 mm 0,0 UV-I 12 W/m² 12,6 °C 14,4 °C 0,0 km/h (0 Bft)
31.07.2017 06:12 14,4 °C 14,4 °C 89 % 1013,6 hPa 0,0 mm 0,0 km/h (0 Bft) O-NO 65 ° 0 min 0,000 mm 0,0 UV-I 12 W/m² 12,6 °C 14,4 °C 0,0 km/h (0 Bft)
31.07.2017 06:13 14,4 °C 14,4 °C 88 % 1013,6 hPa 0,0 mm 0,0 km/h (0 Bft) O-NO 65 ° 0 min 0,000 mm 0,0 UV-I 12 W/m² 12,4 °C 14,4 °C 0,0 km/h (0 Bft)
31.07.2017 06:14 14,5 °C 14,5 °C 88 % 1013,6 hPa 0,0 mm 1,4 km/h (1 Bft) O-NO 65 ° 0 min 0,000 mm 0,0 UV-I 12 W/m² 12,5 °C 14,5 °C 3,2 km/h (1 Bft)
31.07.2017 06:15 14,5 °C 14,5 °C 89 % 1013,6 hPa 0,0 mm 2,3 km/h (1 Bft) O-NO 65 ° 0 min 0,000 mm 0,0 UV-I 12 W/m² 12,7 °C 14,5 °C 3,2 km/h (1 Bft)
31.07.2017 06:16 14,6 °C 14,6 °C 88 % 1013,6 hPa 0,0 mm 0,1 km/h (0 Bft) O-NO 65 ° 0 min 0,000 mm 0,0 UV-I 14 W/m² 12,6 °C 14,6 °C 1,6 km/h (1 Bft)
31.07.2017 06:17 14,6 °C 14,6 °C 87 % 1013,6 hPa 0,0 mm 2,1 km/h (1 Bft) S 184 ° 0 min 0,000 mm 0,0 UV-I 14 W/m² 12,5 °C 14,6 °C 4,8 km/h (1 Bft)
31.07.2017 06:18 14,6 °C 14,6 °C 87 % 1013,6 hPa 0,0 mm 2,2 km/h (1 Bft) S 183 ° 0 min 0,000 mm 0,0 UV-I 14 W/m² 12,5 °C 14,6 °C 4,8 km/h (1 Bft)
31.07.2017 06:19 14,7 °C 14,7 °C 88 % 1013,6 hPa 0,0 mm 1,7 km/h (1 Bft) S 183 ° 0 min 0,000 mm 0,0 UV-I 14 W/m² 12,7 °C 14,7 °C 3,2 km/h (1 Bft)
31.07.2017 06:20 14,6 °C 14,7 °C 88 % 1013,6 hPa 0,0 mm 0,1 km/h (0 Bft) S 183 ° 0 min 0,000 mm 0,0 UV-I 14 W/m² 12,6 °C 14,6 °C 1,6 km/h (1 Bft)
31.07.2017 06:21 14,7 °C 14,7 °C 87 % 1013,5 hPa 0,0 mm 0,0 km/h (0 Bft) S 183 ° 0 min 0,000 mm 0,0 UV-I 14 W/m² 12,6 °C 14,7 °C 0,0 km/h (0 Bft)
31.07.2017 06:22 14,7 °C 14,7 °C 87 % 1013,5 hPa 0,0 mm 1,3 km/h (1 Bft) S 183 ° 0 min 0,000 mm 0,0 UV-I 14 W/m² 12,6 °C 14,7 °C 3,2 km/h (1 Bft)
31.07.2017 06:23 14,7 °C 14,7 °C 87 % 1013,5 hPa 0,0 mm 0,0 km/h (0 Bft) S 183 ° 0 min 0,000 mm 0,0 UV-I 16 W/m² 12,6 °C 14,7 °C 0,0 km/h (0 Bft)
31.07.2017 06:24 14,7 °C 14,7 °C 87 % 1013,5 hPa 0,0 mm 0,0 km/h (0 Bft) S 183 ° 0 min 0,000 mm 0,0 UV-I 16 W/m² 12,6 °C 14,7 °C 0,0 km/h (0 Bft)
31.07.2017 06:25 14,8 °C 14,8 °C 86 % 1013,5 hPa 0,0 mm 0,4 km/h (0 Bft) S 183 ° 0 min 0,000 mm 0,0 UV-I 16 W/m² 12,5 °C 14,8 °C 1,6 km/h (1 Bft)
31.07.2017 06:26 14,8 °C 14,8 °C 86 % 1013,5 hPa 0,0 mm 0,1 km/h (0 Bft) S 183 ° 0 min 0,000 mm 0,0 UV-I 18 W/m² 12,5 °C 14,8 °C 1,6 km/h (1 Bft)
31.07.2017 06:27 14,8 °C 14,8 °C 86 % 1013,5 hPa 0,0 mm 0,0 km/h (0 Bft) S 183 ° 0 min 0,000 mm 0,0 UV-I 18 W/m² 12,5 °C 14,8 °C 0,0 km/h (0 Bft)
31.07.2017 06:28 14,7 °C 14,8 °C 86 % 1013,5 hPa 0,0 mm 0,0 km/h (0 Bft) S 183 ° 0 min 0,000 mm 0,0 UV-I 18 W/m² 12,4 °C 14,7 °C 0,0 km/h (0 Bft)
31.07.2017 06:29 14,7 °C 14,7 °C 86 % 1013,5 hPa 0,0 mm 1,0 km/h (0 Bft) S 184 ° 0 min 0,000 mm 0,0 UV-I 18 W/m² 12,4 °C 14,7 °C 3,2 km/h (1 Bft)
31.07.2017 06:30 14,7 °C 14,7 °C 86 % 1013,6 hPa 0,0 mm 3,3 km/h (1 Bft) NW 311 ° 0 min 0,000 mm 0,0 UV-I 19 W/m² 12,4 °C 14,7 °C 4,8 km/h (1 Bft)
31.07.2017 06:31 14,6 °C 14,7 °C 86 % 1013,6 hPa 0,0 mm 2,1 km/h (1 Bft) NW 311 ° 0 min 0,000 mm 0,0 UV-I 19 W/m² 12,3 °C 14,6 °C 3,2 km/h (1 Bft)
31.07.2017 06:32 14,5 °C 14,6 °C 87 % 1013,7 hPa 0,0 mm 0,1 km/h (0 Bft) NW 311 ° 0 min 0,000 mm 0,0 UV-I 19 W/m² 12,4 °C 14,5 °C 1,6 km/h (1 Bft)
31.07.2017 06:33 14,4 °C 14,5 °C 87 % 1013,7 hPa 0,0 mm 0,6 km/h (0 Bft) NW 311 ° 0 min 0,000 mm 0,0 UV-I 19 W/m² 12,3 °C 14,4 °C 3,2 km/h (1 Bft)
31.07.2017 06:34 14,4 °C 14,4 °C 87 % 1013,7 hPa 0,0 mm 0,0 km/h (0 Bft) NW 311 ° 0 min 0,000 mm 0,0 UV-I 19 W/m² 12,3 °C 14,4 °C 0,0 km/h (0 Bft)
31.07.2017 06:35 14,4 °C 14,4 °C 87 % 1013,7 hPa 0,0 mm 0,0 km/h (0 Bft) NW 311 ° 0 min 0,000 mm 0,0 UV-I 19 W/m² 12,3 °C 14,4 °C 0,0 km/h (0 Bft)
31.07.2017 06:36 14,4 °C 14,4 °C 87 % 1013,6 hPa 0,0 mm 0,0 km/h (0 Bft) NW 311 ° 0 min 0,000 mm 0,0 UV-I 19 W/m² 12,3 °C 14,4 °C 0,0 km/h (0 Bft)
31.07.2017 06:37 14,4 °C 14,4 °C 87 % 1013,6 hPa 0,0 mm 0,0 km/h (0 Bft) NW 311 ° 0 min 0,000 mm 0,0 UV-I 21 W/m² 12,3 °C 14,4 °C 0,0 km/h (0 Bft)
31.07.2017 06:38 14,4 °C 14,4 °C 87 % 1013,6 hPa 0,0 mm 0,3 km/h (0 Bft) NW 311 ° 0 min 0,000 mm 0,0 UV-I 21 W/m² 12,3 °C 14,4 °C 1,6 km/h (1 Bft)
31.07.2017 06:39 14,4 °C 14,5 °C 87 % 1013,5 hPa 0,0 mm 0,3 km/h (0 Bft) NW 311 ° 0 min 0,000 mm 0,0 UV-I 21 W/m² 12,3 °C 14,4 °C 1,6 km/h (1 Bft)
31.07.2017 06:40 14,4 °C 14,5 °C 87 % 1013,6 hPa 0,0 mm 0,0 km/h (0 Bft) NW 311 ° 0 min 0,000 mm 0,0 UV-I 21 W/m² 12,3 °C 14,4 °C 0,0 km/h (0 Bft)
31.07.2017 06:41 14,5 °C 14,5 °C 87 % 1013,6 hPa 0,0 mm 0,0 km/h (0 Bft) NW 311 ° 0 min 0,000 mm 0,0 UV-I 23 W/m² 12,4 °C 14,5 °C 0,0 km/h (0 Bft)
31.07.2017 06:42 14,6 °C 14,6 °C 86 % 1013,5 hPa 0,0 mm 0,0 km/h (0 Bft) NW 311 ° 0 min 0,000 mm 0,0 UV-I 23 W/m² 12,3 °C 14,6 °C 0,0 km/h (0 Bft)
31.07.2017 06:43 14,8 °C 14,8 °C 85 % 1013,5 hPa 0,0 mm 2,9 km/h (1 Bft) W 264 ° 0 min 0,000 mm 0,0 UV-I 23 W/m² 12,3 °C 14,8 °C 6,4 km/h (2 Bft)
31.07.2017 06:44 14,9 °C 14,9 °C 84 % 1013,7 hPa 0,0 mm 3,3 km/h (1 Bft) W 263 ° 0 min 0,000 mm 0,0 UV-I 25 W/m² 12,2 °C 14,9 °C 6,4 km/h (2 Bft)
31.07.2017 06:45 15,2 °C 15,2 °C 84 % 1013,6 hPa 0,0 mm 1,3 km/h (1 Bft) W 263 ° 0 min 0,000 mm 0,0 UV-I 25 W/m² 12,5 °C 15,2 °C 3,2 km/h (1 Bft)
31.07.2017 06:46 15,3 °C 15,3 °C 83 % 1013,6 hPa 0,0 mm 0,0 km/h (0 Bft) W 263 ° 0 min 0,000 mm 0,0 UV-I 26 W/m² 12,4 °C 15,3 °C 0,0 km/h (0 Bft)
31.07.2017 06:47 15,3 °C 15,3 °C 83 % 1013,7 hPa 0,0 mm 1,9 km/h (1 Bft) W 265 ° 0 min 0,000 mm 0,0 UV-I 26 W/m² 12,4 °C 15,3 °C 3,2 km/h (1 Bft)
31.07.2017 06:48 15,4 °C 15,4 °C 83 % 1013,8 hPa 0,0 mm 2,3 km/h (1 Bft) W 265 ° 0 min 0,000 mm 0,0 UV-I 28 W/m² 12,5 °C 15,4 °C 3,2 km/h (1 Bft)
31.07.2017 06:49 15,6 °C 15,6 °C 82 % 1013,8 hPa 0,0 mm 1,4 km/h (1 Bft) W 265 ° 0 min 0,000 mm 0,0 UV-I 30 W/m² 12,5 °C 15,6 °C 3,2 km/h (1 Bft)
31.07.2017 06:50 15,7 °C 15,7 °C 81 % 1013,8 hPa 0,0 mm 0,2 km/h (0 Bft) W 265 ° 0 min 0,000 mm 0,0 UV-I 28 W/m² 12,4 °C 15,7 °C 1,6 km/h (1 Bft)
31.07.2017 06:51 15,8 °C 15,8 °C 81 % 1013,8 hPa 0,0 mm 0,0 km/h (0 Bft) W 265 ° 0 min 0,000 mm 0,0 UV-I 28 W/m² 12,5 °C 15,8 °C 0,0 km/h (0 Bft)
31.07.2017 06:52 15,8 °C 15,8 °C 81 % 1013,7 hPa 0,0 mm 0,0 km/h (0 Bft) W 265 ° 0 min 0,000 mm 0,0 UV-I 32 W/m² 12,5 °C 15,8 °C 0,0 km/h (0 Bft)
31.07.2017 06:53 15,9 °C 15,9 °C 81 % 1013,8 hPa 0,0 mm 2,1 km/h (1 Bft) W 266 ° 0 min 0,000 mm 0,0 UV-I 33 W/m² 12,6 °C 15,9 °C 6,4 km/h (2 Bft)
31.07.2017 06:54 15,9 °C 15,9 °C 81 % 1013,7 hPa 0,0 mm 3,1 km/h (1 Bft) W 266 ° 0 min 0,000 mm 0,0 UV-I 35 W/m² 12,6 °C 15,9 °C 6,4 km/h (2 Bft)
31.07.2017 06:55 15,9 °C 15,9 °C 80 % 1013,8 hPa 0,0 mm 5,9 km/h (2 Bft) W 269 ° 0 min 0,000 mm 0,0 UV-I 40 W/m² 12,5 °C 15,9 °C 9,7 km/h (2 Bft)
31.07.2017 06:56 15,9 °C 15,9 °C 82 % 1013,9 hPa 0,0 mm 7,6 km/h (2 Bft) W-NW 294 ° 0 min 0,000 mm 0,0 UV-I 39 W/m² 12,8 °C 15,9 °C 11,3 km/h (2 Bft)
31.07.2017 06:57 15,8 °C 15,9 °C 82 % 1013,8 hPa 0,0 mm 5,0 km/h (1 Bft) W 274 ° 0 min 0,000 mm 0,0 UV-I 39 W/m² 12,7 °C 15,8 °C 9,7 km/h (2 Bft)
31.07.2017 06:58 15,7 °C 15,8 °C 83 % 1013,8 hPa 0,0 mm 2,4 km/h (1 Bft) W 274 ° 0 min 0,000 mm 0,0 UV-I 42 W/m² 12,8 °C 15,7 °C 4,8 km/h (1 Bft)
31.07.2017 06:59 15,6 °C 15,7 °C 83 % 1013,9 hPa 0,0 mm 2,4 km/h (1 Bft) W 274 ° 0 min 0,000 mm 0,0 UV-I 44 W/m² 12,7 °C 15,6 °C 4,8 km/h (1 Bft)
31.07.2017 07:00 15,5 °C 15,6 °C 84 % 1013,9 hPa 0,0 mm 0,0 km/h (0 Bft) W 274 ° 0 min 0,025 mm 0,0 UV-I 42 W/m² 12,8 °C 15,5 °C 0,0 km/h (0 Bft)
31.07.2017 07:01 15,4 °C 15,5 °C 84 % 1013,9 hPa 0,0 mm 0,2 km/h (0 Bft) W 274 ° 0 min 0,000 mm 0,0 UV-I 47 W/m² 12,7 °C 15,4 °C 1,6 km/h (1 Bft)
31.07.2017 07:02 15,3 °C 15,4 °C 83 % 1013,9 hPa 0,0 mm 0,0 km/h (0 Bft) W 274 ° 0 min 0,000 mm 0,0 UV-I 62 W/m² 12,4 °C 15,3 °C 0,0 km/h (0 Bft)
31.07.2017 07:03 15,3 °C 15,3 °C 84 % 1013,9 hPa 0,0 mm 1,0 km/h (0 Bft) W-NW 284 ° 0 min 0,000 mm 0,0 UV-I 63 W/m² 12,6 °C 15,3 °C 1,6 km/h (1 Bft)
31.07.2017 07:04 15,3 °C 15,3 °C 85 % 1013,9 hPa 0,0 mm 0,6 km/h (0 Bft) W-NW 284 ° 0 min 0,000 mm 0,0 UV-I 65 W/m² 12,8 °C 15,3 °C 3,2 km/h (1 Bft)
31.07.2017 07:05 15,2 °C 15,3 °C 85 % 1013,9 hPa 0,0 mm 0,4 km/h (0 Bft) W-NW 284 ° 0 min 0,000 mm 0,0 UV-I 72 W/m² 12,7 °C 15,2 °C 3,2 km/h (1 Bft)
31.07.2017 07:06 15,2 °C 15,2 °C 85 % 1013,9 hPa 0,0 mm 1,6 km/h (1 Bft) W-NW 284 ° 0 min 0,000 mm 0,0 UV-I 72 W/m² 12,7 °C 15,2 °C 3,2 km/h (1 Bft)
31.07.2017 07:07 15,2 °C 15,2 °C 85 % 1013,9 hPa 0,0 mm 0,6 km/h (0 Bft) W-NW 284 ° 0 min 0,000 mm 0,5 UV-I 86 W/m² 12,7 °C 15,2 °C 1,6 km/h (1 Bft)
31.07.2017 07:08 15,2 °C 15,2 °C 85 % 1013,9 hPa 0,0 mm 0,8 km/h (0 Bft) W-NW 284 ° 0 min 0,000 mm 0,5 UV-I 91 W/m² 12,7 °C 15,2 °C 3,2 km/h (1 Bft)
31.07.2017 07:09 15,2 °C 15,2 °C 85 % 1013,9 hPa 0,0 mm 0,0 km/h (0 Bft) W-NW 284 ° 0 min 0,000 mm 0,5 UV-I 100 W/m² 12,7 °C 15,2 °C 0,0 km/h (0 Bft)
31.07.2017 07:10 15,2 °C 15,2 °C 85 % 1013,9 hPa 0,0 mm 0,5 km/h (0 Bft) W-NW 284 ° 0 min 0,000 mm 0,5 UV-I 116 W/m² 12,7 °C 15,2 °C 1,6 km/h (1 Bft)
31.07.2017 07:11 15,3 °C 15,3 °C 85 % 1013,9 hPa 0,0 mm 0,9 km/h (0 Bft) W-NW 284 ° 0 min 0,000 mm 0,5 UV-I 127 W/m² 12,8 °C 15,3 °C 1,6 km/h (1 Bft)
31.07.2017 07:12 15,3 °C 15,3 °C 85 % 1013,9 hPa 0,0 mm 0,0 km/h (0 Bft) W-NW 284 ° 0 min 0,000 mm 0,5 UV-I 139 W/m² 12,8 °C 15,3 °C 0,0 km/h (0 Bft)
31.07.2017 07:13 15,3 °C 15,3 °C 85 % 1013,9 hPa 0,0 mm 0,0 km/h (0 Bft) W-NW 284 ° 0 min 0,000 mm 0,5 UV-I 142 W/m² 12,8 °C 15,3 °C 0,0 km/h (0 Bft)
31.07.2017 07:14 15,3 °C 15,3 °C 84 % 1013,9 hPa 0,0 mm 0,4 km/h (0 Bft) W-NW 284 ° 0 min 0,000 mm 0,5 UV-I 144 W/m² 12,6 °C 15,3 °C 3,2 km/h (1 Bft)
31.07.2017 07:15 15,5 °C 15,5 °C 85 % 1014,0 hPa 0,0 mm 0,3 km/h (0 Bft) W-NW 284 ° 0 min 0,000 mm 0,5 UV-I 139 W/m² 13,0 °C 15,5 °C 1,6 km/h (1 Bft)
31.07.2017 07:16 15,6 °C 15,6 °C 84 % 1014,0 hPa 0,0 mm 0,0 km/h (0 Bft) W-NW 284 ° 0 min 0,000 mm 0,6 UV-I 148 W/m² 12,9 °C 15,6 °C 0,0 km/h (0 Bft)
31.07.2017 07:17 15,6 °C 15,6 °C 86 % 1013,9 hPa 0,0 mm 0,0 km/h (0 Bft) W-NW 284 ° 0 min 0,000 mm 0,6 UV-I 148 W/m² 13,3 °C 15,6 °C 0,0 km/h (0 Bft)
31.07.2017 07:18 15,7 °C 15,7 °C 86 % 1014,0 hPa 0,0 mm 0,0 km/h (0 Bft) W-NW 284 ° 0 min 0,000 mm 0,6 UV-I 146 W/m² 13,4 °C 15,7 °C 0,0 km/h (0 Bft)
31.07.2017 07:19 15,8 °C 15,8 °C 84 % 1014,0 hPa 0,0 mm 0,5 km/h (0 Bft) W-NW 284 ° 0 min 0,000 mm 0,6 UV-I 139 W/m² 13,1 °C 15,8 °C 1,6 km/h (1 Bft)
31.07.2017 07:20 16,0 °C 16,0 °C 85 % 1014,0 hPa 0,0 mm 1,8 km/h (1 Bft) W-NW 284 ° 0 min 0,000 mm 0,6 UV-I 142 W/m² 13,5 °C 16,0 °C 4,8 km/h (1 Bft)
31.07.2017 07:21 16,1 °C 16,1 °C 84 % 1014,0 hPa 0,0 mm 0,3 km/h (0 Bft) W-NW 284 ° 0 min 0,000 mm 0,6 UV-I 135 W/m² 13,4 °C 16,1 °C 1,6 km/h (1 Bft)
31.07.2017 07:22 16,2 °C 16,2 °C 85 % 1013,9 hPa 0,0 mm 1,2 km/h (1 Bft) W-NW 284 ° 0 min 0,000 mm 0,6 UV-I 149 W/m² 13,7 °C 16,2 °C 1,6 km/h (1 Bft)
31.07.2017 07:23 16,1 °C 16,2 °C 85 % 1014,0 hPa 0,0 mm 1,1 km/h (1 Bft) W-NW 284 ° 0 min 0,000 mm 0,7 UV-I 151 W/m² 13,6 °C 16,1 °C 1,6 km/h (1 Bft)
31.07.2017 07:24 16,1 °C 16,1 °C 86 % 1013,9 hPa 0,0 mm 0,0 km/h (0 Bft) W-NW 284 ° 0 min 0,000 mm 0,7 UV-I 139 W/m² 13,8 °C 16,1 °C 0,0 km/h (0 Bft)
31.07.2017 07:25 16,3 °C 16,3 °C 83 % 1013,9 hPa 0,0 mm 0,5 km/h (0 Bft) W-NW 284 ° 0 min 0,000 mm 0,7 UV-I 142 W/m² 13,4 °C 16,3 °C 1,6 km/h (1 Bft)
31.07.2017 07:26 16,3 °C 16,3 °C 83 % 1014,0 hPa 0,0 mm 0,0 km/h (0 Bft) W-NW 284 ° 0 min 0,000 mm 0,7 UV-I 151 W/m² 13,4 °C 16,3 °C 0,0 km/h (0 Bft)
31.07.2017 07:27 16,4 °C 16,4 °C 84 % 1013,9 hPa 0,0 mm 0,0 km/h (0 Bft) W-NW 284 ° 0 min 0,000 mm 0,7 UV-I 155 W/m² 13,7 °C 16,4 °C 0,0 km/h (0 Bft)
31.07.2017 07:28 16,4 °C 16,4 °C 82 % 1014,0 hPa 0,0 mm 2,5 km/h (1 Bft) W 266 ° 0 min 0,000 mm 0,7 UV-I 135 W/m² 13,3 °C 16,4 °C 6,4 km/h (2 Bft)
31.07.2017 07:29 16,7 °C 16,7 °C 81 % 1014,0 hPa 0,0 mm 0,8 km/h (0 Bft) W-SW 251 ° 0 min 0,000 mm 0,7 UV-I 111 W/m² 13,4 °C 16,7 °C 3,2 km/h (1 Bft)
31.07.2017 07:30 16,8 °C 16,8 °C 80 % 1014,0 hPa 0,0 mm 1,5 km/h (1 Bft) S 175 ° 0 min 0,000 mm 0,7 UV-I 91 W/m² 13,3 °C 16,8 °C 4,8 km/h (1 Bft)
31.07.2017 07:31 16,9 °C 16,9 °C 81 % 1014,0 hPa 0,0 mm 3,2 km/h (1 Bft) NW 319 ° 0 min 0,000 mm 0,7 UV-I 86 W/m² 13,6 °C 16,9 °C 6,4 km/h (2 Bft)
31.07.2017 07:32 17,1 °C 17,1 °C 80 % 1014,1 hPa 0,0 mm 2,7 km/h (1 Bft) NW 304 ° 0 min 0,000 mm 0,7 UV-I 84 W/m² 13,6 °C 17,1 °C 4,8 km/h (1 Bft)
31.07.2017 07:33 17,2 °C 17,2 °C 81 % 1014,1 hPa 0,0 mm 1,0 km/h (0 Bft) NW 304 ° 0 min 0,000 mm 0,7 UV-I 83 W/m² 13,9 °C 17,2 °C 3,2 km/h (1 Bft)
31.07.2017 07:34 17,2 °C 17,2 °C 81 % 1014,1 hPa 0,0 mm 0,0 km/h (0 Bft) NW 304 ° 0 min 0,000 mm 0,7 UV-I 84 W/m² 13,9 °C 17,2 °C 0,0 km/h (0 Bft)
31.07.2017 07:35 17,2 °C 17,2 °C 80 % 1014,1 hPa 0,0 mm 0,0 km/h (0 Bft) NW 304 ° 0 min 0,000 mm 0,7 UV-I 83 W/m² 13,7 °C 17,2 °C 0,0 km/h (0 Bft)
31.07.2017 07:36 17,2 °C 17,2 °C 81 % 1014,2 hPa 0,0 mm 0,0 km/h (0 Bft) NW 304 ° 0 min 0,000 mm 0,8 UV-I 97 W/m² 13,9 °C 17,2 °C 0,0 km/h (0 Bft)
31.07.2017 07:37 17,2 °C 17,2 °C 80 % 1014,1 hPa 0,0 mm 0,0 km/h (0 Bft) NW 304 ° 0 min 0,000 mm 0,8 UV-I 134 W/m² 13,7 °C 17,2 °C 0,0 km/h (0 Bft)
31.07.2017 07:38 17,2 °C 17,2 °C 80 % 1014,1 hPa 0,0 mm 0,6 km/h (0 Bft) NW 304 ° 0 min 0,000 mm 0,8 UV-I 149 W/m² 13,7 °C 17,2 °C 3,2 km/h (1 Bft)
31.07.2017 07:39 17,2 °C 17,2 °C 82 % 1014,1 hPa 0,0 mm 1,3 km/h (1 Bft) NW 304 ° 0 min 0,000 mm 0,9 UV-I 151 W/m² 14,1 °C 17,2 °C 3,2 km/h (1 Bft)
31.07.2017 07:40 17,2 °C 17,2 °C 81 % 1014,1 hPa 0,0 mm 0,8 km/h (0 Bft) NW 304 ° 0 min 0,000 mm 0,9 UV-I 163 W/m² 13,9 °C 17,2 °C 1,6 km/h (1 Bft)
31.07.2017 07:41 17,3 °C 17,3 °C 81 % 1014,1 hPa 0,0 mm 0,0 km/h (0 Bft) NW 304 ° 0 min 0,000 mm 0,9 UV-I 165 W/m² 14,0 °C 17,3 °C 0,0 km/h (0 Bft)
31.07.2017 07:42 17,4 °C 17,4 °C 84 % 1014,1 hPa 0,0 mm 0,0 km/h (0 Bft) NW 304 ° 0 min 0,000 mm 0,9 UV-I 158 W/m² 14,7 °C 17,4 °C 0,0 km/h (0 Bft)
31.07.2017 07:43 17,6 °C 17,6 °C 82 % 1014,1 hPa 0,0 mm 0,0 km/h (0 Bft) NW 304 ° 0 min 0,000 mm 0,9 UV-I 160 W/m² 14,5 °C 17,6 °C 0,0 km/h (0 Bft)
31.07.2017 07:44 17,6 °C 17,6 °C 81 % 1014,2 hPa 0,0 mm 0,0 km/h (0 Bft) NW 304 ° 0 min 0,000 mm 0,9 UV-I 158 W/m² 14,3 °C 17,6 °C 0,0 km/h (0 Bft)
31.07.2017 07:45 17,7 °C 17,7 °C 80 % 1014,2 hPa 0,0 mm 0,0 km/h (0 Bft) NW 304 ° 0 min 0,000 mm 1,0 UV-I 165 W/m² 14,2 °C 17,7 °C 0,0 km/h (0 Bft)
31.07.2017 07:46 17,8 °C 17,8 °C 84 % 1014,3 hPa 0,0 mm 0,7 km/h (0 Bft) NW 304 ° 0 min 0,000 mm 1,0 UV-I 171 W/m² 15,1 °C 17,8 °C 3,2 km/h (1 Bft)
31.07.2017 07:47 17,8 °C 17,8 °C 82 % 1014,2 hPa 0,0 mm 1,2 km/h (1 Bft) NW 304 ° 0 min 0,000 mm 1,0 UV-I 174 W/m² 14,7 °C 17,8 °C 3,2 km/h (1 Bft)
31.07.2017 07:48 17,9 °C 17,9 °C 81 % 1014,2 hPa 0,0 mm 0,0 km/h (0 Bft) NW 304 ° 0 min 0,000 mm 1,1 UV-I 178 W/m² 14,6 °C 17,9 °C 0,0 km/h (0 Bft)
31.07.2017 07:49 18,0 °C 18,0 °C 82 % 1014,2 hPa 0,0 mm 0,0 km/h (0 Bft) NW 304 ° 0 min 0,000 mm 1,1 UV-I 181 W/m² 14,9 °C 18,0 °C 0,0 km/h (0 Bft)
31.07.2017 07:50 18,0 °C 18,0 °C 80 % 1014,2 hPa 0,0 mm 0,0 km/h (0 Bft) NW 304 ° 0 min 0,000 mm 1,1 UV-I 186 W/m² 14,5 °C 18,0 °C 0,0 km/h (0 Bft)
31.07.2017 07:51 18,0 °C 18,0 °C 81 % 1014,2 hPa 0,0 mm 0,0 km/h (0 Bft) NW 304 ° 0 min 0,000 mm 1,1 UV-I 197 W/m² 14,7 °C 18,0 °C 0,0 km/h (0 Bft)
31.07.2017 07:52 18,1 °C 18,1 °C 80 % 1014,2 hPa 0,0 mm 0,0 km/h (0 Bft) NW 304 ° 0 min 0,000 mm 1,2 UV-I 199 W/m² 14,6 °C 18,1 °C 0,0 km/h (0 Bft)
31.07.2017 07:53 18,1 °C 18,1 °C 80 % 1014,2 hPa 0,0 mm 0,0 km/h (0 Bft) NW 304 ° 0 min 0,000 mm 1,2 UV-I 204 W/m² 14,6 °C 18,1 °C 0,0 km/h (0 Bft)
31.07.2017 07:54 18,2 °C 18,2 °C 81 % 1014,3 hPa 0,0 mm 0,0 km/h (0 Bft) NW 304 ° 0 min 0,000 mm 1,2 UV-I 209 W/m² 14,9 °C 18,2 °C 0,0 km/h (0 Bft)
31.07.2017 07:55 18,3 °C 18,3 °C 81 % 1014,3 hPa 0,0 mm 0,0 km/h (0 Bft) NW 304 ° 0 min 0,000 mm 1,2 UV-I 211 W/m² 15,0 °C 18,3 °C 0,0 km/h (0 Bft)
31.07.2017 07:56 18,3 °C 18,3 °C 80 % 1014,3 hPa 0,0 mm 0,4 km/h (0 Bft) NW 304 ° 0 min 0,000 mm 1,2 UV-I 218 W/m² 14,8 °C 18,3 °C 1,6 km/h (1 Bft)
31.07.2017 07:57 18,4 °C 18,4 °C 78 % 1014,3 hPa 0,0 mm 0,3 km/h (0 Bft) NW 304 ° 0 min 0,000 mm 1,2 UV-I 221 W/m² 14,5 °C 18,4 °C 1,6 km/h (1 Bft)
31.07.2017 07:58 18,5 °C 18,5 °C 82 % 1014,3 hPa 0,0 mm 0,0 km/h (0 Bft) NW 304 ° 0 min 0,000 mm 1,3 UV-I 223 W/m² 15,4 °C 18,5 °C 0,0 km/h (0 Bft)
31.07.2017 07:59 18,6 °C 18,6 °C 80 % 1014,3 hPa 0,0 mm 0,7 km/h (0 Bft) NW 304 ° 0 min 0,000 mm 1,3 UV-I 230 W/m² 15,1 °C 18,6 °C 3,2 km/h (1 Bft)
31.07.2017 08:00 18,7 °C 18,7 °C 78 % 1014,3 hPa 0,0 mm 1,4 km/h (1 Bft) NW 304 ° 0 min 0,076 mm 1,3 UV-I 230 W/m² 14,8 °C 18,7 °C 3,2 km/h (1 Bft)
31.07.2017 08:01 18,7 °C 18,8 °C 76 % 1014,3 hPa 0,0 mm 0,0 km/h (0 Bft) NW 304 ° 0 min 0,000 mm 1,3 UV-I 232 W/m² 14,4 °C 18,7 °C 0,0 km/h (0 Bft)
31.07.2017 08:02 18,8 °C 18,8 °C 78 % 1014,3 hPa 0,0 mm 0,8 km/h (0 Bft) NW 304 ° 0 min 0,000 mm 1,3 UV-I 230 W/m² 14,9 °C 18,8 °C 3,2 km/h (1 Bft)
31.07.2017 08:03 18,8 °C 18,8 °C 77 % 1014,4 hPa 0,0 mm 0,2 km/h (0 Bft) NW 304 ° 0 min 0,000 mm 1,3 UV-I 230 W/m² 14,7 °C 18,8 °C 1,6 km/h (1 Bft)
31.07.2017 08:04 18,8 °C 18,8 °C 78 % 1014,4 hPa 0,0 mm 0,0 km/h (0 Bft) NW 304 ° 0 min 0,000 mm 1,3 UV-I 239 W/m² 14,9 °C 18,8 °C 0,0 km/h (0 Bft)
31.07.2017 08:05 18,9 °C 18,9 °C 74 % 1014,4 hPa 0,0 mm 0,8 km/h (0 Bft) NW 304 ° 0 min 0,000 mm 1,3 UV-I 237 W/m² 14,2 °C 18,9 °C 3,2 km/h (1 Bft)
31.07.2017 08:06 18,9 °C 18,9 °C 75 % 1014,4 hPa 0,0 mm 0,0 km/h (0 Bft) NW 304 ° 0 min 0,000 mm 1,3 UV-I 237 W/m² 14,4 °C 18,9 °C 0,0 km/h (0 Bft)
31.07.2017 08:07 18,9 °C 18,9 °C 76 % 1014,4 hPa 0,0 mm 0,1 km/h (0 Bft) NW 304 ° 0 min 0,000 mm 1,3 UV-I 248 W/m² 14,6 °C 18,9 °C 1,6 km/h (1 Bft)
31.07.2017 08:08 18,9 °C 18,9 °C 75 % 1014,4 hPa 0,0 mm 0,0 km/h (0 Bft) NW 304 ° 0 min 0,000 mm 1,3 UV-I 246 W/m² 14,4 °C 18,9 °C 0,0 km/h (0 Bft)
31.07.2017 08:09 18,9 °C 18,9 °C 74 % 1014,4 hPa 0,0 mm 0,0 km/h (0 Bft) NW 304 ° 0 min 0,000 mm 1,3 UV-I 223 W/m² 14,2 °C 18,9 °C 0,0 km/h (0 Bft)
31.07.2017 08:10 18,8 °C 18,9 °C 77 % 1014,4 hPa 0,0 mm 0,0 km/h (0 Bft) NW 304 ° 0 min 0,000 mm 1,4 UV-I 246 W/m² 14,7 °C 18,8 °C 0,0 km/h (0 Bft)
31.07.2017 08:11 18,8 °C 18,9 °C 75 % 1014,4 hPa 0,0 mm 0,0 km/h (0 Bft) NW 304 ° 0 min 0,000 mm 1,5 UV-I 278 W/m² 14,3 °C 18,8 °C 0,0 km/h (0 Bft)
31.07.2017 08:12 18,7 °C 18,8 °C 73 % 1014,5 hPa 0,0 mm 0,0 km/h (0 Bft) NW 304 ° 0 min 0,000 mm 1,4 UV-I 260 W/m² 13,8 °C 18,7 °C 0,0 km/h (0 Bft)
31.07.2017 08:13 18,7 °C 18,8 °C 73 % 1014,5 hPa 0,0 mm 0,0 km/h (0 Bft) NW 304 ° 0 min 0,000 mm 1,3 UV-I 193 W/m² 13,8 °C 18,7 °C 0,0 km/h (0 Bft)
31.07.2017 08:14 18,7 °C 18,7 °C 75 % 1014,5 hPa 0,0 mm 0,0 km/h (0 Bft) NW 304 ° 1 min 0,000 mm 1,5 UV-I 292 W/m² 14,2 °C 18,7 °C 0,0 km/h (0 Bft)
31.07.2017 08:15 18,7 °C 18,8 °C 76 % 1014,5 hPa 0,0 mm 0,1 km/h (0 Bft) NW 304 ° 1 min 0,000 mm 1,6 UV-I 299 W/m² 14,4 °C 18,7 °C 1,6 km/h (1 Bft)
31.07.2017 08:16 18,8 °C 18,8 °C 74 % 1014,5 hPa 0,0 mm 0,0 km/h (0 Bft) NW 304 ° 1 min 0,000 mm 1,6 UV-I 308 W/m² 14,1 °C 18,8 °C 0,0 km/h (0 Bft)
31.07.2017 08:17 18,9 °C 18,9 °C 78 % 1014,5 hPa 0,0 mm 0,0 km/h (0 Bft) NW 304 ° 1 min 0,000 mm 1,6 UV-I 311 W/m² 15,0 °C 18,9 °C 0,0 km/h (0 Bft)
31.07.2017 08:18 19,2 °C 19,2 °C 75 % 1014,5 hPa 0,0 mm 0,0 km/h (0 Bft) NW 304 ° 1 min 0,000 mm 1,6 UV-I 313 W/m² 14,7 °C 19,2 °C 0,0 km/h (0 Bft)
31.07.2017 08:19 19,3 °C 19,3 °C 74 % 1014,6 hPa 0,0 mm 0,0 km/h (0 Bft) W-NW 303 ° 1 min 0,000 mm 1,6 UV-I 315 W/m² 14,5 °C 19,3 °C 0,0 km/h (0 Bft)
31.07.2017 08:20 19,3 °C 19,3 °C 75 % 1014,5 hPa 0,0 mm 0,5 km/h (0 Bft) W-NW 292 ° 0 min 0,000 mm 1,5 UV-I 288 W/m² 14,8 °C 19,3 °C 1,6 km/h (1 Bft)
31.07.2017 08:21 19,4 °C 19,4 °C 79 % 1014,6 hPa 0,0 mm 0,0 km/h (0 Bft) W-NW 292 ° 1 min 0,000 mm 1,6 UV-I 309 W/m² 15,7 °C 19,4 °C 0,0 km/h (0 Bft)
31.07.2017 08:22 19,4 °C 19,4 °C 75 % 1014,6 hPa 0,0 mm 0,0 km/h (0 Bft) W-NW 292 ° 0 min 0,000 mm 1,6 UV-I 288 W/m² 14,8 °C 19,4 °C 0,0 km/h (0 Bft)
31.07.2017 08:23 19,6 °C 19,6 °C 77 % 1014,6 hPa 0,0 mm 0,1 km/h (0 Bft) W-NW 292 ° 0 min 0,000 mm 1,6 UV-I 274 W/m² 15,5 °C 19,6 °C 1,6 km/h (1 Bft)
31.07.2017 08:24 19,8 °C 19,8 °C 78 % 1014,6 hPa 0,0 mm 1,6 km/h (1 Bft) W-NW 292 ° 1 min 0,000 mm 1,8 UV-I 320 W/m² 15,8 °C 19,8 °C 3,2 km/h (1 Bft)
31.07.2017 08:25 19,9 °C 19,9 °C 74 % 1014,6 hPa 0,0 mm 0,6 km/h (0 Bft) W-NW 292 ° 1 min 0,000 mm 1,8 UV-I 330 W/m² 15,1 °C 19,9 °C 1,6 km/h (1 Bft)
31.07.2017 08:26 20,2 °C 20,2 °C 72 % 1014,6 hPa 0,0 mm 0,0 km/h (0 Bft) W-NW 292 ° 1 min 0,000 mm 1,6 UV-I 338 W/m² 15,0 °C 20,2 °C 0,0 km/h (0 Bft)
31.07.2017 08:27 20,2 °C 20,2 °C 72 % 1014,6 hPa 0,0 mm 0,0 km/h (0 Bft) W-NW 292 ° 1 min 0,000 mm 1,8 UV-I 297 W/m² 15,0 °C 20,2 °C 0,0 km/h (0 Bft)
31.07.2017 08:28 20,1 °C 20,2 °C 72 % 1014,7 hPa 0,0 mm 0,3 km/h (0 Bft) W-NW 294 ° 1 min 0,000 mm 1,9 UV-I 343 W/m² 14,9 °C 20,1 °C 1,6 km/h (1 Bft)
31.07.2017 08:29 20,1 °C 20,1 °C 71 % 1014,7 hPa 0,0 mm 0,5 km/h (0 Bft) W-NW 294 ° 1 min 0,000 mm 1,9 UV-I 352 W/m² 14,7 °C 20,1 °C 3,2 km/h (1 Bft)
31.07.2017 08:30 20,1 °C 20,2 °C 72 % 1014,7 hPa 0,0 mm 0,5 km/h (0 Bft) W-NW 294 ° 1 min 0,000 mm 1,8 UV-I 339 W/m² 14,9 °C 20,1 °C 3,2 km/h (1 Bft)
31.07.2017 08:31 20,1 °C 20,1 °C 74 % 1014,7 hPa 0,0 mm 0,0 km/h (0 Bft) W-NW 294 ° 1 min 0,000 mm 1,9 UV-I 315 W/m² 15,3 °C 20,1 °C 0,0 km/h (0 Bft)
31.07.2017 08:32 20,3 °C 20,3 °C 75 % 1014,7 hPa 0,0 mm 0,0 km/h (0 Bft) W-NW 294 ° 1 min 0,000 mm 1,9 UV-I 360 W/m² 15,7 °C 20,3 °C 0,0 km/h (0 Bft)
31.07.2017 08:33 20,4 °C 20,4 °C 74 % 1014,7 hPa 0,0 mm 0,1 km/h (0 Bft) W-NW 294 ° 1 min 0,000 mm 1,9 UV-I 359 W/m² 15,6 °C 20,4 °C 1,6 km/h (1 Bft)
31.07.2017 08:34 20,3 °C 20,4 °C 71 % 1014,7 hPa 0,0 mm 0,5 km/h (0 Bft) W-NW 294 ° 1 min 0,000 mm 1,9 UV-I 295 W/m² 14,9 °C 20,3 °C 1,6 km/h (1 Bft)
31.07.2017 08:35 20,2 °C 20,3 °C 74 % 1014,7 hPa 0,0 mm 1,3 km/h (1 Bft) W-NW 294 ° 1 min 0,000 mm 1,8 UV-I 318 W/m² 15,4 °C 20,2 °C 1,6 km/h (1 Bft)
31.07.2017 08:36 20,1 °C 20,2 °C 73 % 1014,7 hPa 0,0 mm 0,0 km/h (0 Bft) W-NW 294 ° 1 min 0,000 mm 1,8 UV-I 292 W/m² 15,1 °C 20,1 °C 0,0 km/h (0 Bft)
31.07.2017 08:37 20,0 °C 20,1 °C 73 % 1014,7 hPa 0,0 mm 0,0 km/h (0 Bft) W-NW 294 ° 1 min 0,000 mm 1,8 UV-I 322 W/m² 15,0 °C 20,0 °C 0,0 km/h (0 Bft)
31.07.2017 08:38 20,0 °C 20,0 °C 72 % 1014,7 hPa 0,0 mm 0,0 km/h (0 Bft) W-NW 294 ° 1 min 0,000 mm 2,0 UV-I 373 W/m² 14,8 °C 20,0 °C 0,0 km/h (0 Bft)
31.07.2017 08:39 19,9 °C 20,0 °C 71 % 1014,7 hPa 0,0 mm 0,0 km/h (0 Bft) W-NW 294 ° 1 min 0,000 mm 2,1 UV-I 367 W/m² 14,5 °C 19,9 °C 0,0 km/h (0 Bft)
31.07.2017 08:40 19,9 °C 19,9 °C 72 % 1014,8 hPa 0,0 mm 1,5 km/h (1 Bft) W-NW 294 ° 1 min 0,000 mm 1,9 UV-I 329 W/m² 14,7 °C 19,9 °C 3,2 km/h (1 Bft)
31.07.2017 08:41 19,9 °C 19,9 °C 71 % 1014,7 hPa 0,0 mm 0,3 km/h (0 Bft) W-NW 294 ° 1 min 0,000 mm 2,1 UV-I 355 W/m² 14,5 °C 19,9 °C 1,6 km/h (1 Bft)
31.07.2017 08:42 19,9 °C 19,9 °C 76 % 1014,7 hPa 0,0 mm 0,7 km/h (0 Bft) W-NW 294 ° 1 min 0,000 mm 2,1 UV-I 378 W/m² 15,5 °C 19,9 °C 1,6 km/h (1 Bft)
31.07.2017 08:43 19,9 °C 19,9 °C 76 % 1014,7 hPa 0,0 mm 0,7 km/h (0 Bft) W-NW 294 ° 0 min 0,000 mm 1,9 UV-I 264 W/m² 15,5 °C 19,9 °C 1,6 km/h (1 Bft)
31.07.2017 08:44 20,0 °C 20,0 °C 76 % 1014,7 hPa 0,0 mm 0,0 km/h (0 Bft) W-NW 294 ° 0 min 0,000 mm 1,8 UV-I 248 W/m² 15,6 °C 20,0 °C 0,0 km/h (0 Bft)
31.07.2017 08:45 20,0 °C 20,0 °C 72 % 1014,8 hPa 0,0 mm 0,0 km/h (0 Bft) W-NW 294 ° 0 min 0,000 mm 1,9 UV-I 258 W/m² 14,8 °C 20,0 °C 0,0 km/h (0 Bft)
31.07.2017 08:46 20,0 °C 20,1 °C 73 % 1014,7 hPa 0,0 mm 0,0 km/h (0 Bft) W-NW 294 ° 1 min 0,000 mm 2,1 UV-I 338 W/m² 15,0 °C 20,0 °C 0,0 km/h (0 Bft)
31.07.2017 08:47 20,1 °C 20,1 °C 75 % 1014,7 hPa 0,0 mm 0,0 km/h (0 Bft) W-NW 294 ° 1 min 0,000 mm 2,2 UV-I 373 W/m² 15,5 °C 20,1 °C 0,0 km/h (0 Bft)
31.07.2017 08:48 20,2 °C 20,2 °C 78 % 1014,7 hPa 0,0 mm 0,1 km/h (0 Bft) W-NW 294 ° 1 min 0,000 mm 2,2 UV-I 381 W/m² 16,2 °C 20,2 °C 1,6 km/h (1 Bft)
31.07.2017 08:49 20,2 °C 20,2 °C 73 % 1014,7 hPa 0,0 mm 1,8 km/h (1 Bft) W-NW 294 ° 1 min 0,000 mm 2,2 UV-I 392 W/m² 15,2 °C 20,2 °C 3,2 km/h (1 Bft)
31.07.2017 08:50 20,2 °C 20,2 °C 77 % 1014,7 hPa 0,0 mm 1,3 km/h (1 Bft) W-NW 294 ° 1 min 0,000 mm 2,3 UV-I 387 W/m² 16,0 °C 20,2 °C 3,2 km/h (1 Bft)
31.07.2017 08:51 20,3 °C 20,3 °C 74 % 1014,6 hPa 0,0 mm 0,0 km/h (0 Bft) W-NW 294 ° 1 min 0,000 mm 2,3 UV-I 396 W/m² 15,5 °C 20,3 °C 0,0 km/h (0 Bft)
31.07.2017 08:52 20,4 °C 20,4 °C 74 % 1014,6 hPa 0,0 mm 0,1 km/h (0 Bft) W-NW 294 ° 1 min 0,000 mm 2,2 UV-I 364 W/m² 15,6 °C 20,4 °C 1,6 km/h (1 Bft)
31.07.2017 08:53 20,4 °C 20,4 °C 76 % 1014,6 hPa 0,0 mm 0,0 km/h (0 Bft) W-NW 294 ° 1 min 0,000 mm 2,2 UV-I 350 W/m² 16,0 °C 20,4 °C 0,0 km/h (0 Bft)
31.07.2017 08:54 20,4 °C 20,4 °C 73 % 1014,6 hPa 0,0 mm 0,0 km/h (0 Bft) W-NW 294 ° 1 min 0,000 mm 2,4 UV-I 350 W/m² 15,4 °C 20,4 °C 0,0 km/h (0 Bft)
31.07.2017 08:55 20,4 °C 20,4 °C 70 % 1014,6 hPa 0,0 mm 0,0 km/h (0 Bft) W-NW 294 ° 1 min 0,000 mm 2,4 UV-I 411 W/m² 14,7 °C 20,4 °C 0,0 km/h (0 Bft)
31.07.2017 08:56 20,4 °C 20,4 °C 72 % 1014,5 hPa 0,0 mm 0,0 km/h (0 Bft) W-NW 294 ° 1 min 0,000 mm 2,2 UV-I 345 W/m² 15,2 °C 20,4 °C 0,0 km/h (0 Bft)
31.07.2017 08:57 20,6 °C 20,6 °C 73 % 1014,6 hPa 0,0 mm 0,0 km/h (0 Bft) W-NW 294 ° 1 min 0,000 mm 2,4 UV-I 406 W/m² 15,6 °C 20,6 °C 0,0 km/h (0 Bft)
31.07.2017 08:58 20,6 °C 20,6 °C 77 % 1014,6 hPa 0,0 mm 0,0 km/h (0 Bft) W-NW 294 ° 1 min 0,000 mm 2,3 UV-I 381 W/m² 16,4 °C 20,6 °C 0,0 km/h (0 Bft)
31.07.2017 08:59 20,6 °C 20,6 °C 73 % 1014,5 hPa 0,0 mm 0,0 km/h (0 Bft) W-NW 294 ° 1 min 0,000 mm 2,3 UV-I 385 W/m² 15,6 °C 20,6 °C 0,0 km/h (0 Bft)
31.07.2017 09:00 20,6 °C 20,6 °C 72 % 1014,5 hPa 0,0 mm 0,0 km/h (0 Bft) W-NW 294 ° 1 min 0,000 mm 2,3 UV-I 353 W/m² 15,4 °C 20,6 °C 0,0 km/h (0 Bft)
31.07.2017 09:01 20,6 °C 20,7 °C 72 % 1014,5 hPa 0,0 mm 0,0 km/h (0 Bft) W-NW 294 ° 1 min 0,178 mm 2,3 UV-I 399 W/m² 15,4 °C 20,6 °C 0,0 km/h (0 Bft)
31.07.2017 09:02 20,7 °C 20,7 °C 71 % 1014,5 hPa 0,0 mm 0,0 km/h (0 Bft) W-NW 294 ° 1 min 0,000 mm 2,4 UV-I 376 W/m² 15,2 °C 20,7 °C 0,0 km/h (0 Bft)
31.07.2017 09:03 20,7 °C 20,7 °C 75 % 1014,5 hPa 0,0 mm 0,0 km/h (0 Bft) W-NW 294 ° 1 min 0,000 mm 2,4 UV-I 383 W/m² 16,1 °C 20,7 °C 0,0 km/h (0 Bft)
31.07.2017 09:04 20,7 °C 20,7 °C 72 % 1014,5 hPa 0,0 mm 0,0 km/h (0 Bft) W-NW 294 ° 1 min 0,000 mm 2,5 UV-I 413 W/m² 15,5 °C 20,7 °C 0,0 km/h (0 Bft)
31.07.2017 09:05 20,8 °C 20,8 °C 72 % 1014,5 hPa 0,0 mm 0,0 km/h (0 Bft) W-NW 294 ° 1 min 0,000 mm 2,6 UV-I 431 W/m² 15,6 °C 20,8 °C 0,0 km/h (0 Bft)
31.07.2017 09:06 20,8 °C 20,8 °C 74 % 1014,5 hPa 0,0 mm 0,0 km/h (0 Bft) W-NW 294 ° 1 min 0,000 mm 2,5 UV-I 411 W/m² 16,0 °C 20,8 °C 0,0 km/h (0 Bft)
31.07.2017 09:07 20,9 °C 20,9 °C 74 % 1014,5 hPa 0,0 mm 0,0 km/h (0 Bft) W-NW 294 ° 1 min 0,000 mm 2,5 UV-I 431 W/m² 16,1 °C 20,9 °C 0,0 km/h (0 Bft)
31.07.2017 09:08 20,9 °C 20,9 °C 72 % 1014,5 hPa 0,0 mm 0,0 km/h (0 Bft) W-NW 294 ° 1 min 0,000 mm 2,5 UV-I 394 W/m² 15,7 °C 20,9 °C 0,0 km/h (0 Bft)
31.07.2017 09:09 20,9 °C 20,9 °C 70 % 1014,4 hPa 0,0 mm 0,0 km/h (0 Bft) W-NW 294 ° 1 min 0,000 mm 2,5 UV-I 350 W/m² 15,2 °C 20,9 °C 0,0 km/h (0 Bft)
31.07.2017 09:10 20,9 °C 20,9 °C 68 % 1014,4 hPa 0,0 mm 0,0 km/h (0 Bft) W-NW 294 ° 1 min 0,000 mm 2,7 UV-I 417 W/m² 14,8 °C 20,9 °C 0,0 km/h (0 Bft)
31.07.2017 09:11 20,9 °C 20,9 °C 69 % 1014,4 hPa 0,0 mm 0,0 km/h (0 Bft) W-NW 294 ° 1 min 0,000 mm 2,7 UV-I 434 W/m² 15,0 °C 20,9 °C 0,0 km/h (0 Bft)
31.07.2017 09:12 20,9 °C 20,9 °C 70 % 1014,4 hPa 0,0 mm 0,0 km/h (0 Bft) W-NW 294 ° 1 min 0,000 mm 2,8 UV-I 469 W/m² 15,2 °C 20,9 °C 0,0 km/h (0 Bft)
31.07.2017 09:13 21,1 °C 21,1 °C 71 % 1014,4 hPa 0,0 mm 0,0 km/h (0 Bft) W-NW 294 ° 1 min 0,000 mm 2,6 UV-I 413 W/m² 15,6 °C 21,1 °C 0,0 km/h (0 Bft)
31.07.2017 09:14 21,2 °C 21,2 °C 72 % 1014,4 hPa 0,0 mm 0,0 km/h (0 Bft) W-NW 294 ° 1 min 0,000 mm 2,8 UV-I 457 W/m² 15,9 °C 21,2 °C 0,0 km/h (0 Bft)
31.07.2017 09:15 21,2 °C 21,2 °C 73 % 1014,4 hPa 0,0 mm 0,0 km/h (0 Bft) W-NW 294 ° 1 min 0,000 mm 2,8 UV-I 432 W/m² 16,2 °C 21,2 °C 0,0 km/h (0 Bft)
31.07.2017 09:16 21,3 °C 21,3 °C 68 % 1014,5 hPa 0,0 mm 0,0 km/h (0 Bft) W-NW 294 ° 1 min 0,000 mm 2,5 UV-I 406 W/m² 15,1 °C 21,3 °C 0,0 km/h (0 Bft)
31.07.2017 09:17 21,3 °C 21,3 °C 71 % 1014,4 hPa 0,0 mm 0,0 km/h (0 Bft) W-NW 294 ° 1 min 0,000 mm 2,6 UV-I 352 W/m² 15,8 °C 21,3 °C 0,0 km/h (0 Bft)
31.07.2017 09:18 21,3 °C 21,3 °C 70 % 1014,4 hPa 0,0 mm 0,0 km/h (0 Bft) W-NW 294 ° 1 min 0,000 mm 2,4 UV-I 338 W/m² 15,6 °C 21,3 °C 0,0 km/h (0 Bft)
31.07.2017 09:19 21,3 °C 21,3 °C 69 % 1014,4 hPa 0,0 mm 0,0 km/h (0 Bft) W-NW 294 ° 1 min 0,000 mm 2,6 UV-I 322 W/m² 15,4 °C 21,3 °C 0,0 km/h (0 Bft)
31.07.2017 09:20 21,2 °C 21,3 °C 69 % 1014,5 hPa 0,0 mm 0,0 km/h (0 Bft) W-NW 294 ° 1 min 0,000 mm 2,5 UV-I 346 W/m² 15,3 °C 21,2 °C 0,0 km/h (0 Bft)
31.07.2017 09:21 21,2 °C 21,2 °C 68 % 1014,5 hPa 0,0 mm 0,0 km/h (0 Bft) W-NW 294 ° 1 min 0,000 mm 2,6 UV-I 366 W/m² 15,1 °C 21,2 °C 0,0 km/h (0 Bft)
31.07.2017 09:22 21,2 °C 21,2 °C 69 % 1014,5 hPa 0,0 mm 0,0 km/h (0 Bft) W-NW 294 ° 1 min 0,000 mm 2,5 UV-I 364 W/m² 15,3 °C 21,2 °C 0,0 km/h (0 Bft)
31.07.2017 09:23 21,2 °C 21,2 °C 71 % 1014,6 hPa 0,0 mm 0,0 km/h (0 Bft) W-NW 294 ° 1 min 0,000 mm 2,4 UV-I 341 W/m² 15,7 °C 21,2 °C 0,0 km/h (0 Bft)
31.07.2017 09:24 21,2 °C 21,2 °C 72 % 1014,5 hPa 0,0 mm 0,0 km/h (0 Bft) W-NW 294 ° 1 min 0,000 mm 2,5 UV-I 345 W/m² 15,9 °C 21,2 °C 0,0 km/h (0 Bft)
31.07.2017 09:25 21,2 °C 21,2 °C 76 % 1014,5 hPa 0,0 mm 0,0 km/h (0 Bft) W-NW 294 ° 1 min 0,000 mm 2,5 UV-I 373 W/m² 16,8 °C 21,2 °C 0,0 km/h (0 Bft)
31.07.2017 09:26 21,3 °C 21,3 °C 77 % 1014,5 hPa 0,0 mm 0,0 km/h (0 Bft) W-NW 294 ° 1 min 0,000 mm 2,7 UV-I 394 W/m² 17,1 °C 21,3 °C 0,0 km/h (0 Bft)
31.07.2017 09:27 21,4 °C 21,4 °C 70 % 1014,5 hPa 0,0 mm 0,0 km/h (0 Bft) W-NW 294 ° 1 min 0,000 mm 2,7 UV-I 371 W/m² 15,7 °C 21,4 °C 0,0 km/h (0 Bft)
31.07.2017 09:28 21,4 °C 21,4 °C 72 % 1014,5 hPa 0,0 mm 0,9 km/h (0 Bft) W-NW 294 ° 1 min 0,000 mm 2,7 UV-I 362 W/m² 16,1 °C 21,4 °C 1,6 km/h (1 Bft)
31.07.2017 09:29 21,6 °C 21,6 °C 69 % 1014,5 hPa 0,0 mm 1,4 km/h (1 Bft) W-NW 294 ° 1 min 0,000 mm 2,8 UV-I 406 W/m² 15,7 °C 21,6 °C 3,2 km/h (1 Bft)
31.07.2017 09:30 21,6 °C 21,6 °C 68 % 1014,5 hPa 0,0 mm 0,0 km/h (0 Bft) W-NW 294 ° 1 min 0,000 mm 2,8 UV-I 406 W/m² 15,4 °C 21,6 °C 0,0 km/h (0 Bft)
31.07.2017 09:31 21,6 °C 21,6 °C 69 % 1014,5 hPa 0,0 mm 0,0 km/h (0 Bft) W-NW 294 ° 1 min 0,000 mm 2,9 UV-I 427 W/m² 15,7 °C 21,6 °C 0,0 km/h (0 Bft)
31.07.2017 09:32 21,6 °C 21,6 °C 69 % 1014,5 hPa 0,0 mm 0,0 km/h (0 Bft) W-NW 294 ° 1 min 0,000 mm 3,0 UV-I 417 W/m² 15,7 °C 21,6 °C 0,0 km/h (0 Bft)
31.07.2017 09:33 21,7 °C 21,7 °C 67 % 1014,6 hPa 0,0 mm 0,0 km/h (0 Bft) W-NW 294 ° 1 min 0,000 mm 3,1 UV-I 450 W/m² 15,3 °C 21,7 °C 0,0 km/h (0 Bft)
31.07.2017 09:34 21,7 °C 21,7 °C 67 % 1014,6 hPa 0,0 mm 0,0 km/h (0 Bft) W-NW 294 ° 1 min 0,000 mm 3,1 UV-I 454 W/m² 15,3 °C 21,7 °C 0,0 km/h (0 Bft)
31.07.2017 09:35 21,8 °C 21,8 °C 69 % 1014,6 hPa 0,0 mm 0,0 km/h (0 Bft) W-NW 294 ° 1 min 0,000 mm 3,3 UV-I 492 W/m² 15,9 °C 21,8 °C 0,0 km/h (0 Bft)
31.07.2017 09:36 21,8 °C 21,8 °C 65 % 1014,6 hPa 0,0 mm 0,0 km/h (0 Bft) W-NW 294 ° 1 min 0,000 mm 3,6 UV-I 568 W/m² 14,9 °C 21,8 °C 0,0 km/h (0 Bft)
31.07.2017 09:37 22,1 °C 22,1 °C 70 % 1014,5 hPa 0,0 mm 0,0 km/h (0 Bft) W-NW 294 ° 1 min 0,000 mm 3,5 UV-I 540 W/m² 16,4 °C 22,1 °C 0,0 km/h (0 Bft)
31.07.2017 09:38 22,3 °C 22,3 °C 72 % 1014,5 hPa 0,0 mm 0,0 km/h (0 Bft) W-NW 294 ° 1 min 0,000 mm 3,5 UV-I 529 W/m² 17,0 °C 22,3 °C 0,0 km/h (0 Bft)
31.07.2017 09:39 22,6 °C 22,6 °C 69 % 1014,4 hPa 0,0 mm 0,0 km/h (0 Bft) W-NW 294 ° 1 min 0,000 mm 3,4 UV-I 524 W/m² 16,6 °C 22,6 °C 0,0 km/h (0 Bft)
31.07.2017 09:40 22,8 °C 22,8 °C 69 % 1014,4 hPa 0,0 mm 0,0 km/h (0 Bft) W-NW 294 ° 1 min 0,000 mm 3,4 UV-I 519 W/m² 16,8 °C 22,8 °C 0,0 km/h (0 Bft)
31.07.2017 09:41 22,8 °C 22,8 °C 63 % 1014,5 hPa 0,0 mm 0,0 km/h (0 Bft) W-NW 294 ° 1 min 0,000 mm 3,4 UV-I 494 W/m² 15,4 °C 22,8 °C 0,0 km/h (0 Bft)
31.07.2017 09:42 22,7 °C 22,8 °C 62 % 1014,4 hPa 0,0 mm 0,0 km/h (0 Bft) W-NW 294 ° 1 min 0,000 mm 3,6 UV-I 563 W/m² 15,0 °C 22,7 °C 0,0 km/h (0 Bft)
31.07.2017 09:43 22,7 °C 22,7 °C 64 % 1014,4 hPa 0,0 mm 1,4 km/h (1 Bft) W-NW 294 ° 1 min 0,000 mm 3,5 UV-I 492 W/m² 15,5 °C 22,7 °C 3,2 km/h (1 Bft)
31.07.2017 09:44 22,6 °C 22,7 °C 66 % 1014,4 hPa 0,0 mm 1,8 km/h (1 Bft) W-NW 294 ° 1 min 0,000 mm 3,6 UV-I 536 W/m² 15,9 °C 22,6 °C 3,2 km/h (1 Bft)
31.07.2017 09:45 22,6 °C 22,6 °C 64 % 1014,4 hPa 0,0 mm 0,0 km/h (0 Bft) W-NW 294 ° 1 min 0,000 mm 3,5 UV-I 497 W/m² 15,4 °C 22,6 °C 0,0 km/h (0 Bft)
31.07.2017 09:46 22,6 °C 22,6 °C 60 % 1014,5 hPa 0,0 mm 0,0 km/h (0 Bft) W-NW 294 ° 1 min 0,000 mm 3,4 UV-I 501 W/m² 14,4 °C 22,6 °C 0,0 km/h (0 Bft)
31.07.2017 09:47 22,8 °C 22,8 °C 64 % 1014,5 hPa 0,0 mm 0,6 km/h (0 Bft) W-NW 294 ° 1 min 0,000 mm 3,2 UV-I 434 W/m² 15,6 °C 22,8 °C 1,6 km/h (1 Bft)
31.07.2017 09:48 22,8 °C 22,8 °C 64 % 1014,5 hPa 0,0 mm 1,9 km/h (1 Bft) W-NW 294 ° 1 min 0,000 mm 3,3 UV-I 461 W/m² 15,6 °C 22,8 °C 3,2 km/h (1 Bft)
31.07.2017 09:49 22,8 °C 22,8 °C 63 % 1014,5 hPa 0,0 mm 0,7 km/h (0 Bft) W-NW 294 ° 1 min 0,000 mm 3,5 UV-I 522 W/m² 15,4 °C 22,8 °C 1,6 km/h (1 Bft)
31.07.2017 09:50 22,8 °C 22,8 °C 67 % 1014,4 hPa 0,0 mm 0,0 km/h (0 Bft) W-NW 294 ° 1 min 0,000 mm 3,4 UV-I 497 W/m² 16,3 °C 22,8 °C 0,0 km/h (0 Bft)
31.07.2017 09:51 22,8 °C 22,8 °C 62 % 1014,4 hPa 0,0 mm 0,0 km/h (0 Bft) W-NW 294 ° 1 min 0,000 mm 3,6 UV-I 512 W/m² 15,1 °C 22,8 °C 0,0 km/h (0 Bft)
31.07.2017 09:52 22,9 °C 22,9 °C 66 % 1014,4 hPa 0,0 mm 0,4 km/h (0 Bft) W-NW 294 ° 1 min 0,000 mm 3,3 UV-I 512 W/m² 16,2 °C 22,9 °C 1,6 km/h (1 Bft)
31.07.2017 09:53 22,8 °C 22,9 °C 60 % 1014,4 hPa 0,0 mm 2,0 km/h (1 Bft) N-NW 328 ° 1 min 0,000 mm 3,3 UV-I 450 W/m² 14,6 °C 22,8 °C 3,2 km/h (1 Bft)
31.07.2017 09:54 22,7 °C 22,8 °C 63 % 1014,4 hPa 0,0 mm 3,0 km/h (1 Bft) O-NO 65 ° 1 min 0,000 mm 3,5 UV-I 420 W/m² 15,3 °C 22,7 °C 4,8 km/h (1 Bft)
31.07.2017 09:55 22,6 °C 22,7 °C 65 % 1014,3 hPa 0,0 mm 2,7 km/h (1 Bft) O-NO 65 ° 1 min 0,000 mm 3,5 UV-I 462 W/m² 15,7 °C 22,6 °C 3,2 km/h (1 Bft)
31.07.2017 09:56 22,6 °C 22,6 °C 62 % 1014,3 hPa 0,0 mm 0,7 km/h (0 Bft) O-NO 65 ° 1 min 0,000 mm 3,4 UV-I 464 W/m² 14,9 °C 22,6 °C 3,2 km/h (1 Bft)
31.07.2017 09:57 22,7 °C 22,7 °C 67 % 1014,3 hPa 0,0 mm 1,4 km/h (1 Bft) O-NO 65 ° 1 min 0,000 mm 3,4 UV-I 483 W/m² 16,2 °C 22,7 °C 3,2 km/h (1 Bft)
31.07.2017 09:58 22,6 °C 22,7 °C 63 % 1014,3 hPa 0,0 mm 0,9 km/h (0 Bft) O-NO 65 ° 1 min 0,000 mm 3,8 UV-I 504 W/m² 15,2 °C 22,6 °C 1,6 km/h (1 Bft)
31.07.2017 09:59 22,4 °C 22,6 °C 59 % 1014,3 hPa 0,0 mm 0,2 km/h (0 Bft) O-NO 65 ° 1 min 0,000 mm 3,8 UV-I 568 W/m² 14,0 °C 22,4 °C 1,6 km/h (1 Bft)
31.07.2017 10:00 22,7 °C 22,7 °C 56 % 1014,3 hPa 0,0 mm 1,1 km/h (1 Bft) O-NO 65 ° 1 min 0,000 mm 3,8 UV-I 552 W/m² 13,5 °C 22,7 °C 3,2 km/h (1 Bft)
31.07.2017 10:01 22,8 °C 22,8 °C 56 % 1014,3 hPa 0,0 mm 0,6 km/h (0 Bft) O-NO 65 ° 1 min 0,254 mm 4,2 UV-I 610 W/m² 13,6 °C 22,8 °C 1,6 km/h (1 Bft)
31.07.2017 10:02 22,8 °C 22,8 °C 66 % 1014,2 hPa 0,0 mm 0,0 km/h (0 Bft) O-NO 65 ° 1 min 0,000 mm 4,0 UV-I 559 W/m² 16,1 °C 22,8 °C 0,0 km/h (0 Bft)
31.07.2017 10:03 22,8 °C 22,8 °C 62 % 1014,3 hPa 0,0 mm 0,0 km/h (0 Bft) O-NO 65 ° 1 min 0,000 mm 4,3 UV-I 628 W/m² 15,1 °C 22,8 °C 0,0 km/h (0 Bft)
31.07.2017 10:04 22,9 °C 22,9 °C 72 % 1014,3 hPa 0,0 mm 0,0 km/h (0 Bft) O-NO 65 ° 1 min 0,000 mm 4,5 UV-I 640 W/m² 17,6 °C 22,9 °C 0,0 km/h (0 Bft)
31.07.2017 10:05 23,1 °C 23,1 °C 65 % 1014,2 hPa 0,0 mm 0,0 km/h (0 Bft) O-NO 65 ° 1 min 0,000 mm 4,6 UV-I 677 W/m² 16,2 °C 23,1 °C 0,0 km/h (0 Bft)
31.07.2017 10:06 23,1 °C 23,1 °C 59 % 1014,3 hPa 0,0 mm 0,0 km/h (0 Bft) O-NO 65 ° 1 min 0,000 mm 4,6 UV-I 666 W/m² 14,6 °C 23,1 °C 0,0 km/h (0 Bft)
31.07.2017 10:07 23,3 °C 23,3 °C 60 % 1014,3 hPa 0,0 mm 2,5 km/h (1 Bft) N-NO 17 ° 1 min 0,000 mm 4,5 UV-I 619 W/m² 15,1 °C 23,3 °C 4,8 km/h (1 Bft)
31.07.2017 10:08 23,6 °C 23,6 °C 66 % 1014,3 hPa 0,0 mm 3,2 km/h (1 Bft) N-NO 17 ° 1 min 0,000 mm 4,8 UV-I 619 W/m² 16,9 °C 23,6 °C 4,8 km/h (1 Bft)
31.07.2017 10:09 23,8 °C 23,8 °C 58 % 1014,3 hPa 0,0 mm 3,2 km/h (1 Bft) N-NO 14 ° 1 min 0,000 mm 4,8 UV-I 717 W/m² 15,0 °C 23,8 °C 4,8 km/h (1 Bft)
31.07.2017 10:10 23,9 °C 23,9 °C 55 % 1014,2 hPa 0,0 mm 2,6 km/h (1 Bft) N-NO 13 ° 1 min 0,000 mm 4,7 UV-I 728 W/m² 14,3 °C 23,9 °C 4,8 km/h (1 Bft)
31.07.2017 10:11 23,9 °C 23,9 °C 58 % 1014,3 hPa 0,0 mm 2,3 km/h (1 Bft) O-NO 69 ° 1 min 0,000 mm 4,4 UV-I 608 W/m² 15,1 °C 23,9 °C 4,8 km/h (1 Bft)
31.07.2017 10:12 23,9 °C 23,9 °C 62 % 1014,3 hPa 0,0 mm 2,3 km/h (1 Bft) N-NO 24 ° 1 min 0,000 mm 3,9 UV-I 608 W/m² 16,2 °C 23,9 °C 4,8 km/h (1 Bft)
31.07.2017 10:13 23,9 °C 23,9 °C 55 % 1014,2 hPa 0,0 mm 2,6 km/h (1 Bft) NO 38 ° 1 min 0,000 mm 3,6 UV-I 417 W/m² 14,3 °C 23,9 °C 3,2 km/h (1 Bft)
31.07.2017 10:14 23,9 °C 23,9 °C 58 % 1014,3 hPa 0,0 mm 2,7 km/h (1 Bft) O-NO 67 ° 1 min 0,000 mm 3,5 UV-I 483 W/m² 15,1 °C 23,9 °C 4,8 km/h (1 Bft)
31.07.2017 10:15 23,9 °C 23,9 °C 56 % 1014,3 hPa 0,0 mm 4,2 km/h (1 Bft) O-NO 61 ° 1 min 0,000 mm 2,8 UV-I 483 W/m² 14,6 °C 23,9 °C 6,4 km/h (2 Bft)
31.07.2017 10:16 23,8 °C 23,9 °C 53 % 1014,3 hPa 0,0 mm 2,1 km/h (1 Bft) O-NO 61 ° 1 min 0,000 mm 2,8 UV-I 338 W/m² 13,6 °C 23,8 °C 3,2 km/h (1 Bft)
31.07.2017 10:17 23,7 °C 23,8 °C 53 % 1014,3 hPa 0,0 mm 1,5 km/h (1 Bft) O-NO 63 ° 1 min 0,000 mm 3,1 UV-I 450 W/m² 13,5 °C 23,7 °C 3,2 km/h (1 Bft)
31.07.2017 10:18 23,6 °C 23,7 °C 58 % 1014,3 hPa 0,0 mm 1,4 km/h (1 Bft) O-NO 63 ° 1 min 0,000 mm 4,1 UV-I 450 W/m² 14,8 °C 23,6 °C 3,2 km/h (1 Bft)
31.07.2017 10:19 23,5 °C 23,6 °C 58 % 1014,3 hPa 0,0 mm 0,3 km/h (0 Bft) O-NO 63 ° 1 min 0,000 mm 4,1 UV-I 589 W/m² 14,7 °C 23,5 °C 1,6 km/h (1 Bft)
31.07.2017 10:20 23,4 °C 23,5 °C 61 % 1014,2 hPa 0,0 mm 0,2 km/h (0 Bft) O-NO 63 ° 1 min 0,000 mm 3,9 UV-I 589 W/m² 15,4 °C 23,4 °C 1,6 km/h (1 Bft)
31.07.2017 10:21 23,3 °C 23,4 °C 61 % 1014,2 hPa 0,0 mm 0,7 km/h (0 Bft) O-NO 63 ° 1 min 0,000 mm 3,9 UV-I 374 W/m² 15,3 °C 23,3 °C 1,6 km/h (1 Bft)
31.07.2017 10:22 23,2 °C 23,3 °C 62 % 1014,2 hPa 0,0 mm 1,7 km/h (1 Bft) O-NO 63 ° 1 min 0,000 mm 4,6 UV-I 374 W/m² 15,5 °C 23,2 °C 3,2 km/h (1 Bft)
31.07.2017 10:23 23,2 °C 23,2 °C 58 % 1014,3 hPa 0,0 mm 0,0 km/h (0 Bft) O-NO 63 ° 1 min 0,000 mm 4,6 UV-I 670 W/m² 14,5 °C 23,2 °C 0,0 km/h (0 Bft)
31.07.2017 10:24 23,3 °C 23,3 °C 58 % 1014,2 hPa 0,0 mm 0,0 km/h (0 Bft) O-NO 63 ° 1 min 0,000 mm 4,9 UV-I 714 W/m² 14,6 °C 23,3 °C 0,0 km/h (0 Bft)
31.07.2017 10:25 23,4 °C 23,4 °C 60 % 1014,3 hPa 0,0 mm 1,0 km/h (0 Bft) N-NO 28 ° 1 min 0,000 mm 4,9 UV-I 708 W/m² 15,2 °C 23,4 °C 4,8 km/h (1 Bft)
31.07.2017 10:26 23,6 °C 23,6 °C 63 % 1014,2 hPa 0,0 mm 3,4 km/h (1 Bft) NO 47 ° 1 min 0,000 mm 4,8 UV-I 712 W/m² 16,1 °C 23,6 °C 6,4 km/h (2 Bft)
31.07.2017 10:27 23,7 °C 23,7 °C 61 % 1014,2 hPa 0,0 mm 1,9 km/h (1 Bft) NO 44 ° 1 min 0,000 mm 3,9 UV-I 712 W/m² 15,7 °C 23,7 °C 4,8 km/h (1 Bft)
31.07.2017 10:28 23,8 °C 23,8 °C 59 % 1014,2 hPa 0,0 mm 2,3 km/h (1 Bft) NO 51 ° 1 min 0,000 mm 3,9 UV-I 635 W/m² 15,3 °C 23,8 °C 4,8 km/h (1 Bft)
31.07.2017 10:29 23,7 °C 23,8 °C 57 % 1014,2 hPa 0,0 mm 2,1 km/h (1 Bft) NO 51 ° 1 min 0,000 mm 3,5 UV-I 534 W/m² 14,7 °C 23,7 °C 4,8 km/h (1 Bft)
31.07.2017 10:30 23,6 °C 23,7 °C 58 % 1014,2 hPa 0,0 mm 2,0 km/h (1 Bft) NO 52 ° 1 min 0,000 mm 4,1 UV-I 534 W/m² 14,8 °C 23,6 °C 3,2 km/h (1 Bft)
31.07.2017 10:31 23,6 °C 23,7 °C 59 % 1014,2 hPa 0,0 mm 2,4 km/h (1 Bft) NO 53 ° 1 min 0,000 mm 3,2 UV-I 534 W/m² 15,1 °C 23,6 °C 4,8 km/h (1 Bft)
31.07.2017 10:32 23,6 °C 23,6 °C 61 % 1014,2 hPa 0,0 mm 2,2 km/h (1 Bft) NO 42 ° 0 min 0,000 mm 3,1 UV-I 278 W/m² 15,6 °C 23,6 °C 4,8 km/h (1 Bft)
31.07.2017 10:33 23,6 °C 23,6 °C 64 % 1014,2 hPa 0,0 mm 2,4 km/h (1 Bft) O 95 ° 1 min 0,000 mm 3,1 UV-I 295 W/m² 16,4 °C 23,6 °C 4,8 km/h (1 Bft)
31.07.2017 10:34 23,3 °C 23,6 °C 63 % 1014,2 hPa 0,0 mm 4,4 km/h (1 Bft) O-NO 66 ° 0 min 0,000 mm 2,7 UV-I 278 W/m² 15,9 °C 23,3 °C 9,7 km/h (2 Bft)
31.07.2017 10:35 23,3 °C 23,3 °C 62 % 1014,1 hPa 0,0 mm 3,6 km/h (1 Bft) O 92 ° 1 min 0,000 mm 3,0 UV-I 371 W/m² 15,6 °C 23,3 °C 4,8 km/h (1 Bft)
31.07.2017 10:36 23,3 °C 23,3 °C 64 % 1014,2 hPa 0,0 mm 1,7 km/h (1 Bft) O-SO 111 ° 1 min 0,000 mm 3,8 UV-I 417 W/m² 16,1 °C 23,3 °C 4,8 km/h (1 Bft)
31.07.2017 10:37 23,3 °C 23,3 °C 64 % 1014,2 hPa 0,0 mm 0,4 km/h (0 Bft) O-SO 111 ° 1 min 0,000 mm 4,2 UV-I 478 W/m² 16,1 °C 23,3 °C 1,6 km/h (1 Bft)
31.07.2017 10:38 23,3 °C 23,3 °C 63 % 1014,2 hPa 0,0 mm 0,2 km/h (0 Bft) O-SO 111 ° 1 min 0,000 mm 4,1 UV-I 508 W/m² 15,9 °C 23,3 °C 1,6 km/h (1 Bft)
31.07.2017 10:39 23,3 °C 23,3 °C 67 % 1014,2 hPa 0,0 mm 0,9 km/h (0 Bft) O-SO 111 ° 1 min 0,000 mm 3,3 UV-I 508 W/m² 16,8 °C 23,3 °C 3,2 km/h (1 Bft)
31.07.2017 10:40 23,3 °C 23,3 °C 63 % 1014,2 hPa 0,0 mm 1,7 km/h (1 Bft) O-NO 61 ° 1 min 0,000 mm 3,2 UV-I 334 W/m² 15,9 °C 23,3 °C 3,2 km/h (1 Bft)
31.07.2017 10:41 23,3 °C 23,3 °C 63 % 1014,1 hPa 0,0 mm 3,0 km/h (1 Bft) O-NO 61 ° 1 min 0,000 mm 3,3 UV-I 348 W/m² 15,9 °C 23,3 °C 4,8 km/h (1 Bft)
31.07.2017 10:42 23,2 °C 23,3 °C 64 % 1014,1 hPa 0,0 mm 1,1 km/h (1 Bft) O-NO 61 ° 1 min 0,000 mm 3,3 UV-I 346 W/m² 16,0 °C 23,2 °C 3,2 km/h (1 Bft)
31.07.2017 10:43 23,1 °C 23,2 °C 64 % 1014,1 hPa 0,0 mm 3,3 km/h (1 Bft) O-NO 71 ° 1 min 0,000 mm 3,3 UV-I 346 W/m² 15,9 °C 23,1 °C 6,4 km/h (2 Bft)
31.07.2017 10:44 23,0 °C 23,1 °C 67 % 1014,1 hPa 0,0 mm 2,5 km/h (1 Bft) O-NO 71 ° 1 min 0,000 mm 3,2 UV-I 336 W/m² 16,5 °C 23,0 °C 4,8 km/h (1 Bft)
31.07.2017 10:45 22,9 °C 23,0 °C 73 % 1014,1 hPa 0,0 mm 3,8 km/h (1 Bft) O 101 ° 1 min 0,000 mm 3,3 UV-I 345 W/m² 17,8 °C 22,9 °C 4,8 km/h (1 Bft)
31.07.2017 10:46 22,8 °C 22,9 °C 71 % 1014,1 hPa 0,0 mm 1,0 km/h (0 Bft) O 101 ° 1 min 0,000 mm 3,5 UV-I 408 W/m² 17,3 °C 22,8 °C 1,6 km/h (1 Bft)
31.07.2017 10:47 22,8 °C 22,8 °C 66 % 1014,1 hPa 0,0 mm 1,0 km/h (0 Bft) O 91 ° 1 min 0,000 mm 3,8 UV-I 408 W/m² 16,1 °C 22,8 °C 3,2 km/h (1 Bft)
31.07.2017 10:48 22,9 °C 22,9 °C 67 % 1014,1 hPa 0,0 mm 1,4 km/h (1 Bft) NO 52 ° 1 min 0,000 mm 4,5 UV-I 408 W/m² 16,4 °C 22,9 °C 3,2 km/h (1 Bft)
31.07.2017 10:49 23,0 °C 23,0 °C 64 % 1014,1 hPa 0,0 mm 2,9 km/h (1 Bft) NO 51 ° 1 min 0,000 mm 3,8 UV-I 462 W/m² 15,8 °C 23,0 °C 6,4 km/h (2 Bft)
31.07.2017 10:50 23,1 °C 23,1 °C 66 % 1014,1 hPa 0,0 mm 3,2 km/h (1 Bft) O 86 ° 1 min 0,000 mm 3,7 UV-I 438 W/m² 16,4 °C 23,1 °C 4,8 km/h (1 Bft)
31.07.2017 10:51 23,1 °C 23,1 °C 67 % 1014,1 hPa 0,0 mm 3,3 km/h (1 Bft) O-NO 57 ° 1 min 0,000 mm 3,9 UV-I 439 W/m² 16,6 °C 23,1 °C 4,8 km/h (1 Bft)
31.07.2017 10:52 23,2 °C 23,2 °C 69 % 1014,1 hPa 0,0 mm 2,3 km/h (1 Bft) O-NO 59 ° 1 min 0,000 mm 3,8 UV-I 471 W/m² 17,2 °C 23,2 °C 3,2 km/h (1 Bft)
31.07.2017 10:53 23,2 °C 23,2 °C 64 % 1014,1 hPa 0,0 mm 4,0 km/h (1 Bft) O-NO 72 ° 1 min 0,000 mm 3,9 UV-I 531 W/m² 16,0 °C 23,2 °C 6,4 km/h (2 Bft)
31.07.2017 10:54 23,3 °C 23,3 °C 64 % 1014,1 hPa 0,0 mm 3,6 km/h (1 Bft) O 96 ° 1 min 0,000 mm 4,0 UV-I 464 W/m² 16,1 °C 23,3 °C 6,4 km/h (2 Bft)
31.07.2017 10:55 23,3 °C 23,3 °C 64 % 1014,2 hPa 0,0 mm 3,0 km/h (1 Bft) N-NO 29 ° 1 min 0,000 mm 4,3 UV-I 548 W/m² 16,1 °C 23,3 °C 6,4 km/h (2 Bft)
31.07.2017 10:56 23,3 °C 23,3 °C 60 % 1014,3 hPa 0,0 mm 4,2 km/h (1 Bft) O 93 ° 1 min 0,000 mm 4,5 UV-I 534 W/m² 15,1 °C 23,3 °C 9,7 km/h (2 Bft)
31.07.2017 10:57 23,4 °C 23,4 °C 61 % 1014,3 hPa 0,0 mm 4,6 km/h (1 Bft) S 182 ° 1 min 0,000 mm 3,7 UV-I 434 W/m² 15,4 °C 23,4 °C 6,4 km/h (2 Bft)
31.07.2017 10:58 23,3 °C 23,4 °C 59 % 1014,3 hPa 0,0 mm 0,6 km/h (0 Bft) S 182 ° 1 min 0,000 mm 3,4 UV-I 350 W/m² 14,8 °C 23,3 °C 1,6 km/h (1 Bft)
31.07.2017 10:59 23,3 °C 23,4 °C 61 % 1014,3 hPa 0,0 mm 0,4 km/h (0 Bft) S 182 ° 1 min 0,000 mm 3,2 UV-I 334 W/m² 15,3 °C 23,3 °C 1,6 km/h (1 Bft)
31.07.2017 11:00 23,4 °C 23,4 °C 61 % 1014,3 hPa 0,0 mm 2,0 km/h (1 Bft) O-NO 67 ° 1 min 0,000 mm 3,1 UV-I 322 W/m² 15,4 °C 23,4 °C 6,4 km/h (2 Bft)
31.07.2017 11:01 23,3 °C 23,4 °C 62 % 1014,3 hPa 0,0 mm 6,9 km/h (2 Bft) NO 42 ° 1 min 0,305 mm 3,1 UV-I 313 W/m² 15,6 °C 23,3 °C 9,7 km/h (2 Bft)
31.07.2017 11:02 23,4 °C 23,4 °C 63 % 1014,4 hPa 0,0 mm 6,2 km/h (2 Bft) N-NO 30 ° 1 min 0,000 mm 3,0 UV-I 302 W/m² 15,9 °C 23,4 °C 9,7 km/h (2 Bft)
31.07.2017 11:03 23,3 °C 23,4 °C 63 % 1014,4 hPa 0,0 mm 3,6 km/h (1 Bft) O-NO 57 ° 1 min 0,000 mm 2,9 UV-I 292 W/m² 15,9 °C 23,3 °C 4,8 km/h (1 Bft)
31.07.2017 11:04 23,2 °C 23,3 °C 64 % 1014,5 hPa 0,0 mm 3,2 km/h (1 Bft) O 79 ° 0 min 0,000 mm 2,9 UV-I 285 W/m² 16,0 °C 23,2 °C 6,4 km/h (2 Bft)
31.07.2017 11:05 23,2 °C 23,2 °C 62 % 1014,5 hPa 0,0 mm 3,8 km/h (1 Bft) NO 34 ° 0 min 0,000 mm 2,9 UV-I 287 W/m² 15,5 °C 23,2 °C 6,4 km/h (2 Bft)
31.07.2017 11:06 23,1 °C 23,2 °C 63 % 1014,6 hPa 0,0 mm 3,4 km/h (1 Bft) O 86 ° 1 min 0,000 mm 2,9 UV-I 292 W/m² 15,7 °C 23,1 °C 6,4 km/h (2 Bft)
31.07.2017 11:07 23,0 °C 23,1 °C 63 % 1014,6 hPa 0,0 mm 1,9 km/h (1 Bft) O 86 ° 1 min 0,000 mm 2,9 UV-I 295 W/m² 15,6 °C 23,0 °C 3,2 km/h (1 Bft)
31.07.2017 11:08 23,0 °C 23,0 °C 63 % 1014,6 hPa 0,0 mm 0,3 km/h (0 Bft) O 86 ° 1 min 0,000 mm 2,9 UV-I 299 W/m² 15,6 °C 23,0 °C 1,6 km/h (1 Bft)
31.07.2017 11:09 22,9 °C 23,0 °C 62 % 1014,6 hPa 0,0 mm 1,0 km/h (0 Bft) O 86 ° 1 min 0,000 mm 3,0 UV-I 302 W/m² 15,2 °C 22,9 °C 3,2 km/h (1 Bft)
31.07.2017 11:10 22,9 °C 23,0 °C 66 % 1014,6 hPa 0,0 mm 3,1 km/h (1 Bft) NO 36 ° 1 min 0,000 mm 3,0 UV-I 316 W/m² 16,2 °C 22,9 °C 4,8 km/h (1 Bft)
31.07.2017 11:11 22,9 °C 22,9 °C 61 % 1014,6 hPa 0,0 mm 3,0 km/h (1 Bft) O-NO 69 ° 1 min 0,000 mm 2,9 UV-I 297 W/m² 15,0 °C 22,9 °C 4,8 km/h (1 Bft)
31.07.2017 11:12 23,1 °C 23,1 °C 60 % 1014,7 hPa 0,0 mm 2,1 km/h (1 Bft) O 92 ° 1 min 0,000 mm 2,9 UV-I 292 W/m² 14,9 °C 23,1 °C 4,8 km/h (1 Bft)
31.07.2017 11:13 23,1 °C 23,2 °C 63 % 1014,7 hPa 0,0 mm 1,3 km/h (1 Bft) O 92 ° 0 min 0,000 mm 2,9 UV-I 288 W/m² 15,7 °C 23,1 °C 3,2 km/h (1 Bft)
31.07.2017 11:14 23,1 °C 23,2 °C 66 % 1014,7 hPa 0,0 mm 2,4 km/h (1 Bft) O 92 ° 1 min 0,000 mm 3,0 UV-I 290 W/m² 16,4 °C 23,1 °C 4,8 km/h (1 Bft)
31.07.2017 11:15 23,1 °C 23,1 °C 61 % 1014,7 hPa 0,0 mm 1,6 km/h (1 Bft) O-NO 70 ° 1 min 0,000 mm 3,0 UV-I 297 W/m² 15,2 °C 23,1 °C 3,2 km/h (1 Bft)
31.07.2017 11:16 23,1 °C 23,1 °C 65 % 1014,7 hPa 0,0 mm 3,2 km/h (1 Bft) O 85 ° 1 min 0,000 mm 3,1 UV-I 323 W/m² 16,2 °C 23,1 °C 4,8 km/h (1 Bft)
31.07.2017 11:17 22,9 °C 23,1 °C 62 % 1014,7 hPa 0,0 mm 1,3 km/h (1 Bft) O 85 ° 1 min 0,000 mm 3,2 UV-I 330 W/m² 15,2 °C 22,9 °C 3,2 km/h (1 Bft)
31.07.2017 11:18 22,8 °C 22,9 °C 64 % 1014,7 hPa 0,0 mm 3,6 km/h (1 Bft) O 95 ° 1 min 0,000 mm 3,2 UV-I 329 W/m² 15,6 °C 22,8 °C 6,4 km/h (2 Bft)
31.07.2017 11:19 22,8 °C 22,8 °C 64 % 1014,7 hPa 0,0 mm 4,7 km/h (1 Bft) O-NO 74 ° 1 min 0,000 mm 3,2 UV-I 320 W/m² 15,6 °C 22,8 °C 6,4 km/h (2 Bft)
31.07.2017 11:20 22,7 °C 22,8 °C 64 % 1014,7 hPa 0,0 mm 4,8 km/h (1 Bft) O 88 ° 1 min 0,000 mm 3,2 UV-I 316 W/m² 15,5 °C 22,7 °C 6,4 km/h (2 Bft)
31.07.2017 11:21 22,6 °C 22,7 °C 61 % 1014,7 hPa 0,0 mm 0,6 km/h (0 Bft) O 88 ° 1 min 0,000 mm 3,2 UV-I 315 W/m² 14,7 °C 22,6 °C 3,2 km/h (1 Bft)
31.07.2017 11:22 22,6 °C 22,7 °C 63 % 1014,7 hPa 0,0 mm 0,5 km/h (0 Bft) O 88 ° 1 min 0,000 mm 3,2 UV-I 316 W/m² 15,2 °C 22,6 °C 3,2 km/h (1 Bft)
31.07.2017 11:23 22,7 °C 22,7 °C 64 % 1014,7 hPa 0,0 mm 0,9 km/h (0 Bft) O 88 ° 1 min 0,000 mm 3,3 UV-I 322 W/m² 15,5 °C 22,7 °C 1,6 km/h (1 Bft)
31.07.2017 11:24 22,7 °C 22,7 °C 67 % 1014,7 hPa 0,0 mm 1,0 km/h (0 Bft) O 88 ° 1 min 0,000 mm 3,4 UV-I 332 W/m² 16,2 °C 22,7 °C 3,2 km/h (1 Bft)
31.07.2017 11:25 22,7 °C 22,7 °C 64 % 1014,8 hPa 0,0 mm 1,1 km/h (1 Bft) O 88 ° 1 min 0,000 mm 3,4 UV-I 336 W/m² 15,5 °C 22,7 °C 3,2 km/h (1 Bft)
31.07.2017 11:26 22,7 °C 22,7 °C 63 % 1014,8 hPa 0,0 mm 2,2 km/h (1 Bft) O 88 ° 1 min 0,000 mm 3,5 UV-I 345 W/m² 15,3 °C 22,7 °C 4,8 km/h (1 Bft)
31.07.2017 11:27 22,7 °C 22,7 °C 65 % 1014,8 hPa 0,0 mm 1,7 km/h (1 Bft) O 88 ° 1 min 0,000 mm 3,4 UV-I 343 W/m² 15,8 °C 22,7 °C 3,2 km/h (1 Bft)
31.07.2017 11:28 22,8 °C 22,8 °C 67 % 1014,8 hPa 0,0 mm 1,4 km/h (1 Bft) O 88 ° 1 min 0,000 mm 3,5 UV-I 343 W/m² 16,3 °C 22,8 °C 3,2 km/h (1 Bft)
31.07.2017 11:29 22,8 °C 22,8 °C 62 % 1014,9 hPa 0,0 mm 0,3 km/h (0 Bft) O 88 ° 1 min 0,000 mm 3,5 UV-I 345 W/m² 15,1 °C 22,8 °C 1,6 km/h (1 Bft)
31.07.2017 11:30 22,7 °C 22,8 °C 65 % 1014,9 hPa 0,0 mm 0,4 km/h (0 Bft) O 88 ° 1 min 0,000 mm 4,0 UV-I 394 W/m² 15,8 °C 22,7 °C 1,6 km/h (1 Bft)
31.07.2017 11:31 22,7 °C 22,7 °C 66 % 1014,8 hPa 0,0 mm 0,3 km/h (0 Bft) O 88 ° 1 min 0,000 mm 3,9 UV-I 399 W/m² 16,0 °C 22,7 °C 3,2 km/h (1 Bft)
31.07.2017 11:32 22,6 °C 22,7 °C 63 % 1014,9 hPa 0,0 mm 1,8 km/h (1 Bft) O 88 ° 1 min 0,000 mm 3,8 UV-I 381 W/m² 15,2 °C 22,6 °C 3,2 km/h (1 Bft)
31.07.2017 11:33 22,6 °C 22,6 °C 66 % 1014,9 hPa 0,0 mm 0,6 km/h (0 Bft) O 88 ° 1 min 0,000 mm 3,8 UV-I 373 W/m² 15,9 °C 22,6 °C 4,8 km/h (1 Bft)
31.07.2017 11:34 22,6 °C 22,6 °C 68 % 1014,9 hPa 0,0 mm 3,1 km/h (1 Bft) O 81 ° 1 min 0,000 mm 3,7 UV-I 367 W/m² 16,4 °C 22,6 °C 4,8 km/h (1 Bft)
31.07.2017 11:35 22,7 °C 22,7 °C 65 % 1014,8 hPa 0,0 mm 0,7 km/h (0 Bft) O 81 ° 1 min 0,000 mm 4,0 UV-I 367 W/m² 15,8 °C 22,7 °C 1,6 km/h (1 Bft)
31.07.2017 11:36 22,7 °C 22,7 °C 65 % 1014,9 hPa 0,0 mm 0,0 km/h (0 Bft) O 81 ° 1 min 0,000 mm 5,0 UV-I 367 W/m² 15,8 °C 22,7 °C 0,0 km/h (0 Bft)
31.07.2017 11:37 22,8 °C 22,8 °C 65 % 1014,9 hPa 0,0 mm 0,0 km/h (0 Bft) O 81 ° 1 min 0,000 mm 4,3 UV-I 450 W/m² 15,9 °C 22,8 °C 0,0 km/h (0 Bft)
31.07.2017 11:38 22,8 °C 22,8 °C 70 % 1015,0 hPa 0,0 mm 1,9 km/h (1 Bft) O-NO 64 ° 1 min 0,000 mm 4,1 UV-I 452 W/m² 17,0 °C 22,8 °C 3,2 km/h (1 Bft)
31.07.2017 11:39 22,9 °C 22,9 °C 65 % 1015,0 hPa 0,0 mm 0,2 km/h (0 Bft) O-NO 64 ° 1 min 0,000 mm 3,9 UV-I 439 W/m² 16,0 °C 22,9 °C 1,6 km/h (1 Bft)
31.07.2017 11:40 22,9 °C 22,9 °C 65 % 1015,0 hPa 0,0 mm 1,2 km/h (1 Bft) O-NO 65 ° 1 min 0,000 mm 3,9 UV-I 371 W/m² 16,0 °C 22,9 °C 4,8 km/h (1 Bft)
31.07.2017 11:41 22,9 °C 22,9 °C 63 % 1015,1 hPa 0,0 mm 0,9 km/h (0 Bft) O-NO 65 ° 1 min 0,000 mm 3,9 UV-I 455 W/m² 15,5 °C 22,9 °C 3,2 km/h (1 Bft)
31.07.2017 11:42 22,9 °C 22,9 °C 72 % 1015,1 hPa 0,0 mm 1,2 km/h (1 Bft) O-NO 65 ° 1 min 0,000 mm 3,5 UV-I 455 W/m² 17,6 °C 22,9 °C 3,2 km/h (1 Bft)
31.07.2017 11:43 22,9 °C 22,9 °C 69 % 1015,2 hPa 0,0 mm 0,0 km/h (0 Bft) O-NO 65 ° 1 min 0,000 mm 4,0 UV-I 455 W/m² 16,9 °C 22,9 °C 0,0 km/h (0 Bft)
31.07.2017 11:44 22,9 °C 22,9 °C 67 % 1015,2 hPa 0,0 mm 0,0 km/h (0 Bft) O-NO 65 ° 1 min 0,000 mm 3,6 UV-I 455 W/m² 16,4 °C 22,9 °C 0,0 km/h (0 Bft)
31.07.2017 11:45 23,0 °C 23,0 °C 66 % 1015,2 hPa 0,0 mm 0,0 km/h (0 Bft) O-NO 65 ° 1 min 0,000 mm 3,7 UV-I 378 W/m² 16,3 °C 23,0 °C 0,0 km/h (0 Bft)
31.07.2017 11:46 23,1 °C 23,1 °C 65 % 1015,2 hPa 0,0 mm 1,7 km/h (1 Bft) O-NO 64 ° 1 min 0,000 mm 5,1 UV-I 378 W/m² 16,2 °C 23,1 °C 3,2 km/h (1 Bft)
31.07.2017 11:47 23,1 °C 23,1 °C 62 % 1015,3 hPa 0,0 mm 2,6 km/h (1 Bft) N-NW 346 ° 1 min 0,000 mm 3,8 UV-I 378 W/m² 15,4 °C 23,1 °C 4,8 km/h (1 Bft)
31.07.2017 11:48 23,2 °C 23,2 °C 61 % 1015,5 hPa 0,0 mm 1,8 km/h (1 Bft) N-NW 346 ° 1 min 0,000 mm 3,7 UV-I 410 W/m² 15,3 °C 23,2 °C 3,2 km/h (1 Bft)
31.07.2017 11:49 23,2 °C 23,2 °C 60 % 1015,5 hPa 0,0 mm 0,8 km/h (0 Bft) N-NW 346 ° 1 min 0,000 mm 3,4 UV-I 352 W/m² 15,0 °C 23,2 °C 1,6 km/h (1 Bft)
31.07.2017 11:50 23,2 °C 23,2 °C 57 % 1015,5 hPa 0,0 mm 1,9 km/h (1 Bft) N-NW 344 ° 1 min 0,000 mm 3,3 UV-I 322 W/m² 14,2 °C 23,2 °C 3,2 km/h (1 Bft)
31.07.2017 11:51 23,2 °C 23,2 °C 60 % 1015,5 hPa 0,0 mm 1,2 km/h (1 Bft) N-NW 344 ° 1 min 0,000 mm 3,2 UV-I 327 W/m² 15,0 °C 23,2 °C 3,2 km/h (1 Bft)
31.07.2017 11:52 23,2 °C 23,2 °C 62 % 1015,6 hPa 0,0 mm 4,5 km/h (1 Bft) W 259 ° 1 min 0,000 mm 5,4 UV-I 327 W/m² 15,5 °C 23,2 °C 6,4 km/h (2 Bft)
31.07.2017 11:53 23,2 °C 23,2 °C 60 % 1015,6 hPa 0,0 mm 2,5 km/h (1 Bft) W 259 ° 1 min 0,000 mm 3,4 UV-I 327 W/m² 15,0 °C 23,2 °C 3,2 km/h (1 Bft)
31.07.2017 11:54 23,2 °C 23,3 °C 62 % 1015,6 hPa 0,0 mm 3,0 km/h (1 Bft) W 259 ° 1 min 0,000 mm 3,5 UV-I 316 W/m² 15,5 °C 23,2 °C 4,8 km/h (1 Bft)
31.07.2017 11:55 23,3 °C 23,3 °C 62 % 1015,6 hPa 0,0 mm 4,6 km/h (1 Bft) W-SW 252 ° 1 min 0,000 mm 3,5 UV-I 315 W/m² 15,6 °C 23,3 °C 6,4 km/h (2 Bft)
31.07.2017 11:56 23,3 °C 23,3 °C 63 % 1015,6 hPa 0,0 mm 1,1 km/h (1 Bft) W-SW 252 ° 1 min 0,000 mm 3,9 UV-I 320 W/m² 15,9 °C 23,3 °C 3,2 km/h (1 Bft)
31.07.2017 11:57 23,4 °C 23,4 °C 67 % 1015,6 hPa 0,0 mm 0,8 km/h (0 Bft) W-SW 252 ° 1 min 0,000 mm 5,5 UV-I 396 W/m² 16,9 °C 23,4 °C 3,2 km/h (1 Bft)
31.07.2017 11:58 23,4 °C 23,4 °C 66 % 1015,5 hPa 0,0 mm 3,0 km/h (1 Bft) W 270 ° 1 min 0,000 mm 4,1 UV-I 396 W/m² 16,7 °C 23,4 °C 4,8 km/h (1 Bft)
31.07.2017 11:59 23,6 °C 23,6 °C 61 % 1015,6 hPa 0,0 mm 2,2 km/h (1 Bft) W 270 ° 1 min 0,000 mm 3,6 UV-I 396 W/m² 15,6 °C 23,6 °C 3,2 km/h (1 Bft)
31.07.2017 12:00 23,6 °C 23,6 °C 63 % 1015,6 hPa 0,0 mm 3,6 km/h (1 Bft) W 265 ° 0 min 0,000 mm 3,5 UV-I 279 W/m² 16,1 °C 23,6 °C 4,8 km/h (1 Bft)
31.07.2017 12:01 23,6 °C 23,6 °C 64 % 1015,6 hPa 0,0 mm 3,5 km/h (1 Bft) W 273 ° 0 min 0,228 mm 3,6 UV-I 287 W/m² 16,4 °C 23,6 °C 6,4 km/h (2 Bft)
31.07.2017 12:03 23,7 °C 23,7 °C 63 % 1015,7 hPa 0,0 mm 4,1 km/h (1 Bft) W 260 ° 2 min 0,000 mm 7,0 UV-I 937 W/m² 16,2 °C 23,7 °C 6,4 km/h (2 Bft)
31.07.2017 12:04 23,8 °C 23,8 °C 64 % 1015,7 hPa 0,0 mm 3,4 km/h (1 Bft) W 259 ° 1 min 0,000 mm 7,0 UV-I 911 W/m² 16,6 °C 23,8 °C 4,8 km/h (1 Bft)
31.07.2017 12:05 24,0 °C 24,0 °C 63 % 1015,7 hPa 0,0 mm 3,1 km/h (1 Bft) W-SW 255 ° 1 min 0,000 mm 7,0 UV-I 891 W/m² 16,5 °C 24,0 °C 4,8 km/h (1 Bft)
31.07.2017 12:06 24,2 °C 24,2 °C 65 % 1015,7 hPa 0,0 mm 0,9 km/h (0 Bft) W-SW 255 ° 1 min 0,000 mm 6,9 UV-I 875 W/m² 17,2 °C 24,2 °C 3,2 km/h (1 Bft)
31.07.2017 12:07 24,3 °C 24,3 °C 65 % 1015,6 hPa 0,0 mm 0,6 km/h (0 Bft) W-SW 256 ° 1 min 0,000 mm 6,9 UV-I 868 W/m² 17,3 °C 24,3 °C 3,2 km/h (1 Bft)
31.07.2017 12:08 24,6 °C 24,6 °C 66 % 1015,6 hPa 0,0 mm 0,5 km/h (0 Bft) W-SW 256 ° 1 min 0,000 mm 6,7 UV-I 851 W/m² 17,8 °C 24,6 °C 1,6 km/h (1 Bft)
31.07.2017 12:09 24,7 °C 24,7 °C 64 % 1015,7 hPa 0,0 mm 1,7 km/h (1 Bft) NW 314 ° 1 min 0,000 mm 6,9 UV-I 849 W/m² 17,4 °C 24,7 °C 4,8 km/h (1 Bft)
31.07.2017 12:10 24,7 °C 24,7 °C 64 % 1015,7 hPa 0,0 mm 0,6 km/h (0 Bft) NW 314 ° 1 min 0,000 mm 6,8 UV-I 828 W/m² 17,4 °C 24,7 °C 3,2 km/h (1 Bft)
31.07.2017 12:11 24,7 °C 24,7 °C 60 % 1015,6 hPa 0,0 mm 0,0 km/h (0 Bft) NW 314 ° 1 min 0,000 mm 6,7 UV-I 812 W/m² 16,4 °C 24,7 °C 0,0 km/h (0 Bft)
31.07.2017 12:12 24,7 °C 24,7 °C 61 % 1015,6 hPa 0,0 mm 1,5 km/h (1 Bft) NW 314 ° 1 min 0,000 mm 6,8 UV-I 830 W/m² 16,7 °C 24,7 °C 3,2 km/h (1 Bft)
31.07.2017 12:13 24,7 °C 24,8 °C 63 % 1015,6 hPa 0,0 mm 3,4 km/h (1 Bft) NW 314 ° 1 min 0,000 mm 6,8 UV-I 840 W/m² 17,2 °C 24,7 °C 4,8 km/h (1 Bft)
31.07.2017 12:14 24,8 °C 24,8 °C 66 % 1015,6 hPa 0,0 mm 3,2 km/h (1 Bft) NW 314 ° 1 min 0,000 mm 6,9 UV-I 846 W/m² 18,0 °C 24,8 °C 4,8 km/h (1 Bft)
31.07.2017 12:15 24,8 °C 24,8 °C 64 % 1015,6 hPa 0,0 mm 2,4 km/h (1 Bft) N-NW 334 ° 1 min 0,000 mm 6,9 UV-I 861 W/m² 17,5 °C 24,8 °C 3,2 km/h (1 Bft)
31.07.2017 12:16 24,8 °C 24,8 °C 59 % 1015,5 hPa 0,0 mm 2,3 km/h (1 Bft) NW 323 ° 1 min 0,000 mm 5,6 UV-I 861 W/m² 16,2 °C 24,8 °C 4,8 km/h (1 Bft)
31.07.2017 12:17 24,8 °C 24,8 °C 60 % 1015,5 hPa 0,0 mm 3,5 km/h (1 Bft) N-NW 342 ° 1 min 0,000 mm 6,9 UV-I 861 W/m² 16,5 °C 24,8 °C 6,4 km/h (2 Bft)
31.07.2017 12:18 24,8 °C 24,9 °C 66 % 1015,5 hPa 0,0 mm 1,3 km/h (1 Bft) S-SW 209 ° 1 min 0,000 mm 6,9 UV-I 854 W/m² 18,0 °C 24,8 °C 3,2 km/h (1 Bft)
31.07.2017 12:19 24,7 °C 24,8 °C 59 % 1015,5 hPa 0,0 mm 0,0 km/h (0 Bft) S-SW 209 ° 1 min 0,000 mm 7,0 UV-I 870 W/m² 16,1 °C 24,7 °C 0,0 km/h (0 Bft)
31.07.2017 12:20 24,7 °C 24,7 °C 62 % 1015,6 hPa 0,0 mm 1,1 km/h (1 Bft) S-SW 211 ° 1 min 0,000 mm 7,0 UV-I 867 W/m² 16,9 °C 24,7 °C 3,2 km/h (1 Bft)
31.07.2017 12:21 24,6 °C 24,7 °C 62 % 1015,7 hPa 0,0 mm 1,3 km/h (1 Bft) W-SW 251 ° 1 min 0,000 mm 7,0 UV-I 860 W/m² 16,8 °C 24,6 °C 3,2 km/h (1 Bft)
31.07.2017 12:22 24,7 °C 24,7 °C 68 % 1015,7 hPa 0,0 mm 1,3 km/h (1 Bft) W-NW 289 ° 1 min 0,000 mm 7,0 UV-I 858 W/m² 18,4 °C 24,7 °C 3,2 km/h (1 Bft)
31.07.2017 12:23 24,8 °C 24,8 °C 61 % 1015,7 hPa 0,0 mm 1,3 km/h (1 Bft) W-NW 290 ° 1 min 0,000 mm 6,8 UV-I 847 W/m² 16,8 °C 24,8 °C 3,2 km/h (1 Bft)
31.07.2017 12:24 24,9 °C 24,9 °C 63 % 1015,7 hPa 0,0 mm 2,8 km/h (1 Bft) W-NW 288 ° 1 min 0,000 mm 6,8 UV-I 838 W/m² 17,4 °C 24,9 °C 3,2 km/h (1 Bft)
31.07.2017 12:25 25,0 °C 25,0 °C 61 % 1015,7 hPa 0,0 mm 11,8 km/h (2 Bft) W 280 ° 1 min 0,000 mm 7,0 UV-I 865 W/m² 16,9 °C 25,0 °C 20,9 km/h (4 Bft)
31.07.2017 12:26 25,1 °C 25,1 °C 61 % 1015,7 hPa 0,0 mm 10,1 km/h (2 Bft) W 259 ° 1 min 0,000 mm 6,7 UV-I 854 W/m² 17,0 °C 25,1 °C 16,1 km/h (3 Bft)
31.07.2017 12:27 25,1 °C 25,1 °C 59 % 1015,8 hPa 0,0 mm 9,5 km/h (2 Bft) W 263 ° 1 min 0,000 mm 7,0 UV-I 863 W/m² 16,5 °C 25,1 °C 14,5 km/h (3 Bft)
31.07.2017 12:28 25,2 °C 25,2 °C 64 % 1015,7 hPa 0,0 mm 9,4 km/h (2 Bft) W-SW 257 ° 1 min 0,000 mm 6,6 UV-I 863 W/m² 17,9 °C 25,2 °C 12,9 km/h (3 Bft)
31.07.2017 12:29 25,2 °C 25,2 °C 62 % 1015,7 hPa 0,0 mm 6,0 km/h (2 Bft) W-SW 255 ° 1 min 0,000 mm 7,0 UV-I 863 W/m² 17,4 °C 25,2 °C 8,0 km/h (2 Bft)
31.07.2017 12:30 25,2 °C 25,3 °C 60 % 1015,7 hPa 0,0 mm 6,7 km/h (2 Bft) W 281 ° 1 min 0,000 mm 7,1 UV-I 865 W/m² 16,9 °C 25,2 °C 9,7 km/h (2 Bft)
31.07.2017 12:31 25,2 °C 25,2 °C 61 % 1015,7 hPa 0,0 mm 11,7 km/h (2 Bft) W-NW 292 ° 1 min 0,000 mm 7,3 UV-I 895 W/m² 17,1 °C 25,2 °C 16,1 km/h (3 Bft)
31.07.2017 12:32 25,2 °C 25,2 °C 58 % 1015,6 hPa 0,0 mm 7,3 km/h (2 Bft) W-SW 252 ° 1 min 0,000 mm 7,1 UV-I 963 W/m² 16,3 °C 25,2 °C 14,5 km/h (3 Bft)
31.07.2017 12:33 25,2 °C 25,3 °C 58 % 1015,6 hPa 0,0 mm 9,5 km/h (2 Bft) W 259 ° 1 min 0,000 mm 5,0 UV-I 963 W/m² 16,3 °C 25,2 °C 16,1 km/h (3 Bft)
31.07.2017 12:34 25,2 °C 25,2 °C 59 % 1015,6 hPa 0,0 mm 8,0 km/h (2 Bft) W-NW 291 ° 1 min 0,000 mm 5,2 UV-I 963 W/m² 16,6 °C 25,2 °C 12,9 km/h (3 Bft)
31.07.2017 12:35 25,1 °C 25,2 °C 61 % 1015,6 hPa 0,0 mm 6,9 km/h (2 Bft) W-SW 255 ° 1 min 0,000 mm 4,0 UV-I 963 W/m² 17,0 °C 25,1 °C 12,9 km/h (3 Bft)
31.07.2017 12:36 24,9 °C 25,1 °C 60 % 1015,6 hPa 0,0 mm 9,9 km/h (2 Bft) NW 304 ° 1 min 0,000 mm 3,8 UV-I 297 W/m² 16,6 °C 24,9 °C 16,1 km/h (3 Bft)
31.07.2017 12:37 24,7 °C 24,9 °C 60 % 1015,7 hPa 0,0 mm 8,4 km/h (2 Bft) W 261 ° 1 min 0,000 mm 4,8 UV-I 357 W/m² 16,4 °C 24,7 °C 12,9 km/h (3 Bft)
31.07.2017 12:38 24,6 °C 24,7 °C 58 % 1015,6 hPa 0,0 mm 9,1 km/h (2 Bft) W 277 ° 1 min 0,000 mm 5,2 UV-I 357 W/m² 15,8 °C 24,6 °C 14,5 km/h (3 Bft)
31.07.2017 12:39 24,7 °C 24,7 °C 61 % 1015,6 hPa 0,0 mm 8,3 km/h (2 Bft) NW 308 ° 1 min 0,000 mm 7,6 UV-I 983 W/m² 16,7 °C 24,7 °C 12,9 km/h (3 Bft)
31.07.2017 12:40 24,8 °C 24,8 °C 62 % 1015,6 hPa 0,0 mm 6,4 km/h (2 Bft) NW 325 ° 1 min 0,000 mm 7,6 UV-I 983 W/m² 17,0 °C 24,8 °C 11,3 km/h (2 Bft)
31.07.2017 12:41 24,9 °C 24,9 °C 62 % 1015,6 hPa 0,0 mm 4,0 km/h (1 Bft) NW 318 ° 1 min 0,000 mm 7,6 UV-I 993 W/m² 17,1 °C 24,9 °C 9,7 km/h (2 Bft)
31.07.2017 12:42 25,1 °C 25,1 °C 62 % 1015,6 hPa 0,0 mm 9,5 km/h (2 Bft) NW 306 ° 1 min 0,000 mm 5,0 UV-I 1013 W/m² 17,3 °C 25,1 °C 14,5 km/h (3 Bft)
31.07.2017 12:43 25,3 °C 25,3 °C 65 % 1015,7 hPa 0,0 mm 6,5 km/h (2 Bft) W 269 ° 1 min 0,000 mm 7,5 UV-I 1013 W/m² 18,2 °C 25,3 °C 9,7 km/h (2 Bft)
31.07.2017 12:44 25,3 °C 25,3 °C 62 % 1015,7 hPa 0,0 mm 8,0 km/h (2 Bft) NW 308 ° 1 min 0,000 mm 6,1 UV-I 751 W/m² 17,5 °C 25,3 °C 12,9 km/h (3 Bft)
31.07.2017 12:45 25,3 °C 25,3 °C 64 % 1015,7 hPa 0,0 mm 8,0 km/h (2 Bft) NW 309 ° 1 min 0,000 mm 4,5 UV-I 504 W/m² 18,0 °C 25,3 °C 14,5 km/h (3 Bft)
31.07.2017 12:46 25,2 °C 25,3 °C 61 % 1015,6 hPa 0,0 mm 9,9 km/h (2 Bft) W 273 ° 1 min 0,000 mm 4,4 UV-I 413 W/m² 17,1 °C 25,2 °C 14,5 km/h (3 Bft)
31.07.2017 12:47 25,1 °C 25,2 °C 58 % 1015,6 hPa 0,0 mm 7,5 km/h (2 Bft) W-NW 282 ° 1 min 0,000 mm 4,4 UV-I 413 W/m² 16,2 °C 25,1 °C 12,9 km/h (3 Bft)
31.07.2017 12:48 24,9 °C 25,1 °C 60 % 1015,6 hPa 0,0 mm 7,2 km/h (2 Bft) W-SW 246 ° 1 min 0,000 mm 5,9 UV-I 577 W/m² 16,6 °C 24,9 °C 9,7 km/h (2 Bft)
31.07.2017 12:49 24,8 °C 24,9 °C 60 % 1015,6 hPa 0,0 mm 9,1 km/h (2 Bft) W-SW 247 ° 1 min 0,000 mm 5,5 UV-I 647 W/m² 16,5 °C 24,8 °C 12,9 km/h (3 Bft)
31.07.2017 12:50 24,8 °C 24,8 °C 61 % 1015,6 hPa 0,0 mm 6,0 km/h (2 Bft) S-SW 198 ° 1 min 0,000 mm 5,1 UV-I 638 W/m² 16,8 °C 24,8 °C 11,3 km/h (2 Bft)
31.07.2017 12:51 24,8 °C 24,8 °C 57 % 1015,6 hPa 0,0 mm 5,6 km/h (1 Bft) S-SW 196 ° 1 min 0,000 mm 8,2 UV-I 638 W/m² 15,7 °C 24,8 °C 12,9 km/h (3 Bft)
31.07.2017 12:52 24,8 °C 24,8 °C 59 % 1015,6 hPa 0,0 mm 8,0 km/h (2 Bft) W 277 ° 1 min 0,000 mm 8,1 UV-I 1093 W/m² 16,2 °C 24,8 °C 14,5 km/h (3 Bft)
31.07.2017 12:53 24,9 °C 24,9 °C 62 % 1015,5 hPa 0,0 mm 3,6 km/h (1 Bft) W-NW 290 ° 1 min 0,000 mm 8,1 UV-I 1081 W/m² 17,1 °C 24,9 °C 6,4 km/h (2 Bft)
31.07.2017 12:54 25,3 °C 25,3 °C 62 % 1015,5 hPa 0,0 mm 8,5 km/h (2 Bft) W-SW 247 ° 1 min 0,000 mm 8,0 UV-I 998 W/m² 17,5 °C 25,3 °C 11,3 km/h (2 Bft)
31.07.2017 12:55 25,4 °C 25,4 °C 62 % 1015,4 hPa 0,0 mm 8,2 km/h (2 Bft) W 262 ° 1 min 0,000 mm 5,8 UV-I 1081 W/m² 17,6 °C 25,4 °C 11,3 km/h (2 Bft)
31.07.2017 12:56 25,6 °C 25,6 °C 65 % 1015,4 hPa 0,0 mm 8,0 km/h (2 Bft) W-NW 296 ° 1 min 0,000 mm 4,6 UV-I 1081 W/m² 18,5 °C 25,6 °C 11,3 km/h (2 Bft)
31.07.2017 12:57 25,7 °C 25,7 °C 61 % 1015,4 hPa 0,0 mm 6,6 km/h (2 Bft) W-NW 300 ° 1 min 0,000 mm 7,5 UV-I 1081 W/m² 17,6 °C 25,7 °C 11,3 km/h (2 Bft)
31.07.2017 12:58 25,6 °C 25,7 °C 61 % 1015,3 hPa 0,0 mm 5,2 km/h (1 Bft) W-NW 288 ° 1 min 0,000 mm 5,4 UV-I 1081 W/m² 17,5 °C 25,6 °C 6,4 km/h (2 Bft)
31.07.2017 12:59 25,5 °C 25,6 °C 58 % 1015,3 hPa 0,0 mm 1,0 km/h (0 Bft) W-NW 288 ° 1 min 0,000 mm 4,5 UV-I 420 W/m² 16,6 °C 25,5 °C 1,6 km/h (1 Bft)
31.07.2017 13:00 25,4 °C 25,5 °C 58 % 1015,3 hPa 0,0 mm 0,7 km/h (0 Bft) W-NW 286 ° 1 min 0,000 mm 7,6 UV-I 420 W/m² 16,5 °C 25,4 °C 3,2 km/h (1 Bft)
31.07.2017 13:01 25,3 °C 25,4 °C 59 % 1015,2 hPa 0,0 mm 0,5 km/h (0 Bft) W-NW 286 ° 1 min 0,534 mm 7,4 UV-I 1030 W/m² 16,7 °C 25,3 °C 1,6 km/h (1 Bft)
31.07.2017 13:02 25,4 °C 25,4 °C 60 % 1015,1 hPa 0,0 mm 1,7 km/h (1 Bft) O-NO 65 ° 1 min 0,000 mm 4,7 UV-I 1030 W/m² 17,1 °C 25,4 °C 6,4 km/h (2 Bft)
31.07.2017 13:03 25,3 °C 25,4 °C 60 % 1015,1 hPa 0,0 mm 3,8 km/h (1 Bft) O-NO 65 ° 1 min 0,000 mm 5,8 UV-I 1030 W/m² 17,0 °C 25,3 °C 6,4 km/h (2 Bft)
31.07.2017 13:04 25,2 °C 25,3 °C 62 % 1015,0 hPa 0,0 mm 6,2 km/h (2 Bft) O 93 ° 1 min 0,000 mm 4,6 UV-I 1030 W/m² 17,4 °C 25,2 °C 9,7 km/h (2 Bft)
31.07.2017 13:05 25,1 °C 25,2 °C 58 % 1015,0 hPa 0,0 mm 4,8 km/h (1 Bft) O-SO 111 ° 1 min 0,000 mm 3,6 UV-I 378 W/m² 16,2 °C 25,1 °C 9,7 km/h (2 Bft)
31.07.2017 13:06 25,0 °C 25,1 °C 65 % 1014,9 hPa 0,0 mm 2,5 km/h (1 Bft) SW 223 ° 1 min 0,000 mm 3,3 UV-I 329 W/m² 17,9 °C 25,0 °C 4,8 km/h (1 Bft)
31.07.2017 13:07 24,9 °C 25,0 °C 60 % 1014,9 hPa 0,0 mm 3,7 km/h (1 Bft) W 269 ° 1 min 0,000 mm 3,2 UV-I 308 W/m² 16,6 °C 24,9 °C 6,4 km/h (2 Bft)
31.07.2017 13:08 24,9 °C 24,9 °C 58 % 1014,8 hPa 0,0 mm 3,4 km/h (1 Bft) W 269 ° 1 min 0,000 mm 3,2 UV-I 308 W/m² 16,1 °C 24,9 °C 6,4 km/h (2 Bft)
31.07.2017 13:09 24,8 °C 24,9 °C 59 % 1014,7 hPa 0,0 mm 2,1 km/h (1 Bft) W 273 ° 1 min 0,000 mm 3,2 UV-I 304 W/m² 16,2 °C 24,8 °C 4,8 km/h (1 Bft)
31.07.2017 13:10 24,8 °C 24,8 °C 63 % 1014,6 hPa 0,0 mm 0,0 km/h (0 Bft) W 273 ° 1 min 0,000 mm 3,2 UV-I 295 W/m² 17,3 °C 24,8 °C 0,0 km/h (0 Bft)
31.07.2017 13:11 24,6 °C 24,8 °C 64 % 1014,6 hPa 0,0 mm 3,2 km/h (1 Bft) O 101 ° 0 min 0,000 mm 3,1 UV-I 285 W/m² 17,3 °C 24,6 °C 6,4 km/h (2 Bft)
31.07.2017 13:12 24,3 °C 24,6 °C 67 % 1014,5 hPa 0,0 mm 4,2 km/h (1 Bft) O 101 ° 0 min 0,000 mm 3,1 UV-I 276 W/m² 17,8 °C 24,3 °C 6,4 km/h (2 Bft)
31.07.2017 13:13 24,3 °C 24,3 °C 58 % 1014,4 hPa 0,0 mm 3,6 km/h (1 Bft) O 96 ° 0 min 0,000 mm 3,1 UV-I 278 W/m² 15,5 °C 24,3 °C 11,3 km/h (2 Bft)
31.07.2017 13:14 24,2 °C 24,3 °C 67 % 1014,3 hPa 0,0 mm 8,7 km/h (2 Bft) O-SO 121 ° 1 min 0,000 mm 3,3 UV-I 294 W/m² 17,7 °C 24,2 °C 12,9 km/h (3 Bft)
31.07.2017 13:15 24,2 °C 24,2 °C 67 % 1014,2 hPa 0,0 mm 6,5 km/h (2 Bft) O-NO 78 ° 1 min 0,000 mm 3,4 UV-I 315 W/m² 17,7 °C 24,2 °C 12,9 km/h (3 Bft)
31.07.2017 13:16 24,2 °C 24,2 °C 63 % 1014,1 hPa 0,0 mm 5,5 km/h (1 Bft) O-NO 58 ° 1 min 0,000 mm 3,5 UV-I 332 W/m² 16,7 °C 24,2 °C 8,0 km/h (2 Bft)
31.07.2017 13:17 24,2 °C 24,2 °C 61 % 1014,1 hPa 0,0 mm 1,3 km/h (1 Bft) O-NO 58 ° 1 min 0,000 mm 3,6 UV-I 346 W/m² 16,2 °C 24,2 °C 3,2 km/h (1 Bft)
31.07.2017 13:18 24,3 °C 24,3 °C 63 % 1014,0 hPa 0,0 mm 1,6 km/h (1 Bft) O-NO 58 ° 1 min 0,000 mm 3,8 UV-I 376 W/m² 16,8 °C 24,3 °C 3,2 km/h (1 Bft)
31.07.2017 13:19 24,3 °C 24,3 °C 59 % 1014,0 hPa 0,0 mm 2,2 km/h (1 Bft) NO 52 ° 1 min 0,000 mm 3,7 UV-I 369 W/m² 15,8 °C 24,3 °C 6,4 km/h (2 Bft)
31.07.2017 13:20 24,4 °C 24,4 °C 61 % 1014,0 hPa 0,0 mm 2,1 km/h (1 Bft) O-NO 61 ° 1 min 0,000 mm 3,8 UV-I 380 W/m² 16,4 °C 24,4 °C 6,4 km/h (2 Bft)
31.07.2017 13:21 24,3 °C 24,4 °C 64 % 1014,0 hPa 0,0 mm 4,4 km/h (1 Bft) O-NO 65 ° 1 min 0,000 mm 6,6 UV-I 380 W/m² 17,0 °C 24,3 °C 6,4 km/h (2 Bft)
31.07.2017 13:22 24,3 °C 24,3 °C 61 % 1014,1 hPa 0,0 mm 2,3 km/h (1 Bft) O-NO 75 ° 1 min 0,000 mm 5,4 UV-I 380 W/m² 16,3 °C 24,3 °C 4,8 km/h (1 Bft)
31.07.2017 13:23 24,4 °C 24,4 °C 62 % 1014,1 hPa 0,0 mm 3,4 km/h (1 Bft) O-NO 61 ° 1 min 0,000 mm 3,8 UV-I 397 W/m² 16,6 °C 24,4 °C 6,4 km/h (2 Bft)
31.07.2017 13:24 24,6 °C 24,6 °C 62 % 1014,0 hPa 0,0 mm 3,2 km/h (1 Bft) O 88 ° 1 min 0,000 mm 3,9 UV-I 404 W/m² 16,8 °C 24,6 °C 6,4 km/h (2 Bft)
31.07.2017 13:25 24,7 °C 24,7 °C 61 % 1014,0 hPa 0,0 mm 4,6 km/h (1 Bft) O-NO 69 ° 1 min 0,000 mm 4,0 UV-I 503 W/m² 16,7 °C 24,7 °C 6,4 km/h (2 Bft)
31.07.2017 13:26 24,8 °C 24,8 °C 60 % 1014,0 hPa 0,0 mm 3,4 km/h (1 Bft) O-NO 67 ° 1 min 0,000 mm 4,5 UV-I 492 W/m² 16,5 °C 24,8 °C 4,8 km/h (1 Bft)
31.07.2017 13:27 24,9 °C 24,9 °C 60 % 1013,9 hPa 0,0 mm 2,6 km/h (1 Bft) O 92 ° 1 min 0,000 mm 4,2 UV-I 432 W/m² 16,6 °C 24,9 °C 4,8 km/h (1 Bft)
31.07.2017 13:28 24,9 °C 24,9 °C 60 % 1013,9 hPa 0,0 mm 4,0 km/h (1 Bft) O-NO 60 ° 1 min 0,000 mm 4,3 UV-I 429 W/m² 16,6 °C 24,9 °C 4,8 km/h (1 Bft)
31.07.2017 13:29 24,9 °C 24,9 °C 64 % 1013,9 hPa 0,0 mm 2,2 km/h (1 Bft) O-NO 60 ° 1 min 0,000 mm 4,3 UV-I 432 W/m² 17,6 °C 24,9 °C 4,8 km/h (1 Bft)
31.07.2017 13:30 24,9 °C 24,9 °C 62 % 1013,9 hPa 0,0 mm 1,2 km/h (1 Bft) O-NO 60 ° 1 min 0,000 mm 4,9 UV-I 441 W/m² 17,1 °C 24,9 °C 3,2 km/h (1 Bft)
31.07.2017 13:31 24,9 °C 24,9 °C 64 % 1013,9 hPa 0,0 mm 2,8 km/h (1 Bft) O-NO 60 ° 1 min 0,000 mm 4,3 UV-I 403 W/m² 17,6 °C 24,9 °C 3,2 km/h (1 Bft)
31.07.2017 13:32 25,0 °C 25,0 °C 64 % 1014,0 hPa 0,0 mm 3,1 km/h (1 Bft) NO 38 ° 1 min 0,000 mm 3,7 UV-I 367 W/m² 17,7 °C 25,0 °C 6,4 km/h (2 Bft)
31.07.2017 13:33 25,1 °C 25,1 °C 62 % 1014,0 hPa 0,0 mm 4,1 km/h (1 Bft) NO 40 ° 1 min 0,000 mm 3,6 UV-I 352 W/m² 17,3 °C 25,1 °C 6,4 km/h (2 Bft)
31.07.2017 13:34 25,1 °C 25,1 °C 59 % 1014,0 hPa 0,0 mm 4,6 km/h (1 Bft) O-NO 63 ° 1 min 0,000 mm 3,5 UV-I 339 W/m² 16,5 °C 25,1 °C 6,4 km/h (2 Bft)
31.07.2017 13:35 25,1 °C 25,1 °C 61 % 1014,0 hPa 0,0 mm 5,6 km/h (1 Bft) O 89 ° 1 min 0,000 mm 3,4 UV-I 334 W/m² 17,0 °C 25,1 °C 9,7 km/h (2 Bft)
31.07.2017 13:36 24,9 °C 25,1 °C 68 % 1014,0 hPa 0,0 mm 5,0 km/h (1 Bft) O-NO 65 ° 1 min 0,000 mm 3,4 UV-I 330 W/m² 18,6 °C 24,9 °C 6,4 km/h (2 Bft)
31.07.2017 13:37 24,8 °C 24,9 °C 66 % 1014,0 hPa 0,0 mm 4,9 km/h (1 Bft) O 98 ° 1 min 0,000 mm 3,3 UV-I 329 W/m² 18,0 °C 24,8 °C 11,3 km/h (2 Bft)
31.07.2017 13:38 24,7 °C 24,8 °C 63 % 1014,0 hPa 0,0 mm 5,3 km/h (1 Bft) O-NO 72 ° 1 min 0,000 mm 3,3 UV-I 327 W/m² 17,2 °C 24,7 °C 6,4 km/h (2 Bft)
31.07.2017 13:39 24,7 °C 24,7 °C 62 % 1013,9 hPa 0,0 mm 4,5 km/h (1 Bft) O-NO 69 ° 1 min 0,000 mm 3,3 UV-I 323 W/m² 16,9 °C 24,7 °C 6,4 km/h (2 Bft)
31.07.2017 13:40 24,6 °C 24,7 °C 64 % 1013,9 hPa 0,0 mm 1,3 km/h (1 Bft) O-SO 107 ° 1 min 0,000 mm 3,1 UV-I 320 W/m² 17,3 °C 24,6 °C 3,2 km/h (1 Bft)
31.07.2017 13:41 24,6 °C 24,6 °C 65 % 1013,8 hPa 0,0 mm 4,0 km/h (1 Bft) O-NO 72 ° 1 min 0,000 mm 3,1 UV-I 315 W/m² 17,6 °C 24,6 °C 6,4 km/h (2 Bft)
31.07.2017 13:42 24,6 °C 24,6 °C 66 % 1013,8 hPa 0,0 mm 5,3 km/h (1 Bft) O-NO 74 ° 1 min 0,000 mm 3,0 UV-I 302 W/m² 17,8 °C 24,6 °C 8,0 km/h (2 Bft)
31.07.2017 13:43 24,6 °C 24,6 °C 66 % 1013,7 hPa 0,0 mm 5,6 km/h (1 Bft) O-NO 71 ° 1 min 0,000 mm 2,9 UV-I 297 W/m² 17,8 °C 24,6 °C 8,0 km/h (2 Bft)
31.07.2017 13:44 24,6 °C 24,6 °C 64 % 1013,7 hPa 0,0 mm 7,7 km/h (2 Bft) SO 130 ° 1 min 0,000 mm 2,9 UV-I 295 W/m² 17,3 °C 24,6 °C 12,9 km/h (3 Bft)
31.07.2017 13:45 24,6 °C 24,6 °C 64 % 1013,7 hPa 0,0 mm 5,4 km/h (1 Bft) O 81 ° 1 min 0,000 mm 2,8 UV-I 295 W/m² 17,3 °C 24,6 °C 11,3 km/h (2 Bft)
31.07.2017 13:46 24,5 °C 24,6 °C 63 % 1013,7 hPa 0,0 mm 4,0 km/h (1 Bft) O-NO 57 ° 1 min 0,000 mm 2,8 UV-I 295 W/m² 17,0 °C 24,5 °C 6,4 km/h (2 Bft)
31.07.2017 13:47 24,5 °C 24,5 °C 62 % 1013,6 hPa 0,0 mm 3,5 km/h (1 Bft) NO 42 ° 1 min 0,000 mm 2,9 UV-I 297 W/m² 16,7 °C 24,5 °C 8,0 km/h (2 Bft)
31.07.2017 13:48 24,6 °C 24,6 °C 62 % 1013,6 hPa 0,0 mm 4,7 km/h (1 Bft) O-NO 74 ° 1 min 0,000 mm 2,9 UV-I 304 W/m² 16,8 °C 24,6 °C 8,0 km/h (2 Bft)
31.07.2017 13:49 24,6 °C 24,6 °C 61 % 1013,6 hPa 0,0 mm 5,1 km/h (1 Bft) O-NO 67 ° 1 min 0,000 mm 3,0 UV-I 308 W/m² 16,6 °C 24,6 °C 8,0 km/h (2 Bft)
31.07.2017 13:50 24,7 °C 24,7 °C 64 % 1013,6 hPa 0,0 mm 1,9 km/h (1 Bft) O-NO 57 ° 1 min 0,000 mm 3,0 UV-I 311 W/m² 17,4 °C 24,7 °C 6,4 km/h (2 Bft)
31.07.2017 13:51 24,6 °C 24,7 °C 62 % 1013,5 hPa 0,0 mm 6,2 km/h (2 Bft) O-NO 71 ° 1 min 0,000 mm 3,1 UV-I 316 W/m² 16,8 °C 24,6 °C 9,7 km/h (2 Bft)
31.07.2017 13:52 24,6 °C 24,6 °C 65 % 1013,6 hPa 0,0 mm 6,1 km/h (2 Bft) O-NO 78 ° 1 min 0,000 mm 3,2 UV-I 327 W/m² 17,6 °C 24,6 °C 11,3 km/h (2 Bft)
31.07.2017 13:53 24,4 °C 24,6 °C 62 % 1013,6 hPa 0,0 mm 4,8 km/h (1 Bft) NO 41 ° 1 min 0,000 mm 3,3 UV-I 353 W/m² 16,6 °C 24,4 °C 8,0 km/h (2 Bft)
31.07.2017 13:54 24,5 °C 24,5 °C 62 % 1013,6 hPa 0,0 mm 5,6 km/h (1 Bft) O-NO 59 ° 1 min 0,000 mm 3,5 UV-I 374 W/m² 16,7 °C 24,5 °C 11,3 km/h (2 Bft)
31.07.2017 13:55 24,5 °C 24,5 °C 62 % 1013,5 hPa 0,0 mm 5,0 km/h (1 Bft) O-NO 61 ° 1 min 0,000 mm 3,7 UV-I 383 W/m² 16,7 °C 24,5 °C 8,0 km/h (2 Bft)
31.07.2017 13:56 24,6 °C 24,6 °C 62 % 1013,5 hPa 0,0 mm 4,8 km/h (1 Bft) O-NO 59 ° 1 min 0,000 mm 3,9 UV-I 399 W/m² 16,8 °C 24,6 °C 6,4 km/h (2 Bft)
31.07.2017 13:57 24,6 °C 24,6 °C 63 % 1013,5 hPa 0,0 mm 3,5 km/h (1 Bft) NO 46 ° 1 min 0,000 mm 3,8 UV-I 397 W/m² 17,1 °C 24,6 °C 4,8 km/h (1 Bft)
31.07.2017 13:58 24,6 °C 24,6 °C 63 % 1013,5 hPa 0,0 mm 4,5 km/h (1 Bft) NO 50 ° 1 min 0,000 mm 3,7 UV-I 371 W/m² 17,1 °C 24,6 °C 8,0 km/h (2 Bft)
31.07.2017 13:59 24,7 °C 24,7 °C 61 % 1013,5 hPa 0,0 mm 9,3 km/h (2 Bft) O-NO 68 ° 1 min 0,000 mm 3,6 UV-I 350 W/m² 16,7 °C 24,7 °C 12,9 km/h (3 Bft)
31.07.2017 14:00 24,6 °C 24,7 °C 64 % 1013,5 hPa 0,0 mm 3,4 km/h (1 Bft) O-NO 69 ° 1 min 0,254 mm 3,5 UV-I 334 W/m² 17,3 °C 24,6 °C 8,0 km/h (2 Bft)
31.07.2017 14:01 24,6 °C 24,6 °C 63 % 1013,5 hPa 0,0 mm 3,4 km/h (1 Bft) O-NO 71 ° 1 min 0,000 mm 3,6 UV-I 371 W/m² 17,1 °C 24,6 °C 6,4 km/h (2 Bft)
31.07.2017 14:02 24,4 °C 24,6 °C 66 % 1013,5 hPa 0,0 mm 4,2 km/h (1 Bft) O 96 ° 1 min 0,000 mm 3,8 UV-I 369 W/m² 17,6 °C 24,4 °C 6,4 km/h (2 Bft)
31.07.2017 14:03 24,4 °C 24,5 °C 60 % 1013,5 hPa 0,0 mm 5,2 km/h (1 Bft) O-SO 115 ° 1 min 0,000 mm 3,9 UV-I 399 W/m² 16,1 °C 24,4 °C 8,0 km/h (2 Bft)
31.07.2017 14:04 24,4 °C 24,4 °C 63 % 1013,5 hPa 0,0 mm 0,5 km/h (0 Bft) O-SO 115 ° 1 min 0,000 mm 4,1 UV-I 413 W/m² 16,9 °C 24,4 °C 3,2 km/h (1 Bft)
31.07.2017 14:05 24,3 °C 24,4 °C 64 % 1013,5 hPa 0,0 mm 1,2 km/h (1 Bft) O-SO 115 ° 1 min 0,000 mm 4,5 UV-I 413 W/m² 17,0 °C 24,3 °C 3,2 km/h (1 Bft)
31.07.2017 14:06 24,3 °C 24,3 °C 61 % 1013,5 hPa 0,0 mm 2,0 km/h (1 Bft) O-SO 115 ° 1 min 0,000 mm 4,3 UV-I 550 W/m² 16,3 °C 24,3 °C 4,8 km/h (1 Bft)
31.07.2017 14:07 24,4 °C 24,4 °C 63 % 1013,5 hPa 0,0 mm 3,4 km/h (1 Bft) O 80 ° 1 min 0,000 mm 3,9 UV-I 462 W/m² 16,9 °C 24,4 °C 4,8 km/h (1 Bft)
31.07.2017 14:08 24,4 °C 24,4 °C 61 % 1013,6 hPa 0,0 mm 7,1 km/h (2 Bft) O-NO 69 ° 1 min 0,000 mm 3,8 UV-I 362 W/m² 16,4 °C 24,4 °C 16,1 km/h (3 Bft)
31.07.2017 14:09 24,4 °C 24,4 °C 61 % 1013,5 hPa 0,0 mm 2,8 km/h (1 Bft) NO 54 ° 1 min 0,000 mm 3,8 UV-I 357 W/m² 16,4 °C 24,4 °C 4,8 km/h (1 Bft)
31.07.2017 14:10 24,4 °C 24,4 °C 60 % 1013,5 hPa 0,0 mm 3,6 km/h (1 Bft) O-SO 117 ° 1 min 0,000 mm 3,7 UV-I 348 W/m² 16,1 °C 24,4 °C 4,8 km/h (1 Bft)
31.07.2017 14:11 24,3 °C 24,4 °C 61 % 1013,5 hPa 0,0 mm 4,8 km/h (1 Bft) O-SO 109 ° 1 min 0,000 mm 3,8 UV-I 352 W/m² 16,3 °C 24,3 °C 9,7 km/h (2 Bft)
31.07.2017 14:12 24,3 °C 24,3 °C 61 % 1013,5 hPa 0,0 mm 2,5 km/h (1 Bft) S-SO 150 ° 1 min 0,000 mm 3,8 UV-I 346 W/m² 16,3 °C 24,3 °C 4,8 km/h (1 Bft)
31.07.2017 14:13 24,2 °C 24,3 °C 63 % 1013,4 hPa 0,0 mm 2,2 km/h (1 Bft) S-SO 163 ° 1 min 0,000 mm 3,7 UV-I 348 W/m² 16,7 °C 24,2 °C 4,8 km/h (1 Bft)
31.07.2017 14:14 24,2 °C 24,2 °C 63 % 1013,4 hPa 0,0 mm 2,7 km/h (1 Bft) O 99 ° 1 min 0,000 mm 3,6 UV-I 338 W/m² 16,7 °C 24,2 °C 6,4 km/h (2 Bft)
31.07.2017 14:15 24,2 °C 24,2 °C 62 % 1013,4 hPa 0,0 mm 4,1 km/h (1 Bft) O 88 ° 1 min 0,000 mm 3,7 UV-I 339 W/m² 16,4 °C 24,2 °C 6,4 km/h (2 Bft)
31.07.2017 14:16 24,1 °C 24,2 °C 65 % 1013,4 hPa 0,0 mm 2,2 km/h (1 Bft) O 88 ° 1 min 0,000 mm 3,7 UV-I 348 W/m² 17,1 °C 24,1 °C 4,8 km/h (1 Bft)
31.07.2017 14:17 24,2 °C 24,2 °C 63 % 1013,4 hPa 0,0 mm 2,0 km/h (1 Bft) O 88 ° 1 min 0,000 mm 3,7 UV-I 357 W/m² 16,7 °C 24,2 °C 3,2 km/h (1 Bft)
31.07.2017 14:18 24,2 °C 24,2 °C 63 % 1013,4 hPa 0,0 mm 4,8 km/h (1 Bft) O-NO 74 ° 1 min 0,000 mm 3,8 UV-I 352 W/m² 16,7 °C 24,2 °C 9,7 km/h (2 Bft)
31.07.2017 14:19 24,2 °C 24,2 °C 62 % 1013,4 hPa 0,0 mm 1,5 km/h (1 Bft) O-SO 111 ° 1 min 0,000 mm 3,7 UV-I 343 W/m² 16,4 °C 24,2 °C 4,8 km/h (1 Bft)
31.07.2017 14:20 24,2 °C 24,2 °C 62 % 1013,4 hPa 0,0 mm 1,2 km/h (1 Bft) O-SO 111 ° 1 min 0,000 mm 3,6 UV-I 336 W/m² 16,4 °C 24,2 °C 3,2 km/h (1 Bft)
31.07.2017 14:21 24,2 °C 24,2 °C 63 % 1013,4 hPa 0,0 mm 1,7 km/h (1 Bft) O-SO 120 ° 1 min 0,000 mm 3,7 UV-I 339 W/m² 16,7 °C 24,2 °C 4,8 km/h (1 Bft)
31.07.2017 14:22 24,2 °C 24,2 °C 63 % 1013,4 hPa 0,0 mm 3,0 km/h (1 Bft) O-SO 118 ° 1 min 0,000 mm 3,8 UV-I 369 W/m² 16,7 °C 24,2 °C 4,8 km/h (1 Bft)
31.07.2017 14:23 24,2 °C 24,2 °C 61 % 1013,5 hPa 0,0 mm 4,8 km/h (1 Bft) O-SO 103 ° 1 min 0,000 mm 3,8 UV-I 367 W/m² 16,2 °C 24,2 °C 9,7 km/h (2 Bft)
31.07.2017 14:24 24,2 °C 24,2 °C 63 % 1013,4 hPa 0,0 mm 3,5 km/h (1 Bft) O-NO 73 ° 1 min 0,000 mm 4,0 UV-I 383 W/m² 16,7 °C 24,2 °C 6,4 km/h (2 Bft)
31.07.2017 14:25 24,2 °C 24,2 °C 62 % 1013,4 hPa 0,0 mm 5,4 km/h (1 Bft) O-NO 67 ° 1 min 0,000 mm 4,1 UV-I 383 W/m² 16,4 °C 24,2 °C 8,0 km/h (2 Bft)
31.07.2017 14:26 24,3 °C 24,3 °C 62 % 1013,4 hPa 0,0 mm 2,9 km/h (1 Bft) O-NO 69 ° 1 min 0,000 mm 6,8 UV-I 383 W/m² 16,5 °C 24,3 °C 6,4 km/h (2 Bft)
31.07.2017 14:27 24,3 °C 24,3 °C 65 % 1013,5 hPa 0,0 mm 1,5 km/h (1 Bft) O-NO 61 ° 1 min 0,000 mm 4,6 UV-I 383 W/m² 17,3 °C 24,3 °C 3,2 km/h (1 Bft)
31.07.2017 14:28 24,4 °C 24,4 °C 61 % 1013,5 hPa 0,0 mm 3,3 km/h (1 Bft) O-NO 61 ° 1 min 0,000 mm 4,0 UV-I 383 W/m² 16,4 °C 24,4 °C 4,8 km/h (1 Bft)
31.07.2017 14:29 24,5 °C 24,5 °C 63 % 1013,5 hPa 0,0 mm 1,1 km/h (1 Bft) O-NO 61 ° 1 min 0,000 mm 3,9 UV-I 359 W/m² 17,0 °C 24,5 °C 3,2 km/h (1 Bft)
31.07.2017 14:30 24,6 °C 24,6 °C 62 % 1013,5 hPa 0,0 mm 1,6 km/h (1 Bft) O-NO 61 ° 1 min 0,000 mm 3,7 UV-I 350 W/m² 16,8 °C 24,6 °C 3,2 km/h (1 Bft)
31.07.2017 14:31 24,6 °C 24,6 °C 65 % 1013,5 hPa 0,0 mm 4,2 km/h (1 Bft) NO 40 ° 1 min 0,000 mm 3,6 UV-I 338 W/m² 17,6 °C 24,6 °C 9,7 km/h (2 Bft)
31.07.2017 14:32 24,6 °C 24,7 °C 64 % 1013,5 hPa 0,0 mm 4,1 km/h (1 Bft) NO 47 ° 1 min 0,000 mm 3,7 UV-I 350 W/m² 17,3 °C 24,6 °C 8,0 km/h (2 Bft)
31.07.2017 14:33 24,7 °C 24,7 °C 61 % 1013,5 hPa 0,0 mm 4,8 km/h (1 Bft) O-NO 60 ° 1 min 0,000 mm 3,7 UV-I 360 W/m² 16,7 °C 24,7 °C 8,0 km/h (2 Bft)
31.07.2017 14:34 24,7 °C 24,7 °C 62 % 1013,5 hPa 0,0 mm 4,1 km/h (1 Bft) O-NO 57 ° 1 min 0,000 mm 4,0 UV-I 396 W/m² 16,9 °C 24,7 °C 6,4 km/h (2 Bft)
31.07.2017 14:35 24,7 °C 24,7 °C 60 % 1013,4 hPa 0,0 mm 4,2 km/h (1 Bft) O-NO 61 ° 1 min 0,000 mm 4,5 UV-I 468 W/m² 16,4 °C 24,7 °C 4,8 km/h (1 Bft)
31.07.2017 14:36 24,7 °C 24,7 °C 60 % 1013,4 hPa 0,0 mm 3,8 km/h (1 Bft) NO 39 ° 1 min 0,000 mm 5,3 UV-I 471 W/m² 16,4 °C 24,7 °C 6,4 km/h (2 Bft)
31.07.2017 14:37 24,8 °C 24,8 °C 59 % 1013,4 hPa 0,0 mm 4,7 km/h (1 Bft) N-NO 33 ° 1 min 0,000 mm 4,1 UV-I 517 W/m² 16,2 °C 24,8 °C 8,0 km/h (2 Bft)
31.07.2017 14:38 24,8 °C 24,8 °C 60 % 1013,4 hPa 0,0 mm 4,1 km/h (1 Bft) NO 36 ° 1 min 0,000 mm 4,1 UV-I 418 W/m² 16,5 °C 24,8 °C 8,0 km/h (2 Bft)
31.07.2017 14:39 24,9 °C 24,9 °C 61 % 1013,4 hPa 0,0 mm 5,8 km/h (2 Bft) N-NO 22 ° 1 min 0,000 mm 4,3 UV-I 434 W/m² 16,8 °C 24,9 °C 8,0 km/h (2 Bft)
31.07.2017 14:40 24,9 °C 24,9 °C 65 % 1013,4 hPa 0,0 mm 3,6 km/h (1 Bft) O-SO 103 ° 1 min 0,000 mm 5,8 UV-I 496 W/m² 17,9 °C 24,9 °C 4,8 km/h (1 Bft)
31.07.2017 14:41 24,9 °C 24,9 °C 62 % 1013,4 hPa 0,0 mm 1,1 km/h (1 Bft) O-SO 103 ° 1 min 0,000 mm 4,5 UV-I 462 W/m² 17,1 °C 24,9 °C 3,2 km/h (1 Bft)
31.07.2017 14:42 24,9 °C 24,9 °C 60 % 1013,4 hPa 0,0 mm 0,1 km/h (0 Bft) O-SO 103 ° 1 min 0,000 mm 4,6 UV-I 462 W/m² 16,6 °C 24,9 °C 1,6 km/h (1 Bft)
31.07.2017 14:43 24,8 °C 24,9 °C 63 % 1013,4 hPa 0,0 mm 0,6 km/h (0 Bft) O-SO 103 ° 1 min 0,000 mm 7,4 UV-I 462 W/m² 17,3 °C 24,8 °C 1,6 km/h (1 Bft)
31.07.2017 14:44 24,8 °C 24,9 °C 62 % 1013,4 hPa 0,0 mm 2,4 km/h (1 Bft) O 86 ° 1 min 0,000 mm 4,6 UV-I 462 W/m² 17,0 °C 24,8 °C 4,8 km/h (1 Bft)
31.07.2017 14:45 24,8 °C 24,8 °C 62 % 1013,4 hPa 0,0 mm 1,8 km/h (1 Bft) O 86 ° 1 min 0,000 mm 4,2 UV-I 418 W/m² 17,0 °C 24,8 °C 3,2 km/h (1 Bft)
31.07.2017 14:46 24,9 °C 24,9 °C 64 % 1013,5 hPa 0,0 mm 2,5 km/h (1 Bft) NO 55 ° 1 min 0,000 mm 4,1 UV-I 392 W/m² 17,6 °C 24,9 °C 8,0 km/h (2 Bft)
31.07.2017 14:47 24,9 °C 24,9 °C 61 % 1013,5 hPa 0,0 mm 7,2 km/h (2 Bft) O-NO 69 ° 1 min 0,000 mm 4,0 UV-I 367 W/m² 16,8 °C 24,9 °C 11,3 km/h (2 Bft)
31.07.2017 14:48 25,0 °C 25,1 °C 60 % 1013,6 hPa 0,0 mm 3,9 km/h (1 Bft) O-NO 66 ° 1 min 0,000 mm 3,7 UV-I 367 W/m² 16,7 °C 25,0 °C 6,4 km/h (2 Bft)
31.07.2017 14:49 24,9 °C 25,0 °C 58 % 1013,6 hPa 0,0 mm 3,1 km/h (1 Bft) O-SO 110 ° 1 min 0,000 mm 4,3 UV-I 359 W/m² 16,1 °C 24,9 °C 4,8 km/h (1 Bft)
31.07.2017 14:50 24,9 °C 24,9 °C 59 % 1013,6 hPa 0,0 mm 1,4 km/h (1 Bft) O-SO 110 ° 1 min 0,000 mm 4,2 UV-I 374 W/m² 16,3 °C 24,9 °C 3,2 km/h (1 Bft)
31.07.2017 14:51 24,8 °C 24,9 °C 59 % 1013,6 hPa 0,0 mm 0,7 km/h (0 Bft) O-SO 110 ° 1 min 0,000 mm 7,0 UV-I 374 W/m² 16,2 °C 24,8 °C 1,6 km/h (1 Bft)
31.07.2017 14:52 24,9 °C 24,9 °C 63 % 1013,6 hPa 0,0 mm 2,6 km/h (1 Bft) O-SO 110 ° 1 min 0,000 mm 6,7 UV-I 374 W/m² 17,4 °C 24,9 °C 4,8 km/h (1 Bft)
31.07.2017 14:53 24,9 °C 24,9 °C 62 % 1013,6 hPa 0,0 mm 6,1 km/h (2 Bft) SO 128 ° 1 min 0,000 mm 6,8 UV-I 374 W/m² 17,1 °C 24,9 °C 11,3 km/h (2 Bft)
31.07.2017 14:54 25,0 °C 25,0 °C 65 % 1013,6 hPa 0,0 mm 5,1 km/h (1 Bft) SO 136 ° 1 min 0,000 mm 6,0 UV-I 993 W/m² 17,9 °C 25,0 °C 8,0 km/h (2 Bft)
31.07.2017 14:55 25,1 °C 25,1 °C 63 % 1013,5 hPa 0,0 mm 6,8 km/h (2 Bft) O 91 ° 1 min 0,000 mm 4,6 UV-I 993 W/m² 17,5 °C 25,1 °C 11,3 km/h (2 Bft)
31.07.2017 14:56 25,2 °C 25,2 °C 64 % 1013,5 hPa 0,0 mm 5,2 km/h (1 Bft) O-NO 74 ° 1 min 0,000 mm 4,6 UV-I 993 W/m² 17,9 °C 25,2 °C 9,7 km/h (2 Bft)
31.07.2017 14:57 25,2 °C 25,2 °C 61 % 1013,5 hPa 0,0 mm 4,1 km/h (1 Bft) NO 51 ° 1 min 0,000 mm 5,8 UV-I 339 W/m² 17,1 °C 25,2 °C 4,8 km/h (1 Bft)
31.07.2017 14:58 25,3 °C 25,3 °C 61 % 1013,5 hPa 0,0 mm 1,3 km/h (1 Bft) O-NO 77 ° 1 min 0,000 mm 3,5 UV-I 332 W/m² 17,2 °C 25,3 °C 4,8 km/h (1 Bft)
31.07.2017 14:59 25,2 °C 25,3 °C 60 % 1013,5 hPa 0,0 mm 2,1 km/h (1 Bft) NO 44 ° 1 min 0,000 mm 6,6 UV-I 332 W/m² 16,9 °C 25,2 °C 4,8 km/h (1 Bft)
31.07.2017 15:00 25,2 °C 25,2 °C 65 % 1013,6 hPa 0,0 mm 4,0 km/h (1 Bft) O-NO 71 ° 1 min 0,305 mm 5,9 UV-I 536 W/m² 18,1 °C 25,2 °C 6,4 km/h (2 Bft)
31.07.2017 15:01 25,1 °C 25,2 °C 63 % 1013,6 hPa 0,0 mm 2,4 km/h (1 Bft) O-NO 75 ° 1 min 0,000 mm 5,7 UV-I 536 W/m² 17,5 °C 25,1 °C 6,4 km/h (2 Bft)
31.07.2017 15:02 25,1 °C 25,1 °C 63 % 1013,6 hPa 0,0 mm 1,8 km/h (1 Bft) O-NO 75 ° 1 min 0,000 mm 6,4 UV-I 536 W/m² 17,5 °C 25,1 °C 3,2 km/h (1 Bft)
31.07.2017 15:03 25,3 °C 25,3 °C 60 % 1013,5 hPa 0,0 mm 3,8 km/h (1 Bft) O-NO 62 ° 1 min 0,000 mm 6,4 UV-I 886 W/m² 17,0 °C 25,3 °C 4,8 km/h (1 Bft)
31.07.2017 15:04 25,5 °C 25,5 °C 62 % 1013,6 hPa 0,0 mm 4,1 km/h (1 Bft) NO 38 ° 1 min 0,000 mm 6,4 UV-I 881 W/m² 17,7 °C 25,5 °C 6,4 km/h (2 Bft)
31.07.2017 15:05 25,6 °C 25,6 °C 59 % 1013,5 hPa 0,0 mm 6,1 km/h (2 Bft) O-NO 67 ° 1 min 0,000 mm 6,0 UV-I 881 W/m² 17,0 °C 25,6 °C 11,3 km/h (2 Bft)
31.07.2017 15:06 25,7 °C 25,7 °C 58 % 1013,5 hPa 0,0 mm 4,8 km/h (1 Bft) NO 42 ° 1 min 0,000 mm 6,1 UV-I 831 W/m² 16,8 °C 25,7 °C 8,0 km/h (2 Bft)
31.07.2017 15:07 25,8 °C 25,8 °C 59 % 1013,5 hPa 0,0 mm 4,0 km/h (1 Bft) O-NO 66 ° 1 min 0,000 mm 6,1 UV-I 823 W/m² 17,2 °C 25,8 °C 4,8 km/h (1 Bft)
31.07.2017 15:08 25,8 °C 25,8 °C 59 % 1013,5 hPa 0,0 mm 4,5 km/h (1 Bft) NO 55 ° 1 min 0,000 mm 6,1 UV-I 788 W/m² 17,2 °C 25,8 °C 8,0 km/h (2 Bft)
31.07.2017 15:09 25,8 °C 25,9 °C 57 % 1013,5 hPa 0,0 mm 4,5 km/h (1 Bft) O-SO 105 ° 1 min 0,000 mm 6,1 UV-I 821 W/m² 16,6 °C 25,8 °C 6,4 km/h (2 Bft)
31.07.2017 15:10 25,9 °C 25,9 °C 56 % 1013,6 hPa 0,0 mm 1,1 km/h (1 Bft) N-NO 14 ° 1 min 0,000 mm 6,1 UV-I 853 W/m² 16,4 °C 25,9 °C 4,8 km/h (1 Bft)
31.07.2017 15:11 26,0 °C 26,0 °C 59 % 1013,6 hPa 0,0 mm 5,0 km/h (1 Bft) O 94 ° 1 min 0,000 mm 6,1 UV-I 823 W/m² 17,4 °C 26,0 °C 8,0 km/h (2 Bft)
31.07.2017 15:12 26,1 °C 26,1 °C 55 % 1013,6 hPa 0,0 mm 3,9 km/h (1 Bft) NO 49 ° 1 min 0,000 mm 5,7 UV-I 847 W/m² 16,3 °C 26,1 °C 4,8 km/h (1 Bft)
31.07.2017 15:13 26,1 °C 26,1 °C 57 % 1013,6 hPa 0,0 mm 3,1 km/h (1 Bft) N-NO 13 ° 1 min 0,000 mm 6,1 UV-I 847 W/m² 16,9 °C 26,1 °C 4,8 km/h (1 Bft)
31.07.2017 15:14 26,2 °C 26,2 °C 56 % 1013,7 hPa 0,0 mm 2,7 km/h (1 Bft) O 101 ° 1 min 0,000 mm 6,1 UV-I 854 W/m² 16,7 °C 26,2 °C 6,4 km/h (2 Bft)
31.07.2017 15:15 26,2 °C 26,2 °C 59 % 1013,7 hPa 0,0 mm 3,1 km/h (1 Bft) N-NO 32 ° 1 min 0,000 mm 6,1 UV-I 858 W/m² 17,5 °C 26,2 °C 4,8 km/h (1 Bft)
31.07.2017 15:16 26,3 °C 26,3 °C 56 % 1013,7 hPa 0,0 mm 3,5 km/h (1 Bft) N-NO 22 ° 1 min 0,000 mm 6,1 UV-I 879 W/m² 16,8 °C 26,3 °C 6,4 km/h (2 Bft)
31.07.2017 15:17 26,3 °C 26,3 °C 56 % 1013,7 hPa 0,0 mm 2,6 km/h (1 Bft) N-NW 336 ° 1 min 0,000 mm 6,3 UV-I 896 W/m² 16,8 °C 26,3 °C 4,8 km/h (1 Bft)
31.07.2017 15:18 26,4 °C 26,4 °C 58 % 1013,7 hPa 0,0 mm 2,7 km/h (1 Bft) N 355 ° 1 min 0,000 mm 6,1 UV-I 896 W/m² 17,5 °C 26,4 °C 4,8 km/h (1 Bft)
31.07.2017 15:19 26,5 °C 26,5 °C 57 % 1013,8 hPa 0,0 mm 4,1 km/h (1 Bft) N 360 ° 1 min 0,000 mm 6,3 UV-I 896 W/m² 17,3 °C 26,5 °C 6,4 km/h (2 Bft)
31.07.2017 15:20 26,6 °C 26,6 °C 56 % 1013,8 hPa 0,0 mm 3,1 km/h (1 Bft) N 360 ° 1 min 0,000 mm 6,2 UV-I 896 W/m² 17,1 °C 26,6 °C 6,4 km/h (2 Bft)
31.07.2017 15:21 26,6 °C 26,7 °C 55 % 1013,7 hPa 0,0 mm 0,0 km/h (0 Bft) N 360 ° 1 min 0,000 mm 6,2 UV-I 896 W/m² 16,8 °C 26,6 °C 0,0 km/h (0 Bft)
31.07.2017 15:22 26,7 °C 26,7 °C 56 % 1013,7 hPa 0,0 mm 6,6 km/h (2 Bft) O-NO 65 ° 1 min 0,000 mm 6,2 UV-I 854 W/m² 17,2 °C 26,7 °C 9,7 km/h (2 Bft)
31.07.2017 15:23 26,7 °C 26,7 °C 53 % 1013,7 hPa 0,0 mm 5,4 km/h (1 Bft) NO 48 ° 1 min 0,000 mm 6,0 UV-I 837 W/m² 16,3 °C 26,7 °C 8,0 km/h (2 Bft)
31.07.2017 15:24 26,7 °C 26,7 °C 54 % 1013,7 hPa 0,0 mm 3,8 km/h (1 Bft) O 93 ° 1 min 0,000 mm 6,0 UV-I 821 W/m² 16,6 °C 26,7 °C 6,4 km/h (2 Bft)
31.07.2017 15:25 26,6 °C 26,7 °C 56 % 1013,7 hPa 0,0 mm 0,7 km/h (0 Bft) O 93 ° 1 min 0,000 mm 5,9 UV-I 809 W/m² 17,1 °C 26,6 °C 3,2 km/h (1 Bft)
31.07.2017 15:26 26,6 °C 26,7 °C 55 % 1013,7 hPa 0,0 mm 4,1 km/h (1 Bft) O-NO 58 ° 1 min 0,000 mm 5,8 UV-I 800 W/m² 16,8 °C 26,6 °C 6,4 km/h (2 Bft)
31.07.2017 15:27 26,6 °C 26,7 °C 52 % 1013,7 hPa 0,0 mm 0,8 km/h (0 Bft) O-NO 58 ° 1 min 0,000 mm 5,8 UV-I 784 W/m² 15,9 °C 26,6 °C 3,2 km/h (1 Bft)
31.07.2017 15:28 26,6 °C 26,6 °C 53 % 1013,7 hPa 0,0 mm 1,9 km/h (1 Bft) O-NO 59 ° 1 min 0,000 mm 5,7 UV-I 772 W/m² 16,2 °C 26,6 °C 3,2 km/h (1 Bft)
31.07.2017 15:29 26,6 °C 26,6 °C 53 % 1013,7 hPa 0,0 mm 1,1 km/h (1 Bft) O-NO 61 ° 1 min 0,000 mm 5,6 UV-I 763 W/m² 16,2 °C 26,6 °C 4,8 km/h (1 Bft)
31.07.2017 15:30 26,6 °C 26,6 °C 54 % 1013,7 hPa 0,0 mm 2,5 km/h (1 Bft) O-NO 74 ° 1 min 0,000 mm 5,6 UV-I 761 W/m² 16,5 °C 26,6 °C 4,8 km/h (1 Bft)
31.07.2017 15:31 26,7 °C 26,7 °C 58 % 1013,7 hPa 0,0 mm 1,1 km/h (1 Bft) O-NO 74 ° 1 min 0,000 mm 5,5 UV-I 758 W/m² 17,7 °C 26,7 °C 1,6 km/h (1 Bft)
31.07.2017 15:32 26,7 °C 26,7 °C 56 % 1013,7 hPa 0,0 mm 1,5 km/h (1 Bft) O-NO 57 ° 1 min 0,000 mm 5,5 UV-I 759 W/m² 17,2 °C 26,7 °C 4,8 km/h (1 Bft)
31.07.2017 15:33 26,8 °C 26,8 °C 53 % 1013,7 hPa 0,0 mm 0,0 km/h (0 Bft) O-NO 57 ° 1 min 0,000 mm 5,5 UV-I 749 W/m² 16,4 °C 26,8 °C 0,0 km/h (0 Bft)
31.07.2017 15:34 26,8 °C 26,8 °C 54 % 1013,8 hPa 0,0 mm 0,0 km/h (0 Bft) O-NO 57 ° 1 min 0,000 mm 5,5 UV-I 752 W/m² 16,7 °C 26,8 °C 0,0 km/h (0 Bft)
31.07.2017 15:35 26,8 °C 26,8 °C 56 % 1013,8 hPa 0,0 mm 0,0 km/h (0 Bft) O-NO 57 ° 1 min 0,000 mm 5,4 UV-I 751 W/m² 17,3 °C 26,8 °C 0,0 km/h (0 Bft)
31.07.2017 15:36 26,8 °C 26,8 °C 53 % 1013,8 hPa 0,0 mm 0,3 km/h (0 Bft) O-NO 57 ° 1 min 0,000 mm 5,4 UV-I 737 W/m² 16,4 °C 26,8 °C 1,6 km/h (1 Bft)
31.07.2017 15:37 26,7 °C 26,8 °C 58 % 1013,8 hPa 0,0 mm 1,2 km/h (1 Bft) O-NO 57 ° 1 min 0,000 mm 5,4 UV-I 742 W/m² 17,7 °C 26,7 °C 3,2 km/h (1 Bft)
31.07.2017 15:38 26,7 °C 26,7 °C 57 % 1013,8 hPa 0,0 mm 1,0 km/h (0 Bft) O-NO 57 ° 1 min 0,000 mm 5,4 UV-I 740 W/m² 17,5 °C 26,7 °C 1,6 km/h (1 Bft)
31.07.2017 15:39 26,8 °C 26,8 °C 61 % 1013,8 hPa 0,0 mm 1,2 km/h (1 Bft) O-NO 57 ° 1 min 0,000 mm 5,4 UV-I 737 W/m² 18,6 °C 26,8 °C 3,2 km/h (1 Bft)
31.07.2017 15:40 26,8 °C 26,8 °C 57 % 1013,8 hPa 0,0 mm 0,0 km/h (0 Bft) O-NO 57 ° 1 min 0,000 mm 5,3 UV-I 737 W/m² 17,6 °C 26,8 °C 0,0 km/h (0 Bft)
31.07.2017 15:41 26,9 °C 26,9 °C 57 % 1013,8 hPa 0,0 mm 0,1 km/h (0 Bft) O-NO 57 ° 1 min 0,000 mm 5,3 UV-I 735 W/m² 17,6 °C 26,9 °C 1,6 km/h (1 Bft)
31.07.2017 15:42 27,1 °C 27,1 °C 52 % 1013,7 hPa 0,0 mm 0,0 km/h (0 Bft) O-NO 57 ° 1 min 0,000 mm 5,3 UV-I 733 W/m² 16,4 °C 27,1 °C 0,0 km/h (0 Bft)
31.07.2017 15:43 27,1 °C 27,1 °C 52 % 1013,7 hPa 0,0 mm 0,0 km/h (0 Bft) O-NO 57 ° 1 min 0,000 mm 5,3 UV-I 731 W/m² 16,4 °C 27,1 °C 0,0 km/h (0 Bft)
31.07.2017 15:44 27,2 °C 27,2 °C 54 % 1013,8 hPa 0,0 mm 2,1 km/h (1 Bft) O-NO 57 ° 1 min 0,000 mm 5,3 UV-I 731 W/m² 17,1 °C 27,2 °C 4,8 km/h (1 Bft)
31.07.2017 15:45 27,3 °C 27,3 °C 52 % 1013,8 hPa 0,0 mm 2,1 km/h (1 Bft) O-NO 57 ° 1 min 0,000 mm 5,2 UV-I 724 W/m² 16,6 °C 27,3 °C 3,2 km/h (1 Bft)
31.07.2017 15:46 27,3 °C 27,3 °C 53 % 1013,8 hPa 0,0 mm 2,0 km/h (1 Bft) NO 40 ° 1 min 0,000 mm 5,2 UV-I 721 W/m² 16,9 °C 27,3 °C 3,2 km/h (1 Bft)
31.07.2017 15:47 27,3 °C 27,3 °C 51 % 1013,7 hPa 0,0 mm 1,8 km/h (1 Bft) O-NO 62 ° 1 min 0,000 mm 5,2 UV-I 719 W/m² 16,3 °C 27,3 °C 4,8 km/h (1 Bft)
31.07.2017 15:48 27,4 °C 27,4 °C 53 % 1013,8 hPa 0,0 mm 3,0 km/h (1 Bft) O-NO 62 ° 1 min 0,000 mm 5,1 UV-I 715 W/m² 17,0 °C 27,4 °C 6,4 km/h (2 Bft)
31.07.2017 15:49 27,3 °C 27,4 °C 46 % 1013,8 hPa 0,0 mm 0,2 km/h (0 Bft) O-NO 62 ° 1 min 0,000 mm 5,1 UV-I 714 W/m² 14,6 °C 27,3 °C 1,6 km/h (1 Bft)
31.07.2017 15:50 27,4 °C 27,4 °C 46 % 1013,8 hPa 0,0 mm 0,2 km/h (0 Bft) O-NO 62 ° 1 min 0,000 mm 5,1 UV-I 710 W/m² 14,7 °C 27,4 °C 1,6 km/h (1 Bft)
31.07.2017 15:51 27,3 °C 27,4 °C 47 % 1013,8 hPa 0,0 mm 0,4 km/h (0 Bft) O-NO 62 ° 1 min 0,000 mm 5,0 UV-I 707 W/m² 15,0 °C 27,3 °C 1,6 km/h (1 Bft)
31.07.2017 15:52 27,4 °C 27,4 °C 50 % 1013,8 hPa 0,0 mm 1,2 km/h (1 Bft) O-NO 63 ° 1 min 0,000 mm 5,0 UV-I 703 W/m² 16,0 °C 27,4 °C 3,2 km/h (1 Bft)
31.07.2017 15:53 27,4 °C 27,4 °C 54 % 1013,9 hPa 0,0 mm 1,2 km/h (1 Bft) O 83 ° 1 min 0,000 mm 5,0 UV-I 703 W/m² 17,3 °C 27,4 °C 3,2 km/h (1 Bft)
31.07.2017 15:54 27,4 °C 27,4 °C 49 % 1013,8 hPa 0,0 mm 0,1 km/h (0 Bft) O 83 ° 1 min 0,000 mm 5,0 UV-I 703 W/m² 15,7 °C 27,4 °C 1,6 km/h (1 Bft)
31.07.2017 15:55 27,4 °C 27,4 °C 49 % 1013,9 hPa 0,0 mm 3,4 km/h (1 Bft) N-NW 340 ° 1 min 0,000 mm 5,0 UV-I 705 W/m² 15,7 °C 27,4 °C 6,4 km/h (2 Bft)
31.07.2017 15:56 27,4 °C 27,4 °C 48 % 1013,9 hPa 0,0 mm 3,0 km/h (1 Bft) N-NW 346 ° 1 min 0,000 mm 5,0 UV-I 705 W/m² 15,4 °C 27,4 °C 4,8 km/h (1 Bft)
31.07.2017 15:57 27,5 °C 27,6 °C 48 % 1013,9 hPa 0,0 mm 2,1 km/h (1 Bft) N-NW 346 ° 1 min 0,000 mm 5,0 UV-I 705 W/m² 15,5 °C 27,5 °C 3,2 km/h (1 Bft)
31.07.2017 15:58 27,6 °C 27,6 °C 48 % 1013,9 hPa 0,0 mm 0,3 km/h (0 Bft) N-NW 346 ° 1 min 0,000 mm 4,9 UV-I 703 W/m² 15,6 °C 27,6 °C 1,6 km/h (1 Bft)
31.07.2017 15:59 27,6 °C 27,6 °C 47 % 1013,9 hPa 0,0 mm 1,9 km/h (1 Bft) N-NW 342 ° 1 min 0,000 mm 4,9 UV-I 703 W/m² 15,3 °C 27,6 °C 3,2 km/h (1 Bft)
31.07.2017 16:00 27,6 °C 27,6 °C 48 % 1013,9 hPa 0,0 mm 2,4 km/h (1 Bft) N-NW 336 ° 1 min 0,000 mm 4,9 UV-I 703 W/m² 15,6 °C 27,6 °C 3,2 km/h (1 Bft)
31.07.2017 16:01 27,6 °C 27,6 °C 47 % 1013,8 hPa 0,0 mm 2,1 km/h (1 Bft) N-NW 336 ° 1 min 0,508 mm 4,9 UV-I 700 W/m² 15,3 °C 27,6 °C 3,2 km/h (1 Bft)
31.07.2017 16:02 27,6 °C 27,6 °C 48 % 1013,9 hPa 0,0 mm 0,0 km/h (0 Bft) N-NW 336 ° 1 min 0,000 mm 4,8 UV-I 696 W/m² 15,6 °C 27,6 °C 0,0 km/h (0 Bft)
31.07.2017 16:03 27,6 °C 27,6 °C 50 % 1013,9 hPa 0,0 mm 0,6 km/h (0 Bft) N-NW 336 ° 1 min 0,000 mm 4,8 UV-I 691 W/m² 16,2 °C 27,6 °C 1,6 km/h (1 Bft)
31.07.2017 16:04 27,6 °C 27,6 °C 48 % 1013,9 hPa 0,0 mm 0,0 km/h (0 Bft) N-NW 336 ° 1 min 0,000 mm 4,8 UV-I 687 W/m² 15,6 °C 27,6 °C 0,0 km/h (0 Bft)
31.07.2017 16:05 27,6 °C 27,6 °C 47 % 1013,9 hPa 0,0 mm 0,5 km/h (0 Bft) N-NW 336 ° 1 min 0,000 mm 4,8 UV-I 686 W/m² 15,3 °C 27,6 °C 1,6 km/h (1 Bft)
31.07.2017 16:06 27,6 °C 27,6 °C 51 % 1013,9 hPa 0,0 mm 3,7 km/h (1 Bft) N-NW 336 ° 1 min 0,000 mm 4,8 UV-I 684 W/m² 16,5 °C 27,6 °C 4,8 km/h (1 Bft)
31.07.2017 16:07 27,6 °C 27,7 °C 49 % 1013,9 hPa 0,0 mm 4,2 km/h (1 Bft) N-NW 344 ° 1 min 0,000 mm 4,7 UV-I 679 W/m² 15,9 °C 27,6 °C 4,8 km/h (1 Bft)
31.07.2017 16:08 27,8 °C 27,8 °C 48 % 1013,9 hPa 0,0 mm 2,1 km/h (1 Bft) N-NW 342 ° 1 min 0,000 mm 4,7 UV-I 659 W/m² 15,8 °C 27,8 °C 3,2 km/h (1 Bft)
31.07.2017 16:09 27,8 °C 27,8 °C 49 % 1013,9 hPa 0,0 mm 2,4 km/h (1 Bft) N-NW 342 ° 1 min 0,000 mm 4,6 UV-I 659 W/m² 16,1 °C 27,8 °C 3,2 km/h (1 Bft)
31.07.2017 16:10 27,8 °C 27,8 °C 48 % 1013,9 hPa 0,0 mm 3,4 km/h (1 Bft) N 360 ° 0 min 0,000 mm 3,7 UV-I 200 W/m² 15,8 °C 27,8 °C 4,8 km/h (1 Bft)
31.07.2017 16:11 27,9 °C 27,9 °C 51 % 1014,0 hPa 0,0 mm 3,0 km/h (1 Bft) N 360 ° 0 min 0,000 mm 2,9 UV-I 186 W/m² 16,8 °C 27,9 °C 4,8 km/h (1 Bft)
31.07.2017 16:12 27,9 °C 27,9 °C 48 % 1013,9 hPa 0,0 mm 3,7 km/h (1 Bft) N-NW 336 ° 0 min 0,000 mm 2,6 UV-I 135 W/m² 15,9 °C 27,9 °C 6,4 km/h (2 Bft)
31.07.2017 16:13 27,9 °C 27,9 °C 49 % 1013,9 hPa 0,0 mm 4,2 km/h (1 Bft) W-NW 302 ° 0 min 0,000 mm 2,4 UV-I 125 W/m² 16,2 °C 27,9 °C 8,0 km/h (2 Bft)
31.07.2017 16:14 27,8 °C 27,9 °C 51 % 1013,9 hPa 0,0 mm 6,8 km/h (2 Bft) N-NW 334 ° 0 min 0,000 mm 2,4 UV-I 130 W/m² 16,7 °C 27,8 °C 8,0 km/h (2 Bft)
31.07.2017 16:15 27,7 °C 27,8 °C 52 % 1013,9 hPa 0,0 mm 2,1 km/h (1 Bft) N-NW 334 ° 0 min 0,000 mm 2,4 UV-I 130 W/m² 16,9 °C 27,7 °C 4,8 km/h (1 Bft)
31.07.2017 16:16 27,6 °C 27,7 °C 49 % 1013,9 hPa 0,0 mm 1,2 km/h (1 Bft) N-NO 32 ° 0 min 0,000 mm 2,3 UV-I 174 W/m² 15,9 °C 27,6 °C 3,2 km/h (1 Bft)
31.07.2017 16:17 27,6 °C 27,6 °C 52 % 1013,9 hPa 0,0 mm 3,4 km/h (1 Bft) NO 51 ° 0 min 0,000 mm 2,5 UV-I 248 W/m² 16,8 °C 27,6 °C 4,8 km/h (1 Bft)
31.07.2017 16:18 27,6 °C 27,6 °C 53 % 1013,9 hPa 0,0 mm 3,8 km/h (1 Bft) O-NO 66 ° 1 min 0,000 mm 2,7 UV-I 309 W/m² 17,1 °C 27,6 °C 4,8 km/h (1 Bft)
31.07.2017 16:19 27,6 °C 27,6 °C 51 % 1013,9 hPa 0,0 mm 3,8 km/h (1 Bft) O-NO 66 ° 1 min 0,000 mm 3,1 UV-I 346 W/m² 16,5 °C 27,6 °C 4,8 km/h (1 Bft)
31.07.2017 16:20 27,6 °C 27,6 °C 52 % 1013,9 hPa 0,0 mm 2,7 km/h (1 Bft) O-NO 65 ° 0 min 0,000 mm 2,6 UV-I 113 W/m² 16,8 °C 27,6 °C 4,8 km/h (1 Bft)
31.07.2017 16:21 27,6 °C 27,6 °C 53 % 1013,9 hPa 0,0 mm 3,4 km/h (1 Bft) N-NO 15 ° 0 min 0,000 mm 2,1 UV-I 109 W/m² 17,1 °C 27,6 °C 4,8 km/h (1 Bft)
31.07.2017 16:22 27,4 °C 27,6 °C 54 % 1014,0 hPa 0,0 mm 2,7 km/h (1 Bft) N 5 ° 0 min 0,000 mm 2,0 UV-I 109 W/m² 17,3 °C 27,4 °C 4,8 km/h (1 Bft)
31.07.2017 16:23 27,4 °C 27,4 °C 53 % 1014,0 hPa 0,0 mm 3,8 km/h (1 Bft) N-NO 16 ° 0 min 0,000 mm 2,1 UV-I 128 W/m² 17,0 °C 27,4 °C 4,8 km/h (1 Bft)
31.07.2017 16:24 27,3 °C 27,4 °C 57 % 1014,0 hPa 0,0 mm 3,1 km/h (1 Bft) N-NO 16 ° 0 min 0,000 mm 2,2 UV-I 130 W/m² 18,0 °C 27,3 °C 4,8 km/h (1 Bft)
31.07.2017 16:25 27,2 °C 27,3 °C 60 % 1014,0 hPa 0,0 mm 2,6 km/h (1 Bft) N-NO 29 ° 0 min 0,000 mm 2,2 UV-I 141 W/m² 18,7 °C 27,2 °C 3,2 km/h (1 Bft)
31.07.2017 16:26 27,1 °C 27,2 °C 57 % 1013,9 hPa 0,0 mm 2,9 km/h (1 Bft) N-NO 30 ° 0 min 0,000 mm 2,3 UV-I 149 W/m² 17,8 °C 27,1 °C 4,8 km/h (1 Bft)
31.07.2017 16:27 27,1 °C 27,1 °C 57 % 1014,0 hPa 0,0 mm 1,4 km/h (1 Bft) N-NO 29 ° 0 min 0,000 mm 2,4 UV-I 151 W/m² 17,8 °C 27,1 °C 3,2 km/h (1 Bft)
31.07.2017 16:28 27,1 °C 27,1 °C 63 % 1014,0 hPa 0,0 mm 3,0 km/h (1 Bft) N-NO 30 ° 0 min 0,000 mm 2,4 UV-I 146 W/m² 19,4 °C 27,1 °C 4,8 km/h (1 Bft)
31.07.2017 16:29 26,9 °C 27,1 °C 61 % 1014,0 hPa 0,0 mm 1,4 km/h (1 Bft) N-NO 32 ° 0 min 0,000 mm 2,4 UV-I 141 W/m² 18,7 °C 26,9 °C 3,2 km/h (1 Bft)
31.07.2017 16:30 27,0 °C 27,0 °C 54 % 1013,9 hPa 0,0 mm 2,6 km/h (1 Bft) O-NO 65 ° 0 min 0,000 mm 2,4 UV-I 137 W/m² 16,9 °C 27,0 °C 4,8 km/h (1 Bft)
31.07.2017 16:31 27,1 °C 27,1 °C 53 % 1013,9 hPa 0,0 mm 3,6 km/h (1 Bft) O-NO 69 ° 0 min 0,000 mm 2,4 UV-I 132 W/m² 16,7 °C 27,1 °C 4,8 km/h (1 Bft)
31.07.2017 16:32 27,2 °C 27,2 °C 52 % 1014,0 hPa 0,0 mm 4,5 km/h (1 Bft) O 93 ° 0 min 0,000 mm 2,3 UV-I 118 W/m² 16,5 °C 27,2 °C 4,8 km/h (1 Bft)
31.07.2017 16:33 27,3 °C 27,3 °C 57 % 1013,9 hPa 0,0 mm 3,6 km/h (1 Bft) O 93 ° 0 min 0,000 mm 2,3 UV-I 116 W/m² 18,0 °C 27,3 °C 4,8 km/h (1 Bft)
31.07.2017 16:34 27,3 °C 27,3 °C 50 % 1013,9 hPa 0,0 mm 2,8 km/h (1 Bft) N 355 ° 0 min 0,000 mm 2,3 UV-I 114 W/m² 15,9 °C 27,3 °C 4,8 km/h (1 Bft)
31.07.2017 16:35 27,3 °C 27,3 °C 53 % 1013,9 hPa 0,0 mm 3,5 km/h (1 Bft) N 5 ° 0 min 0,000 mm 2,2 UV-I 111 W/m² 16,9 °C 27,3 °C 6,4 km/h (2 Bft)
31.07.2017 16:36 27,4 °C 27,4 °C 51 % 1013,9 hPa 0,0 mm 5,4 km/h (1 Bft) NO 34 ° 0 min 0,000 mm 2,2 UV-I 111 W/m² 16,3 °C 27,4 °C 6,4 km/h (2 Bft)
31.07.2017 16:37 27,4 °C 27,4 °C 51 % 1014,0 hPa 0,0 mm 3,4 km/h (1 Bft) O 84 ° 0 min 0,000 mm 2,2 UV-I 113 W/m² 16,3 °C 27,4 °C 4,8 km/h (1 Bft)
31.07.2017 16:38 27,5 °C 27,5 °C 51 % 1014,0 hPa 0,0 mm 3,0 km/h (1 Bft) O 82 ° 0 min 0,000 mm 2,2 UV-I 125 W/m² 16,4 °C 27,5 °C 6,4 km/h (2 Bft)
31.07.2017 16:39 27,5 °C 27,5 °C 54 % 1013,9 hPa 0,0 mm 3,6 km/h (1 Bft) O 82 ° 0 min 0,000 mm 2,1 UV-I 192 W/m² 17,3 °C 27,5 °C 4,8 km/h (1 Bft)
31.07.2017 16:40 27,5 °C 27,5 °C 53 % 1013,9 hPa 0,0 mm 2,8 km/h (1 Bft) O 82 ° 0 min 0,000 mm 2,2 UV-I 186 W/m² 17,0 °C 27,5 °C 4,8 km/h (1 Bft)
31.07.2017 16:41 27,5 °C 27,5 °C 54 % 1014,0 hPa 0,0 mm 1,7 km/h (1 Bft) O 82 ° 0 min 0,000 mm 2,1 UV-I 113 W/m² 17,3 °C 27,5 °C 3,2 km/h (1 Bft)
31.07.2017 16:42 27,5 °C 27,5 °C 53 % 1013,9 hPa 0,0 mm 3,0 km/h (1 Bft) NO 51 ° 0 min 0,000 mm 2,1 UV-I 102 W/m² 17,0 °C 27,5 °C 6,4 km/h (2 Bft)
31.07.2017 16:43 27,5 °C 27,5 °C 52 % 1013,9 hPa 0,0 mm 1,0 km/h (0 Bft) NO 51 ° 0 min 0,000 mm 2,1 UV-I 102 W/m² 16,7 °C 27,5 °C 3,2 km/h (1 Bft)
31.07.2017 16:44 27,5 °C 27,5 °C 53 % 1014,0 hPa 0,0 mm 3,2 km/h (1 Bft) NO 47 ° 0 min 0,000 mm 2,1 UV-I 97 W/m² 17,0 °C 27,5 °C 6,4 km/h (2 Bft)
31.07.2017 16:45 27,5 °C 27,5 °C 52 % 1014,0 hPa 0,0 mm 1,9 km/h (1 Bft) NO 47 ° 0 min 0,000 mm 2,0 UV-I 97 W/m² 16,7 °C 27,5 °C 3,2 km/h (1 Bft)
31.07.2017 16:46 27,6 °C 27,6 °C 55 % 1014,0 hPa 0,0 mm 1,9 km/h (1 Bft) NO 42 ° 0 min 0,000 mm 2,0 UV-I 97 W/m² 17,7 °C 27,6 °C 4,8 km/h (1 Bft)
31.07.2017 16:47 27,5 °C 27,6 °C 56 % 1013,9 hPa 0,0 mm 1,7 km/h (1 Bft) O 82 ° 0 min 0,000 mm 2,0 UV-I 95 W/m² 17,9 °C 27,5 °C 3,2 km/h (1 Bft)
31.07.2017 16:48 27,5 °C 27,5 °C 55 % 1014,0 hPa 0,0 mm 0,5 km/h (0 Bft) O 82 ° 0 min 0,000 mm 2,0 UV-I 95 W/m² 17,6 °C 27,5 °C 1,6 km/h (1 Bft)
31.07.2017 16:49 27,5 °C 27,5 °C 55 % 1014,0 hPa 0,0 mm 2,9 km/h (1 Bft) N-NO 12 ° 0 min 0,000 mm 2,0 UV-I 95 W/m² 17,6 °C 27,5 °C 4,8 km/h (1 Bft)
31.07.2017 16:50 27,6 °C 27,6 °C 54 % 1013,9 hPa 0,0 mm 3,7 km/h (1 Bft) N 9 ° 0 min 0,000 mm 2,0 UV-I 100 W/m² 17,4 °C 27,6 °C 6,4 km/h (2 Bft)
31.07.2017 16:51 27,7 °C 27,7 °C 54 % 1014,0 hPa 0,0 mm 4,2 km/h (1 Bft) N 11 ° 0 min 0,000 mm 2,0 UV-I 102 W/m² 17,5 °C 27,7 °C 6,4 km/h (2 Bft)
31.07.2017 16:52 27,8 °C 27,8 °C 56 % 1014,0 hPa 0,0 mm 5,1 km/h (1 Bft) NO 40 ° 0 min 0,000 mm 2,0 UV-I 102 W/m² 18,2 °C 27,8 °C 8,0 km/h (2 Bft)
31.07.2017 16:53 27,8 °C 27,9 °C 53 % 1014,0 hPa 0,0 mm 6,2 km/h (2 Bft) NO 42 ° 0 min 0,000 mm 2,0 UV-I 104 W/m² 17,3 °C 27,8 °C 9,7 km/h (2 Bft)
31.07.2017 16:54 27,8 °C 27,8 °C 51 % 1013,9 hPa 0,0 mm 6,8 km/h (2 Bft) NO 38 ° 0 min 0,000 mm 2,0 UV-I 104 W/m² 16,7 °C 27,8 °C 9,7 km/h (2 Bft)
31.07.2017 16:55 27,8 °C 27,8 °C 51 % 1013,9 hPa 0,0 mm 7,0 km/h (2 Bft) NO 48 ° 0 min 0,000 mm 2,0 UV-I 104 W/m² 16,7 °C 27,8 °C 9,7 km/h (2 Bft)
31.07.2017 16:56 27,8 °C 27,8 °C 58 % 1013,9 hPa 0,0 mm 4,9 km/h (1 Bft) O 95 ° 0 min 0,000 mm 2,0 UV-I 102 W/m² 18,8 °C 27,8 °C 6,4 km/h (2 Bft)
31.07.2017 16:57 27,7 °C 27,8 °C 53 % 1013,9 hPa 0,0 mm 3,9 km/h (1 Bft) O-NO 71 ° 0 min 0,000 mm 1,9 UV-I 100 W/m² 17,2 °C 27,7 °C 6,4 km/h (2 Bft)
31.07.2017 16:58 27,7 °C 27,7 °C 57 % 1013,9 hPa 0,0 mm 5,7 km/h (1 Bft) O-SO 105 ° 0 min 0,000 mm 1,9 UV-I 98 W/m² 18,4 °C 27,7 °C 11,3 km/h (2 Bft)
31.07.2017 16:59 27,7 °C 27,7 °C 54 % 1013,9 hPa 0,0 mm 5,8 km/h (2 Bft) O-NO 70 ° 0 min 0,000 mm 1,9 UV-I 97 W/m² 17,5 °C 27,7 °C 11,3 km/h (2 Bft)
31.07.2017 17:00 27,6 °C 27,7 °C 50 % 1013,9 hPa 0,0 mm 5,4 km/h (1 Bft) NO 42 ° 0 min 0,000 mm 1,9 UV-I 95 W/m² 16,2 °C 27,6 °C 9,7 km/h (2 Bft)
31.07.2017 17:01 27,6 °C 27,6 °C 52 % 1013,9 hPa 0,0 mm 4,2 km/h (1 Bft) NO 42 ° 0 min 0,177 mm 1,9 UV-I 93 W/m² 16,8 °C 27,6 °C 6,4 km/h (2 Bft)
31.07.2017 17:02 27,5 °C 27,6 °C 49 % 1013,9 hPa 0,0 mm 2,9 km/h (1 Bft) NO 48 ° 0 min 0,000 mm 1,8 UV-I 90 W/m² 15,8 °C 27,5 °C 6,4 km/h (2 Bft)
31.07.2017 17:03 27,6 °C 27,6 °C 49 % 1013,9 hPa 0,0 mm 1,2 km/h (1 Bft) NO 50 ° 0 min 0,000 mm 1,8 UV-I 86 W/m² 15,9 °C 27,6 °C 3,2 km/h (1 Bft)
31.07.2017 17:04 27,6 °C 27,7 °C 50 % 1013,8 hPa 0,0 mm 4,4 km/h (1 Bft) N 355 ° 0 min 0,000 mm 1,8 UV-I 84 W/m² 16,2 °C 27,6 °C 8,0 km/h (2 Bft)
31.07.2017 17:05 27,7 °C 27,7 °C 50 % 1013,8 hPa 0,0 mm 3,9 km/h (1 Bft) O-NO 59 ° 0 min 0,000 mm 1,7 UV-I 83 W/m² 16,3 °C 27,7 °C 6,4 km/h (2 Bft)
31.07.2017 17:06 27,6 °C 27,7 °C 49 % 1013,8 hPa 0,0 mm 6,0 km/h (2 Bft) NO 54 ° 0 min 0,000 mm 1,7 UV-I 88 W/m² 15,9 °C 27,6 °C 9,7 km/h (2 Bft)
31.07.2017 17:07 27,6 °C 27,6 °C 50 % 1013,8 hPa 0,0 mm 3,8 km/h (1 Bft) O 80 ° 0 min 0,000 mm 1,7 UV-I 79 W/m² 16,2 °C 27,6 °C 4,8 km/h (1 Bft)
31.07.2017 17:08 27,5 °C 27,6 °C 51 % 1013,8 hPa 0,0 mm 5,2 km/h (1 Bft) N 10 ° 0 min 0,000 mm 1,7 UV-I 77 W/m² 16,4 °C 27,5 °C 8,0 km/h (2 Bft)
31.07.2017 17:09 27,5 °C 27,6 °C 53 % 1013,9 hPa 0,0 mm 2,5 km/h (1 Bft) N 10 ° 0 min 0,000 mm 1,6 UV-I 81 W/m² 17,0 °C 27,5 °C 4,8 km/h (1 Bft)
31.07.2017 17:10 27,4 °C 27,5 °C 54 % 1013,9 hPa 0,0 mm 3,6 km/h (1 Bft) N 10 ° 0 min 0,000 mm 1,7 UV-I 84 W/m² 17,3 °C 27,4 °C 4,8 km/h (1 Bft)
31.07.2017 17:11 27,3 °C 27,4 °C 54 % 1013,9 hPa 0,0 mm 5,8 km/h (2 Bft) NO 46 ° 0 min 0,000 mm 1,7 UV-I 98 W/m² 17,2 °C 27,3 °C 9,7 km/h (2 Bft)
31.07.2017 17:12 27,3 °C 27,4 °C 53 % 1013,8 hPa 0,0 mm 3,7 km/h (1 Bft) N-NO 20 ° 0 min 0,000 mm 1,7 UV-I 98 W/m² 16,9 °C 27,3 °C 6,4 km/h (2 Bft)
31.07.2017 17:13 27,3 °C 27,3 °C 54 % 1013,8 hPa 0,0 mm 8,9 km/h (2 Bft) N-NO 16 ° 0 min 0,000 mm 1,8 UV-I 97 W/m² 17,2 °C 27,3 °C 11,3 km/h (2 Bft)
31.07.2017 17:14 27,4 °C 27,4 °C 52 % 1013,7 hPa 0,0 mm 6,4 km/h (2 Bft) N 355 ° 0 min 0,000 mm 1,7 UV-I 98 W/m² 16,7 °C 27,4 °C 11,3 km/h (2 Bft)
31.07.2017 17:15 27,3 °C 27,4 °C 55 % 1013,7 hPa 0,0 mm 4,8 km/h (1 Bft) N-NO 12 ° 0 min 0,000 mm 1,7 UV-I 91 W/m² 17,4 °C 27,3 °C 6,4 km/h (2 Bft)
31.07.2017 17:16 27,4 °C 27,4 °C 55 % 1013,7 hPa 0,0 mm 6,5 km/h (2 Bft) N-NO 22 ° 0 min 0,000 mm 1,7 UV-I 90 W/m² 17,5 °C 27,4 °C 11,3 km/h (2 Bft)
31.07.2017 17:17 27,4 °C 27,4 °C 54 % 1013,7 hPa 0,0 mm 3,1 km/h (1 Bft) N 5 ° 0 min 0,000 mm 1,7 UV-I 93 W/m² 17,3 °C 27,4 °C 4,8 km/h (1 Bft)
31.07.2017 17:18 27,5 °C 27,5 °C 56 % 1013,8 hPa 0,0 mm 4,6 km/h (1 Bft) N-NW 340 ° 0 min 0,000 mm 1,7 UV-I 91 W/m² 17,9 °C 27,5 °C 6,4 km/h (2 Bft)
31.07.2017 17:19 27,5 °C 27,5 °C 55 % 1013,7 hPa 0,0 mm 1,9 km/h (1 Bft) N 5 ° 0 min 0,000 mm 1,7 UV-I 91 W/m² 17,6 °C 27,5 °C 3,2 km/h (1 Bft)
31.07.2017 17:20 27,5 °C 27,5 °C 53 % 1013,8 hPa 0,0 mm 4,8 km/h (1 Bft) N-NO 26 ° 0 min 0,000 mm 1,7 UV-I 90 W/m² 17,0 °C 27,5 °C 8,0 km/h (2 Bft)
31.07.2017 17:21 27,5 °C 27,6 °C 57 % 1013,8 hPa 0,0 mm 5,5 km/h (1 Bft) N-NO 32 ° 0 min 0,000 mm 1,7 UV-I 97 W/m² 18,2 °C 27,5 °C 8,0 km/h (2 Bft)
31.07.2017 17:22 27,5 °C 27,6 °C 52 % 1013,8 hPa 0,0 mm 3,1 km/h (1 Bft) O 84 ° 0 min 0,000 mm 1,7 UV-I 97 W/m² 16,7 °C 27,5 °C 4,8 km/h (1 Bft)
31.07.2017 17:23 27,5 °C 27,6 °C 52 % 1013,8 hPa 0,0 mm 7,5 km/h (2 Bft) O-NO 65 ° 0 min 0,000 mm 1,7 UV-I 86 W/m² 16,7 °C 27,5 °C 9,7 km/h (2 Bft)
31.07.2017 17:24 27,6 °C 27,6 °C 50 % 1013,8 hPa 0,0 mm 6,8 km/h (2 Bft) O 82 ° 0 min 0,000 mm 1,7 UV-I 86 W/m² 16,2 °C 27,6 °C 9,7 km/h (2 Bft)
31.07.2017 17:25 27,6 °C 27,6 °C 51 % 1013,8 hPa 0,0 mm 7,8 km/h (2 Bft) O-NO 74 ° 0 min 0,000 mm 1,6 UV-I 90 W/m² 16,5 °C 27,6 °C 12,9 km/h (3 Bft)
31.07.2017 17:26 27,5 °C 27,6 °C 52 % 1013,7 hPa 0,0 mm 5,7 km/h (1 Bft) N-NO 27 ° 0 min 0,000 mm 1,5 UV-I 76 W/m² 16,7 °C 27,5 °C 9,7 km/h (2 Bft)
31.07.2017 17:27 27,6 °C 27,6 °C 52 % 1013,7 hPa 0,0 mm 4,5 km/h (1 Bft) N 11 ° 0 min 0,000 mm 1,5 UV-I 74 W/m² 16,8 °C 27,6 °C 6,4 km/h (2 Bft)
31.07.2017 17:28 27,6 °C 27,6 °C 54 % 1013,7 hPa 0,0 mm 3,5 km/h (1 Bft) NO 40 ° 0 min 0,000 mm 1,5 UV-I 77 W/m² 17,4 °C 27,6 °C 6,4 km/h (2 Bft)
31.07.2017 17:29 27,5 °C 27,6 °C 53 % 1013,7 hPa 0,0 mm 6,1 km/h (2 Bft) O-NO 57 ° 0 min 0,000 mm 1,5 UV-I 84 W/m² 17,0 °C 27,5 °C 9,7 km/h (2 Bft)
31.07.2017 17:30 27,4 °C 27,5 °C 50 % 1013,7 hPa 0,0 mm 9,0 km/h (2 Bft) O-NO 68 ° 0 min 0,000 mm 1,6 UV-I 111 W/m² 16,0 °C 27,4 °C 12,9 km/h (3 Bft)
31.07.2017 17:31 27,3 °C 27,4 °C 53 % 1013,7 hPa 0,0 mm 4,6 km/h (1 Bft) O-NO 69 ° 0 min 0,000 mm 1,6 UV-I 91 W/m² 16,9 °C 27,3 °C 6,4 km/h (2 Bft)
31.07.2017 17:32 27,3 °C 27,3 °C 53 % 1013,7 hPa 0,0 mm 5,5 km/h (1 Bft) O 87 ° 0 min 0,000 mm 1,6 UV-I 93 W/m² 16,9 °C 27,3 °C 8,0 km/h (2 Bft)
31.07.2017 17:33 27,3 °C 27,3 °C 52 % 1013,7 hPa 0,0 mm 3,8 km/h (1 Bft) N-NO 17 ° 0 min 0,000 mm 1,6 UV-I 95 W/m² 16,6 °C 27,3 °C 6,4 km/h (2 Bft)
31.07.2017 17:34 27,2 °C 27,3 °C 51 % 1013,7 hPa 0,0 mm 1,0 km/h (0 Bft) NO 53 ° 0 min 0,000 mm 1,6 UV-I 95 W/m² 16,2 °C 27,2 °C 3,2 km/h (1 Bft)
31.07.2017 17:35 27,3 °C 27,3 °C 53 % 1013,7 hPa 0,0 mm 2,6 km/h (1 Bft) NO 53 ° 0 min 0,000 mm 1,6 UV-I 95 W/m² 16,9 °C 27,3 °C 3,2 km/h (1 Bft)
31.07.2017 17:36 27,3 °C 27,3 °C 54 % 1013,7 hPa 0,0 mm 1,2 km/h (1 Bft) O-NO 70 ° 0 min 0,000 mm 1,6 UV-I 95 W/m² 17,2 °C 27,3 °C 3,2 km/h (1 Bft)
31.07.2017 17:37 27,3 °C 27,3 °C 55 % 1013,7 hPa 0,0 mm 2,0 km/h (1 Bft) O-NO 70 ° 0 min 0,000 mm 1,6 UV-I 98 W/m² 17,4 °C 27,3 °C 4,8 km/h (1 Bft)
31.07.2017 17:38 27,3 °C 27,3 °C 53 % 1013,7 hPa 0,0 mm 5,8 km/h (2 Bft) O 97 ° 0 min 0,000 mm 1,6 UV-I 95 W/m² 16,9 °C 27,3 °C 11,3 km/h (2 Bft)
31.07.2017 17:39 27,2 °C 27,3 °C 52 % 1013,7 hPa 0,0 mm 2,2 km/h (1 Bft) O-NO 64 ° 0 min 0,000 mm 1,6 UV-I 86 W/m² 16,5 °C 27,2 °C 4,8 km/h (1 Bft)
31.07.2017 17:40 27,2 °C 27,2 °C 52 % 1013,7 hPa 0,0 mm 5,0 km/h (1 Bft) O 88 ° 0 min 0,000 mm 1,6 UV-I 83 W/m² 16,5 °C 27,2 °C 6,4 km/h (2 Bft)
31.07.2017 17:41 27,2 °C 27,2 °C 53 % 1013,7 hPa 0,0 mm 2,2 km/h (1 Bft) N-NO 12 ° 0 min 0,000 mm 1,5 UV-I 79 W/m² 16,8 °C 27,2 °C 3,2 km/h (1 Bft)
31.07.2017 17:42 27,3 °C 27,3 °C 52 % 1013,7 hPa 0,0 mm 3,9 km/h (1 Bft) N 355 ° 0 min 0,000 mm 1,5 UV-I 77 W/m² 16,6 °C 27,3 °C 6,4 km/h (2 Bft)
31.07.2017 17:43 27,3 °C 27,3 °C 55 % 1013,7 hPa 0,0 mm 1,7 km/h (1 Bft) N 355 ° 0 min 0,000 mm 1,5 UV-I 70 W/m² 17,4 °C 27,3 °C 3,2 km/h (1 Bft)
31.07.2017 17:44 27,3 °C 27,3 °C 54 % 1013,7 hPa 0,0 mm 6,2 km/h (2 Bft) NO 46 ° 0 min 0,000 mm 1,4 UV-I 72 W/m² 17,2 °C 27,3 °C 9,7 km/h (2 Bft)
31.07.2017 17:45 27,3 °C 27,3 °C 51 % 1013,7 hPa 0,0 mm 4,4 km/h (1 Bft) O-NO 61 ° 0 min 0,000 mm 1,4 UV-I 74 W/m² 16,3 °C 27,3 °C 8,0 km/h (2 Bft)
31.07.2017 17:46 27,4 °C 27,4 °C 51 % 1013,7 hPa 0,0 mm 3,7 km/h (1 Bft) O-NO 71 ° 0 min 0,000 mm 1,4 UV-I 74 W/m² 16,3 °C 27,4 °C 6,4 km/h (2 Bft)
31.07.2017 17:47 27,3 °C 27,4 °C 52 % 1013,7 hPa 0,0 mm 0,5 km/h (0 Bft) O-NO 70 ° 0 min 0,000 mm 1,4 UV-I 72 W/m² 16,6 °C 27,3 °C 3,2 km/h (1 Bft)
31.07.2017 17:48 27,3 °C 27,4 °C 52 % 1013,6 hPa 0,0 mm 0,3 km/h (0 Bft) O-NO 70 ° 0 min 0,000 mm 1,4 UV-I 76 W/m² 16,6 °C 27,3 °C 1,6 km/h (1 Bft)
31.07.2017 17:49 27,3 °C 27,3 °C 54 % 1013,6 hPa 0,0 mm 0,7 km/h (0 Bft) O-NO 69 ° 0 min 0,000 mm 1,4 UV-I 77 W/m² 17,2 °C 27,3 °C 3,2 km/h (1 Bft)
31.07.2017 17:50 27,3 °C 27,3 °C 51 % 1013,6 hPa 0,0 mm 1,3 km/h (1 Bft) O-NO 69 ° 0 min 0,000 mm 1,4 UV-I 77 W/m² 16,3 °C 27,3 °C 3,2 km/h (1 Bft)
31.07.2017 17:51 27,2 °C 27,3 °C 53 % 1013,5 hPa 0,0 mm 3,7 km/h (1 Bft) NO 44 ° 0 min 0,000 mm 1,4 UV-I 77 W/m² 16,8 °C 27,2 °C 8,0 km/h (2 Bft)
31.07.2017 17:52 27,2 °C 27,2 °C 53 % 1013,6 hPa 0,0 mm 1,3 km/h (1 Bft) NO 46 ° 0 min 0,000 mm 1,4 UV-I 77 W/m² 16,8 °C 27,2 °C 3,2 km/h (1 Bft)
31.07.2017 17:53 27,2 °C 27,2 °C 53 % 1013,6 hPa 0,0 mm 1,5 km/h (1 Bft) N-NO 17 ° 0 min 0,000 mm 1,3 UV-I 76 W/m² 16,8 °C 27,2 °C 4,8 km/h (1 Bft)
31.07.2017 17:54 27,2 °C 27,2 °C 53 % 1013,5 hPa 0,0 mm 3,3 km/h (1 Bft) N 11 ° 0 min 0,000 mm 1,3 UV-I 86 W/m² 16,8 °C 27,2 °C 6,4 km/h (2 Bft)
31.07.2017 17:55 27,2 °C 27,2 °C 54 % 1013,5 hPa 0,0 mm 3,0 km/h (1 Bft) O 86 ° 0 min 0,000 mm 1,3 UV-I 90 W/m² 17,1 °C 27,2 °C 4,8 km/h (1 Bft)
31.07.2017 17:56 27,2 °C 27,2 °C 53 % 1013,5 hPa 0,0 mm 2,1 km/h (1 Bft) O 86 ° 0 min 0,000 mm 1,4 UV-I 93 W/m² 16,8 °C 27,2 °C 3,2 km/h (1 Bft)
31.07.2017 17:57 27,1 °C 27,2 °C 55 % 1013,6 hPa 0,0 mm 0,3 km/h (0 Bft) O 86 ° 0 min 0,000 mm 1,4 UV-I 97 W/m² 17,3 °C 27,1 °C 1,6 km/h (1 Bft)
31.07.2017 17:58 27,1 °C 27,1 °C 53 % 1013,6 hPa 0,0 mm 2,9 km/h (1 Bft) O 95 ° 0 min 0,000 mm 1,4 UV-I 100 W/m² 16,7 °C 27,1 °C 6,4 km/h (2 Bft)
31.07.2017 17:59 27,1 °C 27,1 °C 52 % 1013,5 hPa 0,0 mm 8,2 km/h (2 Bft) O 92 ° 0 min 0,000 mm 1,4 UV-I 100 W/m² 16,4 °C 27,1 °C 12,9 km/h (3 Bft)
31.07.2017 18:00 27,1 °C 27,1 °C 55 % 1013,5 hPa 0,0 mm 5,8 km/h (2 Bft) N-NO 17 ° 0 min 0,000 mm 1,4 UV-I 105 W/m² 17,3 °C 27,1 °C 9,7 km/h (2 Bft)
31.07.2017 18:01 27,1 °C 27,1 °C 51 % 1013,5 hPa 0,0 mm 7,0 km/h (2 Bft) O-NO 71 ° 0 min 0,102 mm 1,3 UV-I 104 W/m² 16,1 °C 27,1 °C 11,3 km/h (2 Bft)
31.07.2017 18:02 27,2 °C 27,2 °C 50 % 1013,5 hPa 0,0 mm 4,2 km/h (1 Bft) O-NO 76 ° 0 min 0,000 mm 1,3 UV-I 107 W/m² 15,9 °C 27,2 °C 8,0 km/h (2 Bft)
31.07.2017 18:03 27,2 °C 27,2 °C 51 % 1013,5 hPa 0,0 mm 4,6 km/h (1 Bft) NO 40 ° 0 min 0,000 mm 1,3 UV-I 113 W/m² 16,2 °C 27,2 °C 6,4 km/h (2 Bft)
31.07.2017 18:04 27,2 °C 27,2 °C 51 % 1013,4 hPa 0,0 mm 2,9 km/h (1 Bft) NO 40 ° 0 min 0,000 mm 1,3 UV-I 118 W/m² 16,2 °C 27,2 °C 4,8 km/h (1 Bft)
31.07.2017 18:05 27,3 °C 27,3 °C 51 % 1013,5 hPa 0,0 mm 3,1 km/h (1 Bft) N-NO 24 ° 0 min 0,000 mm 1,3 UV-I 113 W/m² 16,3 °C 27,3 °C 4,8 km/h (1 Bft)
31.07.2017 18:06 27,4 °C 27,4 °C 51 % 1013,5 hPa 0,0 mm 4,2 km/h (1 Bft) N-NO 12 ° 0 min 0,000 mm 1,3 UV-I 153 W/m² 16,3 °C 27,4 °C 6,4 km/h (2 Bft)
31.07.2017 18:07 27,4 °C 27,4 °C 52 % 1013,6 hPa 0,0 mm 3,9 km/h (1 Bft) O 84 ° 0 min 0,000 mm 1,3 UV-I 139 W/m² 16,7 °C 27,4 °C 6,4 km/h (2 Bft)
31.07.2017 18:08 27,3 °C 27,4 °C 48 % 1013,5 hPa 0,0 mm 4,2 km/h (1 Bft) N-NO 32 ° 0 min 0,000 mm 1,3 UV-I 137 W/m² 15,3 °C 27,3 °C 6,4 km/h (2 Bft)
31.07.2017 18:09 27,3 °C 27,3 °C 48 % 1013,6 hPa 0,0 mm 6,5 km/h (2 Bft) O-NO 61 ° 0 min 0,000 mm 1,3 UV-I 144 W/m² 15,3 °C 27,3 °C 9,7 km/h (2 Bft)
31.07.2017 18:10 27,3 °C 27,3 °C 49 % 1013,6 hPa 0,0 mm 3,4 km/h (1 Bft) O-NO 61 ° 0 min 0,000 mm 1,2 UV-I 134 W/m² 15,6 °C 27,3 °C 4,8 km/h (1 Bft)
31.07.2017 18:11 27,3 °C 27,4 °C 49 % 1013,7 hPa 0,0 mm 2,2 km/h (1 Bft) NO 47 ° 0 min 0,000 mm 1,2 UV-I 153 W/m² 15,6 °C 27,3 °C 4,8 km/h (1 Bft)
31.07.2017 18:12 27,3 °C 27,3 °C 51 % 1013,7 hPa 0,0 mm 4,6 km/h (1 Bft) O 80 ° 0 min 0,000 mm 1,2 UV-I 151 W/m² 16,3 °C 27,3 °C 6,4 km/h (2 Bft)
31.07.2017 18:13 27,3 °C 27,3 °C 50 % 1013,7 hPa 0,0 mm 3,6 km/h (1 Bft) O-NO 63 ° 0 min 0,000 mm 1,2 UV-I 153 W/m² 15,9 °C 27,3 °C 6,4 km/h (2 Bft)
31.07.2017 18:14 27,3 °C 27,3 °C 50 % 1013,7 hPa 0,0 mm 4,9 km/h (1 Bft) O-NO 75 ° 0 min 0,000 mm 1,1 UV-I 151 W/m² 15,9 °C 27,3 °C 6,4 km/h (2 Bft)
31.07.2017 18:15 27,3 °C 27,4 °C 52 % 1013,7 hPa 0,0 mm 2,5 km/h (1 Bft) O-NO 71 ° 0 min 0,000 mm 1,1 UV-I 165 W/m² 16,6 °C 27,3 °C 4,8 km/h (1 Bft)
31.07.2017 18:16 27,3 °C 27,3 °C 52 % 1013,7 hPa 0,0 mm 0,0 km/h (0 Bft) O-NO 71 ° 0 min 0,000 mm 1,1 UV-I 176 W/m² 16,6 °C 27,3 °C 0,0 km/h (0 Bft)
31.07.2017 18:17 27,3 °C 27,3 °C 53 % 1013,8 hPa 0,0 mm 0,0 km/h (0 Bft) O-NO 71 ° 0 min 0,000 mm 1,1 UV-I 169 W/m² 16,9 °C 27,3 °C 0,0 km/h (0 Bft)
31.07.2017 18:18 27,2 °C 27,3 °C 59 % 1013,8 hPa 0,0 mm 1,2 km/h (1 Bft) O-NO 71 ° 0 min 0,000 mm 1,1 UV-I 148 W/m² 18,5 °C 27,2 °C 4,8 km/h (1 Bft)
31.07.2017 18:19 27,1 °C 27,2 °C 55 % 1013,9 hPa 0,0 mm 2,6 km/h (1 Bft) O-NO 71 ° 0 min 0,000 mm 1,0 UV-I 151 W/m² 17,3 °C 27,1 °C 3,2 km/h (1 Bft)
31.07.2017 18:20 27,0 °C 27,1 °C 53 % 1013,9 hPa 0,0 mm 2,8 km/h (1 Bft) O-NO 62 ° 0 min 0,000 mm 1,0 UV-I 149 W/m² 16,6 °C 27,0 °C 6,4 km/h (2 Bft)
31.07.2017 18:21 27,0 °C 27,0 °C 53 % 1013,9 hPa 0,0 mm 2,9 km/h (1 Bft) O-SO 109 ° 0 min 0,000 mm 1,0 UV-I 146 W/m² 16,6 °C 27,0 °C 6,4 km/h (2 Bft)
31.07.2017 18:22 27,1 °C 27,1 °C 52 % 1013,9 hPa 0,0 mm 0,1 km/h (0 Bft) O-SO 109 ° 0 min 0,000 mm 0,9 UV-I 139 W/m² 16,4 °C 27,1 °C 1,6 km/h (1 Bft)
31.07.2017 18:23 27,1 °C 27,1 °C 57 % 1014,0 hPa 0,0 mm 0,1 km/h (0 Bft) O-SO 109 ° 0 min 0,000 mm 0,9 UV-I 120 W/m² 17,8 °C 27,1 °C 1,6 km/h (1 Bft)
31.07.2017 18:24 26,9 °C 27,1 °C 58 % 1014,0 hPa 0,0 mm 2,7 km/h (1 Bft) O 90 ° 0 min 0,000 mm 0,8 UV-I 118 W/m² 17,9 °C 26,9 °C 3,2 km/h (1 Bft)
31.07.2017 18:25 26,8 °C 26,9 °C 56 % 1014,0 hPa 0,0 mm 1,7 km/h (1 Bft) O 90 ° 0 min 0,000 mm 0,7 UV-I 120 W/m² 17,3 °C 26,8 °C 3,2 km/h (1 Bft)
31.07.2017 18:26 26,8 °C 26,8 °C 54 % 1014,0 hPa 0,0 mm 0,3 km/h (0 Bft) O 90 ° 0 min 0,000 mm 0,7 UV-I 123 W/m² 16,7 °C 26,8 °C 1,6 km/h (1 Bft)
31.07.2017 18:27 26,7 °C 26,8 °C 58 % 1014,0 hPa 0,0 mm 2,3 km/h (1 Bft) O 82 ° 0 min 0,000 mm 0,7 UV-I 128 W/m² 17,7 °C 26,7 °C 4,8 km/h (1 Bft)
31.07.2017 18:28 26,6 °C 26,7 °C 59 % 1014,0 hPa 0,0 mm 0,0 km/h (0 Bft) O 82 ° 0 min 0,000 mm 0,7 UV-I 132 W/m² 17,9 °C 26,6 °C 0,0 km/h (0 Bft)
31.07.2017 18:29 26,4 °C 26,6 °C 56 % 1014,1 hPa 0,0 mm 0,0 km/h (0 Bft) O 82 ° 0 min 0,000 mm 0,7 UV-I 146 W/m² 16,9 °C 26,4 °C 0,0 km/h (0 Bft)
31.07.2017 18:30 26,3 °C 26,4 °C 61 % 1014,0 hPa 0,0 mm 0,9 km/h (0 Bft) O 88 ° 0 min 0,000 mm 0,8 UV-I 153 W/m² 18,2 °C 26,3 °C 4,8 km/h (1 Bft)
31.07.2017 18:31 26,3 °C 26,3 °C 59 % 1014,0 hPa 0,0 mm 2,3 km/h (1 Bft) O 88 ° 0 min 0,000 mm 0,8 UV-I 151 W/m² 17,6 °C 26,3 °C 4,8 km/h (1 Bft)
31.07.2017 18:32 26,2 °C 26,3 °C 60 % 1014,0 hPa 0,0 mm 2,3 km/h (1 Bft) O 88 ° 0 min 0,000 mm 0,8 UV-I 153 W/m² 17,8 °C 26,2 °C 3,2 km/h (1 Bft)
31.07.2017 18:33 26,1 °C 26,2 °C 60 % 1014,0 hPa 0,0 mm 1,5 km/h (1 Bft) O 90 ° 0 min 0,000 mm 0,8 UV-I 155 W/m² 17,7 °C 26,1 °C 3,2 km/h (1 Bft)
31.07.2017 18:34 26,0 °C 26,1 °C 63 % 1014,0 hPa 0,0 mm 1,9 km/h (1 Bft) O 97 ° 0 min 0,000 mm 0,8 UV-I 158 W/m² 18,4 °C 26,0 °C 4,8 km/h (1 Bft)
31.07.2017 18:35 26,0 °C 26,0 °C 62 % 1014,0 hPa 0,0 mm 3,5 km/h (1 Bft) O 84 ° 0 min 0,000 mm 0,8 UV-I 158 W/m² 18,1 °C 26,0 °C 4,8 km/h (1 Bft)
31.07.2017 18:36 26,0 °C 26,1 °C 61 % 1013,9 hPa 0,0 mm 2,5 km/h (1 Bft) O 84 ° 0 min 0,000 mm 0,8 UV-I 169 W/m² 17,9 °C 26,0 °C 4,8 km/h (1 Bft)
31.07.2017 18:37 25,9 °C 26,0 °C 62 % 1014,0 hPa 0,0 mm 1,1 km/h (1 Bft) O 84 ° 0 min 0,000 mm 0,8 UV-I 171 W/m² 18,0 °C 25,9 °C 4,8 km/h (1 Bft)
31.07.2017 18:38 25,9 °C 26,0 °C 66 % 1014,0 hPa 0,0 mm 0,8 km/h (0 Bft) O 84 ° 0 min 0,000 mm 0,9 UV-I 183 W/m² 19,0 °C 25,9 °C 3,2 km/h (1 Bft)
31.07.2017 18:39 25,9 °C 25,9 °C 66 % 1014,0 hPa 0,0 mm 1,4 km/h (1 Bft) O 84 ° 0 min 0,000 mm 1,0 UV-I 195 W/m² 19,0 °C 25,9 °C 3,2 km/h (1 Bft)
31.07.2017 18:40 25,8 °C 25,9 °C 64 % 1014,0 hPa 0,0 mm 1,7 km/h (1 Bft) O 84 ° 0 min 0,000 mm 1,0 UV-I 206 W/m² 18,5 °C 25,8 °C 4,8 km/h (1 Bft)
31.07.2017 18:41 25,9 °C 25,9 °C 64 % 1014,0 hPa 0,0 mm 2,8 km/h (1 Bft) O 87 ° 0 min 0,000 mm 1,0 UV-I 199 W/m² 18,6 °C 25,9 °C 6,4 km/h (2 Bft)
31.07.2017 18:42 26,1 °C 26,1 °C 59 % 1013,9 hPa 0,0 mm 1,8 km/h (1 Bft) O 88 ° 0 min 0,000 mm 1,1 UV-I 186 W/m² 17,4 °C 26,1 °C 3,2 km/h (1 Bft)
31.07.2017 18:43 26,1 °C 26,1 °C 62 % 1013,9 hPa 0,0 mm 2,9 km/h (1 Bft) O 86 ° 0 min 0,000 mm 1,1 UV-I 185 W/m² 18,2 °C 26,1 °C 3,2 km/h (1 Bft)
31.07.2017 18:44 26,2 °C 26,2 °C 62 % 1013,8 hPa 0,0 mm 3,7 km/h (1 Bft) NO 44 ° 0 min 0,000 mm 1,0 UV-I 172 W/m² 18,3 °C 26,2 °C 6,4 km/h (2 Bft)
31.07.2017 18:45 26,2 °C 26,2 °C 62 % 1013,7 hPa 0,0 mm 3,2 km/h (1 Bft) NO 55 ° 0 min 0,000 mm 1,0 UV-I 162 W/m² 18,3 °C 26,2 °C 4,8 km/h (1 Bft)
31.07.2017 18:46 26,1 °C 26,2 °C 60 % 1013,6 hPa 0,0 mm 4,5 km/h (1 Bft) O 88 ° 0 min 0,000 mm 1,0 UV-I 158 W/m² 17,7 °C 26,1 °C 8,0 km/h (2 Bft)
31.07.2017 18:47 26,2 °C 26,2 °C 61 % 1013,6 hPa 0,0 mm 4,2 km/h (1 Bft) O-NO 58 ° 0 min 0,000 mm 1,0 UV-I 139 W/m² 18,1 °C 26,2 °C 8,0 km/h (2 Bft)
31.07.2017 18:49 26,1 °C 26,2 °C 59 % 1013,6 hPa 0,0 mm 1,4 km/h (1 Bft) O-SO 121 ° 0 min 0,000 mm 0,9 UV-I 139 W/m² 17,4 °C 26,1 °C 4,8 km/h (1 Bft)
31.07.2017 18:50 26,1 °C 26,1 °C 61 % 1013,7 hPa 0,0 mm 1,4 km/h (1 Bft) O-NO 68 ° 0 min 0,000 mm 0,9 UV-I 132 W/m² 18,0 °C 26,1 °C 3,2 km/h (1 Bft)
31.07.2017 18:51 26,1 °C 26,1 °C 60 % 1013,7 hPa 0,0 mm 2,1 km/h (1 Bft) O 94 ° 0 min 0,000 mm 0,9 UV-I 128 W/m² 17,7 °C 26,1 °C 6,4 km/h (2 Bft)
31.07.2017 18:52 26,1 °C 26,1 °C 64 % 1013,7 hPa 0,0 mm 0,5 km/h (0 Bft) O 94 ° 0 min 0,000 mm 0,9 UV-I 127 W/m² 18,7 °C 26,1 °C 1,6 km/h (1 Bft)
31.07.2017 18:53 25,9 °C 26,1 °C 60 % 1013,7 hPa 0,0 mm 0,8 km/h (0 Bft) SO 136 ° 0 min 0,000 mm 0,9 UV-I 123 W/m² 17,5 °C 25,9 °C 4,8 km/h (1 Bft)
31.07.2017 18:54 25,8 °C 25,9 °C 62 % 1013,7 hPa 0,0 mm 3,8 km/h (1 Bft) SO 135 ° 0 min 0,000 mm 0,8 UV-I 135 W/m² 18,0 °C 25,8 °C 6,4 km/h (2 Bft)
31.07.2017 18:55 25,5 °C 25,8 °C 66 % 1013,7 hPa 0,0 mm 4,7 km/h (1 Bft) O-SO 113 ° 0 min 0,000 mm 0,8 UV-I 125 W/m² 18,7 °C 25,5 °C 6,4 km/h (2 Bft)
31.07.2017 18:56 25,3 °C 25,5 °C 67 % 1013,7 hPa 0,0 mm 3,6 km/h (1 Bft) O-SO 113 ° 0 min 0,000 mm 0,8 UV-I 121 W/m² 18,7 °C 25,3 °C 4,8 km/h (1 Bft)
31.07.2017 18:57 25,2 °C 25,3 °C 66 % 1013,6 hPa 0,0 mm 4,8 km/h (1 Bft) O 92 ° 0 min 0,000 mm 0,8 UV-I 130 W/m² 18,4 °C 25,2 °C 6,4 km/h (2 Bft)
31.07.2017 18:59 25,1 °C 25,2 °C 67 % 1013,4 hPa 0,0 mm 3,7 km/h (1 Bft) O 101 ° 0 min 0,000 mm 0,8 UV-I 125 W/m² 18,5 °C 25,1 °C 6,4 km/h (2 Bft)
31.07.2017 19:00 25,1 °C 25,1 °C 68 % 1013,4 hPa 0,0 mm 2,1 km/h (1 Bft) O 101 ° 0 min 0,000 mm 0,8 UV-I 153 W/m² 18,8 °C 25,1 °C 3,2 km/h (1 Bft)
31.07.2017 19:01 25,1 °C 25,1 °C 66 % 1013,3 hPa 0,0 mm 0,9 km/h (0 Bft) O 101 ° 0 min 0,127 mm 0,8 UV-I 160 W/m² 18,3 °C 25,1 °C 3,2 km/h (1 Bft)
31.07.2017 19:02 25,2 °C 25,2 °C 63 % 1013,3 hPa 0,0 mm 0,0 km/h (0 Bft) O 101 ° 0 min 0,000 mm 0,8 UV-I 128 W/m² 17,6 °C 25,2 °C 0,0 km/h (0 Bft)
31.07.2017 19:03 25,3 °C 25,3 °C 66 % 1013,3 hPa 0,0 mm 3,5 km/h (1 Bft) O-SO 121 ° 0 min 0,000 mm 0,8 UV-I 214 W/m² 18,5 °C 25,3 °C 6,4 km/h (2 Bft)
31.07.2017 19:04 25,3 °C 25,3 °C 63 % 1013,4 hPa 0,0 mm 0,9 km/h (0 Bft) O-SO 121 ° 0 min 0,000 mm 0,8 UV-I 149 W/m² 17,7 °C 25,3 °C 1,6 km/h (1 Bft)
31.07.2017 19:05 25,5 °C 25,5 °C 65 % 1013,4 hPa 0,0 mm 0,0 km/h (0 Bft) O-SO 121 ° 0 min 0,000 mm 0,7 UV-I 141 W/m² 18,4 °C 25,5 °C 0,0 km/h (0 Bft)
31.07.2017 19:06 25,6 °C 25,6 °C 63 % 1013,4 hPa 0,0 mm 4,1 km/h (1 Bft) O-SO 121 ° 0 min 0,000 mm 0,7 UV-I 141 W/m² 18,0 °C 25,6 °C 8,0 km/h (2 Bft)
31.07.2017 19:07 25,6 °C 25,6 °C 63 % 1013,4 hPa 0,0 mm 2,4 km/h (1 Bft) O-SO 112 ° 0 min 0,000 mm 0,7 UV-I 107 W/m² 18,0 °C 25,6 °C 3,2 km/h (1 Bft)
31.07.2017 19:08 25,6 °C 25,6 °C 65 % 1013,4 hPa 0,0 mm 3,0 km/h (1 Bft) O-SO 120 ° 0 min 0,000 mm 0,7 UV-I 109 W/m² 18,5 °C 25,6 °C 4,8 km/h (1 Bft)
31.07.2017 19:09 25,5 °C 25,6 °C 64 % 1013,4 hPa 0,0 mm 4,2 km/h (1 Bft) O-SO 114 ° 0 min 0,000 mm 0,7 UV-I 109 W/m² 18,2 °C 25,5 °C 6,4 km/h (2 Bft)
31.07.2017 19:10 25,4 °C 25,5 °C 63 % 1013,4 hPa 0,0 mm 2,4 km/h (1 Bft) O-SO 115 ° 0 min 0,000 mm 0,7 UV-I 109 W/m² 17,8 °C 25,4 °C 4,8 km/h (1 Bft)
31.07.2017 19:11 25,4 °C 25,4 °C 62 % 1013,3 hPa 0,0 mm 1,3 km/h (1 Bft) O-SO 115 ° 0 min 0,000 mm 0,7 UV-I 109 W/m² 17,6 °C 25,4 °C 3,2 km/h (1 Bft)
31.07.2017 19:12 25,4 °C 25,4 °C 64 % 1013,3 hPa 0,0 mm 1,2 km/h (1 Bft) O-SO 115 ° 0 min 0,000 mm 0,7 UV-I 105 W/m² 18,1 °C 25,4 °C 3,2 km/h (1 Bft)
31.07.2017 19:14 25,3 °C 25,4 °C 60 % 1013,1 hPa 0,0 mm 2,2 km/h (1 Bft) O-SO 104 ° 0 min 0,000 mm 0,7 UV-I 98 W/m² 17,0 °C 25,3 °C 6,4 km/h (2 Bft)
31.07.2017 19:15 25,3 °C 25,3 °C 65 % 1013,1 hPa 0,0 mm 1,5 km/h (1 Bft) O-SO 104 ° 0 min 0,000 mm 0,7 UV-I 98 W/m² 18,2 °C 25,3 °C 3,2 km/h (1 Bft)
31.07.2017 19:16 25,2 °C 25,3 °C 64 % 1013,2 hPa 0,0 mm 1,5 km/h (1 Bft) O-SO 104 ° 0 min 0,000 mm 0,6 UV-I 86 W/m² 17,9 °C 25,2 °C 3,2 km/h (1 Bft)
31.07.2017 19:17 25,2 °C 25,2 °C 61 % 1013,2 hPa 0,0 mm 2,0 km/h (1 Bft) O-SO 107 ° 0 min 0,000 mm 0,6 UV-I 84 W/m² 17,1 °C 25,2 °C 4,8 km/h (1 Bft)
31.07.2017 19:18 25,2 °C 25,2 °C 61 % 1013,2 hPa 0,0 mm 2,0 km/h (1 Bft) O 96 ° 0 min 0,000 mm 0,6 UV-I 84 W/m² 17,1 °C 25,2 °C 3,2 km/h (1 Bft)
31.07.2017 19:19 25,2 °C 25,2 °C 60 % 1013,2 hPa 0,0 mm 0,6 km/h (0 Bft) O 96 ° 0 min 0,000 mm 0,6 UV-I 83 W/m² 16,9 °C 25,2 °C 1,6 km/h (1 Bft)
31.07.2017 19:20 25,1 °C 25,2 °C 60 % 1013,3 hPa 0,0 mm 0,5 km/h (0 Bft) O 96 ° 0 min 0,000 mm 0,6 UV-I 83 W/m² 16,8 °C 25,1 °C 1,6 km/h (1 Bft)
31.07.2017 19:21 25,2 °C 25,2 °C 60 % 1013,2 hPa 0,0 mm 0,0 km/h (0 Bft) O 96 ° 0 min 0,000 mm 0,6 UV-I 77 W/m² 16,9 °C 25,2 °C 0,0 km/h (0 Bft)
31.07.2017 19:22 25,2 °C 25,2 °C 64 % 1013,3 hPa 0,0 mm 0,7 km/h (0 Bft) O 99 ° 0 min 0,000 mm 0,6 UV-I 70 W/m² 17,9 °C 25,2 °C 4,8 km/h (1 Bft)
31.07.2017 19:24 25,1 °C 25,2 °C 61 % 1013,3 hPa 0,0 mm 0,1 km/h (0 Bft) O-SO 108 ° 0 min 0,000 mm 0,5 UV-I 67 W/m² 17,0 °C 25,1 °C 1,6 km/h (1 Bft)
31.07.2017 19:25 25,0 °C 25,1 °C 63 % 1013,3 hPa 0,0 mm 0,0 km/h (0 Bft) O-SO 107 ° 0 min 0,000 mm 0,5 UV-I 58 W/m² 17,5 °C 25,0 °C 0,0 km/h (0 Bft)
31.07.2017 19:26 24,9 °C 25,0 °C 63 % 1013,3 hPa 0,0 mm 0,1 km/h (0 Bft) O-SO 108 ° 0 min 0,000 mm 0,0 UV-I 54 W/m² 17,4 °C 24,9 °C 1,6 km/h (1 Bft)
31.07.2017 19:27 24,9 °C 24,9 °C 63 % 1013,3 hPa 0,0 mm 0,0 km/h (0 Bft) O-SO 108 ° 0 min 0,000 mm 0,0 UV-I 53 W/m² 17,4 °C 24,9 °C 0,0 km/h (0 Bft)
31.07.2017 19:28 24,9 °C 24,9 °C 64 % 1013,3 hPa 0,0 mm 0,4 km/h (0 Bft) O-SO 108 ° 0 min 0,000 mm 0,0 UV-I 51 W/m² 17,6 °C 24,9 °C 1,6 km/h (1 Bft)
31.07.2017 19:29 24,8 °C 24,9 °C 65 % 1013,3 hPa 0,0 mm 0,7 km/h (0 Bft) O-SO 108 ° 0 min 0,000 mm 0,0 UV-I 53 W/m² 17,8 °C 24,8 °C 3,2 km/h (1 Bft)
31.07.2017 19:30 24,6 °C 24,8 °C 67 % 1013,3 hPa 0,0 mm 1,5 km/h (1 Bft) O-SO 108 ° 0 min 0,000 mm 0,0 UV-I 53 W/m² 18,1 °C 24,6 °C 3,2 km/h (1 Bft)
31.07.2017 19:31 24,3 °C 24,6 °C 69 % 1013,3 hPa 0,0 mm 1,4 km/h (1 Bft) O-SO 108 ° 0 min 0,000 mm 0,0 UV-I 54 W/m² 18,2 °C 24,3 °C 3,2 km/h (1 Bft)
31.07.2017 19:32 24,2 °C 24,3 °C 69 % 1013,3 hPa 0,0 mm 0,1 km/h (0 Bft) O-SO 108 ° 0 min 0,000 mm 0,0 UV-I 54 W/m² 18,1 °C 24,2 °C 1,6 km/h (1 Bft)
31.07.2017 19:33 23,9 °C 24,2 °C 72 % 1013,3 hPa 0,0 mm 0,0 km/h (0 Bft) O-SO 108 ° 0 min 0,000 mm 0,0 UV-I 53 W/m² 18,5 °C 23,9 °C 0,0 km/h (0 Bft)
31.07.2017 19:34 23,7 °C 23,9 °C 72 % 1013,3 hPa 0,0 mm 0,4 km/h (0 Bft) O-SO 108 ° 0 min 0,000 mm 0,0 UV-I 51 W/m² 18,3 °C 23,7 °C 1,6 km/h (1 Bft)
31.07.2017 19:35 23,6 °C 23,7 °C 71 % 1013,3 hPa 0,0 mm 1,5 km/h (1 Bft) O 96 ° 0 min 0,000 mm 0,0 UV-I 49 W/m² 18,0 °C 23,6 °C 4,8 km/h (1 Bft)
31.07.2017 19:36 23,5 °C 23,6 °C 72 % 1013,2 hPa 0,0 mm 2,5 km/h (1 Bft) O 98 ° 0 min 0,000 mm 0,0 UV-I 47 W/m² 18,2 °C 23,5 °C 4,8 km/h (1 Bft)
31.07.2017 19:37 23,4 °C 23,5 °C 70 % 1013,3 hPa 0,0 mm 0,3 km/h (0 Bft) O 98 ° 0 min 0,000 mm 0,0 UV-I 46 W/m² 17,6 °C 23,4 °C 1,6 km/h (1 Bft)
31.07.2017 19:38 23,4 °C 23,4 °C 72 % 1013,2 hPa 0,0 mm 0,0 km/h (0 Bft) O 98 ° 0 min 0,000 mm 0,0 UV-I 46 W/m² 18,1 °C 23,4 °C 0,0 km/h (0 Bft)
31.07.2017 19:39 23,4 °C 23,4 °C 72 % 1013,2 hPa 0,0 mm 0,0 km/h (0 Bft) O 98 ° 0 min 0,000 mm 0,0 UV-I 44 W/m² 18,1 °C 23,4 °C 0,0 km/h (0 Bft)
31.07.2017 19:40 23,4 °C 23,4 °C 71 % 1013,1 hPa 0,0 mm 0,0 km/h (0 Bft) O 98 ° 0 min 0,000 mm 0,0 UV-I 44 W/m² 17,8 °C 23,4 °C 0,0 km/h (0 Bft)
31.07.2017 19:41 23,4 °C 23,4 °C 72 % 1013,2 hPa 0,0 mm 0,0 km/h (0 Bft) O 98 ° 0 min 0,000 mm 0,0 UV-I 42 W/m² 18,1 °C 23,4 °C 0,0 km/h (0 Bft)
31.07.2017 19:42 23,3 °C 23,4 °C 73 % 1013,2 hPa 0,0 mm 0,0 km/h (0 Bft) O 98 ° 0 min 0,000 mm 0,0 UV-I 42 W/m² 18,2 °C 23,3 °C 0,0 km/h (0 Bft)
31.07.2017 19:43 23,3 °C 23,3 °C 71 % 1013,2 hPa 0,0 mm 0,0 km/h (0 Bft) O 98 ° 0 min 0,000 mm 0,0 UV-I 40 W/m² 17,7 °C 23,3 °C 0,0 km/h (0 Bft)
31.07.2017 19:44 23,3 °C 23,3 °C 73 % 1013,2 hPa 0,0 mm 0,1 km/h (0 Bft) O 98 ° 0 min 0,000 mm 0,0 UV-I 39 W/m² 18,2 °C 23,3 °C 1,6 km/h (1 Bft)
31.07.2017 19:45 23,2 °C 23,3 °C 72 % 1013,2 hPa 0,0 mm 1,8 km/h (1 Bft) O 98 ° 0 min 0,000 mm 0,0 UV-I 37 W/m² 17,9 °C 23,2 °C 3,2 km/h (1 Bft)
31.07.2017 19:46 23,2 °C 23,2 °C 71 % 1013,2 hPa 0,0 mm 0,9 km/h (0 Bft) O 98 ° 0 min 0,000 mm 0,0 UV-I 35 W/m² 17,6 °C 23,2 °C 1,6 km/h (1 Bft)
31.07.2017 19:47 23,3 °C 23,3 °C 71 % 1013,3 hPa 0,0 mm 0,2 km/h (0 Bft) O 98 ° 0 min 0,000 mm 0,0 UV-I 35 W/m² 17,7 °C 23,3 °C 1,6 km/h (1 Bft)
31.07.2017 19:48 23,3 °C 23,3 °C 71 % 1013,2 hPa 0,0 mm 0,0 km/h (0 Bft) O 98 ° 0 min 0,000 mm 0,0 UV-I 35 W/m² 17,7 °C 23,3 °C 0,0 km/h (0 Bft)
31.07.2017 19:49 23,3 °C 23,3 °C 72 % 1013,2 hPa 0,0 mm 0,0 km/h (0 Bft) O 98 ° 0 min 0,000 mm 0,0 UV-I 35 W/m² 18,0 °C 23,3 °C 0,0 km/h (0 Bft)
31.07.2017 19:50 23,3 °C 23,3 °C 72 % 1013,2 hPa 0,0 mm 0,5 km/h (0 Bft) O 98 ° 0 min 0,000 mm 0,0 UV-I 35 W/m² 18,0 °C 23,3 °C 4,8 km/h (1 Bft)
31.07.2017 19:51 23,3 °C 23,3 °C 71 % 1013,2 hPa 0,0 mm 1,6 km/h (1 Bft) O 98 ° 0 min 0,000 mm 0,0 UV-I 35 W/m² 17,7 °C 23,3 °C 3,2 km/h (1 Bft)
31.07.2017 19:52 23,2 °C 23,3 °C 73 % 1013,2 hPa 0,0 mm 2,3 km/h (1 Bft) O 98 ° 0 min 0,000 mm 0,0 UV-I 35 W/m² 18,1 °C 23,2 °C 4,8 km/h (1 Bft)
31.07.2017 19:53 23,1 °C 23,2 °C 73 % 1013,2 hPa 0,0 mm 2,9 km/h (1 Bft) O 98 ° 0 min 0,000 mm 0,0 UV-I 33 W/m² 18,0 °C 23,1 °C 4,8 km/h (1 Bft)
31.07.2017 19:54 23,0 °C 23,1 °C 74 % 1013,2 hPa 0,0 mm 3,0 km/h (1 Bft) O 98 ° 0 min 0,000 mm 0,0 UV-I 33 W/m² 18,1 °C 23,0 °C 4,8 km/h (1 Bft)
31.07.2017 19:55 22,9 °C 23,0 °C 74 % 1013,2 hPa 0,0 mm 1,9 km/h (1 Bft) O 98 ° 0 min 0,000 mm 0,0 UV-I 33 W/m² 18,0 °C 22,9 °C 3,2 km/h (1 Bft)
31.07.2017 19:56 22,8 °C 22,9 °C 74 % 1013,1 hPa 0,0 mm 0,0 km/h (0 Bft) O 98 ° 0 min 0,000 mm 0,0 UV-I 35 W/m² 17,9 °C 22,8 °C 0,0 km/h (0 Bft)
31.07.2017 19:57 22,7 °C 22,8 °C 75 % 1013,1 hPa 0,0 mm 0,0 km/h (0 Bft) O 98 ° 0 min 0,000 mm 0,0 UV-I 33 W/m² 18,0 °C 22,7 °C 0,0 km/h (0 Bft)
31.07.2017 19:58 22,6 °C 22,7 °C 73 % 1013,1 hPa 0,0 mm 0,0 km/h (0 Bft) O 98 ° 0 min 0,000 mm 0,0 UV-I 33 W/m² 17,5 °C 22,6 °C 0,0 km/h (0 Bft)
31.07.2017 19:59 22,6 °C 22,6 °C 74 % 1013,1 hPa 0,0 mm 0,0 km/h (0 Bft) O 98 ° 0 min 0,000 mm 0,0 UV-I 33 W/m² 17,7 °C 22,6 °C 0,0 km/h (0 Bft)
31.07.2017 20:00 22,6 °C 22,7 °C 74 % 1013,1 hPa 0,0 mm 0,0 km/h (0 Bft) O 98 ° 0 min 0,000 mm 0,0 UV-I 33 W/m² 17,7 °C 22,6 °C 0,0 km/h (0 Bft)
31.07.2017 20:01 22,7 °C 22,7 °C 74 % 1013,0 hPa 0,0 mm 0,0 km/h (0 Bft) O 98 ° 0 min 0,051 mm 0,0 UV-I 32 W/m² 17,8 °C 22,7 °C 0,0 km/h (0 Bft)
31.07.2017 20:02 22,7 °C 22,7 °C 76 % 1013,0 hPa 0,0 mm 0,3 km/h (0 Bft) O 98 ° 0 min 0,000 mm 0,0 UV-I 30 W/m² 18,2 °C 22,7 °C 1,6 km/h (1 Bft)
31.07.2017 20:03 22,6 °C 22,7 °C 76 % 1013,0 hPa 0,0 mm 0,8 km/h (0 Bft) O 98 ° 0 min 0,000 mm 0,0 UV-I 30 W/m² 18,1 °C 22,6 °C 1,6 km/h (1 Bft)
31.07.2017 20:04 22,5 °C 22,6 °C 77 % 1013,0 hPa 0,0 mm 0,0 km/h (0 Bft) O 98 ° 0 min 0,000 mm 0,0 UV-I 28 W/m² 18,3 °C 22,5 °C 0,0 km/h (0 Bft)
31.07.2017 20:05 22,3 °C 22,5 °C 77 % 1012,9 hPa 0,0 mm 0,4 km/h (0 Bft) O 98 ° 0 min 0,000 mm 0,0 UV-I 28 W/m² 18,1 °C 22,3 °C 1,6 km/h (1 Bft)
31.07.2017 20:06 22,3 °C 22,3 °C 77 % 1012,9 hPa 0,0 mm 0,8 km/h (0 Bft) O 98 ° 0 min 0,000 mm 0,0 UV-I 28 W/m² 18,1 °C 22,3 °C 3,2 km/h (1 Bft)
31.07.2017 20:07 22,2 °C 22,3 °C 77 % 1012,9 hPa 0,0 mm 1,3 km/h (1 Bft) O 98 ° 0 min 0,000 mm 0,0 UV-I 26 W/m² 18,0 °C 22,2 °C 3,2 km/h (1 Bft)
31.07.2017 20:08 22,1 °C 22,2 °C 76 % 1012,9 hPa 0,0 mm 1,3 km/h (1 Bft) O 98 ° 0 min 0,000 mm 0,0 UV-I 26 W/m² 17,7 °C 22,1 °C 4,8 km/h (1 Bft)
31.07.2017 20:09 21,9 °C 22,1 °C 75 % 1012,8 hPa 0,0 mm 1,0 km/h (0 Bft) O 98 ° 0 min 0,000 mm 0,0 UV-I 21 W/m² 17,3 °C 21,9 °C 3,2 km/h (1 Bft)
31.07.2017 20:10 22,0 °C 22,0 °C 72 % 1012,9 hPa 0,0 mm 0,9 km/h (0 Bft) O 98 ° 0 min 0,000 mm 0,0 UV-I 19 W/m² 16,7 °C 22,0 °C 3,2 km/h (1 Bft)
31.07.2017 20:11 22,1 °C 22,1 °C 73 % 1012,9 hPa 0,0 mm 0,0 km/h (0 Bft) O 98 ° 0 min 0,000 mm 0,0 UV-I 18 W/m² 17,0 °C 22,1 °C 0,0 km/h (0 Bft)
31.07.2017 20:12 22,2 °C 22,2 °C 69 % 1012,9 hPa 0,0 mm 0,3 km/h (0 Bft) O 98 ° 0 min 0,000 mm 0,0 UV-I 18 W/m² 16,2 °C 22,2 °C 1,6 km/h (1 Bft)
31.07.2017 20:13 22,3 °C 22,3 °C 69 % 1012,8 hPa 0,0 mm 0,3 km/h (0 Bft) O 98 ° 0 min 0,000 mm 0,0 UV-I 16 W/m² 16,3 °C 22,3 °C 1,6 km/h (1 Bft)
31.07.2017 20:14 22,3 °C 22,3 °C 72 % 1012,8 hPa 0,0 mm 0,2 km/h (0 Bft) O 98 ° 0 min 0,000 mm 0,0 UV-I 16 W/m² 17,0 °C 22,3 °C 1,6 km/h (1 Bft)
31.07.2017 20:15 22,2 °C 22,3 °C 69 % 1012,8 hPa 0,0 mm 0,0 km/h (0 Bft) O 98 ° 0 min 0,000 mm 0,0 UV-I 16 W/m² 16,2 °C 22,2 °C 0,0 km/h (0 Bft)
31.07.2017 20:16 22,2 °C 22,2 °C 68 % 1012,8 hPa 0,0 mm 0,0 km/h (0 Bft) O 98 ° 0 min 0,000 mm 0,0 UV-I 16 W/m² 16,0 °C 22,2 °C 0,0 km/h (0 Bft)
31.07.2017 20:17 22,2 °C 22,2 °C 68 % 1012,8 hPa 0,0 mm 0,4 km/h (0 Bft) O 98 ° 0 min 0,000 mm 0,0 UV-I 16 W/m² 16,0 °C 22,2 °C 1,6 km/h (1 Bft)
31.07.2017 20:18 22,3 °C 22,3 °C 67 % 1012,8 hPa 0,0 mm 0,4 km/h (0 Bft) O 98 ° 0 min 0,000 mm 0,0 UV-I 16 W/m² 15,9 °C 22,3 °C 1,6 km/h (1 Bft)
31.07.2017 20:19 22,3 °C 22,3 °C 67 % 1012,8 hPa 0,0 mm 0,0 km/h (0 Bft) O 98 ° 0 min 0,000 mm 0,0 UV-I 16 W/m² 15,9 °C 22,3 °C 0,0 km/h (0 Bft)
31.07.2017 20:20 22,3 °C 22,3 °C 67 % 1012,8 hPa 0,0 mm 0,0 km/h (0 Bft) O 98 ° 0 min 0,000 mm 0,0 UV-I 16 W/m² 15,9 °C 22,3 °C 0,0 km/h (0 Bft)
31.07.2017 20:21 22,2 °C 22,3 °C 68 % 1012,9 hPa 0,0 mm 0,2 km/h (0 Bft) O 98 ° 0 min 0,000 mm 0,0 UV-I 14 W/m² 16,0 °C 22,2 °C 1,6 km/h (1 Bft)
31.07.2017 20:22 22,2 °C 22,2 °C 66 % 1012,9 hPa 0,0 mm 0,4 km/h (0 Bft) O 98 ° 0 min 0,000 mm 0,0 UV-I 14 W/m² 15,5 °C 22,2 °C 3,2 km/h (1 Bft)
31.07.2017 20:23 22,2 °C 22,2 °C 67 % 1012,9 hPa 0,0 mm 0,0 km/h (0 Bft) O 98 ° 0 min 0,000 mm 0,0 UV-I 14 W/m² 15,8 °C 22,2 °C 0,0 km/h (0 Bft)
31.07.2017 20:24 22,2 °C 22,3 °C 66 % 1012,9 hPa 0,0 mm 0,5 km/h (0 Bft) O 98 ° 0 min 0,000 mm 0,0 UV-I 12 W/m² 15,5 °C 22,2 °C 3,2 km/h (1 Bft)
31.07.2017 20:25 22,3 °C 22,3 °C 65 % 1012,9 hPa 0,0 mm 0,0 km/h (0 Bft) O 98 ° 0 min 0,000 mm 0,0 UV-I 12 W/m² 15,4 °C 22,3 °C 0,0 km/h (0 Bft)
31.07.2017 20:26 22,3 °C 22,3 °C 64 % 1012,9 hPa 0,0 mm 0,5 km/h (0 Bft) O 98 ° 0 min 0,000 mm 0,0 UV-I 12 W/m² 15,2 °C 22,3 °C 1,6 km/h (1 Bft)
31.07.2017 20:27 22,3 °C 22,3 °C 65 % 1012,9 hPa 0,0 mm 0,1 km/h (0 Bft) O 98 ° 0 min 0,000 mm 0,0 UV-I 12 W/m² 15,4 °C 22,3 °C 1,6 km/h (1 Bft)
31.07.2017 20:28 22,2 °C 22,3 °C 64 % 1012,9 hPa 0,0 mm 1,3 km/h (1 Bft) O 98 ° 0 min 0,000 mm 0,0 UV-I 12 W/m² 15,1 °C 22,2 °C 3,2 km/h (1 Bft)
31.07.2017 20:29 22,3 °C 22,3 °C 64 % 1012,8 hPa 0,0 mm 1,0 km/h (0 Bft) O 98 ° 0 min 0,000 mm 0,0 UV-I 12 W/m² 15,2 °C 22,3 °C 3,2 km/h (1 Bft)
31.07.2017 20:30 22,3 °C 22,3 °C 62 % 1012,9 hPa 0,0 mm 0,0 km/h (0 Bft) O 98 ° 0 min 0,000 mm 0,0 UV-I 11 W/m² 14,7 °C 22,3 °C 0,0 km/h (0 Bft)
31.07.2017 20:31 22,3 °C 22,3 °C 61 % 1012,9 hPa 0,0 mm 1,4 km/h (1 Bft) O 98 ° 0 min 0,000 mm 0,0 UV-I 11 W/m² 14,4 °C 22,3 °C 3,2 km/h (1 Bft)
31.07.2017 20:32 22,4 °C 22,4 °C 60 % 1012,9 hPa 0,0 mm 1,1 km/h (1 Bft) O 98 ° 0 min 0,000 mm 0,0 UV-I 11 W/m² 14,2 °C 22,4 °C 1,6 km/h (1 Bft)
31.07.2017 20:33 22,5 °C 22,5 °C 61 % 1012,9 hPa 0,0 mm 0,2 km/h (0 Bft) O 98 ° 0 min 0,000 mm 0,0 UV-I 11 W/m² 14,6 °C 22,5 °C 1,6 km/h (1 Bft)
31.07.2017 20:34 22,5 °C 22,5 °C 61 % 1012,9 hPa 0,0 mm 0,1 km/h (0 Bft) O 98 ° 0 min 0,000 mm 0,0 UV-I 9 W/m² 14,6 °C 22,5 °C 1,6 km/h (1 Bft)
31.07.2017 20:35 22,4 °C 22,5 °C 64 % 1012,9 hPa 0,0 mm 2,5 km/h (1 Bft) O 98 ° 0 min 0,000 mm 0,0 UV-I 9 W/m² 15,2 °C 22,4 °C 4,8 km/h (1 Bft)
31.07.2017 20:36 22,4 °C 22,4 °C 63 % 1012,9 hPa 0,0 mm 1,5 km/h (1 Bft) O 98 ° 0 min 0,000 mm 0,0 UV-I 9 W/m² 15,0 °C 22,4 °C 3,2 km/h (1 Bft)
31.07.2017 20:37 22,4 °C 22,4 °C 62 % 1012,9 hPa 0,0 mm 3,0 km/h (1 Bft) O 98 ° 0 min 0,000 mm 0,0 UV-I 7 W/m² 14,8 °C 22,4 °C 3,2 km/h (1 Bft)
31.07.2017 20:39 22,3 °C 22,4 °C 61 % 1012,8 hPa 0,0 mm 3,1 km/h (1 Bft) O 98 ° 0 min 0,000 mm 0,0 UV-I 5 W/m² 14,4 °C 22,3 °C 4,8 km/h (1 Bft)
31.07.2017 20:40 22,3 °C 22,3 °C 61 % 1012,8 hPa 0,0 mm 2,8 km/h (1 Bft) O 98 ° 0 min 0,000 mm 0,0 UV-I 5 W/m² 14,4 °C 22,3 °C 3,2 km/h (1 Bft)
31.07.2017 20:41 22,4 °C 22,4 °C 59 % 1012,9 hPa 0,0 mm 3,6 km/h (1 Bft) O 98 ° 0 min 0,000 mm 0,0 UV-I 5 W/m² 14,0 °C 22,4 °C 4,8 km/h (1 Bft)
31.07.2017 20:42 22,4 °C 22,4 °C 61 % 1012,8 hPa 0,0 mm 5,8 km/h (2 Bft) O-NO 61 ° 0 min 0,000 mm 0,0 UV-I 5 W/m² 14,5 °C 22,4 °C 8,0 km/h (2 Bft)
31.07.2017 20:43 22,3 °C 22,4 °C 62 % 1012,8 hPa 0,0 mm 5,2 km/h (1 Bft) S-SO 157 ° 0 min 0,000 mm 0,0 UV-I 5 W/m² 14,7 °C 22,3 °C 8,0 km/h (2 Bft)
31.07.2017 20:44 22,3 °C 22,3 °C 61 % 1012,8 hPa 0,0 mm 6,5 km/h (2 Bft) S-SO 156 ° 0 min 0,000 mm 0,0 UV-I 5 W/m² 14,4 °C 22,3 °C 8,0 km/h (2 Bft)
31.07.2017 20:45 22,3 °C 22,3 °C 60 % 1012,8 hPa 0,0 mm 4,0 km/h (1 Bft) S-SO 148 ° 0 min 0,000 mm 0,0 UV-I 5 W/m² 14,2 °C 22,3 °C 8,0 km/h (2 Bft)
31.07.2017 20:46 22,3 °C 22,3 °C 61 % 1012,7 hPa 0,0 mm 3,0 km/h (1 Bft) S-SO 152 ° 0 min 0,000 mm 0,0 UV-I 0 W/m² 14,4 °C 22,3 °C 4,8 km/h (1 Bft)
31.07.2017 20:47 22,3 °C 22,3 °C 60 % 1012,8 hPa 0,0 mm 2,4 km/h (1 Bft) S-SO 152 ° 0 min 0,000 mm 0,0 UV-I 0 W/m² 14,2 °C 22,3 °C 3,2 km/h (1 Bft)
31.07.2017 20:48 22,3 °C 22,3 °C 60 % 1012,7 hPa 0,0 mm 3,5 km/h (1 Bft) S-SO 153 ° 0 min 0,000 mm 0,0 UV-I 0 W/m² 14,2 °C 22,3 °C 6,4 km/h (2 Bft)
31.07.2017 20:49 22,3 °C 22,4 °C 61 % 1012,7 hPa 0,0 mm 3,8 km/h (1 Bft) S-SO 153 ° 0 min 0,000 mm 0,0 UV-I 0 W/m² 14,4 °C 22,3 °C 4,8 km/h (1 Bft)
31.07.2017 20:50 22,3 °C 22,3 °C 60 % 1012,7 hPa 0,0 mm 3,4 km/h (1 Bft) S-SO 157 ° 0 min 0,000 mm 0,0 UV-I 0 W/m² 14,2 °C 22,3 °C 4,8 km/h (1 Bft)
31.07.2017 20:51 22,3 °C 22,3 °C 60 % 1012,7 hPa 0,0 mm 3,5 km/h (1 Bft) S-SO 157 ° 0 min 0,000 mm 0,0 UV-I 0 W/m² 14,2 °C 22,3 °C 4,8 km/h (1 Bft)
31.07.2017 20:52 22,3 °C 22,3 °C 58 % 1012,7 hPa 0,0 mm 2,0 km/h (1 Bft) O-SO 112 ° 0 min 0,000 mm 0,0 UV-I 0 W/m² 13,6 °C 22,3 °C 3,2 km/h (1 Bft)
31.07.2017 20:53 22,4 °C 22,4 °C 58 % 1012,7 hPa 0,0 mm 6,0 km/h (2 Bft) S-SO 166 ° 0 min 0,000 mm 0,0 UV-I 0 W/m² 13,7 °C 22,4 °C 9,7 km/h (2 Bft)
31.07.2017 20:54 22,5 °C 22,5 °C 58 % 1012,7 hPa 0,0 mm 2,1 km/h (1 Bft) O 98 ° 0 min 0,000 mm 0,0 UV-I 0 W/m² 13,8 °C 22,5 °C 6,4 km/h (2 Bft)
31.07.2017 20:55 22,4 °C 22,5 °C 59 % 1012,6 hPa 0,0 mm 7,3 km/h (2 Bft) SO 129 ° 0 min 0,000 mm 0,0 UV-I 0 W/m² 14,0 °C 22,4 °C 12,9 km/h (3 Bft)
31.07.2017 20:56 22,4 °C 22,4 °C 58 % 1012,6 hPa 0,0 mm 3,9 km/h (1 Bft) S-SO 147 ° 0 min 0,000 mm 0,0 UV-I 0 W/m² 13,7 °C 22,4 °C 6,4 km/h (2 Bft)
31.07.2017 20:57 22,4 °C 22,4 °C 59 % 1012,7 hPa 0,0 mm 2,7 km/h (1 Bft) S-SO 153 ° 0 min 0,000 mm 0,0 UV-I 0 W/m² 14,0 °C 22,4 °C 6,4 km/h (2 Bft)
31.07.2017 20:58 22,3 °C 22,4 °C 58 % 1012,7 hPa 0,0 mm 2,5 km/h (1 Bft) S-SO 154 ° 0 min 0,000 mm 0,0 UV-I 0 W/m² 13,6 °C 22,3 °C 4,8 km/h (1 Bft)
31.07.2017 20:59 22,3 °C 22,3 °C 58 % 1012,7 hPa 0,0 mm 3,4 km/h (1 Bft) SO 137 ° 0 min 0,000 mm 0,0 UV-I 0 W/m² 13,6 °C 22,3 °C 4,8 km/h (1 Bft)
31.07.2017 21:00 22,3 °C 22,3 °C 59 % 1012,7 hPa 0,0 mm 2,1 km/h (1 Bft) SO 137 ° 0 min 0,000 mm 0,0 UV-I 0 W/m² 13,9 °C 22,3 °C 4,8 km/h (1 Bft)
31.07.2017 21:01 22,3 °C 22,3 °C 58 % 1012,7 hPa 0,0 mm 2,8 km/h (1 Bft) SO 137 ° 0 min 0,025 mm 0,0 UV-I 0 W/m² 13,6 °C 22,3 °C 3,2 km/h (1 Bft)
31.07.2017 21:02 22,3 °C 22,3 °C 58 % 1012,7 hPa 0,0 mm 2,5 km/h (1 Bft) S-SO 152 ° 0 min 0,000 mm 0,0 UV-I 0 W/m² 13,6 °C 22,3 °C 6,4 km/h (2 Bft)
31.07.2017 21:04 22,3 °C 22,4 °C 58 % 1012,8 hPa 0,0 mm 2,1 km/h (1 Bft) S-SO 150 ° 0 min 0,000 mm 0,0 UV-I 0 W/m² 13,6 °C 22,3 °C 4,8 km/h (1 Bft)
31.07.2017 21:05 22,3 °C 22,3 °C 58 % 1012,7 hPa 0,0 mm 4,4 km/h (1 Bft) SO 127 ° 0 min 0,000 mm 0,0 UV-I 0 W/m² 13,6 °C 22,3 °C 8,0 km/h (2 Bft)
31.07.2017 21:06 22,2 °C 22,3 °C 59 % 1012,7 hPa 0,0 mm 5,2 km/h (1 Bft) O-SO 109 ° 0 min 0,000 mm 0,0 UV-I 0 W/m² 13,8 °C 22,2 °C 11,3 km/h (2 Bft)
31.07.2017 21:07 22,1 °C 22,2 °C 58 % 1012,7 hPa 0,0 mm 1,2 km/h (1 Bft) O-SO 109 ° 0 min 0,000 mm 0,0 UV-I 0 W/m² 13,4 °C 22,1 °C 3,2 km/h (1 Bft)
31.07.2017 21:08 22,1 °C 22,2 °C 58 % 1012,7 hPa 0,0 mm 2,5 km/h (1 Bft) O-SO 109 ° 0 min 0,000 mm 0,0 UV-I 0 W/m² 13,4 °C 22,1 °C 3,2 km/h (1 Bft)
31.07.2017 21:09 22,1 °C 22,1 °C 59 % 1012,6 hPa 0,0 mm 1,7 km/h (1 Bft) O-SO 109 ° 0 min 0,000 mm 0,0 UV-I 0 W/m² 13,7 °C 22,1 °C 3,2 km/h (1 Bft)
31.07.2017 21:10 22,1 °C 22,1 °C 59 % 1012,7 hPa 0,0 mm 1,8 km/h (1 Bft) O-SO 109 ° 0 min 0,000 mm 0,0 UV-I 0 W/m² 13,7 °C 22,1 °C 3,2 km/h (1 Bft)
31.07.2017 21:11 22,0 °C 22,1 °C 59 % 1012,7 hPa 0,0 mm 1,2 km/h (1 Bft) O-SO 109 ° 0 min 0,000 mm 0,0 UV-I 0 W/m² 13,6 °C 22,0 °C 3,2 km/h (1 Bft)
31.07.2017 21:12 21,9 °C 22,0 °C 60 % 1012,6 hPa 0,0 mm 3,9 km/h (1 Bft) O-SO 106 ° 0 min 0,000 mm 0,0 UV-I 0 W/m² 13,8 °C 21,9 °C 4,8 km/h (1 Bft)
31.07.2017 21:13 21,8 °C 21,9 °C 59 % 1012,7 hPa 0,0 mm 3,4 km/h (1 Bft) O-SO 108 ° 0 min 0,000 mm 0,0 UV-I 0 W/m² 13,4 °C 21,8 °C 4,8 km/h (1 Bft)
31.07.2017 21:14 21,8 °C 21,8 °C 59 % 1012,6 hPa 0,0 mm 2,4 km/h (1 Bft) O-SO 108 ° 0 min 0,000 mm 0,0 UV-I 0 W/m² 13,4 °C 21,8 °C 4,8 km/h (1 Bft)
31.07.2017 21:15 21,8 °C 21,8 °C 60 % 1012,7 hPa 0,0 mm 2,0 km/h (1 Bft) O-SO 108 ° 0 min 0,000 mm 0,0 UV-I 0 W/m² 13,7 °C 21,8 °C 3,2 km/h (1 Bft)
31.07.2017 21:16 21,8 °C 21,8 °C 60 % 1012,7 hPa 0,0 mm 2,7 km/h (1 Bft) SO 124 ° 0 min 0,000 mm 0,0 UV-I 0 W/m² 13,7 °C 21,8 °C 4,8 km/h (1 Bft)
31.07.2017 21:17 21,8 °C 21,8 °C 59 % 1012,7 hPa 0,0 mm 1,9 km/h (1 Bft) SO 131 ° 0 min 0,000 mm 0,0 UV-I 0 W/m² 13,4 °C 21,8 °C 3,2 km/h (1 Bft)
31.07.2017 21:18 21,8 °C 21,8 °C 59 % 1012,6 hPa 0,0 mm 2,5 km/h (1 Bft) SO 128 ° 0 min 0,000 mm 0,0 UV-I 0 W/m² 13,4 °C 21,8 °C 4,8 km/h (1 Bft)
31.07.2017 21:19 21,8 °C 21,8 °C 58 % 1012,6 hPa 0,0 mm 3,6 km/h (1 Bft) S-SO 152 ° 0 min 0,000 mm 0,0 UV-I 0 W/m² 13,2 °C 21,8 °C 6,4 km/h (2 Bft)
31.07.2017 21:20 21,8 °C 21,8 °C 58 % 1012,6 hPa 0,0 mm 4,0 km/h (1 Bft) S-SO 153 ° 0 min 0,000 mm 0,0 UV-I 0 W/m² 13,2 °C 21,8 °C 6,4 km/h (2 Bft)
31.07.2017 21:21 21,9 °C 21,9 °C 57 % 1012,6 hPa 0,0 mm 1,3 km/h (1 Bft) S-SO 153 ° 0 min 0,000 mm 0,0 UV-I 0 W/m² 13,0 °C 21,9 °C 3,2 km/h (1 Bft)
31.07.2017 21:22 22,0 °C 22,0 °C 58 % 1012,6 hPa 0,0 mm 4,3 km/h (1 Bft) O 99 ° 0 min 0,000 mm 0,0 UV-I 0 W/m² 13,3 °C 22,0 °C 4,8 km/h (1 Bft)
31.07.2017 21:23 22,0 °C 22,0 °C 60 % 1012,6 hPa 0,0 mm 4,2 km/h (1 Bft) O 86 ° 0 min 0,000 mm 0,0 UV-I 0 W/m² 13,9 °C 22,0 °C 6,4 km/h (2 Bft)
31.07.2017 21:24 21,9 °C 22,0 °C 57 % 1012,6 hPa 0,0 mm 2,3 km/h (1 Bft) O 86 ° 0 min 0,000 mm 0,0 UV-I 0 W/m² 13,0 °C 21,9 °C 3,2 km/h (1 Bft)
31.07.2017 21:25 22,0 °C 22,0 °C 57 % 1012,6 hPa 0,0 mm 1,3 km/h (1 Bft) O 86 ° 0 min 0,000 mm 0,0 UV-I 0 W/m² 13,1 °C 22,0 °C 1,6 km/h (1 Bft)
31.07.2017 21:26 22,0 °C 22,0 °C 59 % 1012,6 hPa 0,0 mm 3,0 km/h (1 Bft) O 86 ° 0 min 0,000 mm 0,0 UV-I 0 W/m² 13,6 °C 22,0 °C 4,8 km/h (1 Bft)
31.07.2017 21:27 22,1 °C 22,1 °C 57 % 1012,6 hPa 0,0 mm 2,0 km/h (1 Bft) O 86 ° 0 min 0,000 mm 0,0 UV-I 0 W/m² 13,2 °C 22,1 °C 4,8 km/h (1 Bft)
31.07.2017 21:28 22,0 °C 22,1 °C 59 % 1012,6 hPa 0,0 mm 1,2 km/h (1 Bft) O 86 ° 0 min 0,000 mm 0,0 UV-I 0 W/m² 13,6 °C 22,0 °C 3,2 km/h (1 Bft)
31.07.2017 21:29 21,9 °C 22,0 °C 58 % 1012,7 hPa 0,0 mm 1,9 km/h (1 Bft) O 86 ° 0 min 0,000 mm 0,0 UV-I 0 W/m² 13,3 °C 21,9 °C 3,2 km/h (1 Bft)
31.07.2017 21:30 21,9 °C 21,9 °C 59 % 1012,7 hPa 0,0 mm 2,6 km/h (1 Bft) O 86 ° 0 min 0,000 mm 0,0 UV-I 0 W/m² 13,5 °C 21,9 °C 4,8 km/h (1 Bft)
31.07.2017 21:31 21,8 °C 21,9 °C 59 % 1012,7 hPa 0,0 mm 4,5 km/h (1 Bft) S-SO 153 ° 0 min 0,000 mm 0,0 UV-I 0 W/m² 13,4 °C 21,8 °C 6,4 km/h (2 Bft)
31.07.2017 21:32 21,7 °C 21,8 °C 60 % 1012,7 hPa 0,0 mm 4,3 km/h (1 Bft) S 190 ° 0 min 0,000 mm 0,0 UV-I 0 W/m² 13,6 °C 21,7 °C 4,8 km/h (1 Bft)
31.07.2017 21:33 21,7 °C 21,7 °C 59 % 1012,7 hPa 0,0 mm 2,3 km/h (1 Bft) S 189 ° 0 min 0,000 mm 0,0 UV-I 0 W/m² 13,3 °C 21,7 °C 3,2 km/h (1 Bft)
31.07.2017 21:34 21,6 °C 21,7 °C 59 % 1012,7 hPa 0,0 mm 1,9 km/h (1 Bft) S 190 ° 0 min 0,000 mm 0,0 UV-I 0 W/m² 13,2 °C 21,6 °C 4,8 km/h (1 Bft)
31.07.2017 21:35 21,6 °C 21,6 °C 59 % 1012,7 hPa 0,0 mm 3,8 km/h (1 Bft) S 181 ° 0 min 0,000 mm 0,0 UV-I 0 W/m² 13,2 °C 21,6 °C 8,0 km/h (2 Bft)
31.07.2017 21:36 21,6 °C 21,6 °C 60 % 1012,7 hPa 0,0 mm 3,9 km/h (1 Bft) S 181 ° 0 min 0,000 mm 0,0 UV-I 0 W/m² 13,5 °C 21,6 °C 8,0 km/h (2 Bft)
31.07.2017 21:37 21,6 °C 21,6 °C 60 % 1012,7 hPa 0,0 mm 0,7 km/h (0 Bft) S 181 ° 0 min 0,000 mm 0,0 UV-I 0 W/m² 13,5 °C 21,6 °C 1,6 km/h (1 Bft)
31.07.2017 21:38 21,5 °C 21,6 °C 61 % 1012,8 hPa 0,0 mm 0,9 km/h (0 Bft) S 181 ° 0 min 0,000 mm 0,0 UV-I 0 W/m² 13,7 °C 21,5 °C 3,2 km/h (1 Bft)
31.07.2017 21:39 21,4 °C 21,5 °C 61 % 1012,7 hPa 0,0 mm 0,2 km/h (0 Bft) S 181 ° 0 min 0,000 mm 0,0 UV-I 0 W/m² 13,6 °C 21,4 °C 1,6 km/h (1 Bft)
31.07.2017 21:40 21,2 °C 21,4 °C 62 % 1012,7 hPa 0,0 mm 0,0 km/h (0 Bft) S 181 ° 0 min 0,000 mm 0,0 UV-I 0 W/m² 13,6 °C 21,2 °C 0,0 km/h (0 Bft)
31.07.2017 21:41 21,0 °C 21,2 °C 65 % 1012,8 hPa 0,0 mm 0,0 km/h (0 Bft) S 181 ° 0 min 0,000 mm 0,0 UV-I 0 W/m² 14,2 °C 21,0 °C 0,0 km/h (0 Bft)
31.07.2017 21:42 20,7 °C 21,0 °C 67 % 1012,8 hPa 0,0 mm 0,0 km/h (0 Bft) S 181 ° 0 min 0,000 mm 0,0 UV-I 0 W/m² 14,3 °C 20,7 °C 0,0 km/h (0 Bft)
31.07.2017 21:43 20,6 °C 20,7 °C 65 % 1012,8 hPa 0,0 mm 1,6 km/h (1 Bft) S 181 ° 0 min 0,000 mm 0,0 UV-I 0 W/m² 13,8 °C 20,6 °C 3,2 km/h (1 Bft)
31.07.2017 21:44 20,5 °C 20,6 °C 65 % 1012,7 hPa 0,0 mm 1,6 km/h (1 Bft) S 181 ° 0 min 0,000 mm 0,0 UV-I 0 W/m² 13,7 °C 20,5 °C 1,6 km/h (1 Bft)
31.07.2017 21:45 20,5 °C 20,5 °C 65 % 1012,7 hPa 0,0 mm 0,7 km/h (0 Bft) S 181 ° 0 min 0,000 mm 0,0 UV-I 0 W/m² 13,7 °C 20,5 °C 3,2 km/h (1 Bft)
31.07.2017 21:46 20,4 °C 20,5 °C 65 % 1012,7 hPa 0,0 mm 0,0 km/h (0 Bft) S 181 ° 0 min 0,000 mm 0,0 UV-I 0 W/m² 13,6 °C 20,4 °C 0,0 km/h (0 Bft)
31.07.2017 21:47 20,4 °C 20,4 °C 65 % 1012,7 hPa 0,0 mm 0,5 km/h (0 Bft) S 181 ° 0 min 0,000 mm 0,0 UV-I 0 W/m² 13,6 °C 20,4 °C 3,2 km/h (1 Bft)
31.07.2017 21:48 20,3 °C 20,4 °C 65 % 1012,6 hPa 0,0 mm 2,3 km/h (1 Bft) S 181 ° 0 min 0,000 mm 0,0 UV-I 0 W/m² 13,5 °C 20,3 °C 3,2 km/h (1 Bft)
31.07.2017 21:49 20,4 °C 20,4 °C 65 % 1012,7 hPa 0,0 mm 2,7 km/h (1 Bft) S 181 ° 0 min 0,000 mm 0,0 UV-I 0 W/m² 13,6 °C 20,4 °C 4,8 km/h (1 Bft)
31.07.2017 21:50 20,4 °C 20,4 °C 64 % 1012,6 hPa 0,0 mm 0,7 km/h (0 Bft) S 181 ° 0 min 0,000 mm 0,0 UV-I 0 W/m² 13,4 °C 20,4 °C 3,2 km/h (1 Bft)
31.07.2017 21:51 20,4 °C 20,4 °C 65 % 1012,6 hPa 0,0 mm 2,0 km/h (1 Bft) S 174 ° 0 min 0,000 mm 0,0 UV-I 0 W/m² 13,6 °C 20,4 °C 3,2 km/h (1 Bft)
31.07.2017 21:52 20,5 °C 20,5 °C 64 % 1012,6 hPa 0,0 mm 2,2 km/h (1 Bft) S 173 ° 0 min 0,000 mm 0,0 UV-I 0 W/m² 13,5 °C 20,5 °C 3,2 km/h (1 Bft)
31.07.2017 21:53 20,6 °C 20,6 °C 65 % 1012,6 hPa 0,0 mm 1,4 km/h (1 Bft) S 173 ° 0 min 0,000 mm 0,0 UV-I 0 W/m² 13,8 °C 20,6 °C 1,6 km/h (1 Bft)
31.07.2017 21:54 20,6 °C 20,6 °C 64 % 1012,6 hPa 0,0 mm 1,6 km/h (1 Bft) S 173 ° 0 min 0,000 mm 0,0 UV-I 0 W/m² 13,5 °C 20,6 °C 3,2 km/h (1 Bft)
31.07.2017 21:55 20,7 °C 20,7 °C 63 % 1012,6 hPa 0,0 mm 1,3 km/h (1 Bft) S 173 ° 0 min 0,000 mm 0,0 UV-I 0 W/m² 13,4 °C 20,7 °C 3,2 km/h (1 Bft)
31.07.2017 21:56 20,8 °C 20,8 °C 63 % 1012,6 hPa 0,0 mm 0,3 km/h (0 Bft) S 173 ° 0 min 0,000 mm 0,0 UV-I 0 W/m² 13,5 °C 20,8 °C 1,6 km/h (1 Bft)
31.07.2017 21:57 20,8 °C 20,8 °C 63 % 1012,6 hPa 0,0 mm 3,2 km/h (1 Bft) S 174 ° 0 min 0,000 mm 0,0 UV-I 0 W/m² 13,5 °C 20,8 °C 4,8 km/h (1 Bft)
31.07.2017 21:58 20,7 °C 20,8 °C 63 % 1012,6 hPa 0,0 mm 0,3 km/h (0 Bft) S 174 ° 0 min 0,000 mm 0,0 UV-I 0 W/m² 13,4 °C 20,7 °C 1,6 km/h (1 Bft)
31.07.2017 21:59 20,7 °C 20,7 °C 65 % 1012,6 hPa 0,0 mm 0,0 km/h (0 Bft) S 174 ° 0 min 0,000 mm 0,0 UV-I 0 W/m² 13,9 °C 20,7 °C 0,0 km/h (0 Bft)
31.07.2017 22:00 20,6 °C 20,7 °C 65 % 1012,6 hPa 0,0 mm 0,0 km/h (0 Bft) S 174 ° 0 min 0,000 mm 0,0 UV-I 0 W/m² 13,8 °C 20,6 °C 0,0 km/h (0 Bft)
31.07.2017 22:01 20,4 °C 20,6 °C 66 % 1012,6 hPa 0,0 mm 0,0 km/h (0 Bft) S 174 ° 0 min 0,026 mm 0,0 UV-I 0 W/m² 13,8 °C 20,4 °C 0,0 km/h (0 Bft)
31.07.2017 22:02 20,2 °C 20,4 °C 67 % 1012,6 hPa 0,0 mm 0,0 km/h (0 Bft) S 174 ° 0 min 0,000 mm 0,0 UV-I 0 W/m² 13,9 °C 20,2 °C 0,0 km/h (0 Bft)
31.07.2017 22:03 20,1 °C 20,2 °C 67 % 1012,6 hPa 0,0 mm 0,0 km/h (0 Bft) S 174 ° 0 min 0,000 mm 0,0 UV-I 0 W/m² 13,8 °C 20,1 °C 0,0 km/h (0 Bft)
31.07.2017 22:04 20,1 °C 20,1 °C 67 % 1012,6 hPa 0,0 mm 0,0 km/h (0 Bft) S 174 ° 0 min 0,000 mm 0,0 UV-I 0 W/m² 13,8 °C 20,1 °C 0,0 km/h (0 Bft)
31.07.2017 22:05 20,0 °C 20,1 °C 68 % 1012,5 hPa 0,0 mm 0,0 km/h (0 Bft) S 174 ° 0 min 0,000 mm 0,0 UV-I 0 W/m² 13,9 °C 20,0 °C 0,0 km/h (0 Bft)
31.07.2017 22:06 19,9 °C 20,0 °C 69 % 1012,6 hPa 0,0 mm 0,0 km/h (0 Bft) S 174 ° 0 min 0,000 mm 0,0 UV-I 0 W/m² 14,0 °C 19,9 °C 0,0 km/h (0 Bft)
31.07.2017 22:07 19,7 °C 19,9 °C 70 % 1012,6 hPa 0,0 mm 0,0 km/h (0 Bft) S 174 ° 0 min 0,000 mm 0,0 UV-I 0 W/m² 14,1 °C 19,7 °C 0,0 km/h (0 Bft)
31.07.2017 22:08 19,5 °C 19,7 °C 71 % 1012,6 hPa 0,0 mm 0,0 km/h (0 Bft) S 174 ° 0 min 0,000 mm 0,0 UV-I 0 W/m² 14,1 °C 19,5 °C 0,0 km/h (0 Bft)
31.07.2017 22:09 19,3 °C 19,5 °C 72 % 1012,7 hPa 0,0 mm 0,0 km/h (0 Bft) S 174 ° 0 min 0,000 mm 0,0 UV-I 0 W/m² 14,1 °C 19,3 °C 0,0 km/h (0 Bft)
31.07.2017 22:10 19,1 °C 19,3 °C 72 % 1012,8 hPa 0,0 mm 0,0 km/h (0 Bft) S 174 ° 0 min 0,000 mm 0,0 UV-I 0 W/m² 13,9 °C 19,1 °C 0,0 km/h (0 Bft)
31.07.2017 22:11 18,9 °C 19,1 °C 74 % 1012,8 hPa 0,0 mm 1,1 km/h (1 Bft) S 185 ° 0 min 0,000 mm 0,0 UV-I 0 W/m² 14,2 °C 18,9 °C 3,2 km/h (1 Bft)
31.07.2017 22:12 18,7 °C 18,9 °C 74 % 1012,8 hPa 0,0 mm 2,3 km/h (1 Bft) S 185 ° 0 min 0,000 mm 0,0 UV-I 0 W/m² 14,0 °C 18,7 °C 3,2 km/h (1 Bft)
31.07.2017 22:13 18,6 °C 18,7 °C 74 % 1012,8 hPa 0,0 mm 1,5 km/h (1 Bft) S 185 ° 0 min 0,000 mm 0,0 UV-I 0 W/m² 13,9 °C 18,6 °C 3,2 km/h (1 Bft)
31.07.2017 22:14 18,7 °C 18,7 °C 74 % 1012,8 hPa 0,0 mm 3,1 km/h (1 Bft) S 185 ° 0 min 0,000 mm 0,0 UV-I 0 W/m² 14,0 °C 18,7 °C 4,8 km/h (1 Bft)
31.07.2017 22:15 18,9 °C 18,9 °C 73 % 1012,8 hPa 0,0 mm 3,5 km/h (1 Bft) S 185 ° 0 min 0,000 mm 0,0 UV-I 0 W/m² 13,9 °C 18,9 °C 6,4 km/h (2 Bft)
31.07.2017 22:16 19,1 °C 19,1 °C 73 % 1012,7 hPa 0,0 mm 1,2 km/h (1 Bft) S 185 ° 0 min 0,000 mm 0,0 UV-I 0 W/m² 14,1 °C 19,1 °C 4,8 km/h (1 Bft)
31.07.2017 22:17 19,2 °C 19,2 °C 74 % 1012,7 hPa 0,0 mm 0,0 km/h (0 Bft) S 185 ° 0 min 0,000 mm 0,0 UV-I 0 W/m² 14,4 °C 19,2 °C 0,0 km/h (0 Bft)
31.07.2017 22:18 19,3 °C 19,3 °C 72 % 1012,8 hPa 0,0 mm 0,3 km/h (0 Bft) S 185 ° 0 min 0,000 mm 0,0 UV-I 0 W/m² 14,1 °C 19,3 °C 1,6 km/h (1 Bft)
31.07.2017 22:19 19,3 °C 19,3 °C 72 % 1012,8 hPa 0,0 mm 1,5 km/h (1 Bft) S 185 ° 0 min 0,000 mm 0,0 UV-I 0 W/m² 14,1 °C 19,3 °C 3,2 km/h (1 Bft)
31.07.2017 22:20 19,3 °C 19,3 °C 73 % 1012,8 hPa 0,0 mm 0,5 km/h (0 Bft) S 185 ° 0 min 0,000 mm 0,0 UV-I 0 W/m² 14,3 °C 19,3 °C 1,6 km/h (1 Bft)
31.07.2017 22:21 19,3 °C 19,3 °C 73 % 1012,8 hPa 0,0 mm 2,5 km/h (1 Bft) S 185 ° 0 min 0,000 mm 0,0 UV-I 0 W/m² 14,3 °C 19,3 °C 4,8 km/h (1 Bft)
31.07.2017 22:22 19,3 °C 19,3 °C 73 % 1012,8 hPa 0,0 mm 1,2 km/h (1 Bft) S 185 ° 0 min 0,000 mm 0,0 UV-I 0 W/m² 14,3 °C 19,3 °C 1,6 km/h (1 Bft)
31.07.2017 22:23 19,2 °C 19,3 °C 72 % 1012,8 hPa 0,0 mm 0,0 km/h (0 Bft) S 185 ° 0 min 0,000 mm 0,0 UV-I 0 W/m² 14,0 °C 19,2 °C 0,0 km/h (0 Bft)
31.07.2017 22:24 19,3 °C 19,3 °C 73 % 1012,8 hPa 0,0 mm 0,0 km/h (0 Bft) S 185 ° 0 min 0,000 mm 0,0 UV-I 0 W/m² 14,3 °C 19,3 °C 0,0 km/h (0 Bft)
31.07.2017 22:25 19,2 °C 19,3 °C 74 % 1012,9 hPa 0,0 mm 0,0 km/h (0 Bft) S 185 ° 0 min 0,000 mm 0,0 UV-I 0 W/m² 14,4 °C 19,2 °C 0,0 km/h (0 Bft)
31.07.2017 22:26 19,1 °C 19,2 °C 74 % 1012,9 hPa 0,0 mm 0,0 km/h (0 Bft) S 185 ° 0 min 0,000 mm 0,0 UV-I 0 W/m² 14,4 °C 19,1 °C 0,0 km/h (0 Bft)
31.07.2017 22:27 19,0 °C 19,1 °C 76 % 1012,8 hPa 0,0 mm 0,0 km/h (0 Bft) S 185 ° 0 min 0,000 mm 0,0 UV-I 0 W/m² 14,7 °C 19,0 °C 0,0 km/h (0 Bft)
31.07.2017 22:28 18,9 °C 19,0 °C 76 % 1012,8 hPa 0,0 mm 0,0 km/h (0 Bft) S 185 ° 0 min 0,000 mm 0,0 UV-I 0 W/m² 14,6 °C 18,9 °C 0,0 km/h (0 Bft)
31.07.2017 22:29 18,9 °C 18,9 °C 76 % 1012,8 hPa 0,0 mm 0,0 km/h (0 Bft) S 185 ° 0 min 0,000 mm 0,0 UV-I 0 W/m² 14,6 °C 18,9 °C 0,0 km/h (0 Bft)
31.07.2017 22:30 18,9 °C 19,0 °C 75 % 1012,8 hPa 0,0 mm 0,3 km/h (0 Bft) S 185 ° 0 min 0,000 mm 0,0 UV-I 0 W/m² 14,4 °C 18,9 °C 1,6 km/h (1 Bft)
31.07.2017 22:31 19,1 °C 19,1 °C 74 % 1012,8 hPa 0,0 mm 2,3 km/h (1 Bft) S 185 ° 0 min 0,000 mm 0,0 UV-I 0 W/m² 14,4 °C 19,1 °C 3,2 km/h (1 Bft)
31.07.2017 22:32 19,1 °C 19,1 °C 74 % 1012,8 hPa 0,0 mm 1,4 km/h (1 Bft) S 185 ° 0 min 0,000 mm 0,0 UV-I 0 W/m² 14,4 °C 19,1 °C 3,2 km/h (1 Bft)
31.07.2017 22:33 19,1 °C 19,1 °C 72 % 1012,8 hPa 0,0 mm 3,0 km/h (1 Bft) S 185 ° 0 min 0,000 mm 0,0 UV-I 0 W/m² 13,9 °C 19,1 °C 3,2 km/h (1 Bft)
31.07.2017 22:34 19,1 °C 19,1 °C 72 % 1012,8 hPa 0,0 mm 3,6 km/h (1 Bft) S 185 ° 0 min 0,000 mm 0,0 UV-I 0 W/m² 13,9 °C 19,1 °C 4,8 km/h (1 Bft)
31.07.2017 22:35 19,2 °C 19,2 °C 71 % 1012,7 hPa 0,0 mm 2,7 km/h (1 Bft) S 185 ° 0 min 0,000 mm 0,0 UV-I 0 W/m² 13,8 °C 19,2 °C 3,2 km/h (1 Bft)
31.07.2017 22:36 19,2 °C 19,2 °C 71 % 1012,7 hPa 0,0 mm 2,6 km/h (1 Bft) S 185 ° 0 min 0,000 mm 0,0 UV-I 0 W/m² 13,8 °C 19,2 °C 3,2 km/h (1 Bft)
31.07.2017 22:37 19,2 °C 19,3 °C 71 % 1012,7 hPa 0,0 mm 3,0 km/h (1 Bft) S 185 ° 0 min 0,000 mm 0,0 UV-I 0 W/m² 13,8 °C 19,2 °C 3,2 km/h (1 Bft)
31.07.2017 22:38 19,3 °C 19,3 °C 71 % 1012,7 hPa 0,0 mm 0,9 km/h (0 Bft) S 185 ° 0 min 0,000 mm 0,0 UV-I 0 W/m² 13,9 °C 19,3 °C 3,2 km/h (1 Bft)
31.07.2017 22:39 19,3 °C 19,3 °C 71 % 1012,7 hPa 0,0 mm 1,4 km/h (1 Bft) S 185 ° 0 min 0,000 mm 0,0 UV-I 0 W/m² 13,9 °C 19,3 °C 3,2 km/h (1 Bft)
31.07.2017 22:40 19,3 °C 19,3 °C 71 % 1012,7 hPa 0,0 mm 2,0 km/h (1 Bft) S 185 ° 0 min 0,000 mm 0,0 UV-I 0 W/m² 13,9 °C 19,3 °C 3,2 km/h (1 Bft)
31.07.2017 22:41 19,3 °C 19,3 °C 71 % 1012,7 hPa 0,0 mm 3,2 km/h (1 Bft) S 185 ° 0 min 0,000 mm 0,0 UV-I 0 W/m² 13,9 °C 19,3 °C 4,8 km/h (1 Bft)
31.07.2017 22:42 19,2 °C 19,3 °C 72 % 1012,6 hPa 0,0 mm 2,7 km/h (1 Bft) S 185 ° 0 min 0,000 mm 0,0 UV-I 0 W/m² 14,0 °C 19,2 °C 3,2 km/h (1 Bft)
31.07.2017 22:43 19,0 °C 19,2 °C 72 % 1012,6 hPa 0,0 mm 0,8 km/h (0 Bft) S 185 ° 0 min 0,000 mm 0,0 UV-I 0 W/m² 13,8 °C 19,0 °C 1,6 km/h (1 Bft)
31.07.2017 22:44 18,8 °C 19,0 °C 73 % 1012,6 hPa 0,0 mm 2,1 km/h (1 Bft) S 185 ° 0 min 0,000 mm 0,0 UV-I 0 W/m² 13,9 °C 18,8 °C 3,2 km/h (1 Bft)
31.07.2017 22:45 18,7 °C 18,8 °C 75 % 1012,6 hPa 0,0 mm 0,0 km/h (0 Bft) S 185 ° 0 min 0,000 mm 0,0 UV-I 0 W/m² 14,2 °C 18,7 °C 0,0 km/h (0 Bft)
31.07.2017 22:46 18,5 °C 18,7 °C 76 % 1012,7 hPa 0,0 mm 0,0 km/h (0 Bft) S 185 ° 0 min 0,000 mm 0,0 UV-I 0 W/m² 14,2 °C 18,5 °C 0,0 km/h (0 Bft)
31.07.2017 22:47 18,3 °C 18,5 °C 76 % 1012,6 hPa 0,0 mm 0,3 km/h (0 Bft) S 185 ° 0 min 0,000 mm 0,0 UV-I 0 W/m² 14,0 °C 18,3 °C 1,6 km/h (1 Bft)
31.07.2017 22:48 18,3 °C 18,3 °C 75 % 1012,6 hPa 0,0 mm 0,0 km/h (0 Bft) S 185 ° 0 min 0,000 mm 0,0 UV-I 0 W/m² 13,8 °C 18,3 °C 0,0 km/h (0 Bft)
31.07.2017 22:49 18,3 °C 18,3 °C 75 % 1012,6 hPa 0,0 mm 0,0 km/h (0 Bft) S 185 ° 0 min 0,000 mm 0,0 UV-I 0 W/m² 13,8 °C 18,3 °C 0,0 km/h (0 Bft)
31.07.2017 22:50 18,3 °C 18,3 °C 77 % 1012,6 hPa 0,0 mm 0,0 km/h (0 Bft) S 185 ° 0 min 0,000 mm 0,0 UV-I 0 W/m² 14,2 °C 18,3 °C 0,0 km/h (0 Bft)
31.07.2017 22:51 18,3 °C 18,3 °C 74 % 1012,6 hPa 0,0 mm 0,0 km/h (0 Bft) S 185 ° 0 min 0,000 mm 0,0 UV-I 0 W/m² 13,6 °C 18,3 °C 0,0 km/h (0 Bft)
31.07.2017 22:52 18,3 °C 18,3 °C 74 % 1012,6 hPa 0,0 mm 0,0 km/h (0 Bft) S 185 ° 0 min 0,000 mm 0,0 UV-I 0 W/m² 13,6 °C 18,3 °C 0,0 km/h (0 Bft)
31.07.2017 22:53 18,4 °C 18,4 °C 74 % 1012,6 hPa 0,0 mm 0,0 km/h (0 Bft) S 185 ° 0 min 0,000 mm 0,0 UV-I 0 W/m² 13,7 °C 18,4 °C 0,0 km/h (0 Bft)
31.07.2017 22:54 18,3 °C 18,4 °C 75 % 1012,6 hPa 0,0 mm 0,0 km/h (0 Bft) S 185 ° 0 min 0,000 mm 0,0 UV-I 0 W/m² 13,8 °C 18,3 °C 0,0 km/h (0 Bft)
31.07.2017 22:55 18,2 °C 18,3 °C 74 % 1012,6 hPa 0,0 mm 0,0 km/h (0 Bft) S 185 ° 0 min 0,000 mm 0,0 UV-I 0 W/m² 13,5 °C 18,2 °C 0,0 km/h (0 Bft)
31.07.2017 22:56 18,3 °C 18,3 °C 74 % 1012,6 hPa 0,0 mm 0,0 km/h (0 Bft) S 185 ° 0 min 0,000 mm 0,0 UV-I 0 W/m² 13,6 °C 18,3 °C 0,0 km/h (0 Bft)
31.07.2017 22:57 18,2 °C 18,3 °C 75 % 1012,6 hPa 0,0 mm 0,0 km/h (0 Bft) S 185 ° 0 min 0,000 mm 0,0 UV-I 0 W/m² 13,7 °C 18,2 °C 0,0 km/h (0 Bft)
31.07.2017 22:58 18,2 °C 18,2 °C 75 % 1012,6 hPa 0,0 mm 0,0 km/h (0 Bft) S 185 ° 0 min 0,000 mm 0,0 UV-I 0 W/m² 13,7 °C 18,2 °C 0,0 km/h (0 Bft)
31.07.2017 22:59 18,1 °C 18,2 °C 76 % 1012,5 hPa 0,0 mm 0,0 km/h (0 Bft) S 185 ° 0 min 0,000 mm 0,0 UV-I 0 W/m² 13,8 °C 18,1 °C 0,0 km/h (0 Bft)
31.07.2017 23:00 18,1 °C 18,1 °C 77 % 1012,5 hPa 0,0 mm 0,0 km/h (0 Bft) S 185 ° 0 min 0,000 mm 0,0 UV-I 0 W/m² 14,0 °C 18,1 °C 0,0 km/h (0 Bft)
31.07.2017 23:01 17,9 °C 18,1 °C 78 % 1012,5 hPa 0,0 mm 0,0 km/h (0 Bft) S 185 ° 0 min 0,025 mm 0,0 UV-I 0 W/m² 14,0 °C 17,9 °C 0,0 km/h (0 Bft)
31.07.2017 23:02 17,9 °C 17,9 °C 78 % 1012,5 hPa 0,0 mm 0,0 km/h (0 Bft) S 185 ° 0 min 0,000 mm 0,0 UV-I 0 W/m² 14,0 °C 17,9 °C 0,0 km/h (0 Bft)
31.07.2017 23:03 17,8 °C 17,9 °C 78 % 1012,5 hPa 0,0 mm 0,0 km/h (0 Bft) S 185 ° 0 min 0,000 mm 0,0 UV-I 0 W/m² 13,9 °C 17,8 °C 0,0 km/h (0 Bft)
31.07.2017 23:04 17,8 °C 17,8 °C 78 % 1012,5 hPa 0,0 mm 0,0 km/h (0 Bft) S 185 ° 0 min 0,000 mm 0,0 UV-I 0 W/m² 13,9 °C 17,8 °C 0,0 km/h (0 Bft)
31.07.2017 23:05 17,8 °C 17,8 °C 78 % 1012,5 hPa 0,0 mm 0,0 km/h (0 Bft) S 185 ° 0 min 0,000 mm 0,0 UV-I 0 W/m² 13,9 °C 17,8 °C 0,0 km/h (0 Bft)
31.07.2017 23:06 17,7 °C 17,8 °C 77 % 1012,5 hPa 0,0 mm 0,0 km/h (0 Bft) S 185 ° 0 min 0,000 mm 0,0 UV-I 0 W/m² 13,6 °C 17,7 °C 0,0 km/h (0 Bft)
31.07.2017 23:07 17,8 °C 17,8 °C 76 % 1012,5 hPa 0,0 mm 0,0 km/h (0 Bft) S 185 ° 0 min 0,000 mm 0,0 UV-I 0 W/m² 13,5 °C 17,8 °C 0,0 km/h (0 Bft)
31.07.2017 23:08 17,8 °C 17,8 °C 76 % 1012,5 hPa 0,0 mm 0,0 km/h (0 Bft) S 185 ° 0 min 0,000 mm 0,0 UV-I 0 W/m² 13,5 °C 17,8 °C 0,0 km/h (0 Bft)
31.07.2017 23:09 17,8 °C 17,8 °C 76 % 1012,6 hPa 0,0 mm 0,0 km/h (0 Bft) S 185 ° 0 min 0,000 mm 0,0 UV-I 0 W/m² 13,5 °C 17,8 °C 0,0 km/h (0 Bft)
31.07.2017 23:10 17,9 °C 17,9 °C 75 % 1012,5 hPa 0,0 mm 0,0 km/h (0 Bft) S 185 ° 0 min 0,000 mm 0,0 UV-I 0 W/m² 13,4 °C 17,9 °C 0,0 km/h (0 Bft)
31.07.2017 23:11 17,9 °C 17,9 °C 75 % 1012,5 hPa 0,0 mm 0,0 km/h (0 Bft) S 185 ° 0 min 0,000 mm 0,0 UV-I 0 W/m² 13,4 °C 17,9 °C 0,0 km/h (0 Bft)
31.07.2017 23:12 17,9 °C 18,0 °C 76 % 1012,5 hPa 0,0 mm 0,0 km/h (0 Bft) S 185 ° 0 min 0,000 mm 0,0 UV-I 0 W/m² 13,6 °C 17,9 °C 0,0 km/h (0 Bft)
31.07.2017 23:13 17,9 °C 18,0 °C 76 % 1012,5 hPa 0,0 mm 0,0 km/h (0 Bft) S 185 ° 0 min 0,000 mm 0,0 UV-I 0 W/m² 13,6 °C 17,9 °C 0,0 km/h (0 Bft)
31.07.2017 23:14 17,9 °C 17,9 °C 78 % 1012,5 hPa 0,0 mm 0,0 km/h (0 Bft) S 185 ° 0 min 0,000 mm 0,0 UV-I 0 W/m² 14,0 °C 17,9 °C 0,0 km/h (0 Bft)
31.07.2017 23:15 17,8 °C 17,9 °C 78 % 1012,4 hPa 0,0 mm 0,0 km/h (0 Bft) S 185 ° 0 min 0,000 mm 0,0 UV-I 0 W/m² 13,9 °C 17,8 °C 0,0 km/h (0 Bft)
31.07.2017 23:16 17,8 °C 17,8 °C 78 % 1012,5 hPa 0,0 mm 0,0 km/h (0 Bft) S 185 ° 0 min 0,000 mm 0,0 UV-I 0 W/m² 13,9 °C 17,8 °C 0,0 km/h (0 Bft)
31.07.2017 23:17 17,8 °C 17,8 °C 78 % 1012,5 hPa 0,0 mm 1,0 km/h (0 Bft) W-SW 256 ° 0 min 0,000 mm 0,0 UV-I 0 W/m² 13,9 °C 17,8 °C 4,8 km/h (1 Bft)
31.07.2017 23:18 17,8 °C 17,8 °C 78 % 1012,5 hPa 0,0 mm 2,5 km/h (1 Bft) W-SW 256 ° 0 min 0,000 mm 0,0 UV-I 0 W/m² 13,9 °C 17,8 °C 3,2 km/h (1 Bft)
31.07.2017 23:19 17,7 °C 17,8 °C 78 % 1012,5 hPa 0,0 mm 0,1 km/h (0 Bft) W-SW 256 ° 0 min 0,000 mm 0,0 UV-I 0 W/m² 13,8 °C 17,7 °C 1,6 km/h (1 Bft)
31.07.2017 23:20 17,6 °C 17,7 °C 79 % 1012,5 hPa 0,0 mm 0,2 km/h (0 Bft) W-SW 256 ° 0 min 0,000 mm 0,0 UV-I 0 W/m² 13,9 °C 17,6 °C 1,6 km/h (1 Bft)
31.07.2017 23:21 17,5 °C 17,6 °C 79 % 1012,5 hPa 0,0 mm 0,0 km/h (0 Bft) W-SW 256 ° 0 min 0,000 mm 0,0 UV-I 0 W/m² 13,8 °C 17,5 °C 0,0 km/h (0 Bft)
31.07.2017 23:22 17,3 °C 17,5 °C 80 % 1012,5 hPa 0,0 mm 0,0 km/h (0 Bft) W-SW 256 ° 0 min 0,000 mm 0,0 UV-I 0 W/m² 13,8 °C 17,3 °C 0,0 km/h (0 Bft)
31.07.2017 23:23 17,3 °C 17,3 °C 80 % 1012,6 hPa 0,0 mm 0,0 km/h (0 Bft) W-SW 256 ° 0 min 0,000 mm 0,0 UV-I 0 W/m² 13,8 °C 17,3 °C 0,0 km/h (0 Bft)
31.07.2017 23:24 17,2 °C 17,3 °C 81 % 1012,6 hPa 0,0 mm 0,0 km/h (0 Bft) W-SW 256 ° 0 min 0,000 mm 0,0 UV-I 0 W/m² 13,9 °C 17,2 °C 0,0 km/h (0 Bft)
31.07.2017 23:25 17,2 °C 17,2 °C 81 % 1012,5 hPa 0,0 mm 0,0 km/h (0 Bft) W-SW 256 ° 0 min 0,000 mm 0,0 UV-I 0 W/m² 13,9 °C 17,2 °C 0,0 km/h (0 Bft)
31.07.2017 23:26 17,3 °C 17,3 °C 81 % 1012,6 hPa 0,0 mm 0,0 km/h (0 Bft) W-SW 255 ° 0 min 0,000 mm 0,0 UV-I 0 W/m² 14,0 °C 17,3 °C 0,0 km/h (0 Bft)
31.07.2017 23:27 17,4 °C 17,4 °C 81 % 1012,5 hPa 0,0 mm 1,4 km/h (1 Bft) W-SW 255 ° 0 min 0,000 mm 0,0 UV-I 0 W/m² 14,1 °C 17,4 °C 3,2 km/h (1 Bft)
31.07.2017 23:28 17,6 °C 17,6 °C 81 % 1012,6 hPa 0,0 mm 0,1 km/h (0 Bft) W-SW 255 ° 0 min 0,000 mm 0,0 UV-I 0 W/m² 14,3 °C 17,6 °C 1,6 km/h (1 Bft)
31.07.2017 23:29 17,7 °C 17,7 °C 81 % 1012,6 hPa 0,0 mm 0,0 km/h (0 Bft) W-SW 255 ° 0 min 0,000 mm 0,0 UV-I 0 W/m² 14,4 °C 17,7 °C 0,0 km/h (0 Bft)
31.07.2017 23:30 17,8 °C 17,8 °C 79 % 1012,5 hPa 0,0 mm 0,0 km/h (0 Bft) W-SW 255 ° 0 min 0,000 mm 0,0 UV-I 0 W/m² 14,1 °C 17,8 °C 0,0 km/h (0 Bft)
31.07.2017 23:31 17,8 °C 17,8 °C 79 % 1012,5 hPa 0,0 mm 0,0 km/h (0 Bft) W-SW 255 ° 0 min 0,000 mm 0,0 UV-I 0 W/m² 14,1 °C 17,8 °C 0,0 km/h (0 Bft)
31.07.2017 23:32 17,8 °C 17,8 °C 79 % 1012,5 hPa 0,0 mm 0,0 km/h (0 Bft) W-SW 255 ° 0 min 0,000 mm 0,0 UV-I 0 W/m² 14,1 °C 17,8 °C 0,0 km/h (0 Bft)
31.07.2017 23:33 17,9 °C 17,9 °C 77 % 1012,5 hPa 0,0 mm 0,0 km/h (0 Bft) W-SW 255 ° 0 min 0,000 mm 0,0 UV-I 0 W/m² 13,8 °C 17,9 °C 0,0 km/h (0 Bft)
31.07.2017 23:34 17,9 °C 17,9 °C 79 % 1012,5 hPa 0,0 mm 0,0 km/h (0 Bft) W-SW 255 ° 0 min 0,000 mm 0,0 UV-I 0 W/m² 14,2 °C 17,9 °C 0,0 km/h (0 Bft)
31.07.2017 23:35 17,9 °C 17,9 °C 79 % 1012,5 hPa 0,0 mm 0,0 km/h (0 Bft) W-SW 255 ° 0 min 0,000 mm 0,0 UV-I 0 W/m² 14,2 °C 17,9 °C 0,0 km/h (0 Bft)
31.07.2017 23:36 17,8 °C 17,9 °C 79 % 1012,4 hPa 0,0 mm 0,0 km/h (0 Bft) W-SW 255 ° 0 min 0,000 mm 0,0 UV-I 0 W/m² 14,1 °C 17,8 °C 0,0 km/h (0 Bft)
31.07.2017 23:37 17,7 °C 17,8 °C 79 % 1012,4 hPa 0,0 mm 0,0 km/h (0 Bft) W-SW 255 ° 0 min 0,000 mm 0,0 UV-I 0 W/m² 14,0 °C 17,7 °C 0,0 km/h (0 Bft)
31.07.2017 23:38 17,6 °C 17,7 °C 80 % 1012,5 hPa 0,0 mm 0,0 km/h (0 Bft) W-SW 255 ° 0 min 0,000 mm 0,0 UV-I 0 W/m² 14,1 °C 17,6 °C 0,0 km/h (0 Bft)
31.07.2017 23:39 17,5 °C 17,6 °C 80 % 1012,4 hPa 0,0 mm 0,0 km/h (0 Bft) W-SW 255 ° 0 min 0,000 mm 0,0 UV-I 0 W/m² 14,0 °C 17,5 °C 0,0 km/h (0 Bft)
31.07.2017 23:40 17,4 °C 17,5 °C 80 % 1012,4 hPa 0,0 mm 0,0 km/h (0 Bft) W-SW 255 ° 0 min 0,000 mm 0,0 UV-I 0 W/m² 13,9 °C 17,4 °C 0,0 km/h (0 Bft)
31.07.2017 23:41 17,4 °C 17,4 °C 81 % 1012,4 hPa 0,0 mm 0,0 km/h (0 Bft) W-SW 255 ° 0 min 0,000 mm 0,0 UV-I 0 W/m² 14,1 °C 17,4 °C 0,0 km/h (0 Bft)
31.07.2017 23:42 17,4 °C 17,4 °C 80 % 1012,4 hPa 0,0 mm 0,0 km/h (0 Bft) W-SW 255 ° 0 min 0,000 mm 0,0 UV-I 0 W/m² 13,9 °C 17,4 °C 0,0 km/h (0 Bft)
31.07.2017 23:43 17,4 °C 17,4 °C 80 % 1012,4 hPa 0,0 mm 0,0 km/h (0 Bft) W-SW 255 ° 0 min 0,000 mm 0,0 UV-I 0 W/m² 13,9 °C 17,4 °C 0,0 km/h (0 Bft)
31.07.2017 23:44 17,4 °C 17,4 °C 80 % 1012,4 hPa 0,0 mm 0,0 km/h (0 Bft) W-SW 255 ° 0 min 0,000 mm 0,0 UV-I 0 W/m² 13,9 °C 17,4 °C 0,0 km/h (0 Bft)
31.07.2017 23:45 17,4 °C 17,4 °C 80 % 1012,3 hPa 0,0 mm 0,0 km/h (0 Bft) W-SW 255 ° 0 min 0,000 mm 0,0 UV-I 0 W/m² 13,9 °C 17,4 °C 0,0 km/h (0 Bft)
31.07.2017 23:46 17,4 °C 17,5 °C 80 % 1012,4 hPa 0,0 mm 0,4 km/h (0 Bft) W-SW 255 ° 0 min 0,000 mm 0,0 UV-I 0 W/m² 13,9 °C 17,4 °C 1,6 km/h (1 Bft)
31.07.2017 23:47 17,4 °C 17,4 °C 81 % 1012,4 hPa 0,0 mm 0,0 km/h (0 Bft) W-SW 255 ° 0 min 0,000 mm 0,0 UV-I 0 W/m² 14,1 °C 17,4 °C 0,0 km/h (0 Bft)
31.07.2017 23:48 17,4 °C 17,4 °C 81 % 1012,4 hPa 0,0 mm 0,0 km/h (0 Bft) W-SW 255 ° 0 min 0,000 mm 0,0 UV-I 0 W/m² 14,1 °C 17,4 °C 0,0 km/h (0 Bft)
31.07.2017 23:49 17,4 °C 17,4 °C 81 % 1012,4 hPa 0,0 mm 0,0 km/h (0 Bft) W-SW 255 ° 0 min 0,000 mm 0,0 UV-I 0 W/m² 14,1 °C 17,4 °C 0,0 km/h (0 Bft)
31.07.2017 23:50 17,4 °C 17,4 °C 81 % 1012,4 hPa 0,0 mm 0,0 km/h (0 Bft) W-SW 255 ° 0 min 0,000 mm 0,0 UV-I 0 W/m² 14,1 °C 17,4 °C 0,0 km/h (0 Bft)
31.07.2017 23:51 17,4 °C 17,4 °C 80 % 1012,4 hPa 0,0 mm 0,0 km/h (0 Bft) W-SW 255 ° 0 min 0,000 mm 0,0 UV-I 0 W/m² 13,9 °C 17,4 °C 0,0 km/h (0 Bft)
31.07.2017 23:52 17,6 °C 17,6 °C 79 % 1012,4 hPa 0,0 mm 0,0 km/h (0 Bft) W-SW 255 ° 0 min 0,000 mm 0,0 UV-I 0 W/m² 13,9 °C 17,6 °C 0,0 km/h (0 Bft)
31.07.2017 23:53 17,7 °C 17,7 °C 79 % 1012,4 hPa 0,0 mm 2,3 km/h (1 Bft) W 269 ° 0 min 0,000 mm 0,0 UV-I 0 W/m² 14,0 °C 17,7 °C 4,8 km/h (1 Bft)
31.07.2017 23:54 17,8 °C 17,8 °C 79 % 1012,4 hPa 0,0 mm 3,3 km/h (1 Bft) SW 233 ° 0 min 0,000 mm 0,0 UV-I 0 W/m² 14,1 °C 17,8 °C 4,8 km/h (1 Bft)
31.07.2017 23:55 18,1 °C 18,1 °C 75 % 1012,3 hPa 0,0 mm 1,2 km/h (1 Bft) SW 233 ° 0 min 0,000 mm 0,0 UV-I 0 W/m² 13,6 °C 18,1 °C 3,2 km/h (1 Bft)
31.07.2017 23:56 18,4 °C 18,4 °C 72 % 1012,3 hPa 0,0 mm 3,1 km/h (1 Bft) S-SW 210 ° 0 min 0,000 mm 0,0 UV-I 0 W/m² 13,3 °C 18,4 °C 6,4 km/h (2 Bft)
31.07.2017 23:57 18,9 °C 18,9 °C 70 % 1012,4 hPa 0,0 mm 3,2 km/h (1 Bft) S-SW 207 ° 0 min 0,000 mm 0,0 UV-I 0 W/m² 13,3 °C 18,9 °C 6,4 km/h (2 Bft)
31.07.2017 23:58 19,3 °C 19,3 °C 70 % 1012,3 hPa 0,0 mm 3,0 km/h (1 Bft) S-SW 207 ° 0 min 0,000 mm 0,0 UV-I 0 W/m² 13,7 °C 19,3 °C 4,8 km/h (1 Bft)
31.07.2017 23:59 19,5 °C 19,5 °C 69 % 1012,3 hPa 0,0 mm 2,3 km/h (1 Bft) S-SW 207 ° 0 min 0,000 mm 0,0 UV-I 0 W/m² 13,7 °C 19,5 °C 3,2 km/h (1 Bft)
_ Min-Zeit 06:03 06:04 15:50 23:59 - 23:52 - - - - - - 00:38 06:03 23:52
Minimum _ 13,9 °C 14,0 °C 46 % 1012,3 hPa - 0,0 km/h (0 Bft) - - - - - - 12,1 °C 13,9 °C 0,0 km/h (0 Bft)
_ Max-Zeit 16:13 16:53 06:06 01:46 01:39 01:15 - - 12:03 13:01 12:51 12:52 16:28 16:13 01:14
Maximum _ 27,9 °C 27,9 °C 91 % 1015,9 hPa 0,2 mm 17,7 km/h
W-NW (3 Bft)
- - 2 min 0,534 mm 8,2 UV-I 1093 W/m² 19,4 °C 27,9 °C 27,4 km/h
W-SW (4 Bft)
Durchschnitt _ 20,8 °C 20,9 °C 71 % 1013,7 hPa #0,2 mm 2,2 km/h (1 Bft) O-NO - #7:42 h #3,302 mm 3,1 UV-I 196 W/m² 15,0 °C 20,8 °C 4,0 km/h (1 Bft)